# Wetter Temperatur Luftdruck Luftfeuchtigkeit Sichtweite Windgeschwindigkeit Windrichtung Zeit
1 Clouds 23 1019 64 10000 3.09 50 11:50 22.04.2021
2 Clouds 23 1019 64 10000 3.09 50 11:28 22.04.2021
3 Clouds 23 1019 64 10000 1.54 30 10:59 22.04.2021
4 Clouds 23 1019 64 10000 1.54 30 10:40 22.04.2021
5 Clouds 23 1019 64 10000 1.54 30 10:19 22.04.2021
6 Clouds 23 1018 69 10000 4.12 60 09:36 22.04.2021
7 Clouds 24 1017 61 10000 3.6 60 08:51 22.04.2021
8 Clouds 24 1017 61 10000 3.6 60 08:23 22.04.2021
9 Clouds 24 1017 57 10000 5.66 70 07:49 22.04.2021
10 Clouds 24 1017 57 10000 5.66 70 07:31 22.04.2021
11 Clouds 25 1016 54 10000 5.66 40 06:44 22.04.2021
12 Clouds 25 1016 54 10000 5.66 40 06:18 22.04.2021
13 Clouds 26 1015 51 10000 6.17 50 05:21 22.04.2021
14 Clouds 28 1016 40 10000 3.6 30 02:24 22.04.2021
15 Clouds 27 1018 57 10000 4.12 180 23:55 21.04.2021
16 Clouds 27 1018 57 10000 4.12 180 23:55 21.04.2021
17 Clouds 27 1018 57 10000 4.12 180 23:37 21.04.2021
18 Clouds 26 1019 61 10000 3.6 200 22:59 21.04.2021
19 Clouds 26 1019 61 10000 3.6 200 22:38 21.04.2021
20 Clouds 26 1019 61 10000 3.6 200 22:18 21.04.2021
21 Clouds 26 1019 57 10000 2.06 50 21:41 21.04.2021
22 Clouds 26 1019 57 10000 2.06 50 21:19 21.04.2021
23 Clouds 25 1018 69 10000 1.54 330 20:27 21.04.2021
24 Clouds 22 1018 78 10000 1.54 350 19:46 21.04.2021
25 Clouds 22 1018 78 10000 1.54 350 19:27 21.04.2021
26 Clouds 21 1017 83 10000 2.57 360 18:52 21.04.2021
27 Clouds 21 1017 83 10000 2.57 360 18:34 21.04.2021
28 Clouds 21 1017 78 10000 3.41 55 17:58 21.04.2021
29 Clouds 21 1017 78 10000 3.41 55 17:39 21.04.2021
30 Clouds 21 1017 78 10000 3.41 55 17:39 21.04.2021
31 Clouds 21 1017 78 10000 3.25 51 17:20 21.04.2021
32 Clouds 21 1017 73 10000 2.57 310 16:38 21.04.2021
33 Clouds 21 1017 73 10000 1.54 350 15:47 21.04.2021
34 Clouds 21 1017 73 10000 1.54 350 15:21 21.04.2021
35 Clouds 21 1017 68 10000 2.94 42 14:44 21.04.2021
36 Clouds 21 1017 68 10000 2.69 35 14:24 21.04.2021
37 Clouds 21 1017 68 10000 2.06 310 13:49 21.04.2021
38 Clouds 22 1017 68 10000 2.06 310 13:21 21.04.2021
39 Clouds 22 1017 68 10000 2.06 30 12:41 21.04.2021
40 Clouds 22 1017 68 10000 2.06 30 12:18 21.04.2021
41 Clouds 23 1018 64 10000 1.54 20 11:41 21.04.2021
42 Clouds 23 1018 64 10000 1.54 20 11:41 21.04.2021
43 Clouds 23 1018 64 10000 1.54 20 11:41 21.04.2021
44 Clouds 23 1018 64 10000 1.54 20 11:22 21.04.2021
45 Clouds 23 1018 60 10000 3.31 74 10:38 21.04.2021
46 Clouds 23 1017 64 10000 1.54 360 09:56 21.04.2021
47 Clouds 23 1017 64 10000 1.54 360 09:20 21.04.2021
48 Clouds 24 1017 61 10000 3.25 34 08:42 21.04.2021
49 Rain 24 1017 61 10000 3.32 29 08:23 21.04.2021
50 Rain 23 1016 57 10000 3.32 29 07:43 21.04.2021
51 Rain 24 1016 57 10000 4.25 7 07:21 21.04.2021
52 Rain 25 1016 65 10000 2.06 120 05:45 21.04.2021
53 Rain 26 1017 57 10000 7.2 230 01:50 21.04.2021
54 Clouds 28 1018 57 10000 6.17 230 00:19 21.04.2021
55 Clouds 27 1018 57 10000 5.14 210 23:38 20.04.2021
56 Clouds 27 1018 51 10000 1.54 0 22:45 20.04.2021
57 Clouds 27 1018 51 10000 1.54 0 22:23 20.04.2021
58 Clouds 25 1018 61 10000 1.54 330 21:48 20.04.2021
59 Clouds 25 1018 61 10000 1.54 330 21:27 20.04.2021
60 Clouds 24 1018 69 10000 1.54 300 20:58 20.04.2021
61 Clouds 24 1018 69 10000 1.54 300 20:38 20.04.2021
62 Clouds 24 1018 69 10000 1.54 300 20:38 20.04.2021
63 Clouds 25 1018 69 10000 1.54 300 20:18 20.04.2021
64 Clouds 23 1017 73 10000 1.54 340 19:42 20.04.2021
65 Clouds 23 1017 73 10000 1.54 340 19:24 20.04.2021
66 Clouds 21 1017 73 10000 2.57 330 18:39 20.04.2021
67 Clouds 22 1017 73 10000 1.48 312 17:55 20.04.2021
68 Clouds 22 1017 73 10000 1.48 312 17:37 20.04.2021
69 Clouds 22 1016 68 10000 2.06 40 16:50 20.04.2021
70 Clouds 22 1017 73 10000 1.36 304 15:53 20.04.2021
71 Clouds 22 1017 73 10000 1.39 302 15:29 20.04.2021
72 Clouds 22 1017 73 10000 2.06 340 14:58 20.04.2021
73 Clouds 22 1017 73 10000 2.06 340 14:35 20.04.2021
74 Clouds 22 1018 64 10000 1.08 301 13:53 20.04.2021
75 Clouds 23 1018 64 10000 1.38 300 13:24 20.04.2021
76 Clouds 23 1018 64 10000 1.38 300 12:44 20.04.2021
77 Clouds 23 1018 64 10000 1.53 319 12:22 20.04.2021
78 Clouds 23 1019 64 10000 1.53 319 11:45 20.04.2021
79 Clouds 23 1019 64 10000 1.24 317 11:21 20.04.2021
80 Clouds 23 1019 61 10000 2.06 20 10:44 20.04.2021
81 Clouds 23 1019 61 10000 2.06 20 10:23 20.04.2021
82 Clouds 24 1019 61 10000 2.06 260 09:36 20.04.2021
83 Clouds 24 1018 65 10000 1.54 270 08:56 20.04.2021
84 Clouds 24 1018 65 10000 1.54 270 08:22 20.04.2021
85 Clouds 24 1017 65 10000 2.06 220 07:48 20.04.2021
86 Clouds 25 1017 61 10000 2.57 190 06:47 20.04.2021
87 Clouds 26 1016 57 10000 1.54 0 05:40 20.04.2021
88 Clouds 27 1017 54 10000 4.12 200 04:42 20.04.2021
89 Clouds 28 1018 48 10000 3.09 190 01:48 20.04.2021
90 Clouds 28 1018 54 10000 2.06 0 00:37 20.04.2021
91 Clouds 28 1019 51 10000 2.57 170 23:36 19.04.2021
92 Clouds 27 1019 54 10000 3.09 0 22:57 19.04.2021
93 Clouds 27 1019 54 10000 3.09 0 22:33 19.04.2021
94 Clouds 26 1019 57 10000 2.06 80 21:50 19.04.2021
95 Clouds 25 1019 57 10000 2.06 80 21:28 19.04.2021
96 Clouds 24 1019 69 10000 1.54 10 20:46 19.04.2021
97 Clouds 23 1019 69 10000 1.54 10 20:24 19.04.2021
98 Clouds 22 1019 73 10000 1.54 10 19:58 19.04.2021
99 Clouds 22 1019 73 10000 1.54 10 19:39 19.04.2021
100 Clouds 21 1019 73 10000 1.54 10 19:18 19.04.2021
101 Clouds 21 1019 78 10000 2.06 20 18:44 19.04.2021
102 Clouds 21 1019 78 10000 2.06 20 18:21 19.04.2021
103 Rain 20 1018 78 10000 1.54 80 17:47 19.04.2021
104 Rain 20 1018 78 10000 1.54 80 17:26 19.04.2021
105 Clouds 20 1018 78 10000 1.54 20 16:45 19.04.2021
106 Clouds 20 1018 78 10000 1.54 20 16:26 19.04.2021
107 Clouds 21 1017 78 10000 1.54 340 15:44 19.04.2021
108 Clouds 21 1017 78 10000 1.54 340 15:24 19.04.2021
109 Clouds 21 1018 73 10000 1.54 360 14:52 19.04.2021
110 Clouds 21 1018 73 10000 1.54 360 14:32 19.04.2021
111 Clouds 21 1019 73 10000 1.54 10 13:53 19.04.2021
112 Clouds 21 1019 73 10000 1.54 10 13:28 19.04.2021
113 Clouds 22 1019 68 10000 2.57 30 12:48 19.04.2021
114 Clouds 22 1019 68 10000 2.57 30 12:27 19.04.2021
115 Clouds 22 1019 68 10000 4.12 70 11:59 19.04.2021
116 Clouds 22 1019 68 10000 4.12 70 11:27 19.04.2021
117 Clouds 22 1019 64 10000 3.09 70 10:55 19.04.2021
118 Clouds 22 1019 64 10000 3.09 70 10:36 19.04.2021
119 Clouds 22 1019 64 10000 3.09 70 10:18 19.04.2021
120 Clouds 22 1018 64 10000 4.63 70 09:39 19.04.2021
121 Clouds 23 1018 64 10000 4.63 70 09:21 19.04.2021
122 Clouds 23 1018 64 10000 2.06 20 08:32 19.04.2021
123 Clouds 22 1017 60 10000 7.2 60 07:49 19.04.2021
124 Clouds 22 1017 60 10000 7.2 60 07:21 19.04.2021
125 Clouds 23 1017 53 10000 6.69 80 06:45 19.04.2021
126 Clouds 26 1018 42 10000 7.2 40 02:41 19.04.2021
127 Clouds 26 1018 42 10000 6.17 50 01:40 19.04.2021
128 Clouds 26 1019 44 10000 6.17 50 00:33 19.04.2021
129 Clouds 25 1019 44 10000 5.14 30 23:19 18.04.2021
130 Clouds 26 1019 44 10000 6.17 40 22:53 18.04.2021
131 Clouds 25 1019 44 10000 6.17 40 22:31 18.04.2021
132 Clouds 25 1020 47 10000 5.14 30 21:45 18.04.2021
133 Clouds 24 1020 47 10000 5.14 30 21:23 18.04.2021
134 Clouds 23 1020 60 10000 4.63 40 20:41 18.04.2021
135 Clouds 23 1020 60 10000 4.63 40 20:21 18.04.2021
136 Clouds 22 1019 68 10000 5.11 54 19:56 18.04.2021
137 Clouds 22 1019 68 10000 4.53 48 19:35 18.04.2021
138 Clouds 21 1018 73 10000 3.09 20 18:56 18.04.2021
139 Clouds 20 1018 73 10000 3.09 20 18:31 18.04.2021
140 Clouds 20 1018 73 10000 1.54 0 17:59 18.04.2021
141 Clouds 21 1018 73 10000 1.54 0 17:41 18.04.2021
142 Clouds 20 1018 73 10000 1.54 0 17:23 18.04.2021
143 Clouds 20 1018 73 10000 3.09 330 16:41 18.04.2021
144 Clouds 20 1018 73 10000 3.09 330 16:18 18.04.2021
145 Clouds 20 1018 73 10000 2.06 320 15:39 18.04.2021
146 Clouds 21 1018 73 10000 2.06 320 15:20 18.04.2021
147 Clouds 21 1018 73 10000 2.06 300 14:42 18.04.2021
148 Clouds 20 1018 73 10000 2.06 300 14:19 18.04.2021
149 Clouds 21 1018 68 10000 3.87 42 13:53 18.04.2021
150 Clouds 21 1018 68 10000 4.28 45 13:30 18.04.2021
151 Clouds 21 1019 68 10000 4.28 45 12:43 18.04.2021
152 Clouds 21 1019 68 10000 4.29 49 12:20 18.04.2021
153 Clouds 21 1019 68 10000 4.29 49 11:41 18.04.2021
154 Clouds 21 1019 68 10000 4.45 52 11:20 18.04.2021
155 Clouds 22 1019 64 10000 2.06 30 10:45 18.04.2021
156 Clouds 22 1019 64 10000 2.06 30 10:19 18.04.2021
157 Clouds 22 1018 60 10000 5.66 50 09:41 18.04.2021
158 Clouds 22 1018 60 10000 5.66 50 09:23 18.04.2021
159 Clouds 22 1017 60 10000 5.14 50 08:47 18.04.2021
160 Clouds 22 1017 60 10000 5.14 50 08:28 18.04.2021
161 Clouds 22 1017 64 10000 5.66 50 07:41 18.04.2021
162 Clouds 23 1016 53 10000 6.69 50 06:56 18.04.2021
163 Clouds 25 1016 50 10000 7.72 50 05:27 18.04.2021
164 Clouds 25 1016 47 10000 8.75 50 04:44 18.04.2021
165 Rain 25 1016 47 10000 7.72 60 02:23 18.04.2021
166 Clouds 25 1017 50 10000 6.17 30 00:58 18.04.2021
167 Rain 24 1018 53 10000 4.63 40 23:57 17.04.2021
168 Rain 24 1018 53 10000 4.63 40 23:24 17.04.2021
169 Rain 23 1018 60 10000 4.12 20 22:44 17.04.2021
170 Rain 23 1018 60 10000 4.12 20 22:22 17.04.2021
171 Rain 22 1017 60 10000 3.09 0 21:44 17.04.2021
172 Rain 23 1017 60 10000 3.09 0 21:22 17.04.2021
173 Rain 22 1017 68 10000 2.57 330 20:37 17.04.2021
174 Rain 21 1017 68 10000 2.57 330 20:19 17.04.2021
175 Clouds 20 1017 73 10000 2.57 350 19:39 17.04.2021
176 Rain 20 1017 73 10000 2.57 350 19:19 17.04.2021
177 Rain 19 1016 73 10000 2.57 30 18:46 17.04.2021
178 Clouds 19 1016 73 10000 2.57 30 18:21 17.04.2021
179 Rain 20 1016 73 10000 2.57 330 17:41 17.04.2021
180 Rain 19 1015 77 10000 2.57 310 16:56 17.04.2021
181 Rain 19 1015 77 10000 2.57 310 16:34 17.04.2021
182 Clouds 19 1015 73 10000 2.06 350 15:58 17.04.2021
183 Rain 19 1016 77 10000 3.09 15 14:51 17.04.2021
184 Clouds 19 1016 77 10000 3.09 15 14:33 17.04.2021
185 Clouds 20 1016 73 10000 2.06 350 13:59 17.04.2021
186 Clouds 20 1016 73 10000 2.06 350 13:40 17.04.2021
187 Rain 20 1017 68 10000 2.06 360 12:42 17.04.2021
188 Rain 20 1017 68 10000 2.06 360 12:22 17.04.2021
189 Clouds 21 1017 68 10000 2.57 340 11:50 17.04.2021
190 Clouds 21 1017 68 10000 2.57 340 11:31 17.04.2021
191 Clouds 21 1017 68 10000 2.06 360 10:47 17.04.2021
192 Clouds 21 1017 68 10000 2.06 360 10:29 17.04.2021
193 Clouds 21 1017 64 10000 2.73 26 09:44 17.04.2021
194 Clouds 21 1016 64 10000 2.57 40 08:42 17.04.2021
195 Clouds 21 1016 64 10000 2.57 40 08:24 17.04.2021
196 Clouds 22 1016 60 10000 2.57 30 07:20 17.04.2021
197 Clouds 24 1015 53 10000 4.12 210 03:57 17.04.2021
198 Clouds 24 1015 53 10000 4.12 210 03:38 17.04.2021
199 Clouds 25 1017 53 10000 4.63 160 00:49 17.04.2021
200 Clouds 25 1017 53 10000 4.63 160 00:29 17.04.2021
201 Clouds 25 1017 53 10000 4.12 180 23:48 16.04.2021
202 Clouds 25 1017 53 10000 4.12 180 23:25 16.04.2021
203 Clouds 25 1018 47 10000 2.06 110 22:50 16.04.2021
204 Clouds 26 1018 47 10000 2.06 110 22:21 16.04.2021
205 Clouds 24 1018 57 10000 2.06 360 21:51 16.04.2021
206 Clouds 24 1018 57 10000 2.06 360 21:30 16.04.2021
207 Clouds 23 1018 64 10000 2.57 320 20:50 16.04.2021
208 Clouds 22 1018 64 10000 2.57 320 20:25 16.04.2021
209 Clouds 21 1017 77 10000 2.57 340 19:54 16.04.2021
210 Clouds 21 1017 77 10000 2.57 340 19:29 16.04.2021
211 Clouds 19 1017 82 10000 2.57 320 18:40 16.04.2021
212 Clouds 19 1017 82 10000 2.57 320 18:19 16.04.2021
213 Clouds 19 1016 77 10000 3.09 330 17:38 16.04.2021
214 Clouds 19 1016 77 10000 3.09 330 17:19 16.04.2021
215 Clouds 20 1016 77 10000 2.06 330 16:42 16.04.2021
216 Clouds 20 1016 77 10000 2.06 330 16:23 16.04.2021
217 Clouds 20 1017 73 10000 2.06 330 15:44 16.04.2021
218 Clouds 20 1017 73 10000 2.06 330 15:18 16.04.2021
219 Clouds 20 1017 73 10000 1.54 310 14:42 16.04.2021
220 Clouds 20 1017 73 10000 1.54 310 14:18 16.04.2021
221 Clouds 20 1018 73 10000 2.57 320 13:42 16.04.2021
222 Clouds 20 1018 73 10000 2.57 320 13:20 16.04.2021
223 Clouds 21 1018 68 10000 2.57 330 12:47 16.04.2021
224 Clouds 21 1018 68 10000 2.57 330 12:27 16.04.2021
225 Clouds 21 1018 68 10000 2.57 330 12:27 16.04.2021
226 Clouds 21 1019 60 10000 2.06 350 11:49 16.04.2021
227 Clouds 21 1019 60 10000 2.06 350 11:26 16.04.2021
228 Clouds 21 1019 60 10000 2.06 350 11:26 16.04.2021
229 Clouds 21 1019 60 10000 2.57 30 10:48 16.04.2021
230 Clouds 21 1019 60 10000 2.57 30 10:26 16.04.2021
231 Clouds 22 1018 60 10000 3.6 20 09:52 16.04.2021
232 Clouds 22 1018 60 10000 3.6 20 09:24 16.04.2021
233 Clouds 21 1018 60 10000 4.63 10 08:46 16.04.2021
234 Clouds 22 1018 60 10000 4.63 10 08:28 16.04.2021
235 Clouds 22 1017 56 10000 6.17 30 07:52 16.04.2021
236 Clouds 22 1017 56 10000 6.17 30 07:33 16.04.2021
237 Clouds 22 1017 57 10000 6.17 50 06:56 16.04.2021
238 Clouds 24 1016 50 10000 6.17 30 05:33 16.04.2021
239 Clouds 24 1016 50 10000 6.17 30 05:33 16.04.2021
240 Clouds 25 1016 50 10000 7.72 50 04:19 16.04.2021
241 Clouds 26 1018 36 10000 4.12 10 00:50 16.04.2021
242 Clouds 26 1018 36 10000 4.12 10 00:23 16.04.2021
243 Clouds 26 1019 41 10000 5.14 50 23:59 15.04.2021
244 Clouds 26 1019 41 10000 5.14 50 23:35 15.04.2021
245 Clouds 25 1020 44 10000 4.63 40 22:53 15.04.2021
246 Clouds 25 1020 44 10000 4.63 40 22:26 15.04.2021
247 Clouds 25 1020 47 10000 4.63 30 21:56 15.04.2021
248 Clouds 25 1020 47 10000 4.63 30 21:37 15.04.2021
249 Clouds 25 1020 47 10000 4.63 30 21:19 15.04.2021
250 Clouds 23 1020 57 10000 2.57 10 20:40 15.04.2021
251 Clouds 23 1020 57 10000 2.57 10 20:20 15.04.2021
252 Clouds 21 1019 73 10000 4.92 63 19:42 15.04.2021
253 Clouds 21 1019 73 10000 4.77 61 19:23 15.04.2021
254 Clouds 20 1019 64 10000 2.57 350 18:41 15.04.2021
255 Clouds 20 1019 64 10000 2.57 350 18:20 15.04.2021
256 Clouds 20 1018 68 10000 3.6 60 17:54 15.04.2021
257 Clouds 20 1018 68 10000 3.6 60 17:36 15.04.2021
258 Clouds 21 1018 60 10000 2.57 60 16:47 15.04.2021
259 Clouds 21 1018 60 10000 2.57 60 16:25 15.04.2021
260 Clouds 21 1018 60 10000 4.12 50 15:52 15.04.2021
261 Clouds 21 1018 60 10000 4.12 50 15:31 15.04.2021
262 Clouds 21 1019 68 10000 2.06 10 14:57 15.04.2021
263 Rain 21 1019 68 10000 2.06 10 14:38 15.04.2021
264 Rain 21 1019 68 10000 2.06 10 14:19 15.04.2021
265 Clouds 21 1019 64 10000 3.09 50 13:41 15.04.2021
266 Clouds 22 1020 60 10000 6.17 50 12:59 15.04.2021
267 Clouds 22 1020 60 10000 6.17 50 12:38 15.04.2021
268 Clouds 22 1020 60 10000 6.17 50 12:20 15.04.2021
269 Clouds 22 1020 60 10000 6.17 50 12:20 15.04.2021
270 Clouds 22 1020 64 10000 5.14 60 11:42 15.04.2021
271 Clouds 22 1020 64 10000 5.14 60 11:22 15.04.2021
272 Clouds 22 1019 64 10000 4.12 50 10:46 15.04.2021
273 Clouds 22 1019 64 10000 4.12 50 10:26 15.04.2021
274 Clouds 21 1019 64 10000 2.57 40 09:35 15.04.2021
275 Clouds 21 1019 64 10000 3.09 30 08:54 15.04.2021
276 Clouds 21 1019 64 10000 3.09 30 08:54 15.04.2021
277 Clouds 21 1019 64 10000 3.09 30 08:36 15.04.2021
278 Clouds 22 1018 64 10000 4.12 40 07:48 15.04.2021
279 Clouds 22 1018 64 10000 4.12 40 07:20 15.04.2021
280 Clouds 23 1018 60 10000 6.69 10 06:36 15.04.2021
281 Clouds 24 1017 50 10000 6.17 30 05:47 15.04.2021
282 Clouds 25 1017 44 10000 7.72 40 03:59 15.04.2021
283 Clouds 26 1019 42 10000 5.66 40 00:23 15.04.2021
284 Clouds 25 1020 41 10000 4.63 40 23:36 14.04.2021
285 Clouds 25 1020 47 10000 5.14 20 22:59 14.04.2021
286 Clouds 25 1020 47 10000 5.14 20 22:41 14.04.2021
287 Clouds 25 1020 47 10000 5.14 20 22:20 14.04.2021
288 Clouds 24 1020 57 10000 4.12 60 21:42 14.04.2021
289 Clouds 24 1020 57 10000 4.12 60 21:22 14.04.2021
290 Clouds 23 1020 64 10000 3.09 300 20:48 14.04.2021
291 Clouds 23 1020 64 10000 3.09 300 20:29 14.04.2021
292 Clouds 21 1019 77 10000 2.06 300 19:48 14.04.2021
293 Clouds 20 1019 77 10000 2.06 300 19:19 14.04.2021
294 Clouds 20 1019 77 10000 2.06 300 19:19 14.04.2021
295 Clouds 19 1019 77 10000 2.06 10 18:55 14.04.2021
296 Clouds 19 1019 77 10000 2.06 10 18:21 14.04.2021
297 Clouds 20 1018 73 10000 2.06 340 17:57 14.04.2021
298 Clouds 20 1018 73 10000 2.06 340 17:24 14.04.2021
299 Clouds 20 1018 73 10000 2.06 290 16:48 14.04.2021
300 Clouds 20 1018 73 10000 2.06 290 16:24 14.04.2021
301 Clouds 20 1018 64 10000 5.51 50 15:41 14.04.2021
302 Clouds 20 1018 64 10000 5.84 48 15:22 14.04.2021
303 Clouds 20 1018 64 10000 5.84 48 15:22 14.04.2021
304 Clouds 20 1018 64 10000 3.09 40 14:44 14.04.2021
305 Clouds 20 1018 64 10000 3.09 40 14:23 14.04.2021
306 Clouds 20 1018 64 10000 3.09 30 13:53 14.04.2021
307 Clouds 21 1019 60 10000 3.09 20 13:00 14.04.2021
308 Clouds 21 1019 60 10000 3.09 20 12:36 14.04.2021
309 Clouds 21 1019 60 10000 3.09 20 12:36 14.04.2021
310 Clouds 21 1019 60 10000 3.6 30 11:43 14.04.2021
311 Clouds 21 1019 60 10000 3.6 30 11:24 14.04.2021
312 Clouds 21 1018 64 10000 3.09 30 10:35 14.04.2021
313 Clouds 21 1018 56 10000 5.14 30 09:59 14.04.2021
314 Clouds 21 1018 56 10000 5.14 30 09:41 14.04.2021
315 Clouds 21 1018 56 10000 5.14 30 09:19 14.04.2021
316 Clouds 21 1018 56 10000 4.63 30 08:34 14.04.2021
317 Clouds 21 1017 56 10000 4.63 40 07:56 14.04.2021
318 Clouds 22 1016 53 10000 7.2 30 06:46 14.04.2021
319 Clouds 22 1016 53 10000 7.2 30 06:23 14.04.2021
320 Clouds 25 1015 41 10000 5.66 30 03:58 14.04.2021
321 Clouds 25 1016 39 10000 6.69 40 01:41 14.04.2021
322 Clouds 25 1017 41 10000 6.69 50 00:34 14.04.2021
323 Rain 25 1018 41 10000 4.12 40 23:39 13.04.2021
324 Clouds 25 1018 44 10000 5.14 50 22:58 13.04.2021
325 Clouds 25 1018 44 10000 5.14 50 22:40 13.04.2021
326 Clouds 25 1018 44 10000 5.14 50 22:18 13.04.2021
327 Clouds 24 1017 50 10000 5.66 30 21:44 13.04.2021
328 Clouds 24 1017 50 10000 5.66 30 21:23 13.04.2021
329 Clouds 22 1017 60 10000 1.54 0 20:40 13.04.2021
330 Clouds 22 1017 60 10000 1.54 0 20:20 13.04.2021
331 Clouds 21 1016 73 10000 2.57 20 19:27 13.04.2021
332 Clouds 20 1016 73 10000 2.57 360 18:59 13.04.2021
333 Clouds 20 1016 73 10000 2.57 360 18:35 13.04.2021
334 Clouds 20 1015 77 10000 2.06 290 17:45 13.04.2021
335 Clouds 20 1015 77 10000 2.06 290 17:23 13.04.2021
336 Clouds 20 1015 73 10000 1.54 340 16:57 13.04.2021
337 Clouds 20 1015 73 10000 1.54 340 16:39 13.04.2021
338 Clouds 20 1015 73 10000 1.54 340 16:19 13.04.2021
339 Clouds 20 1015 73 10000 2.57 340 15:40 13.04.2021
340 Clouds 20 1016 73 10000 3.6 340 14:59 13.04.2021
341 Clouds 20 1016 73 10000 3.6 340 14:38 13.04.2021
342 Clouds 20 1016 73 10000 3.6 340 14:18 13.04.2021
343 Clouds 20 1016 73 10000 2.06 320 13:41 13.04.2021
344 Clouds 20 1016 73 10000 2.06 320 13:22 13.04.2021
345 Clouds 21 1016 68 10000 1.54 40 12:52 13.04.2021
346 Rain 21 1016 68 10000 1.54 40 12:23 13.04.2021
347 Rain 21 1016 68 10000 2.06 30 11:44 13.04.2021
348 Clouds 21 1016 68 10000 2.06 30 11:18 13.04.2021
349 Clouds 21 1016 68 10000 6.88 48 10:41 13.04.2021
350 Clouds 21 1016 68 10000 6.97 48 10:20 13.04.2021
351 Clouds 22 1015 64 10000 6.97 48 09:52 13.04.2021
352 Clouds 21 1015 64 10000 7.21 48 09:26 13.04.2021
353 Clouds 22 1015 60 10000 3.09 40 08:47 13.04.2021
354 Clouds 22 1015 60 10000 3.09 40 08:24 13.04.2021
355 Clouds 22 1014 60 10000 4.63 10 07:48 13.04.2021
356 Clouds 22 1014 60 10000 4.63 10 07:26 13.04.2021
357 Clouds 23 1013 50 10000 5.66 30 06:24 13.04.2021
358 Clouds 26 1013 39 10000 4.12 20 03:44 13.04.2021
359 Clouds 25 1014 44 10000 5.14 80 01:32 13.04.2021
360 Clouds 25 1015 47 10000 5.66 70 23:52 12.04.2021
361 Clouds 25 1015 47 10000 5.66 70 23:32 12.04.2021
362 Clouds 24 1015 50 10000 2.57 0 22:53 12.04.2021
363 Clouds 24 1015 50 10000 2.57 0 22:33 12.04.2021
364 Clouds 24 1015 50 10000 2.57 0 22:33 12.04.2021
365 Clouds 24 1015 64 10000 2.06 320 21:48 12.04.2021
366 Clouds 24 1015 64 10000 2.06 320 21:25 12.04.2021
367 Clouds 22 1015 73 10000 2.57 350 20:58 12.04.2021
368 Clouds 21 1015 73 10000 2.57 350 20:36 12.04.2021
369 Clouds 21 1015 73 10000 2.57 350 20:18 12.04.2021
370 Clouds 20 1014 82 10000 3.09 330 19:39 12.04.2021
371 Clouds 19 1014 82 10000 3.09 330 19:21 12.04.2021
372 Clouds 19 1014 82 10000 3.09 330 19:21 12.04.2021
373 Clouds 19 1013 82 10000 1.54 330 18:48 12.04.2021
374 Clouds 19 1013 82 10000 1.54 330 18:30 12.04.2021
375 Clouds 18 1013 88 10000 3.75 37 17:58 12.04.2021
376 Clouds 18 1013 88 10000 3.75 37 17:37 12.04.2021
377 Clouds 18 1013 88 10000 3.28 33 17:19 12.04.2021
378 Clouds 19 1013 82 10000 1.54 340 16:37 12.04.2021
379 Clouds 19 1013 82 10000 1.54 340 16:18 12.04.2021
380 Clouds 19 1013 82 10000 2.06 340 15:33 12.04.2021
381 Rain 19 1014 82 10000 2.06 310 14:56 12.04.2021
382 Rain 19 1014 82 10000 2.06 310 14:37 12.04.2021
383 Clouds 19 1014 82 10000 2.06 310 14:18 12.04.2021
384 Clouds 19 1014 82 10000 2.06 260 13:40 12.04.2021
385 Clouds 19 1014 82 10000 2.06 260 13:18 12.04.2021
386 Clouds 20 1014 77 10000 2.57 340 12:43 12.04.2021
387 Clouds 20 1014 77 10000 2.57 340 12:22 12.04.2021
388 Rain 20 1015 73 10000 3.09 340 11:27 12.04.2021
389 Rain 20 1015 73 10000 3.6 340 10:51 12.04.2021
390 Clouds 20 1015 73 10000 3.6 340 10:28 12.04.2021
391 Clouds 20 1014 68 10000 2.06 340 09:52 12.04.2021
392 Clouds 21 1014 68 10000 2.06 340 09:23 12.04.2021
393 Clouds 20 1014 68 10000 2.57 360 08:49 12.04.2021
394 Rain 21 1013 64 10000 4.12 350 07:53 12.04.2021
395 Clouds 21 1013 64 10000 4.12 350 07:29 12.04.2021
396 Clouds 22 1013 53 10000 4.63 10 06:29 12.04.2021
397 Clouds 24 1012 50 10000 5.14 20 05:45 12.04.2021
398 Clouds 23 1013 73 10000 2.06 250 02:26 12.04.2021
399 Rain 22 1015 78 10000 1.54 150 00:27 12.04.2021
400 Rain 22 1015 73 8047 5.66 60 23:51 11.04.2021
401 Clouds 24 1014 47 10000 4.12 170 23:31 11.04.2021
402 Clouds 24 1015 53 10000 1.54 0 22:49 11.04.2021
403 Clouds 23 1015 53 10000 1.54 0 22:27 11.04.2021
404 Clouds 23 1015 56 10000 1.54 0 21:58 11.04.2021
405 Clouds 23 1015 56 10000 1.54 0 21:32 11.04.2021
406 Clouds 21 1015 64 10000 3.09 340 20:59 11.04.2021
407 Clouds 21 1015 64 10000 3.09 340 20:39 11.04.2021
408 Clouds 21 1015 64 10000 3.09 340 20:20 11.04.2021
409 Clouds 20 1015 73 10000 4.12 330 19:40 11.04.2021
410 Clouds 20 1015 73 10000 4.12 330 19:19 11.04.2021
411 Clouds 20 1015 73 10000 4.12 330 19:19 11.04.2021
412 Clouds 20 1014 68 10000 2.06 350 18:47 11.04.2021
413 Clouds 20 1014 68 10000 2.06 350 18:26 11.04.2021
414 Clouds 20 1014 73 10000 4.12 340 17:50 11.04.2021
415 Clouds 20 1014 73 10000 4.12 340 17:30 11.04.2021
416 Clouds 20 1014 73 10000 4.12 340 17:30 11.04.2021
417 Clouds 20 1014 73 10000 4.12 340 17:30 11.04.2021
418 Clouds 19 1014 73 10000 3.09 340 16:59 11.04.2021
419 Clouds 19 1014 73 10000 3.09 340 16:40 11.04.2021
420 Clouds 19 1014 73 10000 3.09 340 16:20 11.04.2021
421 Clouds 19 1014 68 10000 3.6 340 15:42 11.04.2021
422 Clouds 19 1014 68 10000 3.6 340 15:22 11.04.2021
423 Clouds 20 1015 68 10000 3.09 310 14:49 11.04.2021
424 Clouds 20 1015 68 10000 3.09 310 14:19 11.04.2021
425 Clouds 20 1015 64 10000 2.06 350 13:40 11.04.2021
426 Clouds 20 1015 64 10000 2.06 350 13:22 11.04.2021
427 Clouds 20 1016 60 10000 1.54 20 12:26 11.04.2021
428 Clouds 21 1016 56 10000 2.96 39 11:53 11.04.2021
429 Clouds 21 1016 56 10000 2.96 39 11:33 11.04.2021
430 Clouds 21 1016 56 10000 2.57 10 10:58 11.04.2021
431 Clouds 21 1016 56 10000 2.57 10 10:39 11.04.2021
432 Clouds 21 1016 56 10000 2.57 10 10:20 11.04.2021
433 Clouds 21 1016 56 10000 2.57 20 09:40 11.04.2021
434 Clouds 21 1016 56 10000 2.57 20 09:22 11.04.2021
435 Clouds 21 1015 56 10000 2.57 10 08:39 11.04.2021
436 Clouds 22 1014 53 10000 3.6 40 07:38 11.04.2021
437 Clouds 22 1014 53 10000 3.6 40 07:19 11.04.2021
438 Clouds 23 1014 50 10000 2.57 130 05:46 11.04.2021
439 Clouds 23 1014 50 10000 2.57 130 05:22 11.04.2021
440 Clouds 23 1014 53 10000 4.63 190 04:35 11.04.2021
441 Clouds 24 1014 50 10000 5.66 230 03:20 11.04.2021
442 Clouds 24 1016 47 10000 3.09 170 00:49 11.04.2021
443 Clouds 24 1016 47 10000 3.09 170 00:25 11.04.2021
444 Clouds 24 1017 50 10000 2.57 180 23:33 10.04.2021
445 Clouds 24 1017 44 10000 3.09 350 22:54 10.04.2021
446 Clouds 25 1017 44 10000 3.09 350 22:25 10.04.2021
447 Clouds 23 1017 50 10000 5.14 30 21:52 10.04.2021
448 Clouds 23 1017 50 10000 5.14 30 21:23 10.04.2021
449 Clouds 22 1017 60 10000 1.54 310 20:53 10.04.2021
450 Clouds 21 1017 60 10000 1.54 310 20:32 10.04.2021
451 Clouds 20 1017 73 10000 2.06 310 19:46 10.04.2021
452 Clouds 20 1017 73 10000 2.06 310 19:28 10.04.2021
453 Clouds 20 1016 68 10000 2.06 340 18:54 10.04.2021
454 Clouds 20 1016 68 10000 2.06 340 18:35 10.04.2021
455 Clouds 20 1016 68 10000 2.06 30 17:54 10.04.2021
456 Rain 20 1016 68 10000 2.06 30 17:34 10.04.2021
457 Clouds 20 1016 73 10000 3.09 40 16:31 10.04.2021
458 Clouds 20 1016 68 10000 2.57 30 15:56 10.04.2021
459 Clouds 20 1016 68 10000 2.57 30 15:35 10.04.2021
460 Clouds 20 1017 64 10000 5.65 63 14:50 10.04.2021
461 Clouds 20 1017 64 10000 5.93 67 14:25 10.04.2021
462 Clouds 20 1017 64 10000 2.06 350 13:47 10.04.2021
463 Clouds 20 1017 64 10000 2.06 350 13:28 10.04.2021
464 Clouds 20 1018 64 10000 6.21 65 12:37 10.04.2021
465 Clouds 20 1018 64 10000 2.06 20 11:52 10.04.2021
466 Clouds 20 1018 64 10000 2.06 20 11:28 10.04.2021
467 Clouds 21 1018 60 10000 3.6 30 10:57 10.04.2021
468 Clouds 21 1018 60 10000 3.6 30 10:39 10.04.2021
469 Clouds 21 1018 60 10000 3.6 30 10:21 10.04.2021
470 Clouds 21 1018 60 10000 3.09 20 09:29 10.04.2021
471 Clouds 21 1017 60 10000 3.09 40 08:54 10.04.2021
472 Clouds 21 1017 60 10000 3.09 40 08:30 10.04.2021
473 Clouds 22 1017 60 10000 4.63 60 07:52 10.04.2021
474 Clouds 22 1017 60 10000 4.63 60 07:21 10.04.2021
475 Rain 22 1016 57 10000 6.69 50 06:27 10.04.2021
476 Clouds 24 1015 47 10000 8.23 60 04:42 10.04.2021
477 Clouds 24 1016 44 10000 7.2 30 02:54 10.04.2021
478 Clouds 24 1016 44 10000 7.2 30 02:35 10.04.2021
479 Clouds 25 1018 44 10000 7.72 40 00:50 10.04.2021
480 Clouds 25 1018 44 10000 7.72 40 00:29 10.04.2021
481 Clouds 25 1018 39 10000 5.66 50 23:44 09.04.2021
482 Clouds 25 1018 39 10000 5.66 50 23:19 09.04.2021
483 Clouds 25 1019 41 10000 5.14 60 22:42 09.04.2021
484 Clouds 25 1019 41 10000 5.14 60 22:24 09.04.2021
485 Clouds 23 1019 53 10000 4.63 50 21:39 09.04.2021
486 Clouds 23 1019 53 10000 4.63 50 21:19 09.04.2021
487 Clouds 22 1019 56 10000 1.54 320 20:44 09.04.2021
488 Clouds 22 1019 56 10000 1.54 320 20:23 09.04.2021
489 Clouds 20 1019 64 10000 1.54 20 19:56 09.04.2021
490 Clouds 20 1019 64 10000 1.54 20 19:37 09.04.2021
491 Clouds 21 1019 64 10000 1.54 20 19:19 09.04.2021
492 Clouds 19 1018 72 10000 6 49 18:41 09.04.2021
493 Clouds 19 1018 72 10000 6.49 53 18:19 09.04.2021
494 Clouds 20 1018 72 10000 6.49 53 17:40 09.04.2021
495 Rain 20 1018 64 10000 7.06 51 16:56 09.04.2021
496 Rain 20 1018 64 10000 7.06 51 16:36 09.04.2021
497 Rain 20 1018 60 10000 2.06 50 15:57 09.04.2021
498 Rain 20 1018 60 10000 2.06 50 15:37 09.04.2021
499 Clouds 20 1018 60 10000 2.06 50 15:18 09.04.2021
500 Clouds 21 1018 60 10000 2.57 40 14:40 09.04.2021
501 Clouds 20 1019 64 10000 2.57 360 13:53 09.04.2021
502 Clouds 20 1019 64 10000 2.57 360 13:26 09.04.2021
503 Clouds 21 1019 56 10000 2.57 0 12:54 09.04.2021
504 Clouds 21 1019 56 10000 2.57 0 12:36 09.04.2021
505 Clouds 21 1019 60 10000 4.12 50 11:46 09.04.2021
506 Clouds 21 1019 60 10000 4.12 50 11:23 09.04.2021
507 Clouds 21 1019 60 10000 4.12 50 11:23 09.04.2021
508 Clouds 21 1019 60 10000 3.6 30 10:47 09.04.2021
509 Clouds 21 1019 60 10000 3.6 30 10:29 09.04.2021
510 Clouds 21 1019 60 10000 5.14 50 09:49 09.04.2021
511 Clouds 21 1019 60 10000 5.14 50 09:22 09.04.2021
512 Clouds 21 1018 60 10000 2.57 40 08:51 09.04.2021
513 Clouds 22 1018 53 10000 4.12 40 07:38 09.04.2021
514 Clouds 22 1017 53 10000 6.17 40 06:34 09.04.2021
515 Clouds 23 1017 50 10000 8.23 40 05:56 09.04.2021
516 Clouds 24 1017 41 10000 8.23 40 03:53 09.04.2021
517 Clouds 25 1019 44 10000 9.26 40 01:35 09.04.2021
518 Clouds 24 1019 41 10000 6.17 30 00:37 09.04.2021
519 Clouds 24 1019 41 10000 6.17 30 00:19 09.04.2021
520 Clouds 24 1020 44 10000 5.14 40 23:21 08.04.2021
521 Clouds 24 1020 47 10000 6.69 70 22:43 08.04.2021
522 Clouds 24 1020 47 10000 6.69 70 22:22 08.04.2021
523 Rain 23 1020 46 10000 6.17 40 21:55 08.04.2021
524 Rain 23 1020 46 10000 6.17 40 21:55 08.04.2021
525 Rain 23 1020 46 10000 6.17 40 21:55 08.04.2021
526 Rain 23 1020 46 10000 6.17 40 21:36 08.04.2021
527 Rain 23 1020 46 10000 6.17 40 21:18 08.04.2021
528 Clouds 22 1020 49 10000 3.6 50 20:49 08.04.2021
529 Clouds 22 1020 49 10000 3.6 50 20:26 08.04.2021
530 Clouds 21 1019 52 10000 3.09 40 19:45 08.04.2021
531 Clouds 20 1019 52 10000 3.09 40 19:19 08.04.2021
532 Clouds 20 1018 56 10000 3.09 20 18:45 08.04.2021
533 Clouds 20 1018 56 10000 3.09 20 18:20 08.04.2021
534 Clouds 20 1018 60 10000 4.63 40 17:49 08.04.2021
535 Clouds 20 1018 60 10000 4.63 40 17:24 08.04.2021
536 Clouds 20 1017 64 10000 1.54 40 16:49 08.04.2021
537 Clouds 20 1017 64 10000 1.54 40 16:28 08.04.2021
538 Clear 20 1018 64 10000 4.63 40 15:47 08.04.2021
539 Clear 20 1018 64 10000 4.63 40 15:28 08.04.2021
540 Clouds 20 1018 68 10000 4.12 60 14:45 08.04.2021
541 Clouds 20 1018 68 10000 4.12 60 14:25 08.04.2021
542 Clouds 21 1019 60 10000 3.6 40 13:56 08.04.2021
543 Clouds 21 1019 60 10000 3.6 40 13:38 08.04.2021
544 Clouds 21 1019 60 10000 3.6 40 13:19 08.04.2021
545 Clouds 21 1019 60 10000 3.6 40 13:19 08.04.2021
546 Clouds 21 1019 64 10000 3.6 60 12:38 08.04.2021
547 Rain 21 1019 64 10000 3.6 40 11:59 08.04.2021
548 Rain 21 1019 64 10000 3.6 40 11:41 08.04.2021
549 Rain 21 1019 64 10000 6.17 60 10:57 08.04.2021
550 Rain 21 1019 64 10000 6.17 60 10:28 08.04.2021
551 Clouds 21 1019 68 10000 3.6 20 09:51 08.04.2021
552 Rain 21 1019 68 10000 3.6 20 09:33 08.04.2021
553 Rain 21 1018 56 10000 4.12 40 08:45 08.04.2021
554 Rain 21 1018 56 10000 4.12 40 08:25 08.04.2021
555 Rain 21 1017 56 10000 6.69 50 07:53 08.04.2021
556 Clouds 22 1017 53 10000 7.72 50 06:55 08.04.2021
557 Clouds 23 1017 47 10000 8.23 40 02:34 08.04.2021
558 Rain 24 1019 47 10000 6.17 60 00:34 08.04.2021
559 Clouds 23 1019 50 10000 7.2 40 23:55 07.04.2021
560 Clouds 24 1019 50 10000 7.2 40 23:37 07.04.2021
561 Clouds 23 1019 50 10000 7.2 40 23:18 07.04.2021
562 Clouds 22 1019 64 10000 5.66 90 22:43 07.04.2021
563 Clouds 22 1019 64 10000 5.66 90 22:22 07.04.2021
564 Clouds 22 1019 64 10000 5.66 90 22:22 07.04.2021
565 Clouds 22 1019 64 10000 5.66 90 22:22 07.04.2021
566 Rain 21 1019 68 10000 5.66 40 21:41 07.04.2021
567 Rain 21 1019 68 10000 5.66 40 21:20 07.04.2021
568 Clouds 21 1019 60 10000 5.14 50 20:41 07.04.2021
569 Rain 21 1019 60 10000 5.14 50 20:20 07.04.2021
570 Rain 20 1018 68 10000 4.63 60 19:42 07.04.2021
571 Clouds 20 1018 68 10000 4.63 60 19:22 07.04.2021
572 Clouds 20 1018 73 10000 2.06 40 18:42 07.04.2021
573 Clouds 20 1018 73 10000 2.06 40 18:19 07.04.2021
574 Rain 20 1017 68 10000 5.66 60 17:50 07.04.2021
575 Rain 20 1017 68 10000 5.66 60 17:32 07.04.2021
576 Rain 20 1017 64 10000 5.14 70 16:48 07.04.2021
577 Rain 20 1017 64 10000 5.14 70 16:22 07.04.2021
578 Clouds 21 1017 53 10000 4.12 40 15:56 07.04.2021
579 Clouds 21 1017 53 10000 4.12 40 15:38 07.04.2021
580 Clouds 21 1018 53 10000 3.6 50 14:50 07.04.2021
581 Clouds 21 1018 53 10000 3.6 50 14:25 07.04.2021
582 Clouds 20 1018 60 10000 2.57 40 13:46 07.04.2021
583 Clouds 20 1018 60 10000 2.57 40 13:21 07.04.2021
584 Rain 20 1019 64 10000 2.06 10 12:48 07.04.2021
585 Rain 20 1019 64 10000 2.06 10 12:21 07.04.2021
586 Clouds 21 1019 60 10000 4.63 70 11:45 07.04.2021
587 Clouds 21 1019 60 10000 4.63 70 11:24 07.04.2021
588 Clouds 21 1019 56 10000 3.6 50 10:50 07.04.2021
589 Clouds 21 1019 56 10000 5.66 50 09:55 07.04.2021
590 Clouds 21 1019 56 10000 5.66 50 09:37 07.04.2021
591 Clouds 21 1019 56 10000 5.66 50 09:19 07.04.2021
592 Clouds 21 1018 60 10000 5.14 60 08:33 07.04.2021
593 Clouds 21 1018 60 10000 4.63 40 07:56 07.04.2021
594 Clouds 21 1018 60 10000 4.63 40 07:29 07.04.2021
595 Clouds 22 1017 46 10000 6.17 50 06:59 07.04.2021
596 Clouds 22 1017 46 10000 6.17 50 06:18 07.04.2021
597 Clouds 24 1017 41 10000 6.69 40 03:35 07.04.2021
598 Clouds 24 1020 44 10000 7.72 40 23:52 06.04.2021
599 Clouds 24 1020 44 10000 7.72 40 23:23 06.04.2021
600 Clouds 23 1020 50 10000 8.75 40 22:59 06.04.2021
601 Clouds 23 1020 50 10000 8.75 40 22:22 06.04.2021
602 Clouds 22 1020 50 10000 9.26 50 21:57 06.04.2021
603 Clouds 22 1020 50 10000 9.26 50 21:39 06.04.2021
604 Clouds 22 1020 50 10000 9.26 50 21:20 06.04.2021
605 Clouds 21 1019 53 10000 5.66 50 20:50 06.04.2021
606 Clouds 21 1019 53 10000 5.66 50 20:21 06.04.2021
607 Clouds 20 1019 60 10000 7.2 50 19:49 06.04.2021
608 Clouds 20 1019 60 10000 7.2 50 19:30 06.04.2021
609 Clouds 20 1018 60 10000 2.06 20 18:47 06.04.2021
610 Clouds 20 1018 60 10000 2.06 20 18:24 06.04.2021
611 Rain 20 1018 60 10000 4.63 50 17:51 06.04.2021
612 Rain 20 1018 60 10000 4.63 50 17:29 06.04.2021
613 Clouds 20 1018 64 10000 3.6 70 16:55 06.04.2021
614 Clouds 20 1018 64 10000 3.6 70 16:37 06.04.2021
615 Rain 20 1018 64 10000 7.72 50 15:31 06.04.2021
616 Rain 21 1018 64 10000 6.69 60 14:58 06.04.2021
617 Rain 21 1018 64 10000 6.69 60 14:39 06.04.2021
618 Rain 21 1018 64 10000 6.69 60 14:39 06.04.2021
619 Rain 21 1018 64 10000 6.69 60 14:18 06.04.2021
620 Rain 21 1019 68 10000 8.75 50 13:41 06.04.2021
621 Rain 21 1019 68 10000 8.75 50 13:23 06.04.2021
622 Clouds 21 1019 68 10000 9.26 50 12:41 06.04.2021
623 Clouds 21 1019 68 10000 9.26 50 12:22 06.04.2021
624 Clouds 22 1020 56 10000 6.69 60 11:49 06.04.2021
625 Clouds 22 1020 56 10000 6.69 60 11:21 06.04.2021
626 Clouds 22 1020 60 10000 7.72 50 10:47 06.04.2021
627 Clouds 22 1020 60 10000 7.72 50 10:27 06.04.2021
628 Clouds 21 1019 64 10000 6.17 50 09:49 06.04.2021
629 Clouds 21 1019 64 10000 6.17 50 09:29 06.04.2021
630 Clouds 22 1019 53 10000 6.69 40 08:43 06.04.2021
631 Clear 22 1019 56 10000 7.2 50 07:59 06.04.2021
632 Clouds 22 1018 53 10000 8.75 50 06:55 06.04.2021
633 Clouds 24 1018 53 10000 10.29 60 05:40 06.04.2021
634 Clouds 24 1018 50 10000 9.26 40 02:54 06.04.2021
635 Clouds 25 1019 47 10000 8.75 50 00:44 06.04.2021
636 Clouds 25 1019 47 10000 8.75 50 00:21 06.04.2021
637 Clouds 24 1020 50 10000 9.26 40 23:42 05.04.2021
638 Clouds 24 1020 50 10000 9.26 40 23:19 05.04.2021
639 Clouds 24 1020 53 10000 9.26 50 22:48 05.04.2021
640 Clouds 24 1020 53 10000 9.26 50 22:25 05.04.2021
641 Clouds 24 1020 57 10000 8.75 60 21:43 05.04.2021
642 Clouds 24 1020 57 10000 8.75 60 21:20 05.04.2021
643 Clouds 23 1020 60 10000 6.17 70 20:42 05.04.2021
644 Clouds 23 1020 60 10000 6.17 70 20:23 05.04.2021
645 Clouds 21 1020 68 10000 4.12 80 19:42 05.04.2021
646 Clouds 21 1020 68 10000 4.12 80 19:20 05.04.2021
647 Clouds 21 1019 68 10000 3.6 90 18:49 05.04.2021
648 Clouds 21 1019 68 10000 3.6 90 18:31 05.04.2021
649 Clouds 21 1019 68 10000 1.54 90 17:57 05.04.2021
650 Rain 21 1019 68 10000 1.54 90 17:37 05.04.2021
651 Rain 21 1019 68 10000 1.54 90 17:18 05.04.2021
652 Clear 21 1019 68 10000 3.6 50 16:41 05.04.2021
653 Clear 21 1019 68 10000 3.6 50 16:19 05.04.2021
654 Rain 21 1019 68 10000 2.57 20 15:48 05.04.2021
655 Rain 21 1019 68 10000 2.57 20 15:27 05.04.2021
656 Clouds 21 1019 68 10000 5.14 80 14:36 05.04.2021
657 Rain 21 1020 64 10000 3.6 70 13:59 05.04.2021
658 Rain 21 1020 64 10000 3.6 70 13:31 05.04.2021
659 Clouds 21 1020 68 10000 5.14 80 12:48 05.04.2021
660 Clouds 21 1020 68 10000 5.14 80 12:26 05.04.2021
661 Clouds 21 1020 68 10000 5.14 80 12:26 05.04.2021
662 Rain 21 1020 64 10000 6.69 60 11:53 05.04.2021
663 Rain 21 1020 64 10000 6.69 60 11:32 05.04.2021
664 Clouds 22 1020 64 10000 5.14 80 10:57 05.04.2021
665 Clouds 22 1020 64 10000 5.14 80 10:36 05.04.2021
666 Rain 22 1020 64 10000 3.6 50 09:49 05.04.2021
667 Rain 22 1020 64 10000 3.6 50 09:26 05.04.2021
668 Clouds 21 1019 73 10000 6.17 80 08:59 05.04.2021
669 Rain 21 1019 73 10000 6.17 80 08:37 05.04.2021
670 Rain 21 1019 73 10000 6.17 80 08:19 05.04.2021
671 Clouds 22 1018 68 10000 4.63 70 07:33 05.04.2021
672 Clouds 22 1017 53 10000 9.26 60 04:23 05.04.2021
673 Clouds 23 1018 53 10000 8.75 40 01:34 05.04.2021
674 Clouds 23 1019 57 10000 10.8 50 00:20 05.04.2021
675 Clouds 23 1020 61 10000 7.72 30 23:37 04.04.2021
676 Clouds 23 1020 61 10000 7.72 30 23:18 04.04.2021
677 Clouds 21 1020 64 10000 5.14 70 22:45 04.04.2021
678 Rain 21 1020 64 10000 5.14 70 22:26 04.04.2021
679 Rain 21 1020 64 10000 5.14 50 21:23 04.04.2021
680 Rain 20 1020 68 10000 5.14 30 20:47 04.04.2021
681 Rain 20 1020 68 10000 5.14 30 20:23 04.04.2021
682 Rain 20 1019 78 10000 3.09 20 19:42 04.04.2021
683 Rain 20 1019 78 10000 3.09 20 19:20 04.04.2021
684 Rain 20 1018 73 10000 2.06 10 18:56 04.04.2021
685 Rain 20 1018 73 10000 2.06 10 18:36 04.04.2021
686 Rain 20 1018 73 10000 2.06 10 18:18 04.04.2021
687 Rain 20 1018 73 10000 6.17 30 17:25 04.04.2021
688 Rain 21 1018 68 10000 2.57 40 16:57 04.04.2021
689 Rain 20 1017 73 10000 3.6 360 16:39 04.04.2021
690 Clouds 20 1017 73 10000 3.6 40 15:56 04.04.2021
691 Clouds 20 1017 73 10000 3.6 40 15:32 04.04.2021
692 Rain 20 1018 73 10000 5.66 80 14:42 04.04.2021
693 Rain 20 1018 73 10000 5.66 80 14:24 04.04.2021
694 Clouds 21 1018 68 10000 4.63 80 13:27 04.04.2021
695 Rain 21 1018 64 10000 3.6 60 12:52 04.04.2021
696 Rain 21 1018 64 10000 3.6 60 12:28 04.04.2021
697 Rain 21 1018 64 10000 5.66 70 11:50 04.04.2021
698 Rain 21 1018 64 10000 5.66 70 11:30 04.04.2021
699 Rain 22 1018 64 10000 4.63 60 10:54 04.04.2021
700 Rain 22 1018 64 10000 4.63 60 10:32 04.04.2021
701 Clouds 22 1018 60 10000 8.75 40 09:50 04.04.2021
702 Clouds 22 1018 60 10000 8.75 40 09:23 04.04.2021
703 Clouds 22 1017 64 10000 8.23 60 08:48 04.04.2021
704 Clouds 22 1017 64 10000 8.23 60 08:30 04.04.2021
705 Clouds 23 1017 60 10000 8.75 60 06:40 04.04.2021
706 Clouds 24 1016 53 10000 8.23 50 05:44 04.04.2021
707 Clouds 24 1016 53 10000 8.23 50 05:44 04.04.2021
708 Rain 25 1016 50 10000 8.23 30 02:59 04.04.2021
709 Clouds 25 1018 50 10000 8.23 40 00:55 04.04.2021
710 Clouds 25 1018 50 10000 8.23 40 00:18 04.04.2021
711 Clouds 25 1018 50 10000 8.23 50 23:41 03.04.2021
712 Clouds 24 1018 53 10000 6.17 70 22:56 03.04.2021
713 Clouds 24 1018 53 10000 6.17 70 22:38 03.04.2021
714 Clouds 24 1018 53 10000 6.17 70 22:19 03.04.2021
715 Clouds 23 1017 60 10000 4.63 50 21:46 03.04.2021
716 Clouds 23 1017 60 10000 4.63 50 21:22 03.04.2021
717 Clouds 22 1017 64 10000 3.6 60 20:40 03.04.2021
718 Clouds 22 1017 64 10000 3.6 60 20:20 03.04.2021
719 Clouds 21 1016 68 10000 2.06 20 19:43 03.04.2021
720 Clouds 21 1016 68 10000 2.06 20 19:19 03.04.2021
721 Clouds 21 1016 68 10000 2.06 30 18:45 03.04.2021
722 Clouds 21 1016 68 10000 2.06 30 18:18 03.04.2021
723 Clouds 21 1015 68 10000 1.54 10 17:41 03.04.2021
724 Clouds 21 1015 68 10000 1.54 10 17:21 03.04.2021
725 Clear 21 1015 68 10000 2.06 30 16:43 03.04.2021
726 Clear 21 1015 68 10000 2.06 30 16:21 03.04.2021
727 Clouds 21 1016 68 10000 2.06 30 15:46 03.04.2021
728 Clouds 21 1016 68 10000 2.06 30 15:21 03.04.2021
729 Clouds 21 1016 68 10000 2.06 30 14:42 03.04.2021
730 Clouds 21 1016 68 10000 2.06 30 14:20 03.04.2021
731 Clouds 21 1017 68 10000 2.06 360 13:46 03.04.2021
732 Clouds 21 1017 68 10000 2.06 360 13:21 03.04.2021
733 Clouds 21 1017 68 10000 2.57 20 12:47 03.04.2021
734 Clouds 21 1017 68 10000 2.57 20 12:20 03.04.2021
735 Clouds 22 1017 64 10000 2.57 40 11:35 03.04.2021
736 Clouds 22 1017 64 10000 3.09 30 10:50 03.04.2021
737 Clouds 22 1017 64 10000 3.09 30 10:31 03.04.2021
738 Rain 22 1016 64 10000 2.57 30 09:51 03.04.2021
739 Rain 22 1016 64 10000 2.57 30 09:28 03.04.2021
740 Clouds 22 1015 64 10000 4.12 60 08:44 03.04.2021
741 Clouds 22 1015 64 10000 4.12 60 08:26 03.04.2021
742 Clouds 22 1015 68 10000 4.12 30 07:28 03.04.2021
743 Rain 23 1014 61 10000 7.72 50 05:43 03.04.2021
744 Clouds 24 1014 61 10000 5.66 30 03:35 03.04.2021
745 Clouds 25 1015 54 10000 5.66 50 02:38 03.04.2021
746 Clouds 25 1015 54 10000 5.66 30 01:56 03.04.2021
747 Clouds 26 1016 54 10000 3.6 40 00:20 03.04.2021
748 Clouds 25 1016 53 10000 6.17 90 23:47 02.04.2021
749 Clouds 25 1016 53 10000 6.17 90 23:24 02.04.2021
750 Clouds 24 1016 53 10000 4.12 70 22:50 02.04.2021
751 Clouds 25 1016 53 10000 4.12 70 22:32 02.04.2021
752 Clouds 23 1016 60 10000 4.63 30 21:42 02.04.2021
753 Clouds 23 1016 60 10000 4.63 30 21:23 02.04.2021
754 Clouds 23 1016 60 10000 5.14 40 20:48 02.04.2021
755 Clouds 23 1016 60 10000 5.14 40 20:27 02.04.2021
756 Clouds 22 1016 68 10000 2.06 20 19:56 02.04.2021
757 Clouds 22 1016 68 10000 2.06 20 19:37 02.04.2021
758 Clouds 21 1016 68 10000 2.06 20 19:19 02.04.2021
759 Clouds 21 1015 68 10000 2.06 20 18:38 02.04.2021
760 Clouds 21 1015 68 10000 2.06 20 18:19 02.04.2021
761 Clear 21 1014 68 10000 2.57 20 17:37 02.04.2021
762 Clouds 21 1014 68 10000 4.12 60 16:48 02.04.2021
763 Clouds 22 1014 68 10000 3.09 80 15:54 02.04.2021
764 Clouds 22 1014 68 10000 3.09 80 15:32 02.04.2021
765 Clouds 22 1015 64 10000 2.57 30 14:45 02.04.2021
766 Clouds 22 1015 64 10000 2.57 30 14:21 02.04.2021
767 Clouds 22 1015 64 10000 3.09 40 13:41 02.04.2021
768 Clouds 22 1015 64 10000 3.09 40 13:19 02.04.2021
769 Clouds 22 1016 64 10000 3.09 30 12:40 02.04.2021
770 Clouds 22 1016 64 10000 3.09 30 12:20 02.04.2021
771 Clouds 22 1016 64 10000 3.09 30 12:19 02.04.2021
772 Clouds 22 1016 64 10000 4.63 60 11:49 02.04.2021
773 Clouds 22 1016 64 10000 4.63 60 11:19 02.04.2021
774 Clouds 22 1016 68 10000 4.63 50 10:44 02.04.2021
775 Clouds 22 1016 68 10000 4.63 50 10:25 02.04.2021
776 Clouds 22 1016 68 10000 3.09 70 09:52 02.04.2021
777 Clouds 22 1016 68 10000 3.09 70 09:26 02.04.2021
778 Clouds 22 1015 64 10000 3.09 30 08:46 02.04.2021
779 Clouds 22 1015 64 10000 3.09 30 08:27 02.04.2021
780 Clouds 22 1015 60 10000 2.06 30 07:22 02.04.2021
781 Clouds 24 1014 57 10000 4.12 20 06:40 02.04.2021
782 Clouds 26 1014 47 10000 5.66 30 03:54 02.04.2021
783 Clouds 26 1015 47 10000 6.69 40 02:19 02.04.2021
784 Clouds 26 1017 51 10000 4.12 40 00:44 02.04.2021
785 Rain 25 1017 54 10000 5.66 60 23:48 01.04.2021
786 Rain 26 1017 54 10000 5.66 60 23:27 01.04.2021
787 Clouds 25 1017 50 10000 6.69 40 22:50 01.04.2021
788 Clouds 25 1017 50 10000 6.69 40 22:18 01.04.2021
789 Clouds 25 1017 57 10000 5.14 50 21:44 01.04.2021
790 Clouds 24 1017 57 10000 5.14 50 21:23 01.04.2021
791 Clouds 23 1017 64 10000 3.6 30 20:41 01.04.2021
792 Clouds 23 1017 64 10000 3.6 30 20:22 01.04.2021
793 Clouds 22 1016 73 10000 2.06 30 19:41 01.04.2021
794 Clouds 22 1016 73 10000 2.06 30 19:20 01.04.2021
795 Rain 22 1016 73 10000 4.63 50 18:44 01.04.2021
796 Rain 22 1016 73 10000 4.63 50 18:18 01.04.2021
797 Rain 21 1015 78 10000 2.57 60 17:41 01.04.2021
798 Rain 21 1015 78 10000 2.57 60 17:23 01.04.2021
799 Rain 22 1015 68 10000 2.57 50 16:50 01.04.2021
800 Rain 22 1015 68 10000 2.57 50 16:18 01.04.2021
801 Rain 22 1015 68 10000 2.57 50 16:18 01.04.2021
802 Rain 22 1015 73 10000 3.6 60 15:40 01.04.2021
803 Rain 22 1015 73 10000 3.6 60 15:19 01.04.2021
804 Rain 22 1016 73 10000 3.09 60 14:39 01.04.2021
805 Rain 22 1016 73 10000 3.09 60 14:39 01.04.2021
806 Rain 22 1016 73 10000 3.09 60 14:20 01.04.2021
807 Rain 22 1017 73 10000 3.09 70 13:49 01.04.2021
808 Clouds 22 1017 73 10000 3.09 70 13:29 01.04.2021
809 Clouds 22 1017 73 10000 3.09 60 12:47 01.04.2021
810 Clouds 22 1017 73 10000 3.09 60 12:29 01.04.2021
811 Rain 22 1017 73 10000 5.14 40 11:45 01.04.2021
812 Rain 22 1017 73 10000 5.14 40 11:20 01.04.2021
813 Rain 23 1018 69 10000 5.66 50 10:50 01.04.2021
814 Rain 23 1018 69 10000 5.66 50 10:31 01.04.2021
815 Clouds 23 1017 69 10000 2.57 20 09:52 01.04.2021
816 Clouds 23 1017 69 10000 2.57 20 09:23 01.04.2021
817 Clouds 23 1017 69 10000 3.6 70 08:33 01.04.2021
818 Clouds 23 1016 64 10000 4.12 70 07:24 01.04.2021
819 Clouds 24 1016 57 10000 4.63 30 06:59 01.04.2021
820 Clouds 24 1016 57 10000 4.63 30 06:30 01.04.2021
821 Clouds 26 1015 51 10000 8.75 40 03:26 01.04.2021
822 Clouds 27 1017 54 10000 7.2 30 00:38 01.04.2021
823 Clouds 26 1017 51 10000 6.17 30 23:44 31.03.2021
824 Clouds 26 1017 57 10000 4.63 20 22:58 31.03.2021
825 Clouds 26 1017 57 10000 4.63 20 22:39 31.03.2021
826 Clouds 25 1017 57 10000 4.63 20 22:20 31.03.2021
827 Clouds 24 1017 65 10000 3.6 80 21:44 31.03.2021
828 Clouds 24 1017 65 10000 3.6 80 21:20 31.03.2021
829 Clouds 24 1017 69 10000 2.57 30 20:42 31.03.2021
830 Clouds 24 1017 69 10000 2.57 30 20:23 31.03.2021
831 Clouds 22 1016 78 10000 2.06 10 19:46 31.03.2021
832 Clouds 22 1016 78 10000 2.06 10 19:25 31.03.2021
833 Clouds 21 1016 83 10000 2.57 340 18:59 31.03.2021
834 Clouds 21 1016 83 10000 2.57 340 18:41 31.03.2021
835 Clouds 21 1016 83 10000 1.54 300 17:51 31.03.2021
836 Clouds 21 1016 83 10000 1.54 300 17:31 31.03.2021
837 Clouds 22 1015 78 10000 3.13 80 16:56 31.03.2021
838 Clouds 22 1015 78 10000 3.13 80 16:37 31.03.2021
839 Clouds 22 1015 78 10000 3.49 78 16:18 31.03.2021
840 Clouds 22 1016 78 10000 1.54 100 15:43 31.03.2021
841 Clouds 22 1016 78 10000 1.54 100 15:19 31.03.2021
842 Clouds 22 1016 73 10000 3.09 60 14:42 31.03.2021
843 Clouds 22 1016 73 10000 3.09 60 14:20 31.03.2021
844 Clouds 22 1016 73 10000 2.06 90 13:39 31.03.2021
845 Clouds 22 1017 73 10000 3.6 70 12:42 31.03.2021
846 Clouds 22 1017 73 10000 3.6 70 12:20 31.03.2021
847 Clouds 22 1017 68 10000 4.63 70 11:41 31.03.2021
848 Clouds 22 1017 68 10000 4.63 70 11:20 31.03.2021
849 Clouds 23 1017 64 10000 4.63 60 10:46 31.03.2021
850 Clouds 23 1017 64 10000 4.63 60 10:24 31.03.2021
851 Clouds 23 1017 64 10000 4.63 50 09:38 31.03.2021
852 Clear 23 1016 69 10000 4.12 60 08:54 31.03.2021
853 Clear 23 1016 69 10000 4.12 60 08:33 31.03.2021
854 Clouds 23 1015 64 10000 6.17 60 07:43 31.03.2021
855 Clouds 24 1014 57 10000 7.2 60 06:36 31.03.2021
856 Clouds 25 1014 47 10000 8.23 60 03:46 31.03.2021
857 Clouds 27 1015 54 10000 6.17 60 00:55 31.03.2021
858 Clouds 27 1015 54 10000 6.17 60 00:27 31.03.2021
859 Clouds 26 1015 54 10000 6.69 50 23:59 30.03.2021
860 Clouds 26 1015 54 10000 6.69 50 23:28 30.03.2021
861 Clouds 25 1016 61 10000 5.66 80 22:56 30.03.2021
862 Clouds 25 1016 61 10000 5.66 80 22:56 30.03.2021
863 Clouds 25 1016 61 10000 5.66 80 22:38 30.03.2021
864 Clouds 25 1016 61 10000 5.66 80 22:19 30.03.2021
865 Clouds 24 1016 61 10000 4.63 60 21:42 30.03.2021
866 Clouds 24 1016 61 10000 4.63 60 21:19 30.03.2021
867 Clouds 24 1015 65 10000 4.12 70 20:48 30.03.2021
868 Clouds 23 1015 65 10000 4.12 70 20:27 30.03.2021
869 Clouds 22 1014 78 10000 3.47 55 19:48 30.03.2021
870 Clouds 22 1014 78 10000 3.21 57 19:22 30.03.2021
871 Clouds 22 1014 83 10000 3.21 57 18:34 30.03.2021
872 Clouds 22 1013 78 10000 1.54 310 17:51 30.03.2021
873 Clouds 22 1013 78 10000 1.54 310 17:32 30.03.2021
874 Clouds 22 1013 78 10000 2.06 310 16:48 30.03.2021
875 Clouds 21 1013 78 10000 2.06 310 16:28 30.03.2021
876 Clouds 22 1014 78 10000 2.08 67 15:43 30.03.2021
877 Clouds 22 1014 78 10000 2.17 67 15:20 30.03.2021
878 Clouds 21 1014 78 10000 1.54 330 14:46 30.03.2021
879 Rain 22 1014 78 10000 1.54 330 14:21 30.03.2021
880 Rain 22 1015 73 10000 1.54 350 13:51 30.03.2021
881 Rain 22 1015 73 10000 1.54 350 13:30 30.03.2021
882 Rain 22 1015 73 10000 3.09 70 12:42 30.03.2021
883 Rain 22 1015 73 10000 3.09 70 12:23 30.03.2021
884 Rain 22 1016 73 10000 2.57 30 11:48 30.03.2021
885 Rain 22 1016 73 10000 2.57 30 11:20 30.03.2021
886 Rain 22 1016 73 10000 2.57 30 11:20 30.03.2021
887 Rain 22 1016 73 10000 2.06 50 10:42 30.03.2021
888 Rain 22 1016 73 10000 2.06 50 10:19 30.03.2021
889 Rain 22 1015 69 10000 3.09 60 09:43 30.03.2021
890 Rain 22 1015 69 10000 3.09 60 09:23 30.03.2021
891 Rain 22 1015 69 10000 4.12 60 08:44 30.03.2021
892 Rain 22 1015 69 10000 4.12 60 08:21 30.03.2021
893 Rain 23 1014 69 10000 4.63 80 07:42 30.03.2021
894 Rain 24 1014 61 10000 5.14 70 06:53 30.03.2021
895 Rain 25 1014 57 10000 4.63 50 05:25 30.03.2021
896 Clouds 26 1015 54 10000 5.66 60 01:57 30.03.2021
897 Clouds 26 1016 51 10000 6.69 50 23:55 29.03.2021
898 Clouds 26 1016 51 10000 6.69 50 23:22 29.03.2021
899 Clouds 25 1015 54 10000 6.69 80 22:43 29.03.2021
900 Clouds 24 1016 64 10000 5.14 80 21:57 29.03.2021
901 Clouds 23 1016 64 10000 5.14 80 21:35 29.03.2021
902 Clouds 23 1015 64 10000 6.17 90 20:51 29.03.2021
903 Clouds 23 1015 64 10000 6.17 90 20:33 29.03.2021
904 Clouds 21 1015 73 10000 1.54 90 19:56 29.03.2021
905 Clouds 21 1015 73 10000 1.54 90 19:32 29.03.2021
906 Clouds 22 1014 68 10000 5.14 80 18:56 29.03.2021
907 Clouds 22 1014 68 10000 5.14 80 18:37 29.03.2021
908 Clouds 22 1014 68 10000 5.14 80 18:18 29.03.2021
909 Clouds 22 1014 68 10000 3.6 80 17:36 29.03.2021
910 Clouds 22 1014 68 10000 2.57 80 16:53 29.03.2021
911 Clouds 22 1014 68 10000 2.57 80 16:30 29.03.2021
912 Clouds 22 1015 64 10000 3.6 80 15:43 29.03.2021
913 Clouds 22 1015 64 10000 3.6 80 15:24 29.03.2021
914 Clouds 22 1016 64 10000 2.57 90 14:48 29.03.2021
915 Clouds 22 1016 64 10000 2.57 90 14:21 29.03.2021
916 Clouds 22 1016 64 10000 4.63 60 13:40 29.03.2021
917 Clouds 22 1016 64 10000 4.63 60 13:18 29.03.2021
918 Clouds 22 1017 68 10000 5.14 50 12:49 29.03.2021
919 Clouds 22 1017 64 10000 5.14 80 11:49 29.03.2021
920 Clouds 22 1017 64 10000 5.14 80 11:28 29.03.2021
921 Clouds 22 1017 64 10000 5.14 90 10:51 29.03.2021
922 Clouds 22 1017 64 10000 5.14 90 10:31 29.03.2021
923 Clouds 22 1017 64 10000 3.6 80 09:33 29.03.2021
924 Clouds 22 1016 60 10000 6.17 100 08:43 29.03.2021
925 Clouds 22 1016 60 10000 6.17 100 08:25 29.03.2021
926 Clouds 23 1016 60 10000 4.63 70 07:21 29.03.2021
927 Clouds 23 1015 60 10000 6.17 60 06:25 29.03.2021
928 Clouds 24 1015 53 10000 7.72 80 02:58 29.03.2021
929 Clouds 25 1016 47 10000 7.72 60 00:45 29.03.2021
930 Clouds 25 1016 47 10000 7.72 60 00:18 29.03.2021
931 Clouds 25 1017 53 10000 5.66 80 23:30 28.03.2021
932 Clouds 24 1017 53 10000 6.17 70 22:50 28.03.2021
933 Clouds 24 1017 53 10000 6.17 70 22:30 28.03.2021
934 Clouds 23 1017 53 10000 6.17 70 21:49 28.03.2021
935 Clouds 23 1017 53 10000 6.17 70 21:26 28.03.2021
936 Clouds 23 1017 60 10000 5.66 80 20:58 28.03.2021
937 Clouds 23 1017 60 10000 5.66 80 20:58 28.03.2021
938 Clouds 23 1017 60 10000 5.66 80 20:40 28.03.2021
939 Clouds 23 1017 60 10000 5.66 80 20:40 28.03.2021
940 Clouds 23 1017 60 10000 5.66 80 20:19 28.03.2021
941 Clouds 22 1016 60 10000 4.63 60 19:42 28.03.2021
942 Clouds 22 1016 60 10000 4.63 60 19:21 28.03.2021
943 Clouds 22 1016 60 10000 4.63 60 18:51 28.03.2021
944 Clouds 22 1016 60 10000 4.63 60 18:24 28.03.2021
945 Clouds 21 1015 68 10000 4.63 70 17:42 28.03.2021
946 Clouds 21 1015 68 10000 4.63 70 17:20 28.03.2021
947 Clouds 22 1015 60 10000 7.2 60 16:41 28.03.2021
948 Clouds 21 1015 60 10000 7.2 60 16:21 28.03.2021
949 Clouds 22 1016 56 10000 7.72 70 15:25 28.03.2021
950 Clouds 22 1017 64 10000 6.69 60 14:50 28.03.2021
951 Clouds 22 1017 64 10000 6.69 60 14:26 28.03.2021
952 Clouds 22 1018 64 10000 6.17 60 13:38 28.03.2021
953 Clouds 22 1018 64 10000 5.14 60 12:59 28.03.2021
954 Clouds 22 1018 64 10000 5.14 60 12:35 28.03.2021
955 Clouds 23 1019 64 10000 6.69 80 11:59 28.03.2021
956 Clouds 23 1019 64 10000 6.69 80 11:38 28.03.2021
957 Clouds 23 1019 60 10000 5.66 50 10:55 28.03.2021
958 Clouds 23 1019 60 10000 5.66 50 10:32 28.03.2021
959 Clouds 23 1018 60 10000 4.63 60 09:56 28.03.2021
960 Clouds 23 1018 60 10000 4.63 60 09:30 28.03.2021
961 Clouds 23 1017 64 10000 5.14 70 08:56 28.03.2021
962 Clouds 23 1017 64 10000 5.14 70 08:35 28.03.2021
963 Clouds 23 1016 69 10000 5.66 70 07:43 28.03.2021
964 Clouds 24 1016 57 10000 6.69 60 06:22 28.03.2021
965 Clouds 26 1016 48 10000 6.69 50 03:50 28.03.2021
966 Clouds 27 1017 48 10000 8.23 60 00:45 28.03.2021
967 Clouds 27 1018 47 10000 5.66 70 23:59 27.03.2021
968 Clouds 27 1018 47 10000 5.66 70 23:35 27.03.2021
969 Clouds 26 1019 50 10000 7.2 90 22:42 27.03.2021
970 Clouds 26 1019 50 10000 7.2 90 22:22 27.03.2021
971 Clouds 25 1019 53 10000 5.14 60 21:45 27.03.2021
972 Clouds 25 1019 53 10000 5.14 60 21:21 27.03.2021
973 Clouds 25 1018 57 10000 7.72 50 20:58 27.03.2021
974 Clouds 24 1018 57 10000 7.72 50 20:37 27.03.2021
975 Clouds 24 1018 61 10000 6.69 60 19:56 27.03.2021
976 Clouds 24 1018 61 10000 6.69 60 19:37 27.03.2021
977 Clouds 24 1018 61 10000 6.69 60 19:18 27.03.2021
978 Clouds 22 1017 68 10000 4.63 60 18:41 27.03.2021
979 Clouds 22 1017 68 10000 4.63 60 18:20 27.03.2021
980 Clouds 22 1017 68 10000 3.09 50 17:29 27.03.2021
981 Clouds 22 1016 73 10000 4.12 70 16:58 27.03.2021
982 Clouds 22 1016 73 10000 4.12 70 16:38 27.03.2021
983 Clouds 22 1016 73 10000 4.12 70 16:20 27.03.2021
984 Clouds 22 1017 73 10000 4.63 70 15:39 27.03.2021
985 Clouds 22 1017 68 10000 4.12 70 14:55 27.03.2021
986 Clouds 22 1017 68 10000 4.12 70 14:24 27.03.2021
987 Clouds 22 1017 68 10000 3.6 60 13:39 27.03.2021
988 Clouds 22 1017 68 10000 3.6 60 13:19 27.03.2021
989 Clouds 22 1017 73 10000 7.2 70 12:41 27.03.2021
990 Clouds 23 1018 64 10000 5.66 60 11:49 27.03.2021
991 Clouds 23 1018 64 10000 5.66 60 11:31 27.03.2021
992 Clouds 23 1019 69 10000 3.6 70 10:49 27.03.2021
993 Clouds 23 1019 69 10000 3.6 70 10:30 27.03.2021
994 Clouds 23 1018 69 10000 4.63 40 09:44 27.03.2021
995 Clouds 23 1018 69 10000 4.63 40 09:18 27.03.2021
996 Clouds 23 1018 69 10000 4.12 50 08:38 27.03.2021
997 Clouds 23 1018 69 10000 4.12 70 07:48 27.03.2021
998 Clouds 24 1016 65 10000 5.66 70 06:59 27.03.2021
999 Clouds 24 1016 65 10000 5.66 70 06:39 27.03.2021
1000 Clouds 25 1015 51 10000 5.66 40 04:41 27.03.2021
1001 Clouds 26 1016 51 10000 3.6 40 01:28 27.03.2021
1002 Clouds 26 1017 61 10000 2.57 220 00:32 27.03.2021
1003 Clouds 26 1018 61 10000 4.63 230 23:59 26.03.2021
1004 Clouds 27 1018 61 10000 4.63 230 23:23 26.03.2021
1005 Clouds 26 1018 61 10000 3.09 160 22:37 26.03.2021
1006 Clouds 26 1019 65 10000 3.83 77 21:41 26.03.2021
1007 Clouds 26 1019 65 10000 3.35 72 21:22 26.03.2021
1008 Clouds 25 1019 65 10000 3.35 72 20:49 26.03.2021
1009 Clouds 25 1019 65 10000 3.35 72 20:30 26.03.2021
1010 Clouds 25 1019 65 10000 3.1 64 20:30 26.03.2021
1011 Clouds 25 1019 65 10000 3.1 64 20:30 26.03.2021
1012 Clouds 24 1018 78 10000 3.1 64 19:50 26.03.2021
1013 Clouds 23 1018 78 10000 2.92 56 19:30 26.03.2021
1014 Clouds 21 1017 83 10000 2.92 56 18:46 26.03.2021
1015 Clouds 21 1017 83 10000 2.43 43 18:27 26.03.2021
1016 Clouds 20 1017 83 10000 1.54 350 17:49 26.03.2021
1017 Clouds 21 1016 83 10000 2.06 300 16:58 26.03.2021
1018 Clouds 21 1016 83 10000 2.06 300 16:33 26.03.2021
1019 Clouds 21 1016 83 10000 1.64 34 15:57 26.03.2021
1020 Clouds 21 1016 83 10000 1.45 38 15:23 26.03.2021
1021 Clouds 21 1016 83 10000 1.45 38 14:34 26.03.2021
1022 Clouds 21 1017 78 10000 0.8 51 13:42 26.03.2021
1023 Clouds 22 1018 78 10000 1.54 20 12:58 26.03.2021
1024 Clouds 22 1018 78 10000 1.54 20 12:34 26.03.2021
1025 Clouds 22 1018 73 10000 2.06 20 11:38 26.03.2021
1026 Clouds 23 1018 73 10000 2.06 20 11:18 26.03.2021
1027 Clouds 23 1018 78 10000 1.54 130 10:41 26.03.2021
1028 Clouds 23 1018 78 10000 1.54 130 09:56 26.03.2021
1029 Clouds 23 1018 78 10000 1.54 130 09:36 26.03.2021
1030 Clouds 24 1017 69 10000 2.06 160 08:44 26.03.2021
1031 Clouds 24 1017 69 10000 2.06 160 08:23 26.03.2021
1032 Rain 24 1017 69 10000 2.06 170 07:40 26.03.2021
1033 Rain 24 1017 69 10000 2.06 170 07:18 26.03.2021
1034 Rain 24 1016 69 10000 2.57 160 06:53 26.03.2021
1035 Clouds 25 1015 65 10000 4.12 170 05:31 26.03.2021
1036 Rain 27 1015 69 10000 5.14 170 02:31 26.03.2021
1037 Rain 26 1016 69 10000 4.63 170 00:32 26.03.2021
1038 Rain 26 1017 73 10000 4.63 160 23:45 25.03.2021
1039 Rain 26 1017 73 10000 4.63 160 23:20 25.03.2021
1040 Rain 26 1017 73 10000 4.63 160 23:20 25.03.2021
1041 Rain 25 1017 73 10000 1.54 0 22:37 25.03.2021
1042 Rain 24 1017 83 10000 4.12 340 21:53 25.03.2021
1043 Rain 24 1017 83 10000 4.12 340 21:34 25.03.2021
1044 Rain 23 1017 94 10000 3.09 340 20:45 25.03.2021
1045 Rain 23 1017 94 10000 3.09 340 20:26 25.03.2021
1046 Rain 22 1017 94 10000 3.09 270 19:49 25.03.2021
1047 Rain 22 1017 94 10000 3.09 270 19:31 25.03.2021
1048 Rain 23 1016 88 10000 4.63 240 18:49 25.03.2021
1049 Rain 22 1016 88 10000 4.63 240 18:27 25.03.2021
1050 Rain 22 1015 78 9656 7.2 160 17:55 25.03.2021
1051 Rain 22 1015 78 9656 7.2 160 17:36 25.03.2021
1052 Rain 23 1014 78 10000 3.09 160 16:55 25.03.2021
1053 Rain 23 1014 78 10000 3.09 160 16:32 25.03.2021
1054 Rain 23 1014 78 10000 5.14 190 15:46 25.03.2021
1055 Rain 23 1014 78 10000 5.14 190 15:23 25.03.2021
1056 Rain 23 1014 78 10000 4.12 180 14:48 25.03.2021
1057 Rain 23 1014 78 10000 4.12 180 14:18 25.03.2021
1058 Rain 23 1015 78 10000 4.12 190 13:24 25.03.2021
1059 Rain 23 1015 78 10000 4.12 180 12:46 25.03.2021
1060 Rain 23 1015 78 10000 4.63 170 12:22 25.03.2021
1061 Rain 23 1016 78 10000 5.14 170 11:53 25.03.2021
1062 Rain 23 1016 78 10000 5.14 170 11:31 25.03.2021
1063 Rain 23 1016 78 10000 5.14 170 10:57 25.03.2021
1064 Rain 23 1016 78 10000 5.14 170 10:38 25.03.2021
1065 Rain 23 1016 78 10000 5.14 170 10:18 25.03.2021
1066 Rain 23 1016 78 10000 5.14 170 10:18 25.03.2021
1067 Rain 23 1016 83 10000 4.12 170 09:42 25.03.2021
1068 Rain 23 1016 78 10000 4.12 170 08:58 25.03.2021
1069 Rain 23 1016 78 10000 4.12 170 08:29 25.03.2021
1070 Rain 23 1015 78 10000 5.66 170 07:24 25.03.2021
1071 Rain 24 1014 73 10000 5.14 160 06:27 25.03.2021
1072 Rain 24 1014 73 10000 6.17 170 05:49 25.03.2021
1073 Rain 25 1013 73 10000 5.66 170 04:33 25.03.2021
1074 Rain 26 1014 69 10000 6.69 160 00:44 25.03.2021
1075 Rain 26 1015 69 10000 6.17 190 23:55 24.03.2021
1076 Rain 26 1015 69 10000 6.17 190 23:33 24.03.2021
1077 Rain 24 1016 83 10000 4.12 230 22:50 24.03.2021
1078 Rain 24 1016 83 10000 4.12 230 22:30 24.03.2021
1079 Rain 25 1016 69 10000 7.2 170 21:47 24.03.2021
1080 Rain 25 1016 69 10000 7.2 170 21:25 24.03.2021
1081 Rain 24 1016 73 10000 6.17 170 20:45 24.03.2021
1082 Rain 24 1016 73 10000 6.17 170 20:20 24.03.2021
1083 Rain 23 1015 73 10000 6.17 170 19:52 24.03.2021
1084 Rain 23 1015 73 10000 6.17 170 19:31 24.03.2021
1085 Rain 23 1015 73 10000 5.66 170 18:51 24.03.2021
1086 Rain 23 1015 73 10000 5.66 170 18:51 24.03.2021
1087 Rain 23 1014 73 10000 5.14 160 18:24 24.03.2021
1088 Rain 23 1014 73 10000 4.63 170 17:52 24.03.2021
1089 Rain 23 1014 73 10000 4.63 170 17:32 24.03.2021
1090 Rain 23 1014 73 10000 4.63 170 17:32 24.03.2021
1091 Rain 23 1013 73 10000 5.14 170 16:53 24.03.2021
1092 Rain 23 1013 73 10000 5.14 170 16:31 24.03.2021
1093 Rain 23 1013 73 10000 5.14 170 15:55 24.03.2021
1094 Rain 23 1013 73 10000 6.17 160 15:33 24.03.2021
1095 Rain 23 1012 78 10000 2.57 170 14:48 24.03.2021
1096 Rain 23 1013 73 10000 6.69 150 14:27 24.03.2021
1097 Rain 23 1013 73 10000 6.69 150 13:57 24.03.2021
1098 Rain 23 1013 73 10000 6.69 150 13:28 24.03.2021
1099 Rain 23 1012 78 10000 5.14 160 12:45 24.03.2021
1100 Rain 22 1012 78 10000 5.14 160 12:23 24.03.2021
1101 Rain 23 1013 78 10000 2.57 160 11:49 24.03.2021
1102 Rain 22 1014 83 10000 1.54 130 10:59 24.03.2021
1103 Rain 22 1014 83 10000 1.54 130 10:41 24.03.2021
1104 Rain 23 1014 83 10000 1.54 130 10:22 24.03.2021
1105 Rain 23 1014 83 10000 1.54 150 09:53 24.03.2021
1106 Rain 23 1014 73 10000 3.09 160 09:22 24.03.2021
1107 Rain 23 1014 73 10000 3.09 160 08:52 24.03.2021
1108 Rain 23 1014 73 10000 3.09 160 08:26 24.03.2021
1109 Rain 23 1013 73 10000 1.54 150 07:41 24.03.2021
1110 Rain 23 1012 69 10000 1.54 170 06:54 24.03.2021
1111 Rain 23 1012 69 10000 1.54 170 06:54 24.03.2021
1112 Rain 24 1013 83 10000 2.06 230 05:30 24.03.2021
1113 Clouds 26 1014 61 10000 5.14 150 00:51 24.03.2021
1114 Clouds 26 1015 61 10000 3.6 140 23:59 23.03.2021
1115 Clouds 26 1015 61 10000 3.6 140 23:22 23.03.2021
1116 Clouds 25 1016 65 10000 3.09 140 22:54 23.03.2021
1117 Clouds 25 1016 65 10000 3.09 140 22:36 23.03.2021
1118 Clouds 24 1016 61 10000 3.09 150 21:54 23.03.2021
1119 Clouds 24 1016 61 10000 3.09 150 21:34 23.03.2021
1120 Rain 24 1016 69 10000 1.63 234 20:48 23.03.2021
1121 Clouds 23 1016 69 10000 1.27 262 20:29 23.03.2021
1122 Clouds 22 1015 73 10000 2.06 20 19:57 23.03.2021
1123 Clouds 22 1015 73 10000 2.06 20 19:37 23.03.2021
1124 Clouds 22 1015 73 10000 2.06 20 19:19 23.03.2021
1125 Rain 20 1015 83 10000 3.09 360 18:38 23.03.2021
1126 Rain 19 1015 83 10000 3.09 360 18:18 23.03.2021
1127 Clouds 20 1015 83 10000 2.06 10 17:43 23.03.2021
1128 Clouds 19 1015 83 10000 2.06 10 17:21 23.03.2021
1129 Clouds 19 1015 83 10000 2.06 10 17:21 23.03.2021
1130 Clouds 19 1014 94 10000 0.71 263 16:26 23.03.2021
1131 Clouds 20 1014 83 10000 1.54 340 15:50 23.03.2021
1132 Clouds 20 1014 83 10000 1.54 340 15:23 23.03.2021
1133 Clouds 20 1015 83 10000 2.06 330 14:49 23.03.2021
1134 Clouds 20 1015 83 10000 2.06 330 14:19 23.03.2021
1135 Clouds 20 1015 83 10000 2.06 330 14:19 23.03.2021
1136 Clouds 20 1015 78 10000 2.06 350 13:47 23.03.2021
1137 Clouds 20 1015 78 10000 2.06 350 13:24 23.03.2021
1138 Clouds 20 1016 78 10000 1.54 350 12:45 23.03.2021
1139 Clouds 20 1016 78 10000 1.54 350 12:26 23.03.2021
1140 Clouds 21 1017 78 10000 1.54 350 11:49 23.03.2021
1141 Clouds 21 1017 78 10000 1.54 350 11:49 23.03.2021
1142 Clouds 21 1017 78 10000 1.54 350 11:21 23.03.2021
1143 Clouds 22 1018 78 10000 2.57 0 10:42 23.03.2021
1144 Clouds 22 1018 78 10000 2.57 0 10:20 23.03.2021
1145 Clouds 22 1018 73 10000 2.06 350 09:51 23.03.2021
1146 Rain 22 1018 73 10000 2.06 350 09:23 23.03.2021
1147 Rain 22 1018 68 10000 1.54 20 08:55 23.03.2021
1148 Rain 22 1018 68 10000 1.54 20 08:37 23.03.2021
1149 Clouds 22 1018 68 10000 1.54 20 08:18 23.03.2021
1150 Rain 22 1018 68 10000 3.09 80 07:27 23.03.2021
1151 Rain 23 1017 64 10000 5.66 60 06:52 23.03.2021
1152 Clouds 25 1017 47 10000 7.2 70 03:24 23.03.2021
1153 Clouds 25 1017 47 10000 5.14 40 02:29 23.03.2021
1154 Clouds 25 1019 50 10000 7.2 60 23:47 22.03.2021
1155 Clouds 25 1020 53 10000 6.69 40 22:59 22.03.2021
1156 Clouds 25 1020 53 10000 6.69 40 22:40 22.03.2021
1157 Clouds 25 1020 53 10000 6.69 40 22:20 22.03.2021
1158 Clouds 24 1020 53 10000 4.63 70 21:46 22.03.2021
1159 Clouds 24 1020 53 10000 4.63 70 21:26 22.03.2021
1160 Clouds 23 1020 57 10000 5.66 70 20:42 22.03.2021
1161 Clouds 23 1020 57 10000 5.66 70 20:24 22.03.2021
1162 Clouds 22 1021 60 10000 4.63 90 19:57 22.03.2021
1163 Clouds 22 1021 60 10000 4.63 90 19:37 22.03.2021
1164 Clouds 22 1021 60 10000 4.63 90 19:19 22.03.2021
1165 Clouds 21 1021 60 10000 1.54 20 18:40 22.03.2021
1166 Clouds 21 1021 60 10000 1.54 20 18:21 22.03.2021
1167 Clouds 21 1019 60 10000 7.2 70 17:48 22.03.2021
1168 Clouds 21 1019 60 10000 7.2 70 17:22 22.03.2021
1169 Clouds 21 1019 56 10000 5.66 50 16:47 22.03.2021
1170 Clouds 21 1019 56 10000 5.66 50 16:22 22.03.2021
1171 Clouds 21 1019 56 10000 7.72 50 15:39 22.03.2021
1172 Clouds 21 1019 56 10000 7.72 50 15:19 22.03.2021
1173 Clouds 21 1019 60 10000 7.72 50 14:53 22.03.2021
1174 Clouds 21 1019 60 10000 7.72 50 14:34 22.03.2021
1175 Clouds 21 1020 56 10000 7.2 60 13:48 22.03.2021
1176 Clouds 21 1020 56 10000 7.2 60 13:27 22.03.2021
1177 Clouds 21 1021 56 10000 7.72 60 12:55 22.03.2021
1178 Clouds 21 1021 56 10000 7.72 60 12:26 22.03.2021
1179 Clouds 21 1021 64 10000 7.2 60 11:49 22.03.2021
1180 Clouds 21 1021 64 10000 7.2 60 11:29 22.03.2021
1181 Rain 21 1021 68 10000 8.23 60 10:46 22.03.2021
1182 Rain 21 1021 68 10000 8.23 60 10:25 22.03.2021
1183 Clouds 20 1022 73 10000 7.72 80 09:49 22.03.2021
1184 Rain 21 1021 56 10000 7.2 40 09:30 22.03.2021
1185 Rain 22 1021 56 10000 7.2 40 08:46 22.03.2021
1186 Rain 22 1021 56 10000 7.2 40 08:27 22.03.2021
1187 Clouds 22 1021 56 10000 6.69 50 07:50 22.03.2021
1188 Clouds 22 1021 56 10000 6.69 50 07:30 22.03.2021
1189 Clouds 22 1020 56 10000 9.26 60 06:49 22.03.2021
1190 Clouds 24 1020 44 10000 8.75 80 02:47 22.03.2021
1191 Clouds 24 1021 44 10000 9.26 50 00:44 22.03.2021
1192 Clouds 25 1022 50 10000 9.26 50 23:55 21.03.2021
1193 Clouds 24 1022 50 10000 9.26 50 23:20 21.03.2021
1194 Clouds 23 1023 60 10000 8.75 60 22:59 21.03.2021
1195 Clouds 23 1023 60 10000 8.75 60 22:30 21.03.2021
1196 Rain 22 1023 68 10000 7.72 60 21:42 21.03.2021
1197 Rain 21 1023 68 10000 7.72 60 21:24 21.03.2021
1198 Rain 21 1023 78 10000 6.17 60 20:48 21.03.2021
1199 Rain 21 1023 78 10000 6.17 60 20:29 21.03.2021
1200 Rain 21 1023 83 10000 6.69 50 19:59 21.03.2021
1201 Rain 21 1023 83 10000 6.69 50 19:28 21.03.2021
1202 Rain 20 1023 78 9656 6.17 40 18:55 21.03.2021
1203 Rain 20 1023 78 9656 6.17 40 18:32 21.03.2021
1204 Rain 20 1022 78 10000 6.17 40 17:54 21.03.2021
1205 Clouds 20 1022 78 10000 6.17 40 17:36 21.03.2021
1206 Clouds 20 1022 78 10000 6.17 40 17:18 21.03.2021
1207 Rain 20 1022 73 10000 4.63 50 16:41 21.03.2021
1208 Rain 20 1022 73 10000 4.63 50 16:22 21.03.2021
1209 Clear 21 1022 60 10000 5.14 40 15:42 21.03.2021
1210 Clear 21 1022 60 10000 5.14 40 15:20 21.03.2021
1211 Clouds 21 1022 60 10000 5.66 50 14:46 21.03.2021
1212 Clouds 21 1022 60 10000 5.66 50 14:27 21.03.2021
1213 Clear 20 1023 64 10000 6.17 60 13:55 21.03.2021
1214 Clear 20 1023 64 10000 6.17 60 13:33 21.03.2021
1215 Clouds 21 1023 64 10000 9.26 50 12:42 21.03.2021
1216 Clouds 21 1023 64 10000 9.26 50 12:24 21.03.2021
1217 Rain 21 1023 83 10000 7.2 50 11:41 21.03.2021
1218 Rain 21 1023 83 10000 7.2 50 11:20 21.03.2021
1219 Rain 21 1023 83 10000 7.2 50 11:20 21.03.2021
1220 Rain 21 1024 73 10000 7.2 60 10:43 21.03.2021
1221 Rain 21 1024 73 10000 7.2 60 10:23 21.03.2021
1222 Clouds 21 1024 73 10000 8.23 60 09:46 21.03.2021
1223 Clouds 21 1024 73 10000 8.23 60 09:28 21.03.2021
1224 Clouds 21 1023 73 10000 8.75 60 08:47 21.03.2021
1225 Rain 21 1023 73 10000 8.75 60 08:26 21.03.2021
1226 Rain 21 1023 73 10000 10.8 70 07:39 21.03.2021
1227 Rain 21 1023 73 10000 10.8 70 07:19 21.03.2021
1228 Clouds 22 1021 64 10000 9.26 60 05:55 21.03.2021
1229 Rain 24 1021 57 10000 8.23 60 02:34 21.03.2021
1230 Clouds 24 1021 53 10000 9.77 50 00:43 21.03.2021
1231 Clouds 24 1021 53 10000 9.77 50 00:24 21.03.2021
1232 Clouds 24 1022 53 10000 8.75 50 23:50 20.03.2021
1233 Clouds 24 1022 53 10000 8.75 50 23:24 20.03.2021
1234 Clouds 24 1022 53 10000 8.75 70 22:56 20.03.2021
1235 Clouds 24 1022 53 10000 8.75 70 22:23 20.03.2021
1236 Clouds 24 1023 57 10000 8.75 60 21:47 20.03.2021
1237 Clouds 24 1023 57 10000 8.75 60 21:25 20.03.2021
1238 Clouds 23 1023 64 10000 7.2 60 20:48 20.03.2021
1239 Clouds 23 1023 64 10000 7.2 60 20:23 20.03.2021
1240 Rain 22 1022 68 10000 6.69 60 19:51 20.03.2021
1241 Rain 22 1022 68 10000 6.69 60 19:28 20.03.2021
1242 Clouds 21 1022 68 10000 6.17 70 18:50 20.03.2021
1243 Clouds 21 1022 68 10000 6.17 70 18:27 20.03.2021
1244 Clouds 21 1021 64 10000 7.72 60 17:56 20.03.2021
1245 Clouds 21 1021 64 10000 7.72 60 17:33 20.03.2021
1246 Clouds 20 1021 73 10000 4.12 60 16:56 20.03.2021
1247 Clouds 21 1021 73 10000 4.12 60 16:37 20.03.2021
1248 Clouds 21 1021 73 10000 4.12 60 16:18 20.03.2021
1249 Clouds 21 1021 68 10000 6.69 60 15:40 20.03.2021
1250 Clouds 21 1021 68 10000 6.69 60 15:40 20.03.2021
1251 Rain 21 1021 68 10000 6.69 60 14:53 20.03.2021
1252 Rain 21 1021 68 10000 6.69 60 14:31 20.03.2021
1253 Clouds 21 1021 68 10000 7.2 50 13:56 20.03.2021
1254 Clouds 21 1021 68 10000 7.2 50 13:21 20.03.2021
1255 Clouds 21 1022 68 10000 5.66 40 12:28 20.03.2021
1256 Clouds 21 1022 64 10000 4.63 60 11:50 20.03.2021
1257 Clouds 21 1022 64 10000 4.63 60 11:31 20.03.2021
1258 Rain 21 1022 64 10000 4.63 70 10:57 20.03.2021
1259 Rain 21 1022 64 10000 4.63 70 10:38 20.03.2021
1260 Rain 21 1022 64 10000 4.63 70 10:19 20.03.2021
1261 Rain 21 1022 68 10000 8.75 70 09:42 20.03.2021
1262 Rain 21 1022 68 10000 8.75 70 09:21 20.03.2021
1263 Rain 21 1022 68 10000 4.63 40 08:48 20.03.2021
1264 Rain 21 1021 64 10000 8.23 60 07:56 20.03.2021
1265 Rain 21 1021 64 10000 8.23 60 07:37 20.03.2021
1266 Clouds 22 1021 64 10000 8.23 60 07:19 20.03.2021
1267 Rain 21 1021 73 10000 4.63 50 06:27 20.03.2021
1268 Clouds 23 1020 50 10000 5.14 50 04:41 20.03.2021
1269 Clouds 24 1019 47 10000 8.23 60 03:42 20.03.2021
1270 Clouds 24 1021 47 10000 8.75 50 00:43 20.03.2021
1271 Clouds 25 1021 44 10000 8.23 50 23:36 19.03.2021
1272 Clouds 25 1021 44 10000 8.23 50 23:18 19.03.2021
1273 Clouds 24 1021 53 10000 6.69 60 22:40 19.03.2021
1274 Clouds 24 1021 53 10000 6.69 60 22:40 19.03.2021
1275 Clouds 24 1021 53 10000 6.69 60 22:22 19.03.2021
1276 Clouds 24 1022 53 10000 6.17 60 21:37 19.03.2021
1277 Clouds 24 1022 53 10000 6.17 60 21:18 19.03.2021
1278 Clouds 23 1021 56 10000 5.66 70 20:42 19.03.2021
1279 Clouds 22 1021 56 10000 5.66 70 20:24 19.03.2021
1280 Clouds 21 1021 60 10000 5.14 60 19:47 19.03.2021
1281 Clouds 21 1021 60 10000 5.14 60 19:21 19.03.2021
1282 Clouds 20 1020 64 10000 2.57 30 18:46 19.03.2021
1283 Clouds 20 1020 64 10000 2.57 30 18:20 19.03.2021
1284 Clouds 20 1020 64 10000 3.6 50 17:56 19.03.2021
1285 Clouds 20 1020 64 10000 3.6 50 17:33 19.03.2021
1286 Clouds 20 1019 64 10000 5.14 40 16:56 19.03.2021
1287 Clouds 20 1019 64 10000 5.14 40 16:32 19.03.2021
1288 Clouds 20 1019 68 10000 5.66 70 15:58 19.03.2021
1289 Clouds 20 1019 68 10000 5.66 70 15:28 19.03.2021
1290 Clouds 20 1020 73 10000 5.66 60 14:48 19.03.2021
1291 Clouds 20 1020 73 10000 5.66 60 14:28 19.03.2021
1292 Clouds 20 1020 73 10000 5.66 60 13:42 19.03.2021
1293 Clouds 21 1020 73 10000 5.66 60 13:18 19.03.2021
1294 Clouds 21 1021 60 10000 3.6 80 12:38 19.03.2021
1295 Clouds 21 1021 60 10000 4.12 60 11:49 19.03.2021
1296 Clouds 21 1021 60 10000 3.6 80 10:57 19.03.2021
1297 Clouds 21 1021 60 10000 3.6 80 10:39 19.03.2021
1298 Clouds 20 1021 60 10000 3.6 80 10:18 19.03.2021
1299 Clouds 20 1021 68 10000 6.17 60 09:41 19.03.2021
1300 Clouds 20 1021 68 10000 6.17 60 09:22 19.03.2021
1301 Clouds 20 1021 68 10000 6.17 60 08:41 19.03.2021
1302 Clouds 20 1021 68 10000 6.17 60 08:22 19.03.2021
1303 Rain 19 1020 77 10000 4.63 50 07:42 19.03.2021
1304 Rain 20 1020 73 10000 8.23 70 06:56 19.03.2021
1305 Rain 21 1018 64 10000 8.75 70 03:57 19.03.2021
1306 Rain 21 1019 68 10000 7.72 70 00:58 19.03.2021
1307 Rain 21 1020 68 10000 6.17 40 23:49 18.03.2021
1308 Rain 21 1020 68 10000 6.17 40 23:26 18.03.2021
1309 Rain 21 1020 68 10000 5.66 50 22:41 18.03.2021
1310 Rain 21 1020 68 10000 5.66 50 22:22 18.03.2021
1311 Rain 20 1020 73 10000 6.17 50 21:39 18.03.2021
1312 Rain 20 1020 83 10000 6.69 50 20:54 18.03.2021
1313 Rain 20 1020 83 10000 6.69 50 20:35 18.03.2021
1314 Rain 19 1019 88 10000 2.57 30 19:58 18.03.2021
1315 Rain 19 1019 88 10000 2.57 30 19:40 18.03.2021
1316 Rain 19 1019 88 10000 2.57 30 19:19 18.03.2021
1317 Rain 20 1019 78 10000 3.6 40 18:35 18.03.2021
1318 Rain 20 1018 78 10000 4.63 40 17:51 18.03.2021
1319 Rain 20 1018 78 10000 4.63 40 17:26 18.03.2021
1320 Rain 20 1018 78 10000 2.57 0 16:49 18.03.2021
1321 Rain 20 1018 78 10000 2.57 0 16:30 18.03.2021
1322 Rain 21 1017 68 10000 3.09 60 15:49 18.03.2021
1323 Rain 21 1017 68 10000 3.09 60 15:28 18.03.2021
1324 Rain 20 1018 77 10000 1.54 240 14:57 18.03.2021
1325 Rain 20 1018 77 10000 1.54 240 14:33 18.03.2021
1326 Rain 21 1018 68 10000 9.34 64 13:53 18.03.2021
1327 Rain 21 1018 68 10000 9.14 62 13:26 18.03.2021
1328 Rain 21 1018 68 10000 3.09 120 12:45 18.03.2021
1329 Rain 21 1018 68 10000 3.09 120 12:27 18.03.2021
1330 Rain 21 1018 68 10000 3.09 120 12:27 18.03.2021
1331 Rain 21 1019 64 10000 1.54 0 11:55 18.03.2021
1332 Clouds 21 1019 64 10000 1.54 0 11:34 18.03.2021
1333 Clouds 21 1019 68 10000 3.09 30 10:49 18.03.2021
1334 Clouds 21 1019 68 10000 3.09 30 10:27 18.03.2021
1335 Clouds 22 1019 64 10000 3.6 30 09:57 18.03.2021
1336 Clouds 22 1019 64 10000 3.6 30 09:30 18.03.2021
1337 Clouds 22 1019 60 10000 6.69 40 08:55 18.03.2021
1338 Clouds 21 1019 60 10000 6.69 40 08:32 18.03.2021
1339 Clouds 21 1019 60 10000 6.69 40 08:32 18.03.2021
1340 Clouds 21 1018 56 10000 4.63 50 07:54 18.03.2021
1341 Clouds 21 1018 56 10000 4.63 50 07:25 18.03.2021
1342 Clouds 21 1018 56 10000 8.75 50 06:30 18.03.2021
1343 Clouds 21 1018 56 10000 8.75 50 06:30 18.03.2021
1344 Clouds 21 1018 56 10000 8.75 50 06:30 18.03.2021
1345 Clouds 22 1017 50 10000 8.23 50 05:55 18.03.2021
1346 Clouds 24 1016 47 10000 9.77 40 02:35 18.03.2021
1347 Clouds 24 1018 50 10000 9.26 50 00:19 18.03.2021
1348 Clouds 23 1019 60 10000 9.77 40 22:58 17.03.2021
1349 Clouds 23 1019 60 10000 9.77 40 22:36 17.03.2021
1350 Clouds 23 1019 60 10000 9.77 40 22:36 17.03.2021
1351 Clouds 23 1019 60 10000 9.77 40 22:18 17.03.2021
1352 Clouds 23 1019 60 10000 7.72 40 21:42 17.03.2021
1353 Clouds 23 1019 60 10000 7.72 40 21:23 17.03.2021
1354 Clouds 22 1019 64 10000 9.26 40 20:45 17.03.2021
1355 Clouds 22 1019 64 10000 9.26 40 20:25 17.03.2021
1356 Clouds 22 1019 64 10000 9.26 40 20:25 17.03.2021
1357 Rain 21 1019 68 10000 4.12 350 19:46 17.03.2021
1358 Rain 21 1019 68 10000 4.12 350 19:25 17.03.2021
1359 Rain 20 1019 73 10000 3.6 360 18:57 17.03.2021
1360 Rain 20 1019 73 10000 3.6 360 18:38 17.03.2021
1361 Clouds 20 1018 78 10000 2.57 30 17:56 17.03.2021
1362 Clouds 20 1018 78 10000 2.57 30 17:27 17.03.2021
1363 Rain 20 1018 78 10000 2.06 50 16:54 17.03.2021
1364 Rain 20 1018 78 10000 2.06 50 16:36 17.03.2021
1365 Rain 20 1018 78 10000 2.06 50 16:18 17.03.2021
1366 Rain 20 1018 78 10000 4.12 10 15:37 17.03.2021
1367 Rain 20 1018 83 10000 4.12 20 14:45 17.03.2021
1368 Rain 21 1018 83 10000 4.12 20 14:27 17.03.2021
1369 Rain 21 1018 78 10000 2.06 60 13:56 17.03.2021
1370 Rain 21 1018 78 10000 2.06 60 13:32 17.03.2021
1371 Rain 21 1018 78 10000 3.09 30 12:58 17.03.2021
1372 Rain 21 1019 78 10000 4.12 50 12:34 17.03.2021
1373 Rain 21 1019 78 10000 6.69 40 11:51 17.03.2021
1374 Rain 21 1019 78 10000 6.69 40 11:23 17.03.2021
1375 Rain 21 1019 78 10000 4.12 80 10:55 17.03.2021
1376 Rain 21 1019 78 10000 4.12 80 10:31 17.03.2021
1377 Rain 21 1019 78 10000 4.12 10 09:49 17.03.2021
1378 Rain 21 1019 78 10000 2.57 340 09:28 17.03.2021
1379 Rain 21 1018 78 10000 2.57 0 08:59 17.03.2021
1380 Rain 21 1018 78 10000 2.57 0 08:39 17.03.2021
1381 Rain 21 1018 78 10000 6.69 80 07:50 17.03.2021
1382 Rain 21 1018 78 10000 6.69 80 07:32 17.03.2021
1383 Rain 21 1017 78 10000 4.12 30 06:46 17.03.2021
1384 Rain 21 1017 73 10000 7.72 60 04:26 17.03.2021
1385 Rain 23 1016 69 10000 5.14 60 03:25 17.03.2021
1386 Rain 24 1017 65 10000 6.69 60 00:40 17.03.2021
1387 Rain 23 1018 69 10000 5.14 40 23:33 16.03.2021
1388 Rain 23 1019 65 10000 4.63 30 22:59 16.03.2021
1389 Rain 23 1019 65 10000 4.63 30 22:35 16.03.2021
1390 Rain 23 1019 65 10000 4.63 30 22:35 16.03.2021
1391 Rain 22 1019 78 10000 5.14 30 21:54 16.03.2021
1392 Rain 22 1019 78 10000 5.14 30 21:35 16.03.2021
1393 Rain 22 1019 88 10000 2.06 330 20:59 16.03.2021
1394 Rain 22 1019 88 10000 2.06 330 20:59 16.03.2021
1395 Rain 22 1019 88 10000 2.06 330 20:41 16.03.2021
1396 Rain 22 1019 88 10000 2.06 330 20:18 16.03.2021
1397 Rain 21 1018 88 10000 7.5 49 19:42 16.03.2021
1398 Rain 21 1018 88 10000 5.93 45 19:23 16.03.2021
1399 Rain 21 1017 88 10000 3.09 330 18:45 16.03.2021
1400 Rain 20 1017 88 10000 3.09 330 18:27 16.03.2021
1401 Rain 21 1017 83 10000 5.22 39 17:50 16.03.2021
1402 Rain 21 1017 83 10000 5.07 36 17:32 16.03.2021
1403 Rain 20 1016 88 10000 2.57 340 16:53 16.03.2021
1404 Rain 20 1016 88 10000 2.57 340 16:31 16.03.2021
1405 Clouds 20 1016 88 10000 1.54 320 15:47 16.03.2021
1406 Rain 20 1016 88 10000 1.54 320 15:22 16.03.2021
1407 Clouds 21 1017 88 10000 3.09 340 14:59 16.03.2021
1408 Clouds 21 1017 88 10000 3.09 340 14:40 16.03.2021
1409 Clouds 21 1017 88 10000 3.09 340 14:40 16.03.2021
1410 Clouds 21 1017 88 10000 3.09 340 14:21 16.03.2021
1411 Clouds 21 1017 88 10000 1.54 350 13:54 16.03.2021
1412 Clouds 21 1017 88 10000 1.54 350 13:26 16.03.2021
1413 Clouds 20 1018 88 10000 2.06 360 12:54 16.03.2021
1414 Clouds 20 1018 88 10000 2.06 360 12:35 16.03.2021
1415 Rain 20 1018 88 10000 3.09 320 11:54 16.03.2021
1416 Rain 21 1018 88 10000 3.09 320 11:27 16.03.2021
1417 Clouds 21 1018 88 10000 1.54 300 10:44 16.03.2021
1418 Clouds 21 1018 88 10000 1.54 300 10:20 16.03.2021
1419 Clouds 21 1018 88 10000 1.54 300 10:20 16.03.2021
1420 Clouds 21 1018 88 10000 4.78 34 09:39 16.03.2021
1421 Clouds 21 1018 88 10000 5.04 33 09:18 16.03.2021
1422 Clouds 21 1018 88 10000 1.54 340 08:48 16.03.2021
1423 Clouds 21 1018 88 10000 1.54 340 08:30 16.03.2021
1424 Clouds 21 1017 83 10000 3.09 330 07:38 16.03.2021
1425 Clouds 21 1017 88 10000 3.09 10 06:57 16.03.2021
1426 Clouds 21 1017 88 10000 3.09 10 06:35 16.03.2021
1427 Rain 21 1017 88 10000 3.6 330 05:35 16.03.2021
1428 Rain 24 1016 73 10000 5.66 310 02:46 16.03.2021
1429 Rain 24 1016 61 10000 4.63 90 02:24 16.03.2021
1430 Rain 25 1016 73 10000 9.26 130 00:25 16.03.2021
1431 Rain 25 1017 65 10000 7.2 140 23:29 15.03.2021
1432 Clouds 25 1018 65 10000 3.6 160 22:55 15.03.2021
1433 Clouds 25 1018 65 10000 3.6 160 22:36 15.03.2021
1434 Clouds 25 1018 69 10000 1.54 190 21:58 15.03.2021
1435 Clouds 25 1018 69 10000 1.54 190 21:38 15.03.2021
1436 Clouds 25 1018 69 10000 1.54 190 21:20 15.03.2021
1437 Clouds 25 1018 69 10000 0.9 66 20:43 15.03.2021
1438 Clouds 25 1018 69 10000 0.9 66 20:43 15.03.2021
1439 Clouds 24 1018 69 10000 1.02 35 20:24 15.03.2021
1440 Clouds 22 1017 88 10000 1.02 35 19:51 15.03.2021
1441 Clouds 22 1017 88 10000 1.45 18 19:33 15.03.2021
1442 Clouds 20 1017 94 10000 1.54 340 18:57 15.03.2021
1443 Clouds 20 1017 94 10000 1.54 340 18:32 15.03.2021
1444 Clouds 19 1016 94 10000 1.54 330 17:56 15.03.2021
1445 Clouds 19 1016 94 10000 1.54 330 17:33 15.03.2021
1446 Clouds 19 1016 94 10000 1.54 350 16:56 15.03.2021
1447 Clouds 20 1016 94 10000 1.54 350 16:35 15.03.2021
1448 Clouds 20 1016 94 10000 2.06 340 15:47 15.03.2021
1449 Clouds 20 1016 94 10000 2.06 340 15:27 15.03.2021
1450 Clear 20 1016 88 10000 1.54 340 14:45 15.03.2021
1451 Clear 20 1016 88 10000 1.54 340 14:45 15.03.2021
1452 Clear 20 1016 88 10000 1.54 340 14:27 15.03.2021
1453 Clear 20 1017 88 10000 1.54 340 13:55 15.03.2021
1454 Clear 20 1017 88 10000 1.54 340 13:34 15.03.2021
1455 Clouds 20 1017 88 10000 2.06 340 12:51 15.03.2021
1456 Clouds 20 1017 88 10000 2.06 340 12:20 15.03.2021
1457 Clouds 20 1018 78 10000 2.06 350 11:57 15.03.2021
1458 Clouds 20 1018 78 10000 2.06 350 11:38 15.03.2021
1459 Clouds 20 1018 78 10000 2.06 350 11:18 15.03.2021
1460 Clouds 21 1018 83 10000 2.57 340 10:34 15.03.2021
1461 Clouds 21 1018 83 10000 2.57 50 09:59 15.03.2021
1462 Clouds 21 1018 83 10000 2.57 50 09:40 15.03.2021
1463 Clouds 21 1018 83 10000 2.57 50 09:20 15.03.2021
1464 Clouds 21 1017 78 10000 2.06 40 08:41 15.03.2021
1465 Clouds 21 1017 78 10000 2.06 40 08:19 15.03.2021
1466 Rain 22 1016 73 10000 1.54 140 07:33 15.03.2021
1467 Clouds 22 1016 68 10000 1.38 200 06:45 15.03.2021
1468 Clouds 23 1015 68 10000 1.54 200 05:35 15.03.2021
1469 Rain 24 1015 69 10000 2.06 190 03:18 15.03.2021
1470 Clouds 25 1017 73 10000 5.14 210 00:21 15.03.2021
1471 Clouds 25 1017 65 10000 4.12 180 23:21 14.03.2021
1472 Clouds 24 1018 69 10000 2.06 240 22:48 14.03.2021
1473 Clouds 24 1018 69 10000 2.06 240 22:25 14.03.2021
1474 Clouds 24 1018 73 10000 1.54 0 21:50 14.03.2021
1475 Clouds 24 1018 73 10000 1.54 0 21:21 14.03.2021
1476 Clouds 23 1018 73 10000 2.06 340 20:50 14.03.2021
1477 Rain 23 1018 73 10000 2.06 340 20:27 14.03.2021
1478 Rain 21 1017 83 10000 4.41 12 19:50 14.03.2021
1479 Rain 20 1017 83 10000 4.64 8 19:24 14.03.2021
1480 Rain 20 1017 88 10000 4.64 8 18:58 14.03.2021
1481 Clouds 19 1017 88 10000 4.86 16 18:28 14.03.2021
1482 Clouds 19 1016 88 10000 1.54 330 17:41 14.03.2021
1483 Clouds 19 1016 94 10000 3.09 350 17:23 14.03.2021
1484 Rain 20 1016 88 10000 3.09 340 16:52 14.03.2021
1485 Rain 20 1016 88 10000 3.09 340 16:32 14.03.2021
1486 Rain 20 1016 88 10000 3.6 340 15:57 14.03.2021
1487 Rain 20 1016 83 10000 4.63 330 15:39 14.03.2021
1488 Clouds 20 1016 83 10000 3.6 330 14:42 14.03.2021
1489 Rain 20 1016 83 10000 3.6 330 14:23 14.03.2021
1490 Rain 20 1016 83 10000 4.12 330 13:49 14.03.2021
1491 Rain 20 1017 83 10000 2.06 320 13:29 14.03.2021
1492 Rain 20 1017 83 10000 2.06 320 13:29 14.03.2021
1493 Rain 20 1017 78 10000 2.06 350 12:47 14.03.2021
1494 Rain 20 1017 78 10000 2.06 350 12:28 14.03.2021
1495 Rain 20 1017 78 10000 1.54 10 11:54 14.03.2021
1496 Rain 20 1017 78 10000 1.54 10 11:35 14.03.2021
1497 Rain 20 1017 78 10000 2.57 30 10:56 14.03.2021
1498 Rain 20 1018 78 10000 3.09 0 10:37 14.03.2021
1499 Rain 20 1018 78 10000 3.09 0 10:18 14.03.2021
1500 Rain 20 1017 78 10000 3.6 40 09:43 14.03.2021
1501 Rain 20 1017 78 10000 3.6 40 09:22 14.03.2021
1502 Rain 20 1017 78 10000 3.6 20 08:43 14.03.2021
1503 Rain 20 1017 78 10000 3.6 20 08:23 14.03.2021
1504 Rain 21 1016 73 10000 3.09 10 07:37 14.03.2021
1505 Rain 22 1015 78 10000 3.09 40 06:41 14.03.2021
1506 Clouds 23 1014 64 10000 2.06 0 03:54 14.03.2021
1507 Clouds 23 1015 73 10000 4.12 70 00:51 14.03.2021
1508 Clouds 23 1015 73 10000 4.12 70 00:19 14.03.2021
1509 Rain 23 1016 73 10000 3.6 30 23:42 13.03.2021
1510 Rain 23 1016 73 10000 3.6 30 23:24 13.03.2021
1511 Rain 22 1016 83 10000 3.09 0 22:52 13.03.2021
1512 Rain 22 1016 83 10000 3.09 0 22:25 13.03.2021
1513 Rain 22 1017 78 10000 2.57 10 21:41 13.03.2021
1514 Rain 22 1017 78 10000 2.57 10 21:20 13.03.2021
1515 Rain 21 1016 83 10000 4.12 30 20:49 13.03.2021
1516 Rain 21 1016 83 10000 4.12 30 20:30 13.03.2021
1517 Rain 21 1016 83 10000 4.12 30 20:30 13.03.2021
1518 Clouds 21 1016 83 10000 2.06 0 19:47 13.03.2021
1519 Clouds 21 1016 83 10000 2.06 0 19:29 13.03.2021
1520 Clouds 20 1015 88 10000 1.54 310 18:43 13.03.2021
1521 Clouds 20 1015 88 10000 1.54 310 18:21 13.03.2021
1522 Clouds 20 1014 88 10000 3.6 320 17:56 13.03.2021
1523 Clouds 20 1014 88 10000 3.6 320 17:34 13.03.2021
1524 Rain 19 1014 100 10000 2.57 330 16:57 13.03.2021
1525 Rain 19 1014 100 10000 2.57 330 16:39 13.03.2021
1526 Rain 20 1013 94 10000 3.09 340 15:58 13.03.2021
1527 Rain 20 1013 94 10000 3.09 340 15:22 13.03.2021
1528 Rain 20 1013 88 10000 3.6 310 14:42 13.03.2021
1529 Rain 21 1013 88 10000 3.6 310 14:23 13.03.2021
1530 Rain 20 1014 100 10000 2.57 290 13:30 13.03.2021
1531 Rain 21 1014 100 10000 3.6 250 12:54 13.03.2021
1532 Rain 21 1014 100 10000 3.6 250 12:36 13.03.2021
1533 Rain 21 1015 100 10000 6.69 220 11:58 13.03.2021
1534 Rain 21 1015 100 10000 6.69 220 11:39 13.03.2021
1535 Rain 21 1015 100 10000 6.69 220 11:20 13.03.2021
1536 Rain 21 1015 100 10000 5.66 210 10:31 13.03.2021
1537 Rain 21 1015 100 9656 10.8 210 09:59 13.03.2021
1538 Mist 21 1015 100 9656 10.8 210 09:33 13.03.2021
1539 Rain 21 1015 100 10000 1.54 260 08:54 13.03.2021
1540 Rain 22 1015 100 10000 1.54 260 08:54 13.03.2021
1541 Rain 22 1015 100 10000 1.54 260 08:26 13.03.2021
1542 Rain 21 1014 100 10000 5.66 230 07:57 13.03.2021
1543 Rain 21 1014 100 10000 5.66 230 07:38 13.03.2021
1544 Rain 23 1013 94 10000 6.69 240 05:30 13.03.2021
1545 Rain 24 1013 78 10000 6.17 210 02:42 13.03.2021
1546 Rain 24 1014 83 10000 7.2 210 00:36 13.03.2021
1547 Rain 25 1015 83 10000 7.72 210 23:46 12.03.2021
1548 Rain 25 1015 83 10000 7.72 210 23:26 12.03.2021
1549 Rain 24 1016 83 10000 6.17 190 22:32 12.03.2021
1550 Clouds 24 1016 83 10000 5.66 180 21:58 12.03.2021
1551 Clouds 24 1016 83 10000 5.66 180 21:38 12.03.2021
1552 Rain 23 1016 83 10000 5.66 180 21:18 12.03.2021
1553 Rain 23 1016 88 10000 5.66 190 20:48 12.03.2021
1554 Rain 23 1016 88 10000 5.66 190 20:23 12.03.2021
1555 Rain 22 1015 88 10000 4.63 180 19:45 12.03.2021
1556 Rain 22 1015 88 10000 4.63 180 19:45 12.03.2021
1557 Rain 22 1015 88 10000 4.63 180 19:26 12.03.2021
1558 Rain 21 1015 94 10000 3.6 190 18:50 12.03.2021
1559 Rain 21 1015 94 10000 3.6 190 18:28 12.03.2021
1560 Rain 21 1015 100 10000 1.54 10 17:44 12.03.2021
1561 Rain 21 1015 100 10000 1.54 10 17:26 12.03.2021
1562 Rain 21 1014 88 10000 4.8 206 16:44 12.03.2021
1563 Rain 21 1014 88 10000 4.98 204 16:23 12.03.2021
1564 Rain 21 1014 88 10000 4.98 204 16:23 12.03.2021
1565 Rain 21 1015 94 10000 4.98 204 15:38 12.03.2021
1566 Clouds 21 1015 94 10000 4.74 198 14:53 12.03.2021
1567 Clouds 21 1015 94 10000 2.06 360 14:22 12.03.2021
1568 Clouds 21 1016 94 10000 1.54 340 13:58 12.03.2021
1569 Clouds 21 1016 94 10000 1.54 340 13:58 12.03.2021
1570 Clouds 21 1016 94 10000 1.54 340 13:37 12.03.2021
1571 Clouds 21 1016 94 10000 1.54 340 13:18 12.03.2021
1572 Clouds 20 1017 100 10000 1.54 30 12:43 12.03.2021
1573 Rain 20 1017 100 10000 1.54 30 12:25 12.03.2021
1574 Rain 20 1018 94 10000 2.06 340 11:53 12.03.2021
1575 Rain 20 1018 94 10000 2.06 340 11:24 12.03.2021
1576 Rain 21 1018 88 10000 1.54 10 10:55 12.03.2021
1577 Rain 20 1018 88 10000 1.54 10 10:27 12.03.2021
1578 Rain 20 1018 88 10000 1.54 20 09:57 12.03.2021
1579 Rain 20 1018 88 10000 1.54 20 09:26 12.03.2021
1580 Rain 21 1018 94 10000 3.09 80 08:47 12.03.2021
1581 Rain 21 1018 94 10000 3.09 80 08:26 12.03.2021
1582 Rain 20 1018 88 10000 2.26 205 07:40 12.03.2021
1583 Rain 21 1018 83 10000 3.09 340 06:57 12.03.2021
1584 Rain 21 1018 83 10000 3.09 340 06:28 12.03.2021
1585 Rain 24 1017 83 10000 3.6 150 02:58 12.03.2021
1586 Rain 24 1018 83 10000 3.6 170 00:51 12.03.2021
1587 Clouds 24 1019 88 10000 3.6 160 23:31 11.03.2021
1588 Clouds 24 1020 83 10000 2.57 160 22:51 11.03.2021
1589 Clouds 23 1020 83 10000 2.57 160 22:30 11.03.2021
1590 Rain 23 1020 88 10000 2.66 158 21:55 11.03.2021
1591 Rain 23 1020 88 10000 2.66 158 21:36 11.03.2021
1592 Rain 23 1020 88 10000 2.32 154 21:18 11.03.2021
1593 Rain 22 1020 100 10000 2.32 154 20:41 11.03.2021
1594 Clouds 22 1020 100 10000 2.01 150 20:19 11.03.2021
1595 Rain 22 1020 83 10000 2.57 360 19:44 11.03.2021
1596 Rain 22 1020 83 10000 2.57 360 19:26 11.03.2021
1597 Rain 21 1020 83 10000 2.06 330 18:46 11.03.2021
1598 Rain 21 1019 83 10000 0.68 159 18:28 11.03.2021
1599 Rain 20 1019 100 10000 0.68 159 17:44 11.03.2021
1600 Rain 20 1018 94 10000 2.06 310 16:53 11.03.2021
1601 Rain 20 1018 94 10000 2.06 310 16:27 11.03.2021
1602 Rain 20 1018 100 10000 2.06 60 15:48 11.03.2021
1603 Rain 20 1018 100 10000 2.06 60 15:22 11.03.2021
1604 Rain 20 1019 100 10000 3.09 30 14:46 11.03.2021
1605 Rain 20 1019 100 8047 1.54 70 14:19 11.03.2021
1606 Mist 20 1019 100 8047 1.54 70 14:19 11.03.2021
1607 Clouds 20 1019 100 10000 1.95 193 13:49 11.03.2021
1608 Rain 20 1019 100 10000 2.22 188 13:30 11.03.2021
1609 Rain 20 1020 100 10000 2.06 350 12:58 11.03.2021
1610 Rain 20 1020 100 10000 2.06 350 12:38 11.03.2021
1611 Rain 20 1020 100 10000 2.06 350 12:38 11.03.2021
1612 Rain 20 1020 100 10000 2.06 350 12:20 11.03.2021
1613 Rain 20 1020 94 10000 2.06 100 11:43 11.03.2021
1614 Rain 20 1020 94 10000 2.06 100 11:21 11.03.2021
1615 Rain 21 1021 88 10000 2.57 350 10:39 11.03.2021
1616 Rain 21 1021 88 10000 2.57 350 10:19 11.03.2021
1617 Rain 20 1021 79 10000 1.54 30 09:39 11.03.2021
1618 Rain 20 1021 79 10000 1.54 30 09:21 11.03.2021
1619 Rain 19 1021 100 6437 5.66 60 08:46 11.03.2021
1620 Rain 20 1021 100 6437 5.66 60 08:18 11.03.2021
1621 Rain 20 1020 100 4828 3.6 110 07:28 11.03.2021
1622 Rain 21 1020 100 8047 3.09 80 06:49 11.03.2021
1623 Rain 21 1020 100 10000 4.12 90 06:24 11.03.2021
1624 Clouds 24 1018 78 10000 6.17 140 02:49 11.03.2021
1625 -273 0 0 0 0 0 00:55 11.03.2021
1626 Rain 25 1020 78 10000 4.63 140 23:32 10.03.2021
1627 Rain 25 1020 78 10000 4.63 140 23:32 10.03.2021
1628 Rain 24 1020 83 10000 5.66 140 22:53 10.03.2021
1629 Clouds 24 1020 83 10000 5.66 140 22:30 10.03.2021
1630 Clouds 24 1020 83 10000 5.14 110 21:47 10.03.2021
1631 Clouds 24 1020 83 10000 5.14 110 21:24 10.03.2021
1632 Rain 22 1020 94 10000 4.12 100 20:46 10.03.2021
1633 Clouds 22 1020 94 10000 4.12 100 20:28 10.03.2021
1634 Clouds 21 1019 100 10000 2.06 110 19:50 10.03.2021
1635 Clouds 21 1019 100 10000 2.06 110 19:50 10.03.2021
1636 Clouds 20 1019 100 10000 2.06 110 19:28 10.03.2021
1637 Rain 20 1019 100 10000 1.54 40 18:46 10.03.2021
1638 Rain 20 1019 100 10000 1.54 40 18:24 10.03.2021
1639 Clouds 20 1018 100 10000 1.54 90 17:56 10.03.2021
1640 Clouds 20 1018 100 10000 1.54 90 17:37 10.03.2021
1641 Rain 20 1018 100 10000 1.54 90 17:19 10.03.2021
1642 Rain 20 1018 100 10000 2.06 120 16:42 10.03.2021
1643 Rain 20 1018 100 10000 2.06 120 16:23 10.03.2021
1644 Rain 20 1017 100 10000 2.06 100 15:46 10.03.2021
1645 Rain 20 1017 100 10000 2.06 100 15:23 10.03.2021
1646 Rain 20 1018 100 10000 2.57 320 14:56 10.03.2021
1647 Rain 19 1018 100 10000 2.57 320 14:20 10.03.2021
1648 Rain 19 1018 100 10000 2.57 320 14:20 10.03.2021
1649 Clouds 20 1018 94 10000 1.54 30 13:51 10.03.2021
1650 Clouds 20 1018 94 10000 1.54 30 13:30 10.03.2021
1651 Clouds 20 1019 94 10000 1.54 340 12:46 10.03.2021
1652 Clouds 20 1019 94 10000 1.54 340 12:19 10.03.2021
1653 Clouds 20 1019 88 10000 2.91 152 11:43 10.03.2021
1654 Clouds 20 1019 88 10000 2.05 124 11:19 10.03.2021
1655 Clouds 21 1020 83 10000 2.05 124 10:46 10.03.2021
1656 Rain 21 1020 83 10000 2.15 107 10:28 10.03.2021
1657 Rain 21 1019 88 10000 2.57 310 09:45 10.03.2021
1658 Rain 21 1019 88 10000 2.57 310 09:24 10.03.2021
1659 Rain 21 1019 88 10000 2.57 310 09:24 10.03.2021
1660 Rain 21 1019 78 10000 2.68 103 08:57 10.03.2021
1661 Rain 21 1019 78 10000 2.68 103 08:39 10.03.2021
1662 Rain 21 1019 78 10000 2.63 113 08:20 10.03.2021
1663 Clouds 21 1019 83 10000 2.06 90 07:31 10.03.2021
1664 Rain 22 1018 78 10000 3.85 124 06:56 10.03.2021
1665 Rain 22 1018 78 10000 4.64 134 06:32 10.03.2021
1666 Rain 24 1017 61 10000 2.57 130 02:42 10.03.2021
1667 Rain 23 1018 69 10000 3.09 150 23:52 09.03.2021
1668 Rain 25 1018 69 10000 3.09 150 23:24 09.03.2021
1669 Rain 22 1019 78 10000 2.57 40 22:42 09.03.2021
1670 Rain 22 1019 78 10000 2.57 40 22:23 09.03.2021
1671 Rain 21 1019 83 10000 1.54 330 21:46 09.03.2021
1672 Rain 21 1019 83 10000 1.54 330 21:25 09.03.2021
1673 Rain 21 1019 94 10000 1.54 350 20:58 09.03.2021
1674 Rain 21 1019 94 10000 1.54 350 20:40 09.03.2021
1675 Rain 21 1019 94 10000 1.54 350 20:40 09.03.2021
1676 Rain 20 1019 94 10000 1.54 350 20:21 09.03.2021
1677 Rain 20 1019 88 10000 2.06 360 19:47 09.03.2021
1678 Rain 20 1019 88 10000 2.06 360 19:26 09.03.2021
1679 Rain 20 1019 94 10000 2.57 30 18:48 09.03.2021
1680 Rain 20 1019 94 10000 2.57 30 18:26 09.03.2021
1681 Rain 20 1018 94 10000 1.54 340 17:53 09.03.2021
1682 Rain 20 1018 94 10000 1.54 340 17:30 09.03.2021
1683 Rain 20 1018 94 10000 1.54 330 16:55 09.03.2021
1684 Rain 20 1018 94 10000 1.54 330 16:36 09.03.2021
1685 Rain 20 1018 94 10000 1.54 330 16:18 09.03.2021
1686 Rain 19 1018 94 10000 2.06 330 15:40 09.03.2021
1687 Rain 19 1018 94 10000 2.06 330 15:20 09.03.2021
1688 Rain 20 1018 94 10000 2.06 320 14:28 09.03.2021
1689 Rain 20 1019 88 8047 1.54 350 13:57 09.03.2021
1690 Rain 20 1019 88 8047 1.54 350 13:36 09.03.2021
1691 Rain 20 1019 88 8047 1.54 350 13:18 09.03.2021
1692 Rain 20 1019 94 10000 9.5 75 12:39 09.03.2021
1693 Rain 20 1019 94 10000 8.47 75 12:18 09.03.2021
1694 Rain 21 1020 83 10000 2.57 80 11:41 09.03.2021
1695 Rain 21 1020 83 10000 2.57 80 11:20 09.03.2021
1696 Rain 21 1020 83 10000 2.06 40 10:47 09.03.2021
1697 Rain 21 1020 83 10000 2.06 40 10:23 09.03.2021
1698 Rain 20 1020 100 10000 1.54 30 09:58 09.03.2021
1699 Rain 20 1020 100 10000 1.54 30 09:39 09.03.2021
1700 Rain 20 1020 100 10000 1.54 30 09:21 09.03.2021
1701 Rain 21 1020 88 10000 3.09 40 08:35 09.03.2021
1702 Rain 21 1020 88 10000 3.09 40 08:35 09.03.2021
1703 Rain 21 1019 88 10000 2.06 110 07:50 09.03.2021
1704 Rain 22 1019 88 10000 2.06 110 07:31 09.03.2021
1705 Rain 22 1018 78 10000 2.57 0 06:59 09.03.2021
1706 Rain 22 1018 83 10000 3.6 70 05:54 09.03.2021
1707 Rain 22 1017 94 4828 3.6 70 03:51 09.03.2021
1708 Rain 24 1019 57 10000 9.26 70 00:18 09.03.2021
1709 Rain 24 1019 61 10000 6.17 50 23:39 08.03.2021
1710 Rain 24 1019 61 10000 6.17 50 23:21 08.03.2021
1711 Rain 24 1020 69 10000 7.2 80 22:43 08.03.2021
1712 Rain 24 1020 69 10000 7.2 80 22:25 08.03.2021
1713 Rain 22 1020 88 10000 7.72 70 21:50 08.03.2021
1714 Rain 23 1020 88 10000 7.72 70 21:30 08.03.2021
1715 Rain 22 1020 73 10000 6.17 80 20:45 08.03.2021
1716 Rain 23 1020 73 10000 6.17 80 20:24 08.03.2021
1717 Rain 22 1019 73 10000 6.17 70 19:55 08.03.2021
1718 Rain 22 1019 73 10000 6.17 70 19:28 08.03.2021
1719 Rain 21 1019 78 10000 4.12 70 18:39 08.03.2021
1720 Rain 22 1019 78 10000 4.12 70 18:20 08.03.2021
1721 Rain 21 1018 78 10000 4.63 50 17:49 08.03.2021
1722 Rain 22 1018 78 10000 4.63 50 17:24 08.03.2021
1723 Rain 22 1018 78 10000 3.09 30 16:45 08.03.2021
1724 Rain 22 1018 78 10000 3.09 30 16:26 08.03.2021
1725 Rain 21 1019 83 10000 3.6 20 15:48 08.03.2021
1726 Rain 21 1019 83 10000 3.6 20 15:25 08.03.2021
1727 Rain 21 1019 78 10000 3.6 70 14:38 08.03.2021
1728 Clouds 21 1019 78 10000 3.6 70 14:19 08.03.2021
1729 Clouds 21 1019 73 10000 3.6 50 13:25 08.03.2021
1730 Clouds 21 1020 78 10000 4.12 60 12:59 08.03.2021
1731 Clouds 22 1020 78 10000 4.12 60 12:41 08.03.2021
1732 Clouds 22 1020 78 10000 4.12 60 12:20 08.03.2021
1733 Rain 22 1020 73 10000 4.63 70 11:37 08.03.2021
1734 Rain 22 1020 73 10000 4.63 70 11:18 08.03.2021
1735 Rain 22 1021 68 10000 6.69 70 10:41 08.03.2021
1736 Rain 22 1021 68 10000 6.69 70 10:19 08.03.2021
1737 Clouds 22 1021 68 10000 5.66 50 09:30 08.03.2021
1738 Clouds 22 1021 64 10000 5.66 50 08:54 08.03.2021
1739 Clouds 22 1021 64 10000 5.66 50 08:27 08.03.2021
1740 Clouds 23 1020 64 10000 4.63 60 07:23 08.03.2021
1741 Clouds 23 1019 60 10000 6.69 60 06:42 08.03.2021
1742 Clouds 25 1018 47 10000 7.2 50 03:37 08.03.2021
1743 Clouds 26 1019 44 10000 5.14 30 00:43 08.03.2021
1744 Clouds 26 1021 50 10000 7.72 80 23:54 07.03.2021
1745 Clouds 26 1021 50 10000 7.72 80 23:28 07.03.2021
1746 Clouds 26 1021 50 10000 6.17 50 22:59 07.03.2021
1747 Clouds 26 1021 50 10000 6.17 50 22:40 07.03.2021
1748 Clouds 25 1021 50 10000 6.17 50 22:20 07.03.2021
1749 Clouds 25 1021 53 10000 7.2 50 21:42 07.03.2021
1750 Clouds 25 1021 53 10000 7.2 50 21:23 07.03.2021
1751 Clouds 24 1020 57 10000 6.17 70 20:43 07.03.2021
1752 Clouds 24 1020 57 10000 6.17 70 20:24 07.03.2021
1753 Clouds 22 1020 64 10000 2.06 40 19:56 07.03.2021
1754 Clouds 22 1020 64 10000 2.06 40 19:37 07.03.2021
1755 Clouds 22 1020 64 10000 2.06 40 19:19 07.03.2021
1756 Clouds 21 1019 68 10000 3.09 50 18:40 07.03.2021
1757 Clouds 21 1019 68 10000 3.09 50 18:19 07.03.2021
1758 Clouds 21 1019 68 10000 2.57 30 17:39 07.03.2021
1759 Clouds 21 1019 68 10000 2.57 30 17:20 07.03.2021
1760 Clouds 21 1018 68 10000 3.09 70 16:44 07.03.2021
1761 Clouds 21 1018 68 10000 3.09 70 16:21 07.03.2021
1762 Clouds 21 1019 68 10000 4.63 60 15:56 07.03.2021
1763 Clouds 21 1019 68 10000 4.63 60 15:38 07.03.2021
1764 Clouds 21 1019 68 10000 4.63 60 15:19 07.03.2021
1765 Clouds 21 1019 68 10000 4.63 60 14:29 07.03.2021
1766 Clouds 21 1020 68 10000 5.66 60 13:51 07.03.2021
1767 Clouds 21 1020 68 10000 5.66 60 13:31 07.03.2021
1768 Clouds 21 1020 68 10000 7.72 70 12:59 07.03.2021
1769 Clouds 21 1020 68 10000 7.72 70 12:40 07.03.2021
1770 Clouds 21 1020 68 10000 7.72 70 12:20 07.03.2021
1771 Clouds 22 1020 64 10000 8.23 70 11:24 07.03.2021
1772 Clouds 22 1020 64 10000 5.66 50 10:56 07.03.2021
1773 Clouds 22 1020 64 10000 5.66 50 10:38 07.03.2021
1774 Clouds 22 1020 64 10000 5.66 50 10:38 07.03.2021
1775 Clouds 22 1021 64 10000 7.2 70 09:56 07.03.2021
1776 Clouds 22 1021 64 10000 7.2 70 09:30 07.03.2021
1777 Clouds 22 1020 64 10000 7.2 50 09:00 07.03.2021
1778 Clouds 22 1020 64 10000 7.2 50 08:40 07.03.2021
1779 Clouds 22 1020 64 10000 7.2 50 08:21 07.03.2021
1780 Clouds 22 1019 64 10000 7.72 60 06:51 07.03.2021
1781 Rain 24 1018 53 10000 9.26 70 02:40 07.03.2021
1782 Clouds 24 1019 53 10000 7.72 50 00:34 07.03.2021
1783 Rain 23 1020 64 10000 5.66 70 23:40 06.03.2021
1784 Rain 23 1020 64 10000 5.66 70 23:20 06.03.2021
1785 Rain 23 1021 64 10000 8.75 70 22:45 06.03.2021
1786 Rain 23 1021 64 10000 8.75 70 22:21 06.03.2021
1787 Rain 22 1021 68 10000 7.72 60 21:47 06.03.2021
1788 Rain 22 1021 68 10000 7.72 60 21:20 06.03.2021
1789 Rain 21 1021 83 10000 5.14 60 20:43 06.03.2021
1790 Rain 21 1021 83 10000 5.14 60 20:18 06.03.2021
1791 Rain 20 1020 88 10000 3.6 60 19:38 06.03.2021
1792 Rain 20 1020 88 10000 3.6 60 19:18 06.03.2021
1793 Rain 20 1020 88 10000 5.14 60 18:41 06.03.2021
1794 Rain 20 1020 88 10000 5.14 60 18:21 06.03.2021
1795 Rain 20 1019 78 10000 3.6 60 17:54 06.03.2021
1796 Rain 20 1019 78 10000 3.6 60 17:32 06.03.2021
1797 Rain 20 1019 78 10000 2.57 40 16:58 06.03.2021
1798 Rain 20 1019 78 10000 2.57 40 16:33 06.03.2021
1799 Rain 20 1019 73 10000 3.09 40 15:56 06.03.2021
1800 Rain 20 1019 73 10000 3.09 40 15:38 06.03.2021
1801 Rain 20 1019 73 10000 3.09 40 15:19 06.03.2021
1802 Rain 20 1019 78 10000 6.17 40 14:33 06.03.2021
1803 Rain 20 1020 78 10000 5.14 80 13:55 06.03.2021
1804 Rain 20 1020 78 10000 5.14 80 13:37 06.03.2021
1805 Rain 20 1020 78 10000 5.14 80 13:18 06.03.2021
1806 Rain 20 1020 73 10000 4.12 50 12:42 06.03.2021
1807 Rain 21 1020 73 10000 4.12 50 12:18 06.03.2021
1808 Rain 20 1020 78 10000 3.6 60 11:38 06.03.2021
1809 Rain 20 1020 78 10000 3.6 60 11:19 06.03.2021
1810 Rain 20 1021 73 10000 4.12 40 10:43 06.03.2021
1811 Rain 20 1021 78 10000 4.12 40 09:57 06.03.2021
1812 Rain 20 1021 78 10000 4.12 40 09:57 06.03.2021
1813 Rain 20 1021 78 10000 4.12 40 09:26 06.03.2021
1814 Rain 20 1020 78 10000 3.09 40 08:54 06.03.2021
1815 Rain 20 1020 78 10000 3.09 40 08:30 06.03.2021
1816 Rain 20 1020 78 10000 3.09 40 08:30 06.03.2021
1817 Rain 20 1020 78 10000 4.12 40 07:43 06.03.2021
1818 Rain 20 1020 78 10000 4.12 40 07:21 06.03.2021
1819 Rain 21 1019 68 10000 4.63 60 05:52 06.03.2021
1820 Rain 22 1018 64 10000 5.66 30 03:47 06.03.2021
1821 Rain 22 1018 60 10000 6.69 50 01:32 06.03.2021
1822 Rain 22 1019 68 10000 5.66 30 00:46 06.03.2021
1823 Rain 22 1020 64 10000 5.66 10 23:44 05.03.2021
1824 Rain 22 1020 64 10000 5.66 10 23:19 05.03.2021
1825 Rain 21 1020 73 10000 6.69 60 22:43 05.03.2021
1826 Rain 21 1020 73 10000 6.69 60 22:21 05.03.2021
1827 Rain 20 1020 73 10000 4.63 90 21:43 05.03.2021
1828 Rain 21 1020 73 10000 4.63 90 21:25 05.03.2021
1829 Rain 20 1020 88 10000 3.6 70 20:47 05.03.2021
1830 Rain 20 1020 88 10000 3.6 70 20:25 05.03.2021
1831 Rain 19 1019 100 10000 2.06 10 19:48 05.03.2021
1832 Rain 19 1019 100 10000 2.06 10 19:22 05.03.2021
1833 Rain 19 1019 94 10000 4.12 30 18:45 05.03.2021
1834 Rain 19 1019 94 10000 4.12 30 18:26 05.03.2021
1835 Rain 19 1018 94 10000 2.57 360 17:51 05.03.2021
1836 Rain 19 1018 94 10000 2.57 360 17:33 05.03.2021
1837 Rain 19 1018 94 10000 2.06 350 16:44 05.03.2021
1838 Rain 19 1018 94 10000 2.06 350 16:24 05.03.2021
1839 Rain 19 1018 94 10000 2.57 340 15:55 05.03.2021
1840 Rain 19 1018 94 10000 2.57 340 15:27 05.03.2021
1841 Rain 19 1019 94 9656 4.12 10 14:52 05.03.2021
1842 Rain 19 1019 94 9656 4.12 10 14:34 05.03.2021
1843 Rain 19 1019 88 10000 7.76 49 13:44 05.03.2021
1844 Rain 19 1019 88 10000 7.84 45 13:21 05.03.2021
1845 Rain 19 1020 83 10000 3.09 10 12:45 05.03.2021
1846 Rain 19 1020 83 10000 1.54 80 11:40 05.03.2021
1847 Rain 19 1020 83 10000 1.54 80 11:20 05.03.2021
1848 Rain 20 1020 68 10000 3.09 10 10:57 05.03.2021
1849 Rain 20 1020 68 10000 3.09 10 10:37 05.03.2021
1850 Rain 20 1020 68 10000 3.09 10 10:18 05.03.2021
1851 Rain 20 1020 68 10000 1.54 350 09:39 05.03.2021
1852 Rain 20 1020 68 10000 1.54 350 09:20 05.03.2021
1853 Clouds 21 1019 68 10000 1.54 360 08:39 05.03.2021
1854 Clouds 21 1019 68 10000 1.54 360 08:20 05.03.2021
1855 Clouds 21 1019 68 10000 4.12 70 07:34 05.03.2021
1856 Clouds 21 1018 64 10000 2.57 360 06:35 05.03.2021
1857 Clouds 22 1018 60 10000 4.12 30 05:42 05.03.2021
1858 Clouds 24 1018 53 10000 4.63 80 01:18 05.03.2021
1859 Clouds 24 1019 53 10000 4.12 40 23:54 04.03.2021
1860 Clouds 24 1019 53 10000 4.12 40 23:24 04.03.2021
1861 Rain 23 1020 57 10000 4.63 70 22:30 04.03.2021
1862 Clouds 23 1020 57 10000 5.14 60 21:53 04.03.2021
1863 Clouds 23 1020 57 10000 5.14 60 21:32 04.03.2021
1864 Clouds 22 1020 60 10000 2.57 50 20:57 04.03.2021
1865 Clouds 22 1020 60 10000 2.57 50 20:38 04.03.2021
1866 Clouds 22 1020 60 10000 2.57 50 20:20 04.03.2021
1867 Clouds 22 1020 60 10000 2.57 50 20:20 04.03.2021
1868 Clouds 20 1019 82 10000 2.57 330 19:49 04.03.2021
1869 Clouds 20 1019 82 10000 2.57 330 19:23 04.03.2021
1870 Clouds 19 1019 82 10000 1.54 360 18:50 04.03.2021
1871 Clouds 19 1019 82 10000 1.54 360 18:29 04.03.2021
1872 Clouds 19 1019 77 10000 2.57 310 17:47 04.03.2021
1873 Clouds 19 1019 77 10000 2.57 310 17:47 04.03.2021
1874 Clouds 19 1019 77 10000 2.57 310 17:29 04.03.2021
1875 Clouds 19 1018 77 10000 1.54 320 16:50 04.03.2021
1876 Clouds 19 1018 77 10000 1.54 320 16:31 04.03.2021
1877 Clouds 19 1018 72 10000 1.54 310 15:56 04.03.2021
1878 Rain 19 1018 72 10000 1.54 310 15:34 04.03.2021
1879 Clouds 19 1019 72 10000 2.57 290 14:53 04.03.2021
1880 Clouds 19 1019 72 10000 2.57 290 14:31 04.03.2021
1881 Clouds 19 1019 72 10000 1.54 270 13:50 04.03.2021
1882 Clouds 19 1019 72 10000 1.54 270 13:32 04.03.2021
1883 Clouds 20 1019 68 10000 3.09 10 12:58 04.03.2021
1884 Clouds 20 1019 68 10000 3.09 10 12:39 04.03.2021
1885 Rain 19 1020 77 10000 2.57 30 11:47 04.03.2021
1886 Rain 19 1020 77 10000 2.57 30 11:26 04.03.2021
1887 Rain 20 1020 68 10000 4.12 60 10:55 04.03.2021
1888 Rain 21 1020 68 10000 4.12 60 10:31 04.03.2021
1889 Rain 20 1020 68 10000 4.63 30 09:44 04.03.2021
1890 Clouds 20 1020 68 10000 4.63 30 09:23 04.03.2021
1891 Rain 20 1020 78 10000 3.09 60 08:36 04.03.2021
1892 Rain 20 1019 78 10000 3.6 20 07:53 04.03.2021
1893 Rain 20 1019 78 10000 3.6 20 07:29 04.03.2021
1894 Clouds 20 1019 64 10000 6.17 30 06:24 04.03.2021
1895 Rain 22 1018 56 10000 4.12 60 05:27 04.03.2021
1896 Clouds 24 1017 47 10000 7.2 30 01:41 04.03.2021
1897 Clouds 24 1020 44 10000 4.12 20 22:44 03.03.2021
1898 Clouds 24 1020 44 10000 4.12 20 22:26 03.03.2021
1899 Clouds 23 1021 43 10000 5.14 50 21:44 03.03.2021
1900 Clouds 23 1021 43 10000 5.14 50 21:24 03.03.2021
1901 Clouds 23 1021 43 10000 4.12 30 20:59 03.03.2021
1902 Clouds 23 1021 43 10000 4.12 30 20:41 03.03.2021
1903 Clouds 21 1021 53 10000 2.57 30 19:59 03.03.2021
1904 Clouds 21 1021 53 10000 2.57 30 19:40 03.03.2021
1905 Clouds 21 1021 53 10000 2.57 30 19:22 03.03.2021
1906 Clouds 20 1020 52 10000 2.06 350 18:47 03.03.2021
1907 Clouds 20 1020 52 10000 2.06 350 18:25 03.03.2021
1908 Clouds 20 1020 60 10000 6.69 60 17:50 03.03.2021
1909 Clouds 20 1020 60 10000 6.69 60 17:19 03.03.2021
1910 Rain 20 1019 64 10000 7.2 60 16:44 03.03.2021
1911 Rain 20 1019 64 10000 7.2 60 16:23 03.03.2021
1912 Rain 20 1019 100 10000 1.54 280 15:34 03.03.2021
1913 Rain 20 1020 100 10000 1.54 250 14:59 03.03.2021
1914 Rain 20 1020 94 10000 1.54 0 14:30 03.03.2021
1915 Rain 19 1020 88 4828 4.12 80 13:53 03.03.2021
1916 Rain 19 1020 88 4828 4.12 80 13:33 03.03.2021
1917 Rain 20 1021 73 10000 5.66 60 12:46 03.03.2021
1918 Rain 20 1021 73 10000 5.66 60 12:46 03.03.2021
1919 Rain 20 1021 73 10000 5.66 60 12:28 03.03.2021
1920 Rain 20 1021 78 10000 2.06 0 11:48 03.03.2021
1921 Rain 20 1021 78 10000 2.06 0 11:28 03.03.2021
1922 Rain 21 1021 68 10000 6.69 40 10:53 03.03.2021
1923 Rain 21 1021 68 10000 6.69 40 10:32 03.03.2021
1924 Rain 21 1021 68 10000 7.2 40 09:53 03.03.2021
1925 Rain 21 1021 68 10000 7.2 40 09:35 03.03.2021
1926 Clouds 21 1021 60 10000 3.6 40 08:46 03.03.2021
1927 Clouds 21 1021 60 10000 3.6 40 08:22 03.03.2021
1928 Rain 21 1021 68 10000 6.69 50 07:50 03.03.2021
1929 Rain 22 1020 60 10000 9.26 60 06:51 03.03.2021
1930 Clouds 22 1020 60 10000 7.2 50 05:49 03.03.2021
1931 Clouds 23 1019 53 10000 9.77 60 04:59 03.03.2021
1932 Rain 23 1019 53 10000 9.77 60 04:35 03.03.2021
1933 Clouds 24 1019 47 10000 10.8 50 03:51 03.03.2021
1934 Clouds 25 1022 47 10000 11.83 50 23:59 02.03.2021
1935 Clouds 25 1022 47 10000 11.83 50 23:31 02.03.2021
1936 Clouds 24 1022 50 10000 10.29 50 22:42 02.03.2021
1937 Clouds 24 1022 50 10000 10.29 50 22:19 02.03.2021
1938 Clouds 23 1022 53 10000 7.2 50 21:41 02.03.2021
1939 Clouds 23 1022 53 10000 7.2 50 21:22 02.03.2021
1940 Clouds 22 1022 60 10000 9.77 70 20:48 02.03.2021
1941 Clouds 22 1022 60 10000 9.77 70 20:22 02.03.2021
1942 Clouds 21 1022 68 10000 6.69 80 19:56 02.03.2021
1943 Clouds 21 1022 68 10000 6.69 80 19:38 02.03.2021
1944 Clouds 21 1022 68 10000 6.69 80 19:18 02.03.2021
1945 Clouds 21 1021 64 10000 9.26 70 18:40 02.03.2021
1946 Clouds 21 1021 64 10000 9.26 70 18:21 02.03.2021
1947 Clouds 21 1021 64 10000 5.14 70 17:49 02.03.2021
1948 Clouds 21 1021 64 10000 5.14 70 17:30 02.03.2021
1949 Clouds 21 1021 73 10000 5.66 60 16:56 02.03.2021
1950 Rain 20 1021 73 10000 5.66 60 16:23 02.03.2021
1951 Rain 20 1021 73 10000 5.66 80 15:51 02.03.2021
1952 Clouds 20 1021 73 10000 5.66 80 15:25 02.03.2021
1953 Rain 21 1021 68 10000 5.66 60 14:24 02.03.2021
1954 Rain 20 1022 78 10000 7.2 60 13:53 02.03.2021
1955 Rain 21 1022 78 10000 7.2 60 13:31 02.03.2021
1956 Rain 21 1022 78 10000 4.12 60 12:55 02.03.2021
1957 Rain 21 1022 78 10000 4.12 60 12:29 02.03.2021
1958 Rain 21 1023 64 10000 5.14 50 11:54 02.03.2021
1959 Rain 21 1023 64 10000 5.14 50 11:54 02.03.2021
1960 Rain 21 1023 64 10000 5.14 50 11:34 02.03.2021
1961 Rain 21 1023 60 10000 6.17 60 10:58 02.03.2021
1962 Rain 22 1023 60 10000 6.17 60 10:32 02.03.2021
1963 Rain 22 1023 60 10000 8.23 70 09:57 02.03.2021
1964 Rain 22 1023 60 10000 8.23 70 09:39 02.03.2021
1965 Rain 22 1023 60 10000 8.23 70 09:39 02.03.2021
1966 Clouds 22 1023 60 10000 8.23 70 09:18 02.03.2021
1967 Clouds 22 1022 56 10000 6.69 60 08:36 02.03.2021
1968 Rain 22 1022 60 10000 3.6 60 07:52 02.03.2021
1969 Clouds 22 1022 56 10000 5.66 60 06:50 02.03.2021
1970 Clouds 23 1021 53 10000 8.23 60 05:54 02.03.2021
1971 Clouds 23 1021 53 10000 8.23 60 05:33 02.03.2021
1972 Clouds 23 1021 53 10000 7.72 40 04:39 02.03.2021
1973 Clouds 24 1022 47 10000 9.77 50 01:43 02.03.2021
1974 Clouds 24 1022 47 10000 9.77 50 01:43 02.03.2021
1975 Clouds 24 1022 47 10000 9.77 50 01:22 02.03.2021
1976 Clouds 25 1023 50 10000 9.26 50 23:40 01.03.2021
1977 Clouds 25 1023 50 10000 9.26 50 23:19 01.03.2021
1978 Rain 23 1023 60 10000 8.75 50 22:38 01.03.2021
1979 Rain 24 1023 60 10000 8.75 50 22:19 01.03.2021
1980 Rain 23 1023 60 10000 7.72 40 21:42 01.03.2021
1981 Rain 23 1023 60 10000 7.72 40 21:23 01.03.2021
1982 Rain 22 1023 64 10000 7.72 60 20:43 01.03.2021
1983 Rain 22 1023 64 10000 7.72 60 20:43 01.03.2021
1984 Rain 22 1023 64 10000 7.72 60 20:21 01.03.2021
1985 Rain 22 1023 64 10000 6.69 50 19:43 01.03.2021
1986 Rain 22 1023 64 10000 6.69 50 19:24 01.03.2021
1987 Clouds 22 1022 68 10000 7.72 40 18:43 01.03.2021
1988 Clouds 21 1022 68 10000 7.72 40 18:23 01.03.2021
1989 Rain 22 1021 60 10000 7.2 60 17:47 01.03.2021
1990 Rain 22 1021 60 10000 7.2 60 17:22 01.03.2021
1991 Rain 22 1021 64 10000 6.17 50 16:47 01.03.2021
1992 Rain 22 1021 64 10000 6.17 50 16:27 01.03.2021
1993 Rain 22 1021 68 10000 6.17 60 15:49 01.03.2021
1994 Rain 22 1021 68 10000 6.17 60 15:23 01.03.2021
1995 Rain 21 1021 73 10000 6.17 60 14:58 01.03.2021
1996 Rain 21 1021 73 10000 6.17 60 14:39 01.03.2021
1997 Rain 22 1021 68 10000 7.2 60 13:50 01.03.2021
1998 Rain 22 1021 68 10000 7.2 60 13:29 01.03.2021
1999 Rain 22 1022 68 10000 6.69 60 12:59 01.03.2021
2000 Rain 22 1022 68 10000 6.69 60 12:41 01.03.2021
2001 Rain 22 1022 68 10000 6.69 60 12:21 01.03.2021
2002 Clouds 22 1022 68 10000 8.23 60 11:47 01.03.2021
2003 Clouds 22 1022 68 10000 8.23 60 11:18 01.03.2021
2004 Clouds 22 1022 68 10000 8.75 60 10:37 01.03.2021
2005 Clouds 22 1022 68 10000 8.75 60 10:18 01.03.2021
2006 Clouds 22 1022 68 10000 9.26 60 09:48 01.03.2021
2007 Clouds 22 1022 68 10000 9.26 60 09:28 01.03.2021
2008 Rain 22 1022 78 10000 10.8 70 08:55 01.03.2021
2009 Rain 22 1022 78 10000 10.8 70 08:22 01.03.2021
2010 Rain 22 1021 64 10000 4.12 50 06:55 01.03.2021
2011 Rain 22 1021 64 10000 4.12 50 06:24 01.03.2021
2012 Rain 24 1020 50 10000 9.26 70 02:38 01.03.2021
2013 Rain 24 1021 54 10000 7.2 40 23:44 28.02.2021
2014 Clouds 24 1022 61 10000 9.26 50 22:57 28.02.2021
2015 Clouds 24 1022 61 10000 9.26 50 22:27 28.02.2021
2016 Clouds 24 1022 61 10000 9.26 50 22:26 28.02.2021
2017 Clouds 24 1021 61 10000 7.2 60 21:55 28.02.2021
2018 Rain 24 1021 61 10000 7.2 60 21:33 28.02.2021
2019 Rain 23 1021 69 10000 7.2 70 20:58 28.02.2021
2020 Rain 23 1021 69 10000 7.2 70 20:38 28.02.2021
2021 Clouds 22 1021 68 10000 7.2 70 19:57 28.02.2021
2022 Clouds 22 1021 68 10000 7.2 70 19:38 28.02.2021
2023 Clouds 22 1021 68 10000 7.2 70 19:20 28.02.2021
2024 Rain 21 1021 73 10000 7.2 70 18:43 28.02.2021
2025 Rain 21 1021 73 10000 7.2 70 18:24 28.02.2021
2026 Rain 21 1020 73 10000 4.12 70 17:48 28.02.2021
2027 Rain 21 1020 73 10000 4.12 70 17:28 28.02.2021
2028 Rain 21 1020 73 10000 4.12 70 16:54 28.02.2021
2029 Rain 21 1020 73 10000 4.12 70 16:36 28.02.2021
2030 Rain 21 1020 73 10000 6.17 50 15:55 28.02.2021
2031 Rain 21 1020 73 10000 6.17 50 15:36 28.02.2021
2032 Rain 21 1020 73 10000 6.17 50 15:18 28.02.2021
2033 Rain 21 1020 73 10000 7.2 50 14:45 28.02.2021
2034 Rain 22 1020 73 10000 7.2 50 14:24 28.02.2021
2035 Clouds 22 1020 68 10000 6.17 60 13:47 28.02.2021
2036 Clouds 22 1020 68 10000 6.17 60 13:19 28.02.2021
2037 Rain 22 1021 68 10000 6.17 50 12:55 28.02.2021
2038 Rain 22 1021 68 10000 6.17 50 12:55 28.02.2021
2039 Rain 22 1021 68 10000 6.17 50 12:37 28.02.2021
2040 Rain 22 1021 68 10000 6.17 50 12:19 28.02.2021
2041 Clouds 22 1021 64 10000 6.69 60 11:43 28.02.2021
2042 Clouds 22 1021 64 10000 6.69 60 11:24 28.02.2021
2043 Clouds 22 1021 68 10000 7.72 60 10:52 28.02.2021
2044 Clouds 22 1021 68 10000 7.72 60 10:27 28.02.2021
2045 Clouds 22 1021 64 10000 5.66 40 09:42 28.02.2021
2046 Clouds 22 1021 64 10000 5.66 40 09:24 28.02.2021
2047 Clouds 22 1021 68 10000 5.14 40 08:50 28.02.2021
2048 Clouds 22 1021 68 10000 5.14 40 08:31 28.02.2021
2049 Clouds 22 1020 68 10000 4.12 70 07:54 28.02.2021
2050 Clouds 22 1020 68 10000 4.12 70 07:36 28.02.2021
2051 Clouds 23 1020 64 10000 8.75 60 06:43 28.02.2021
2052 Clouds 23 1019 60 10000 6.17 70 05:24 28.02.2021
2053 Clouds 24 1019 57 10000 10.29 60 03:40 28.02.2021
2054 Rain 24 1019 61 10000 8.75 40 01:44 28.02.2021
2055 Rain 25 1019 73 10000 9.26 50 00:50 28.02.2021
2056 Rain 25 1019 73 10000 9.26 50 00:26 28.02.2021
2057 Rain 23 1020 83 10000 6.17 80 23:45 27.02.2021
2058 Rain 23 1020 83 10000 6.17 80 23:19 27.02.2021
2059 Rain 23 1021 83 10000 6.69 60 22:45 27.02.2021
2060 Rain 22 1021 83 10000 6.69 60 22:19 27.02.2021
2061 Rain 22 1021 83 10000 4.12 60 21:42 27.02.2021
2062 Rain 22 1021 83 10000 4.12 60 21:42 27.02.2021
2063 Rain 22 1021 83 10000 4.12 60 21:24 27.02.2021
2064 Rain 22 1020 73 10000 5.66 60 20:49 27.02.2021
2065 Rain 22 1020 73 10000 5.66 60 20:27 27.02.2021
2066 Rain 21 1020 78 10000 7.2 50 19:46 27.02.2021
2067 Rain 21 1020 78 10000 7.2 50 19:27 27.02.2021
2068 Rain 21 1019 78 10000 5.66 70 18:46 27.02.2021
2069 Rain 21 1019 78 10000 5.66 70 18:22 27.02.2021
2070 Rain 22 1019 73 10000 3.09 80 17:58 27.02.2021
2071 Rain 21 1019 73 10000 3.09 80 17:38 27.02.2021
2072 Rain 21 1019 73 10000 3.09 80 17:18 27.02.2021
2073 Rain 21 1019 78 10000 5.66 60 16:48 27.02.2021
2074 Rain 21 1019 78 10000 5.66 60 16:26 27.02.2021
2075 Rain 22 1019 64 10000 3.6 90 15:43 27.02.2021
2076 Rain 21 1019 64 10000 3.6 90 15:18 27.02.2021
2077 Clouds 22 1019 64 10000 5.14 70 14:40 27.02.2021
2078 Clouds 22 1019 64 10000 5.14 70 14:20 27.02.2021
2079 Clouds 22 1020 68 10000 5.14 70 13:39 27.02.2021
2080 Clouds 22 1020 68 10000 5.14 70 13:19 27.02.2021
2081 Clouds 22 1020 68 10000 4.63 70 12:45 27.02.2021
2082 Clouds 22 1020 68 10000 4.63 70 12:22 27.02.2021
2083 Clouds 23 1020 60 10000 8.23 60 11:46 27.02.2021
2084 Clouds 23 1020 60 10000 8.23 60 11:27 27.02.2021
2085 Clouds 23 1021 60 10000 7.2 50 10:48 27.02.2021
2086 Clouds 23 1021 60 10000 7.2 50 10:29 27.02.2021
2087 Clouds 23 1021 60 10000 7.2 60 09:52 27.02.2021
2088 Clouds 23 1021 60 10000 7.2 60 09:31 27.02.2021
2089 Clouds 23 1021 64 10000 7.2 60 08:43 27.02.2021
2090 Clouds 23 1021 64 10000 7.2 60 08:22 27.02.2021
2091 Clouds 23 1020 64 10000 9.26 60 07:43 27.02.2021
2092 Clouds 23 1019 64 10000 6.17 50 06:33 27.02.2021
2093 Clouds 26 1018 44 10000 7.72 70 01:21 27.02.2021
2094 Clouds 26 1019 47 10000 8.75 70 23:58 26.02.2021
2095 Clouds 26 1019 47 10000 8.75 70 23:40 26.02.2021
2096 Clouds 26 1019 47 10000 8.75 70 23:18 26.02.2021
2097 Clouds 26 1020 50 10000 11.32 80 22:31 26.02.2021
2098 Clouds 25 1020 47 10000 9.26 60 21:49 26.02.2021
2099 Clouds 25 1020 47 10000 9.26 60 21:31 26.02.2021
2100 Clouds 25 1020 53 10000 7.72 60 20:45 26.02.2021
2101 Clouds 24 1020 53 10000 7.72 60 20:24 26.02.2021
2102 Clouds 23 1019 60 10000 8.23 70 19:52 26.02.2021
2103 Clouds 23 1019 60 10000 8.23 70 19:25 26.02.2021
2104 Clouds 22 1019 64 10000 5.66 60 18:48 26.02.2021
2105 Clouds 22 1019 64 10000 5.66 60 18:24 26.02.2021
2106 Clouds 22 1018 64 10000 5.14 60 17:48 26.02.2021
2107 Clouds 22 1018 64 10000 5.14 60 17:29 26.02.2021
2108 Clouds 22 1018 60 10000 6.17 60 16:56 26.02.2021
2109 Clouds 22 1018 60 10000 6.17 60 16:37 26.02.2021
2110 Clouds 22 1018 60 10000 6.17 60 16:19 26.02.2021
2111 Clouds 22 1018 56 10000 7.2 70 15:41 26.02.2021
2112 Clouds 22 1018 56 10000 7.2 70 15:22 26.02.2021
2113 Clouds 22 1018 64 10000 7.2 60 14:51 26.02.2021
2114 Clouds 22 1018 64 10000 7.2 60 14:30 26.02.2021
2115 Clouds 22 1018 68 10000 7.2 60 13:46 26.02.2021
2116 Clouds 22 1018 68 10000 7.2 60 13:28 26.02.2021
2117 Clouds 23 1019 64 10000 9.77 60 12:43 26.02.2021
2118 Clouds 23 1019 64 10000 9.77 60 12:25 26.02.2021
2119 Clouds 23 1019 64 10000 8.23 70 11:38 26.02.2021
2120 Rain 22 1019 73 10000 4.12 80 10:54 26.02.2021
2121 Rain 22 1019 73 10000 4.12 80 10:20 26.02.2021
2122 Clouds 22 1019 73 10000 6.17 60 09:46 26.02.2021
2123 Rain 22 1019 73 10000 6.17 60 09:26 26.02.2021
2124 Clouds 23 1019 64 10000 6.69 50 08:29 26.02.2021
2125 Clouds 23 1018 64 10000 7.72 70 07:52 26.02.2021
2126 Rain 24 1017 57 10000 10.29 70 06:48 26.02.2021
2127 Rain 24 1017 53 10000 9.77 50 05:39 26.02.2021
2128 Clouds 26 1016 51 10000 10.29 60 03:51 26.02.2021
2129 Clouds 26 1016 47 10000 10.8 60 02:36 26.02.2021
2130 Clouds 26 1017 45 10000 8.23 60 00:23 26.02.2021
2131 Clouds 26 1018 47 10000 8.23 90 23:29 25.02.2021
2132 Clouds 26 1018 47 10000 8.23 60 22:50 25.02.2021
2133 Clouds 26 1018 47 10000 8.23 60 22:31 25.02.2021
2134 Clouds 26 1018 54 10000 7.2 60 21:45 25.02.2021
2135 Clouds 26 1018 54 10000 7.2 60 21:27 25.02.2021
2136 Clouds 25 1018 53 10000 9.77 70 20:41 25.02.2021
2137 Clouds 25 1018 53 10000 9.77 70 20:23 25.02.2021
2138 Clouds 25 1018 53 10000 9.77 70 20:23 25.02.2021
2139 Clouds 23 1017 60 10000 5.66 60 19:52 25.02.2021
2140 Clouds 23 1017 60 10000 5.66 60 19:22 25.02.2021
2141 Clouds 22 1017 64 10000 6.17 80 18:58 25.02.2021
2142 Clouds 22 1017 64 10000 6.17 80 18:27 25.02.2021
2143 Clouds 22 1016 64 10000 6.17 60 17:50 25.02.2021
2144 Clouds 22 1016 64 10000 6.17 60 17:27 25.02.2021
2145 Clouds 22 1016 64 10000 5.14 70 16:48 25.02.2021
2146 Clouds 22 1016 64 10000 5.14 70 16:25 25.02.2021
2147 Clouds 22 1016 68 10000 8.23 70 15:30 25.02.2021
2148 Clouds 22 1016 68 10000 4.63 60 14:58 25.02.2021
2149 Clouds 22 1016 68 10000 4.63 60 14:26 25.02.2021
2150 Clouds 22 1016 68 10000 4.12 40 13:53 25.02.2021
2151 Clouds 22 1016 68 10000 4.12 40 13:26 25.02.2021
2152 Clouds 22 1017 68 10000 6.69 70 12:56 25.02.2021
2153 Clouds 22 1017 68 10000 6.69 70 12:22 25.02.2021
2154 Clouds 23 1017 60 10000 5.14 60 11:47 25.02.2021
2155 Clouds 23 1017 60 10000 5.14 60 11:20 25.02.2021
2156 Clouds 23 1017 60 10000 6.17 80 10:45 25.02.2021
2157 Rain 23 1017 60 10000 6.17 80 10:26 25.02.2021
2158 Rain 23 1017 64 10000 5.66 60 09:43 25.02.2021
2159 Rain 23 1017 60 10000 9.77 70 08:56 25.02.2021
2160 Clouds 23 1017 60 10000 9.77 70 08:25 25.02.2021
2161 Clouds 23 1016 64 10000 6.69 60 07:56 25.02.2021
2162 Clouds 23 1016 64 10000 6.69 60 07:31 25.02.2021
2163 Clouds 23 1016 60 10000 8.75 60 06:51 25.02.2021
2164 Clouds 25 1015 44 10000 7.2 70 01:57 25.02.2021
2165 Clouds 26 1015 44 10000 7.2 70 01:37 25.02.2021
2166 Clouds 26 1015 45 10000 7.2 60 00:39 25.02.2021
2167 Clouds 26 1016 47 10000 7.2 70 23:51 24.02.2021
2168 Clouds 26 1016 47 10000 7.2 70 23:24 24.02.2021
2169 Clouds 25 1016 47 10000 7.72 50 22:44 24.02.2021
2170 Clouds 25 1016 47 10000 7.72 50 22:25 24.02.2021
2171 Clouds 25 1017 44 10000 7.72 70 21:45 24.02.2021
2172 Clouds 24 1016 53 10000 6.69 70 20:54 24.02.2021
2173 Clouds 24 1016 53 10000 6.69 70 20:31 24.02.2021
2174 Clouds 23 1016 64 10000 8.75 70 19:56 24.02.2021
2175 Clouds 23 1016 64 10000 8.75 70 19:28 24.02.2021
2176 Clouds 22 1016 64 10000 5.66 60 18:55 24.02.2021
2177 Clouds 22 1016 64 10000 5.66 60 18:34 24.02.2021
2178 Clouds 22 1015 64 10000 5.14 70 17:50 24.02.2021
2179 Clouds 22 1015 64 10000 5.14 70 17:29 24.02.2021
2180 Clouds 22 1015 64 10000 4.12 60 16:52 24.02.2021
2181 Clouds 22 1015 64 10000 4.12 60 16:22 24.02.2021
2182 Clouds 22 1015 68 10000 6.17 60 15:58 24.02.2021
2183 Clouds 22 1015 68 10000 6.17 60 15:36 24.02.2021
2184 Clouds 22 1015 64 10000 6.17 50 14:52 24.02.2021
2185 Clouds 22 1015 64 10000 6.17 50 14:32 24.02.2021
2186 Clouds 22 1016 64 10000 4.12 60 13:56 24.02.2021
2187 Clouds 22 1016 64 10000 4.12 60 13:37 24.02.2021
2188 Clouds 22 1016 64 10000 4.12 60 13:19 24.02.2021
2189 Clouds 23 1016 68 10000 6.17 60 12:42 24.02.2021
2190 Clouds 23 1016 68 10000 6.17 60 12:42 24.02.2021
2191 Clouds 23 1016 68 10000 6.17 60 12:23 24.02.2021
2192 Clouds 23 1017 60 10000 8.75 80 11:39 24.02.2021
2193 Clouds 22 1017 68 10000 5.66 70 10:47 24.02.2021
2194 Clouds 22 1017 68 10000 5.66 70 10:26 24.02.2021
2195 Clouds 23 1017 64 10000 5.66 70 09:33 24.02.2021
2196 Clouds 23 1017 64 10000 6.69 70 08:52 24.02.2021
2197 Clouds 23 1017 64 10000 6.69 70 08:33 24.02.2021
2198 Clouds 23 1017 69 10000 5.14 80 07:47 24.02.2021
2199 Rain 23 1017 69 10000 5.14 80 07:19 24.02.2021
2200 Clouds 24 1016 61 10000 4.12 50 05:49 24.02.2021
2201 Clouds 26 1015 54 10000 6.69 80 02:35 24.02.2021
2202 Clouds 26 1016 57 10000 6.69 70 23:39 23.02.2021
2203 Clouds 25 1017 57 10000 6.69 70 22:51 23.02.2021
2204 Clouds 25 1017 57 10000 6.69 70 22:23 23.02.2021
2205 Clouds 26 1017 57 10000 7.2 80 21:49 23.02.2021
2206 Clouds 25 1017 57 10000 7.2 80 21:27 23.02.2021
2207 Clouds 24 1017 65 10000 4.63 70 20:59 23.02.2021
2208 Clouds 24 1017 65 10000 4.63 70 20:39 23.02.2021
2209 Clouds 24 1017 65 10000 4.63 70 20:20 23.02.2021
2210 Clouds 23 1017 69 10000 4.12 50 19:46 23.02.2021
2211 Clouds 23 1017 69 10000 4.12 50 19:26 23.02.2021
2212 Clouds 22 1016 68 10000 4.12 60 18:44 23.02.2021
2213 Clouds 22 1016 68 10000 4.12 60 18:26 23.02.2021
2214 Clouds 22 1015 68 10000 3.6 40 17:53 23.02.2021
2215 Clouds 22 1015 68 10000 3.6 40 17:27 23.02.2021
2216 Clouds 22 1015 73 10000 2.57 70 16:46 23.02.2021
2217 Clouds 22 1015 73 10000 2.57 70 16:23 23.02.2021
2218 Clouds 22 1016 73 10000 4.12 90 15:49 23.02.2021
2219 Clouds 22 1016 73 10000 4.12 90 15:29 23.02.2021
2220 Clouds 22 1016 68 10000 3.6 70 14:50 23.02.2021
2221 Clouds 21 1016 68 10000 3.6 70 14:28 23.02.2021
2222 Clouds 22 1017 68 10000 4.12 50 13:59 23.02.2021
2223 Clouds 22 1017 68 10000 4.12 50 13:36 23.02.2021
2224 Clouds 22 1017 68 10000 3.6 60 12:57 23.02.2021
2225 Clouds 22 1017 68 10000 3.6 60 12:28 23.02.2021
2226 Clouds 23 1018 64 10000 3.6 80 11:58 23.02.2021
2227 Clouds 23 1018 64 10000 3.6 80 11:26 23.02.2021
2228 Clouds 23 1018 64 10000 5.14 60 10:55 23.02.2021
2229 Clouds 23 1018 64 10000 5.14 60 10:37 23.02.2021
2230 Clouds 23 1018 64 10000 4.63 60 09:57 23.02.2021
2231 Clouds 23 1018 64 10000 4.63 60 09:36 23.02.2021
2232 Clouds 23 1018 64 10000 4.63 60 09:36 23.02.2021
2233 Clouds 23 1018 64 10000 4.63 60 09:18 23.02.2021
2234 Clouds 23 1018 64 10000 6.17 50 08:43 23.02.2021
2235 Clouds 23 1018 64 10000 6.17 50 08:20 23.02.2021
2236 Clouds 23 1017 64 10000 6.17 60 06:52 23.02.2021
2237 Clouds 25 1017 57 10000 6.69 50 05:22 23.02.2021
2238 Clouds 26 1016 51 10000 6.17 50 02:36 23.02.2021
2239 Clouds 27 1017 51 10000 6.69 50 01:42 23.02.2021
2240 Clouds 27 1018 48 10000 7.2 60 00:18 23.02.2021
2241 Clouds 26 1019 51 10000 6.69 60 23:24 22.02.2021
2242 Clouds 26 1020 47 10000 7.2 60 22:41 22.02.2021
2243 Clouds 26 1020 47 10000 7.2 60 22:21 22.02.2021
2244 Clouds 25 1020 54 10000 6.17 70 21:47 22.02.2021
2245 Clouds 25 1020 54 10000 6.17 70 21:24 22.02.2021
2246 Clouds 24 1020 65 10000 4.63 60 20:57 22.02.2021
2247 Clouds 24 1020 65 10000 4.63 60 20:31 22.02.2021
2248 Clouds 23 1019 69 10000 6.17 70 19:58 22.02.2021
2249 Clouds 23 1019 69 10000 6.17 70 19:38 22.02.2021
2250 Clouds 23 1019 69 10000 6.17 70 19:18 22.02.2021
2251 Clouds 22 1018 73 10000 6.17 70 18:44 22.02.2021
2252 Clouds 22 1018 73 10000 6.17 70 18:21 22.02.2021
2253 Clouds 22 1017 73 10000 3.09 60 17:36 22.02.2021
2254 Clouds 22 1017 73 10000 3.09 60 17:18 22.02.2021
2255 Clouds 22 1017 78 10000 2.57 60 16:42 22.02.2021
2256 Clouds 22 1017 73 10000 2.57 60 15:56 22.02.2021
2257 Clouds 22 1017 73 10000 2.57 60 15:29 22.02.2021
2258 Clouds 22 1017 68 10000 2.06 70 14:48 22.02.2021
2259 Clouds 23 1017 68 10000 2.06 70 14:30 22.02.2021
2260 Clouds 23 1018 69 10000 4.63 60 13:48 22.02.2021
2261 Clouds 23 1018 69 10000 4.63 60 13:19 22.02.2021
2262 Clouds 22 1019 64 10000 3.09 50 12:41 22.02.2021
2263 Clouds 23 1019 64 10000 3.09 50 12:20 22.02.2021
2264 Clouds 23 1019 64 10000 4.12 70 11:44 22.02.2021
2265 Clouds 23 1019 64 10000 4.12 70 11:25 22.02.2021
2266 Clouds 23 1019 69 10000 4.12 80 10:47 22.02.2021
2267 Clouds 23 1019 69 10000 4.12 80 10:26 22.02.2021
2268 Clouds 23 1019 69 10000 5.66 60 09:45 22.02.2021
2269 Clouds 23 1019 69 10000 5.66 60 09:25 22.02.2021
2270 Clouds 23 1019 69 10000 5.66 70 08:51 22.02.2021
2271 Clouds 23 1019 69 10000 5.66 70 08:29 22.02.2021
2272 Clouds 24 1019 65 10000 4.12 50 07:57 22.02.2021
2273 Clouds 24 1019 65 10000 4.12 50 07:26 22.02.2021
2274 Clouds 24 1018 65 10000 3.6 60 06:44 22.02.2021
2275 Rain 24 1017 61 10000 6.17 70 05:42 22.02.2021
2276 Rain 24 1017 83 10000 3.6 130 03:28 22.02.2021
2277 Rain 26 1017 61 10000 6.69 50 02:49 22.02.2021
2278 Clouds 26 1018 57 10000 6.69 50 00:45 22.02.2021
2279 Clouds 26 1018 57 10000 6.69 50 00:22 22.02.2021
2280 Clouds 26 1019 57 10000 6.69 70 23:30 21.02.2021
2281 Clouds 26 1019 61 10000 3.6 60 22:51 21.02.2021
2282 Clouds 26 1019 61 10000 3.6 60 22:22 21.02.2021
2283 Clouds 25 1019 65 10000 4.63 60 21:37 21.02.2021
2284 Clouds 25 1019 65 10000 4.63 60 21:19 21.02.2021
2285 Clouds 24 1019 69 10000 3.09 70 20:40 21.02.2021
2286 Clouds 24 1019 69 10000 3.09 70 20:19 21.02.2021
2287 Clouds 23 1019 88 10000 2.06 60 19:51 21.02.2021
2288 Clouds 23 1019 88 10000 2.06 60 19:32 21.02.2021
2289 Rain 22 1019 88 10000 5.14 70 18:48 21.02.2021
2290 Rain 22 1019 88 10000 5.14 70 18:25 21.02.2021
2291 Clouds 22 1018 78 10000 3.09 60 17:29 21.02.2021
2292 Clouds 22 1018 78 10000 2.06 30 16:57 21.02.2021
2293 Clouds 22 1018 78 10000 2.06 30 16:34 21.02.2021
2294 Clouds 22 1018 78 10000 2.57 10 15:54 21.02.2021
2295 Clouds 22 1018 78 10000 2.57 10 15:22 21.02.2021
2296 Clouds 22 1018 78 10000 3.09 60 14:50 21.02.2021
2297 Rain 22 1018 78 10000 3.09 60 14:28 21.02.2021
2298 Rain 22 1019 78 10000 1.54 90 13:46 21.02.2021
2299 Rain 22 1019 78 10000 1.54 90 13:23 21.02.2021
2300 Rain 22 1019 78 10000 4.63 70 12:32 21.02.2021
2301 Rain 23 1020 73 10000 5.14 40 11:55 21.02.2021
2302 Rain 23 1020 73 10000 5.14 40 11:36 21.02.2021
2303 Clouds 23 1020 73 10000 5.14 50 10:26 21.02.2021
2304 Clouds 24 1020 69 10000 5.14 60 09:58 21.02.2021
2305 Clouds 23 1020 69 10000 5.14 60 09:39 21.02.2021
2306 Clouds 23 1020 69 10000 5.14 60 09:19 21.02.2021
2307 Clouds 23 1019 69 10000 4.12 70 08:32 21.02.2021
2308 Clouds 23 1018 69 10000 3.6 50 07:40 21.02.2021
2309 Clouds 23 1018 69 10000 3.6 50 07:19 21.02.2021
2310 Clouds 25 1018 54 10000 5.66 80 04:54 21.02.2021
2311 Clouds 26 1017 51 10000 8.23 50 02:31 21.02.2021
2312 Clouds 26 1019 54 10000 7.2 60 00:47 21.02.2021
2313 Clouds 27 1019 54 10000 7.2 60 00:20 21.02.2021
2314 Clouds 26 1020 57 10000 4.63 60 23:28 20.02.2021
2315 Clouds 26 1021 57 10000 7.72 50 22:47 20.02.2021
2316 Clouds 26 1021 57 10000 7.72 50 22:27 20.02.2021
2317 Clouds 25 1021 61 10000 5.14 70 21:45 20.02.2021
2318 Rain 25 1021 61 10000 5.14 70 21:26 20.02.2021
2319 Rain 24 1021 69 10000 6.17 80 20:49 20.02.2021
2320 Rain 24 1021 69 10000 6.17 80 20:28 20.02.2021
2321 Rain 23 1020 73 10000 3.6 70 19:53 20.02.2021
2322 Rain 23 1020 73 10000 3.6 70 19:31 20.02.2021
2323 Clouds 22 1019 78 10000 3.09 70 18:45 20.02.2021
2324 Clouds 22 1019 78 10000 3.09 70 18:24 20.02.2021
2325 Rain 22 1018 78 10000 4.12 70 17:41 20.02.2021
2326 Rain 22 1018 78 10000 4.12 70 17:22 20.02.2021
2327 Clouds 22 1018 78 10000 3.6 80 16:33 20.02.2021
2328 Clouds 22 1018 78 10000 4.63 60 15:56 20.02.2021
2329 Clouds 22 1018 78 10000 4.63 60 15:36 20.02.2021
2330 Clouds 22 1018 78 10000 2.57 40 14:49 20.02.2021
2331 Rain 22 1018 78 10000 2.57 40 14:24 20.02.2021
2332 Rain 22 1019 78 10000 3.09 60 13:49 20.02.2021
2333 Clouds 22 1019 78 10000 3.09 60 13:27 20.02.2021
2334 Clouds 22 1019 78 10000 3.09 60 13:27 20.02.2021
2335 Clouds 22 1019 78 10000 3.6 60 12:51 20.02.2021
2336 Clouds 22 1019 78 10000 3.6 60 12:32 20.02.2021
2337 Clouds 21 1020 83 10000 1.54 100 11:44 20.02.2021
2338 Clouds 21 1020 83 10000 1.54 100 11:26 20.02.2021
2339 Clouds 22 1020 78 10000 2.06 60 10:50 20.02.2021
2340 Clouds 23 1020 78 10000 3.09 60 09:59 20.02.2021
2341 Clouds 23 1020 78 10000 3.09 60 09:40 20.02.2021
2342 Rain 23 1020 78 10000 4.63 60 08:48 20.02.2021
2343 Rain 23 1020 78 10000 4.63 60 08:18 20.02.2021
2344 Clouds 25 1018 61 10000 6.69 60 03:33 20.02.2021
2345 Clouds 25 1018 61 10000 8.75 70 02:28 20.02.2021
2346 Clouds 25 1018 65 10000 4.12 70 01:49 20.02.2021
2347 Rain 25 1019 83 10000 5.66 40 00:45 20.02.2021
2348 Rain 25 1019 83 10000 5.66 40 00:20 20.02.2021
2349 Rain 25 1020 73 10000 4.63 20 23:18 19.02.2021
2350 Rain 25 1020 69 10000 3.6 60 22:28 19.02.2021
2351 Rain 24 1020 69 10000 2.06 90 21:58 19.02.2021
2352 Rain 24 1020 69 10000 2.06 90 21:32 19.02.2021
2353 Rain 23 1020 73 10000 2.57 70 20:49 19.02.2021
2354 Rain 23 1020 73 10000 2.57 70 20:30 19.02.2021
2355 Rain 23 1019 78 10000 4.12 70 19:57 19.02.2021
2356 Rain 23 1019 78 10000 4.12 70 19:27 19.02.2021
2357 Rain 22 1019 78 10000 3.6 80 18:57 19.02.2021
2358 Rain 22 1019 78 10000 3.6 80 18:34 19.02.2021
2359 Rain 22 1018 78 10000 3.09 30 17:51 19.02.2021
2360 Rain 22 1018 78 10000 3.09 30 17:22 19.02.2021
2361 Rain 22 1018 78 10000 3.6 50 16:38 19.02.2021
2362 Rain 22 1018 78 10000 3.6 50 16:18 19.02.2021
2363 Rain 22 1018 78 10000 3.09 50 15:41 19.02.2021
2364 Clouds 22 1018 78 10000 3.09 50 15:20 19.02.2021
2365 Clouds 22 1018 78 10000 4.12 60 14:38 19.02.2021
2366 Rain 22 1018 78 10000 4.12 60 14:18 19.02.2021
2367 Rain 22 1017 78 10000 3.6 50 13:42 19.02.2021
2368 Clouds 22 1017 78 10000 3.6 50 13:24 19.02.2021
2369 Clouds 22 1018 78 10000 3.09 60 12:41 19.02.2021
2370 Clouds 22 1018 78 10000 3.09 60 12:22 19.02.2021
2371 Rain 21 1019 94 10000 3.09 30 11:50 19.02.2021
2372 Rain 22 1019 94 10000 3.09 30 11:22 19.02.2021
2373 Rain 21 1020 83 10000 2.57 360 10:47 19.02.2021
2374 Rain 21 1020 83 10000 2.57 360 10:21 19.02.2021
2375 Clouds 22 1020 78 10000 2.57 10 09:39 19.02.2021
2376 Clouds 22 1020 78 10000 2.57 10 09:21 19.02.2021
2377 Rain 22 1020 69 10000 4.12 30 08:49 19.02.2021
2378 Rain 22 1020 69 10000 4.12 30 08:22 19.02.2021
2379 Rain 22 1020 69 10000 2.06 20 07:48 19.02.2021
2380 Rain 22 1020 69 10000 2.06 20 07:27 19.02.2021
2381 Rain 23 1019 69 10000 2.57 50 06:47 19.02.2021
2382 Rain 24 1018 57 10000 5.66 60 04:44 19.02.2021
2383 Rain 24 1018 57 10000 5.66 60 04:25 19.02.2021
2384 Rain 24 1018 65 10000 8.75 80 01:46 19.02.2021
2385 Rain 24 1019 61 10000 8.75 70 00:36 19.02.2021
2386 Rain 24 1019 51 10000 6.17 50 23:50 18.02.2021
2387 Rain 25 1019 51 10000 6.17 50 23:32 18.02.2021
2388 Clouds 26 1019 54 10000 6.17 40 22:44 18.02.2021
2389 Clouds 26 1019 54 10000 6.17 40 22:26 18.02.2021
2390 Clouds 25 1019 57 10000 5.66 40 21:42 18.02.2021
2391 Clouds 25 1019 57 10000 5.66 40 21:24 18.02.2021
2392 Clouds 24 1019 69 10000 3.09 40 20:41 18.02.2021
2393 Clouds 23 1019 69 10000 3.09 40 20:21 18.02.2021
2394 Clouds 23 1019 69 10000 4.12 40 19:46 18.02.2021
2395 Clouds 23 1019 69 10000 4.12 40 19:22 18.02.2021
2396 Clouds 22 1018 73 10000 6.64 57 18:51 18.02.2021
2397 Clouds 22 1018 73 10000 6.42 60 18:27 18.02.2021
2398 Clouds 22 1018 73 10000 6.42 60 17:52 18.02.2021
2399 Clouds 22 1018 73 10000 6.79 63 17:25 18.02.2021
2400 Clouds 22 1018 78 10000 2.57 30 16:51 18.02.2021
2401 Clouds 22 1018 78 10000 2.57 30 16:32 18.02.2021
2402 Rain 22 1018 73 10000 3.6 30 15:43 18.02.2021
2403 Rain 22 1018 73 10000 3.6 30 15:24 18.02.2021
2404 Clouds 22 1018 73 10000 5.14 60 14:56 18.02.2021
2405 Clouds 23 1018 73 10000 5.14 60 14:34 18.02.2021
2406 Clouds 23 1018 68 10000 4.12 30 13:50 18.02.2021
2407 Clouds 23 1018 68 10000 4.12 30 13:22 18.02.2021
2408 Clouds 23 1018 69 10000 3.09 50 12:56 18.02.2021
2409 Clouds 23 1018 69 10000 3.09 50 12:36 18.02.2021
2410 Clouds 23 1019 73 10000 2.06 50 11:48 18.02.2021
2411 Clouds 23 1019 73 10000 2.06 50 11:28 18.02.2021
2412 Clouds 23 1019 69 10000 4.12 50 10:58 18.02.2021
2413 Clouds 23 1019 69 10000 4.12 50 10:40 18.02.2021
2414 Clouds 23 1019 69 10000 4.12 50 10:20 18.02.2021
2415 Clouds 22 1019 73 10000 3.6 60 09:32 18.02.2021
2416 Clouds 23 1019 64 10000 5.14 50 08:59 18.02.2021
2417 Clouds 23 1019 64 10000 5.14 50 08:31 18.02.2021
2418 Clouds 23 1019 69 10000 6.17 70 07:49 18.02.2021
2419 Clouds 23 1019 69 10000 6.17 70 07:24 18.02.2021
2420 Clouds 23 1018 64 10000 5.14 70 06:18 18.02.2021
2421 Clouds 26 1019 51 10000 5.66 40 00:40 18.02.2021
2422 Clouds 26 1020 54 10000 4.12 30 23:45 17.02.2021
2423 Clouds 25 1020 54 10000 4.12 30 23:18 17.02.2021
2424 Clouds 25 1021 57 10000 6.17 10 22:39 17.02.2021
2425 Clouds 25 1021 57 10000 6.17 10 22:21 17.02.2021
2426 Clouds 25 1021 54 10000 3.6 20 21:44 17.02.2021
2427 Clouds 25 1021 54 10000 3.6 20 21:20 17.02.2021
2428 Clouds 23 1021 69 10000 2.57 320 20:42 17.02.2021
2429 Clouds 23 1021 69 10000 2.57 320 20:22 17.02.2021
2430 Clouds 23 1020 73 10000 2.06 310 19:38 17.02.2021
2431 Clouds 22 1019 78 10000 1.54 90 18:59 17.02.2021
2432 Clouds 22 1019 78 10000 1.54 90 18:40 17.02.2021
2433 Clouds 22 1019 73 10000 3.09 50 17:47 17.02.2021
2434 Clouds 22 1019 73 10000 3.09 50 17:23 17.02.2021
2435 Clouds 22 1018 73 10000 4.51 57 16:54 17.02.2021
2436 Clouds 22 1018 73 10000 4.66 57 16:29 17.02.2021
2437 Clouds 22 1018 78 10000 4.66 57 15:59 17.02.2021
2438 Clouds 22 1018 78 10000 4.66 57 15:40 17.02.2021
2439 Clouds 22 1018 78 10000 4.78 54 15:21 17.02.2021
2440 Clouds 21 1018 83 10000 4.78 54 14:44 17.02.2021
2441 Clouds 21 1018 83 10000 4.82 56 14:25 17.02.2021
2442 Clouds 22 1018 83 10000 2.06 330 13:43 17.02.2021
2443 Clouds 22 1018 83 10000 2.06 330 12:59 17.02.2021
2444 Clouds 22 1019 78 10000 2.57 90 12:26 17.02.2021
2445 Clouds 22 1019 78 10000 2.57 90 12:26 17.02.2021
2446 Clouds 22 1019 78 10000 1.54 310 11:49 17.02.2021
2447 Clouds 22 1019 78 10000 1.54 310 11:30 17.02.2021
2448 Clouds 23 1020 73 10000 2.06 350 10:58 17.02.2021
2449 Clouds 23 1020 73 10000 2.06 350 10:40 17.02.2021
2450 Clouds 23 1020 73 10000 2.06 350 10:20 17.02.2021
2451 Clouds 23 1020 73 10000 2.57 50 09:40 17.02.2021
2452 Clouds 23 1019 69 10000 3.6 70 08:58 17.02.2021
2453 Clouds 23 1019 69 10000 3.6 70 08:37 17.02.2021
2454 Clouds 24 1019 69 10000 3.6 70 08:19 17.02.2021
2455 Clouds 24 1019 65 10000 4.12 70 07:23 17.02.2021
2456 Clouds 26 1017 69 10000 3.6 210 03:54 17.02.2021
2457 Clouds 26 1017 69 10000 4.63 220 02:33 17.02.2021
2458 Clouds 26 1018 69 10000 5.66 210 01:37 17.02.2021
2459 Clouds 27 1018 65 10000 4.12 200 00:28 17.02.2021
2460 Clouds 27 1019 65 10000 4.12 200 23:49 16.02.2021
2461 Clouds 27 1019 65 10000 4.12 200 23:25 16.02.2021
2462 Clouds 27 1020 61 10000 2.57 210 22:42 16.02.2021
2463 Clouds 27 1020 61 10000 2.57 210 22:22 16.02.2021
2464 Clouds 25 1020 69 10000 0.65 188 21:40 16.02.2021
2465 Clouds 25 1020 69 10000 0.49 316 21:22 16.02.2021
2466 Clouds 24 1020 73 10000 1.54 10 20:57 16.02.2021
2467 Clouds 24 1020 73 10000 1.54 10 20:38 16.02.2021
2468 Clouds 24 1020 73 10000 1.54 10 20:19 16.02.2021
2469 Clouds 22 1020 83 10000 1.54 340 19:39 16.02.2021
2470 Clouds 22 1020 83 10000 1.54 340 19:21 16.02.2021
2471 Clouds 21 1019 83 10000 2.06 320 18:38 16.02.2021
2472 Clouds 20 1019 83 10000 2.06 320 18:19 16.02.2021
2473 Clouds 20 1018 83 10000 2.06 350 17:48 16.02.2021
2474 Clouds 20 1018 83 10000 2.06 350 17:23 16.02.2021
2475 Clouds 20 1018 83 10000 0.99 356 16:45 16.02.2021
2476 Clouds 20 1018 83 10000 0.98 355 16:24 16.02.2021
2477 Clouds 21 1018 83 10000 1.54 340 15:44 16.02.2021
2478 Clouds 21 1018 83 10000 1.54 340 15:26 16.02.2021
2479 Clouds 21 1019 78 10000 1.54 330 14:47 16.02.2021
2480 Clouds 21 1019 78 10000 1.54 330 14:28 16.02.2021
2481 Clouds 21 1019 78 10000 2.06 340 13:53 16.02.2021
2482 Clouds 21 1019 78 10000 2.06 340 13:30 16.02.2021
2483 Clouds 21 1020 83 10000 0.96 54 12:44 16.02.2021
2484 Clouds 22 1020 83 10000 1.08 76 12:20 16.02.2021
2485 Clouds 22 1020 78 10000 1.54 340 11:44 16.02.2021
2486 Clouds 22 1020 78 10000 1.54 340 11:22 16.02.2021
2487 Clouds 22 1020 78 10000 1.54 0 10:50 16.02.2021
2488 Clouds 22 1020 78 10000 1.54 0 10:31 16.02.2021
2489 Clouds 22 1020 83 10000 2.06 50 09:56 16.02.2021
2490 Clouds 22 1020 83 10000 2.06 50 09:29 16.02.2021
2491 Clouds 22 1019 83 10000 2.57 50 08:58 16.02.2021
2492 Clouds 22 1019 83 10000 2.57 50 08:38 16.02.2021
2493 Clouds 22 1019 83 10000 2.57 50 08:18 16.02.2021
2494 Clouds 23 1019 83 10000 2.06 130 07:18 16.02.2021
2495 Clouds 23 1019 83 10000 2.06 130 07:18 16.02.2021
2496 Clouds 25 1017 73 10000 3.09 170 03:21 16.02.2021
2497 Clouds 26 1018 69 10000 5.66 160 00:44 16.02.2021
2498 Rain 25 1019 78 10000 3.09 130 23:31 15.02.2021
2499 Rain 25 1019 69 10000 3.09 110 22:59 15.02.2021
2500 Rain 24 1019 69 10000 3.09 110 22:40 15.02.2021
2501 Rain 25 1019 83 10000 2.57 100 21:56 15.02.2021
2502 Rain 25 1019 83 10000 2.57 100 21:37 15.02.2021
2503 Rain 25 1019 83 10000 2.57 100 21:19 15.02.2021
2504 Rain 23 1019 88 10000 1.54 340 20:42 15.02.2021
2505 Rain 23 1019 88 10000 1.54 340 20:19 15.02.2021
2506 Rain 21 1018 88 10000 2.44 176 19:43 15.02.2021
2507 Rain 21 1018 88 10000 1.64 185 19:21 15.02.2021
2508 Clouds 21 1018 83 10000 1.54 330 18:42 15.02.2021
2509 Clouds 21 1018 83 10000 1.54 330 18:21 15.02.2021
2510 Clouds 21 1017 88 10000 1.66 225 17:41 15.02.2021
2511 Clouds 22 1017 88 10000 1.71 221 17:21 15.02.2021
2512 Clouds 22 1017 88 10000 2.06 330 16:48 15.02.2021
2513 Clouds 22 1017 88 10000 2.06 330 16:26 15.02.2021
2514 Clouds 21 1017 83 10000 1.39 250 15:49 15.02.2021
2515 Clouds 21 1017 83 10000 1.26 270 15:22 15.02.2021
2516 Clouds 22 1017 83 10000 1.54 350 14:49 15.02.2021
2517 Clouds 22 1017 83 10000 1.54 350 14:21 15.02.2021
2518 Clouds 21 1017 88 10000 2.57 360 13:51 15.02.2021
2519 Rain 21 1017 88 10000 2.57 360 13:28 15.02.2021
2520 Rain 21 1018 83 10000 1.54 330 12:54 15.02.2021
2521 Rain 22 1018 83 10000 1.54 330 12:36 15.02.2021
2522 Clouds 22 1018 83 10000 1.54 40 11:54 15.02.2021
2523 Clouds 22 1018 83 10000 1.54 40 11:28 15.02.2021
2524 Clear 22 1018 83 10000 1.34 337 10:58 15.02.2021
2525 Clear 22 1018 83 10000 1.34 337 10:40 15.02.2021
2526 Clear 22 1018 83 10000 1.59 351 10:21 15.02.2021
2527 Clouds 22 1018 83 10000 2.06 300 09:51 15.02.2021
2528 Clouds 22 1018 83 10000 2.06 300 09:32 15.02.2021
2529 Clouds 23 1017 83 10000 1.54 10 08:32 15.02.2021
2530 Rain 23 1017 78 10000 1.54 10 07:32 15.02.2021
2531 Rain 24 1016 73 10000 2.06 30 06:42 15.02.2021
2532 Rain 25 1015 73 10000 4.63 340 04:58 15.02.2021
2533 Clouds 26 1015 61 10000 3.09 170 02:21 15.02.2021
2534 Clouds 26 1015 61 10000 3.6 210 00:22 15.02.2021
2535 Rain 26 1016 61 10000 3.6 210 23:29 14.02.2021
2536 Rain 25 1017 65 10000 2.57 180 22:47 14.02.2021
2537 Clouds 26 1017 65 10000 2.57 180 22:29 14.02.2021
2538 Clouds 25 1017 73 10000 2.05 106 21:55 14.02.2021
2539 Clouds 25 1017 73 10000 2.05 106 21:32 14.02.2021
2540 Clouds 24 1016 78 10000 3.09 340 20:55 14.02.2021
2541 Clouds 24 1016 78 10000 3.09 340 20:31 14.02.2021
2542 Clouds 23 1016 83 10000 1.54 280 19:53 14.02.2021
2543 Clouds 23 1016 83 10000 1.54 280 19:35 14.02.2021
2544 Clouds 22 1016 83 10000 1.54 320 18:43 14.02.2021
2545 Clouds 22 1016 83 10000 1.54 320 18:22 14.02.2021
2546 Clouds 22 1015 83 10000 2.06 340 17:42 14.02.2021
2547 Rain 22 1015 83 10000 2.06 340 17:19 14.02.2021
2548 Rain 22 1015 88 10000 0.74 63 16:40 14.02.2021
2549 Clouds 22 1015 88 10000 1.51 62 16:18 14.02.2021
2550 Clouds 22 1015 88 10000 1.51 62 15:44 14.02.2021
2551 Clouds 22 1015 83 10000 2.23 68 14:58 14.02.2021
2552 Clouds 22 1015 83 10000 2.85 77 14:30 14.02.2021
2553 Clouds 22 1016 88 10000 2.57 320 13:56 14.02.2021
2554 Clouds 22 1016 88 10000 2.57 320 13:31 14.02.2021
2555 Rain 23 1016 83 10000 1.54 350 12:45 14.02.2021
2556 Clouds 22 1016 83 10000 1.54 350 12:21 14.02.2021
2557 Rain 22 1017 88 10000 2.06 350 11:51 14.02.2021
2558 Rain 22 1017 88 10000 2.06 350 11:24 14.02.2021
2559 Clouds 23 1017 88 10000 2.06 350 10:49 14.02.2021
2560 Clouds 23 1017 88 10000 2.06 350 09:57 14.02.2021
2561 Clouds 23 1017 88 10000 2.06 350 09:38 14.02.2021
2562 Clouds 23 1017 88 10000 2.06 350 09:20 14.02.2021
2563 Clouds 23 1016 88 10000 2.06 350 08:40 14.02.2021
2564 Clouds 23 1016 73 10000 3.09 30 07:56 14.02.2021
2565 Clouds 24 1015 69 10000 4.12 80 06:51 14.02.2021
2566 Clouds 24 1015 61 10000 3.6 70 05:42 14.02.2021
2567 Clouds 26 1014 54 10000 6.17 60 03:31 14.02.2021
2568 Clouds 26 1015 54 10000 3.09 90 01:57 14.02.2021
2569 Clouds 27 1016 57 10000 5.66 50 00:47 14.02.2021
2570 Clouds 26 1016 57 10000 5.66 50 00:22 14.02.2021
2571 Clouds 25 1016 65 10000 4.63 80 23:40 13.02.2021
2572 Clouds 25 1016 65 10000 4.63 80 23:20 13.02.2021
2573 Rain 25 1017 57 10000 5.66 50 22:34 13.02.2021
2574 Rain 24 1017 61 10000 5.14 60 21:59 13.02.2021
2575 Rain 24 1017 61 10000 5.14 60 21:40 13.02.2021
2576 Clouds 24 1016 65 10000 6.17 60 20:52 13.02.2021
2577 Clouds 24 1016 65 10000 6.17 60 20:28 13.02.2021
2578 Clouds 24 1016 65 10000 6.17 60 20:28 13.02.2021
2579 Clouds 23 1016 73 10000 4.12 60 19:49 13.02.2021
2580 Clouds 23 1016 73 10000 4.12 60 19:25 13.02.2021
2581 Clouds 22 1016 78 10000 3.6 60 18:52 13.02.2021
2582 Clouds 22 1016 78 10000 3.6 60 18:33 13.02.2021
2583 Clouds 21 1015 83 10000 5.03 75 17:45 13.02.2021
2584 Clouds 21 1015 83 10000 5.82 83 17:26 13.02.2021
2585 Clouds 22 1016 78 10000 2.06 60 16:55 13.02.2021
2586 Clouds 22 1016 78 10000 2.06 60 16:37 13.02.2021
2587 Clouds 22 1016 78 10000 3.6 60 15:46 13.02.2021
2588 Clouds 22 1016 78 10000 3.6 60 15:26 13.02.2021
2589 Clouds 22 1016 78 10000 5.29 73 14:41 13.02.2021
2590 Clouds 22 1017 78 10000 1.54 10 13:50 13.02.2021
2591 Clouds 22 1017 78 10000 1.54 10 13:28 13.02.2021
2592 Clouds 22 1017 78 10000 1.54 310 12:53 13.02.2021
2593 Clouds 22 1017 78 10000 1.54 310 12:21 13.02.2021
2594 Clouds 22 1017 78 10000 2.06 360 11:55 13.02.2021
2595 Clouds 22 1017 78 10000 2.06 360 11:23 13.02.2021
2596 Clouds 22 1017 78 10000 2.06 360 11:23 13.02.2021
2597 Rain 23 1018 78 10000 2.06 0 10:59 13.02.2021
2598 Rain 23 1018 78 10000 2.06 0 10:41 13.02.2021
2599 Rain 23 1018 78 10000 2.06 0 10:22 13.02.2021
2600 Rain 23 1018 69 10000 2.57 30 09:46 13.02.2021
2601 Rain 23 1018 69 10000 2.57 30 09:25 13.02.2021
2602 Clouds 23 1018 64 10000 1.54 20 08:47 13.02.2021
2603 Clouds 23 1018 64 10000 1.54 20 08:18 13.02.2021
2604 Clouds 24 1017 61 10000 2.51 47 06:50 13.02.2021
2605 Clouds 24 1017 61 10000 2.4 64 06:22 13.02.2021
2606 Clouds 24 1016 53 10000 3.6 170 04:31 13.02.2021
2607 Clouds 26 1015 50 10000 3.6 160 02:36 13.02.2021
2608 Clouds 25 1017 50 10000 4.63 220 00:54 13.02.2021
2609 Clouds 25 1017 50 10000 4.63 220 00:54 13.02.2021
2610 Clouds 26 1017 47 10000 3.09 180 23:55 12.02.2021
2611 Clouds 26 1017 47 10000 3.09 180 23:34 12.02.2021
2612 Clouds 26 1018 47 10000 4.12 140 22:59 12.02.2021
2613 Clouds 26 1018 47 10000 4.12 140 22:30 12.02.2021
2614 Clouds 26 1018 50 10000 4.12 130 21:54 12.02.2021
2615 Clouds 26 1018 50 10000 4.12 130 21:35 12.02.2021
2616 Clouds 24 1017 57 10000 3.6 110 20:59 12.02.2021
2617 Clouds 23 1017 57 10000 3.6 110 20:39 12.02.2021
2618 Clouds 23 1017 57 10000 3.6 110 20:19 12.02.2021
2619 Clouds 23 1016 56 10000 5.14 90 19:48 12.02.2021
2620 Clouds 22 1016 56 10000 5.14 90 19:26 12.02.2021
2621 Clouds 20 1016 68 10000 2.06 80 18:30 12.02.2021
2622 Clouds 22 1016 60 10000 3.6 40 17:51 12.02.2021
2623 Clouds 21 1016 60 10000 3.6 40 17:31 12.02.2021
2624 Clouds 22 1016 64 10000 3.6 80 16:41 12.02.2021
2625 Clouds 21 1016 68 10000 2.57 60 15:47 12.02.2021
2626 Clouds 21 1016 68 10000 2.57 60 15:21 12.02.2021
2627 Clouds 20 1016 68 10000 2.57 80 14:53 12.02.2021
2628 Clouds 20 1016 68 10000 2.57 80 14:30 12.02.2021
2629 Clouds 20 1016 68 10000 2.57 80 14:30 12.02.2021
2630 Clouds 21 1017 68 10000 3.6 60 13:41 12.02.2021
2631 Clouds 21 1017 68 10000 3.6 60 13:22 12.02.2021
2632 Clouds 21 1017 73 10000 5.98 60 12:49 12.02.2021
2633 Clouds 21 1017 73 10000 5.98 60 12:31 12.02.2021
2634 Clouds 21 1018 73 10000 5.44 56 11:43 12.02.2021
2635 Clouds 21 1018 73 10000 5.11 58 11:20 12.02.2021
2636 Clouds 22 1018 68 10000 5.11 58 10:46 12.02.2021
2637 Clouds 22 1018 64 10000 1.54 310 09:52 12.02.2021
2638 Clouds 22 1018 64 10000 1.54 310 09:29 12.02.2021
2639 Clouds 22 1018 64 10000 1.54 360 08:51 12.02.2021
2640 Clouds 22 1018 64 10000 1.54 360 08:29 12.02.2021
2641 Clouds 22 1018 64 10000 1.54 360 08:29 12.02.2021
2642 Clouds 22 1018 64 10000 2.06 0 07:57 12.02.2021
2643 Clouds 22 1018 64 10000 2.06 0 07:35 12.02.2021
2644 Clouds 22 1017 64 10000 3.09 30 06:55 12.02.2021
2645 Clouds 24 1016 57 10000 4.12 70 05:48 12.02.2021
2646 Clouds 24 1016 50 10000 4.63 150 04:32 12.02.2021
2647 Clouds 26 1017 44 10000 5.66 160 01:48 12.02.2021
2648 Clouds 25 1018 44 10000 4.63 130 23:41 11.02.2021
2649 Clouds 25 1018 44 10000 4.63 130 23:22 11.02.2021
2650 Clouds 25 1019 47 10000 3.6 80 22:57 11.02.2021
2651 Clouds 25 1019 47 10000 3.6 80 22:38 11.02.2021
2652 Clouds 25 1019 47 10000 3.6 80 22:20 11.02.2021
2653 Clouds 24 1019 53 10000 4.63 100 21:38 11.02.2021
2654 Clouds 24 1019 53 10000 4.63 100 21:18 11.02.2021
2655 Clouds 23 1019 56 10000 2.06 60 20:42 11.02.2021
2656 Clouds 23 1019 56 10000 2.06 60 20:21 11.02.2021
2657 Clouds 21 1018 68 10000 5.76 74 19:48 11.02.2021
2658 Clouds 21 1018 68 10000 5.85 73 19:28 11.02.2021
2659 Clouds 19 1018 82 10000 2.57 350 18:49 11.02.2021
2660 Clouds 19 1018 82 10000 2.57 350 18:28 11.02.2021
2661 Clouds 19 1018 82 10000 2.57 350 18:28 11.02.2021
2662 Clouds 19 1018 82 10000 5.82 64 17:52 11.02.2021
2663 Clouds 19 1018 82 10000 6.06 67 17:22 11.02.2021
2664 Clouds 19 1018 82 10000 2.06 350 16:53 11.02.2021
2665 Clouds 19 1018 82 10000 2.06 350 16:35 11.02.2021
2666 Clouds 19 1017 82 10000 2.06 350 15:59 11.02.2021
2667 Clouds 19 1017 82 10000 2.06 350 15:40 11.02.2021
2668 Clouds 19 1017 82 10000 2.06 350 15:40 11.02.2021
2669 Clouds 19 1017 82 10000 2.06 350 15:20 11.02.2021
2670 Clouds 19 1017 82 10000 2.06 340 14:44 11.02.2021
2671 Clouds 19 1017 82 10000 2.06 340 14:25 11.02.2021
2672 Clear 19 1018 82 10000 2.06 330 13:38 11.02.2021
2673 Clear 19 1018 82 10000 2.06 330 13:18 11.02.2021
2674 Clear 19 1019 77 10000 2.57 330 12:44 11.02.2021
2675 Clear 19 1019 77 10000 2.57 330 12:21 11.02.2021
2676 Clear 19 1019 72 10000 2.57 340 11:41 11.02.2021
2677 Clear 19 1019 72 10000 2.57 340 11:20 11.02.2021
2678 Clear 20 1019 73 10000 2.57 310 10:42 11.02.2021
2679 Clear 20 1019 73 10000 2.57 310 10:23 11.02.2021
2680 Clouds 20 1019 64 10000 1.54 0 09:42 11.02.2021
2681 Clouds 20 1019 64 10000 1.54 0 09:19 11.02.2021
2682 Clouds 20 1019 64 10000 2.57 40 08:49 11.02.2021
2683 Clouds 21 1018 56 10000 2.57 50 07:58 11.02.2021
2684 Clouds 21 1018 56 10000 2.57 50 07:58 11.02.2021
2685 Clouds 22 1017 53 10000 3.6 60 06:49 11.02.2021
2686 Clouds 22 1017 53 10000 3.6 60 06:29 11.02.2021
2687 Clouds 24 1016 44 10000 3.09 80 03:48 11.02.2021
2688 Clouds 24 1016 44 10000 6.69 80 02:28 11.02.2021
2689 Clouds 25 1017 41 10000 7.2 60 00:36 11.02.2021
2690 Clouds 25 1017 41 10000 7.2 60 00:18 11.02.2021
2691 Clouds 24 1018 44 10000 5.66 80 23:35 10.02.2021
2692 Clouds 23 1019 46 10000 5.14 70 22:48 10.02.2021
2693 Clouds 23 1019 46 10000 5.14 70 22:25 10.02.2021
2694 Clouds 23 1019 46 10000 7.72 60 21:40 10.02.2021
2695 Clouds 23 1019 46 10000 7.72 60 21:40 10.02.2021
2696 Clouds 22 1019 46 10000 7.72 60 21:21 10.02.2021
2697 Clouds 23 1019 46 10000 7.72 60 21:21 10.02.2021
2698 Clouds 22 1018 46 10000 3.6 60 20:58 10.02.2021
2699 Clouds 22 1018 46 10000 3.6 60 20:30 10.02.2021
2700 Clouds 20 1018 68 10000 7.14 61 19:59 10.02.2021
2701 Clouds 20 1018 68 10000 7.14 61 19:40 10.02.2021
2702 Clouds 19 1018 68 10000 6.84 58 19:19 10.02.2021
2703 Clouds 18 1017 77 10000 1.54 340 18:39 10.02.2021
2704 Clouds 18 1017 77 10000 1.54 340 18:18 10.02.2021
2705 Clouds 18 1017 72 10000 2.06 320 17:45 10.02.2021
2706 Clouds 18 1017 72 10000 2.06 320 17:21 10.02.2021
2707 Clouds 18 1017 68 10000 2.57 340 16:48 10.02.2021
2708 Clouds 18 1017 68 10000 2.57 340 16:48 10.02.2021
2709 Clouds 18 1017 68 10000 2.57 340 16:28 10.02.2021
2710 Clouds 18 1016 67 10000 6.78 56 15:39 10.02.2021
2711 Clouds 18 1016 67 10000 7.3 53 15:21 10.02.2021
2712 Clouds 18 1017 68 10000 1.54 340 14:39 10.02.2021
2713 Clouds 19 1017 63 10000 2.06 310 13:55 10.02.2021
2714 Clouds 19 1017 63 10000 2.06 310 13:31 10.02.2021
2715 Clouds 19 1018 63 10000 2.57 320 12:56 10.02.2021
2716 Clouds 19 1018 63 10000 2.57 320 12:37 10.02.2021
2717 Clouds 19 1018 63 10000 2.57 320 12:18 10.02.2021
2718 Clouds 20 1017 49 10000 2.06 20 11:41 10.02.2021
2719 Clouds 20 1017 49 10000 2.06 20 11:22 10.02.2021
2720 Clouds 20 1018 49 10000 3.6 30 10:37 10.02.2021
2721 Clouds 20 1018 49 10000 3.6 30 10:18 10.02.2021
2722 Clouds 20 1018 60 10000 3.09 330 09:35 10.02.2021
2723 Clouds 20 1018 52 10000 3.09 0 08:57 10.02.2021
2724 Clouds 20 1018 52 10000 3.09 0 08:39 10.02.2021
2725 Clouds 20 1017 49 10000 3.09 10 07:52 10.02.2021
2726 Clouds 20 1016 49 10000 4.63 30 06:44 10.02.2021
2727 Clouds 24 1015 38 10000 7.2 40 02:26 10.02.2021
2728 Clouds 24 1016 41 10000 7.72 40 00:24 10.02.2021
2729 Clouds 23 1016 46 10000 7.2 40 23:34 09.02.2021
2730 Clouds 24 1017 46 10000 6.17 30 22:54 09.02.2021
2731 Clouds 23 1017 46 10000 6.17 30 22:24 09.02.2021
2732 Clouds 23 1017 53 10000 2.06 10 21:52 09.02.2021
2733 Clouds 22 1017 53 10000 2.06 10 21:27 09.02.2021
2734 Clouds 21 1017 56 10000 2.57 340 20:49 09.02.2021
2735 Clouds 20 1017 56 10000 2.57 340 20:26 09.02.2021
2736 Clouds 20 1017 60 10000 3.6 340 19:55 09.02.2021
2737 Clouds 20 1017 60 10000 3.6 340 19:31 09.02.2021
2738 Clouds 20 1015 77 10000 2.06 0 18:58 09.02.2021
2739 Clouds 20 1015 77 10000 2.06 0 18:36 09.02.2021
2740 Clear 20 1015 72 10000 3.6 340 17:57 09.02.2021
2741 Clear 20 1015 72 10000 3.6 340 17:57 09.02.2021
2742 Clear 19 1015 72 10000 3.6 340 17:36 09.02.2021
2743 Clear 19 1015 72 10000 3.6 340 17:18 09.02.2021
2744 Clear 19 1014 68 10000 3.6 10 16:39 09.02.2021
2745 Clear 20 1014 68 10000 3.6 10 16:18 09.02.2021
2746 Clouds 20 1014 68 10000 3.6 10 15:47 09.02.2021
2747 Clouds 20 1014 68 10000 3.6 10 15:24 09.02.2021
2748 Clouds 20 1014 82 10000 2.06 360 14:49 09.02.2021
2749 Clouds 20 1014 82 10000 2.06 360 14:26 09.02.2021
2750 Clouds 20 1014 88 10000 2.57 330 13:45 09.02.2021
2751 Clouds 20 1014 88 10000 2.57 330 13:21 09.02.2021
2752 Clouds 20 1015 82 10000 5.93 7 12:48 09.02.2021
2753 Clouds 20 1015 82 10000 5.93 7 12:30 09.02.2021
2754 Clear 20 1015 73 10000 2.06 330 11:45 09.02.2021
2755 Clear 20 1015 73 10000 2.06 330 11:23 09.02.2021
2756 Clouds 20 1015 83 10000 2.57 350 10:58 09.02.2021
2757 Rain 20 1015 83 10000 2.57 350 10:23 09.02.2021
2758 Rain 21 1015 83 10000 2.57 350 09:59 09.02.2021
2759 Rain 21 1015 83 10000 2.57 350 09:40 09.02.2021
2760 Rain 21 1015 83 10000 2.57 350 09:20 09.02.2021
2761 Rain 20 1015 83 10000 2.57 330 08:30 09.02.2021
2762 Rain 20 1015 83 10000 1.54 340 07:54 09.02.2021
2763 Rain 21 1014 88 9656 3.6 350 05:35 09.02.2021
2764 Clouds 26 1012 47 10000 6.69 240 03:49 09.02.2021
2765 Clouds 27 1013 44 10000 7.2 240 01:57 09.02.2021
2766 Clouds 27 1014 44 10000 6.69 230 00:31 09.02.2021
2767 Clouds 26 1014 53 10000 5.66 220 23:44 08.02.2021
2768 Clouds 26 1014 53 10000 5.66 220 23:19 08.02.2021
2769 Clouds 26 1015 53 10000 6.17 220 22:43 08.02.2021
2770 Clouds 26 1015 53 10000 6.17 220 22:22 08.02.2021
2771 Clouds 25 1015 53 10000 4.12 210 21:46 08.02.2021
2772 Clouds 25 1015 53 10000 4.12 210 21:23 08.02.2021
2773 Clouds 23 1015 64 10000 4.82 230 20:46 08.02.2021
2774 Clouds 23 1015 64 10000 4.59 232 20:25 08.02.2021
2775 Clouds 20 1015 88 10000 4.59 232 19:59 08.02.2021
2776 Clouds 20 1015 88 10000 4.59 232 19:41 08.02.2021
2777 Clouds 19 1015 88 10000 0.48 330 19:21 08.02.2021
2778 Clouds 18 1015 88 10000 0.48 330 18:42 08.02.2021
2779 Clouds 18 1015 88 10000 0.73 321 18:19 08.02.2021
2780 Clear 18 1014 88 10000 3.09 310 17:43 08.02.2021
2781 Clear 18 1014 88 10000 3.09 310 17:23 08.02.2021
2782 Clouds 18 1014 82 10000 1.07 319 16:41 08.02.2021
2783 Clouds 18 1014 82 10000 0.93 327 16:21 08.02.2021
2784 Clouds 18 1014 77 10000 0.93 327 15:41 08.02.2021
2785 Clouds 18 1014 77 10000 0.69 30 15:19 08.02.2021
2786 Clouds 18 1014 82 10000 2.06 350 14:51 08.02.2021
2787 Clouds 18 1014 82 10000 2.06 350 14:51 08.02.2021
2788 Clouds 18 1014 82 10000 2.06 350 14:29 08.02.2021
2789 Clouds 18 1015 88 10000 2.06 340 13:56 08.02.2021
2790 Clouds 18 1015 88 10000 2.06 340 13:29 08.02.2021
2791 Clear 19 1016 82 10000 2.06 340 12:49 08.02.2021
2792 Clear 19 1016 82 10000 2.06 340 12:31 08.02.2021
2793 Clouds 19 1016 77 10000 2.57 340 11:42 08.02.2021
2794 Clouds 19 1016 77 10000 2.57 340 11:18 08.02.2021
2795 Clouds 20 1016 64 10000 2.06 320 10:39 08.02.2021
2796 Clouds 20 1016 64 10000 2.06 320 10:20 08.02.2021
2797 Clouds 20 1016 60 10000 1.54 360 09:48 08.02.2021
2798 Clouds 20 1016 60 10000 1.54 360 09:21 08.02.2021
2799 Clouds 21 1016 56 10000 2.06 20 08:31 08.02.2021
2800 Clouds 21 1016 53 10000 2.06 20 07:49 08.02.2021
2801 Clouds 22 1016 50 10000 2.57 30 06:51 08.02.2021
2802 Clouds 23 1015 50 10000 2.06 160 05:18 08.02.2021
2803 Clouds 25 1015 41 10000 3.6 190 02:27 08.02.2021
2804 Clouds 25 1016 38 10000 3.6 190 00:26 08.02.2021
2805 Clouds 25 1017 38 10000 3.6 190 23:55 07.02.2021
2806 Clouds 25 1017 38 10000 3.6 190 23:30 07.02.2021
2807 Clouds 25 1017 36 10000 1.54 80 22:59 07.02.2021
2808 Clouds 25 1017 36 10000 1.54 80 22:41 07.02.2021
2809 Clouds 25 1017 36 10000 1.54 80 22:41 07.02.2021
2810 Clouds 25 1017 36 10000 1.54 80 22:22 07.02.2021
2811 Clouds 24 1017 43 10000 3.09 340 21:50 07.02.2021
2812 Clouds 24 1017 43 10000 3.09 340 21:25 07.02.2021
2813 Clouds 21 1017 56 10000 1.45 38 20:51 07.02.2021
2814 Clouds 21 1017 56 10000 1.45 38 20:32 07.02.2021
2815 Clouds 19 1017 72 10000 2.06 330 19:54 07.02.2021
2816 Clouds 19 1017 72 10000 2.06 330 19:29 07.02.2021
2817 Clouds 17 1017 82 10000 2.06 290 18:51 07.02.2021
2818 Clouds 17 1017 82 10000 2.06 290 18:31 07.02.2021
2819 Clouds 17 1016 77 10000 2.57 350 17:58 07.02.2021
2820 Clouds 17 1016 77 10000 2.57 350 17:40 07.02.2021
2821 Clouds 17 1016 77 10000 2.57 350 17:18 07.02.2021
2822 Clouds 18 1016 77 10000 2.06 340 16:43 07.02.2021
2823 Clouds 18 1016 77 10000 2.06 340 16:22 07.02.2021
2824 Clear 17 1016 82 10000 2.05 354 15:46 07.02.2021
2825 Clear 17 1016 82 10000 2.39 354 15:27 07.02.2021
2826 Clouds 17 1016 82 10000 1.54 320 14:47 07.02.2021
2827 Clouds 17 1016 82 10000 1.54 320 14:29 07.02.2021
2828 Clouds 18 1016 77 10000 2.57 330 13:52 07.02.2021
2829 Clouds 18 1016 77 10000 2.57 330 13:33 07.02.2021
2830 Clear 18 1016 77 10000 1.54 320 12:44 07.02.2021
2831 Clear 18 1016 77 10000 1.54 320 12:22 07.02.2021
2832 Clear 19 1016 72 10000 2.06 350 11:49 07.02.2021
2833 Clear 19 1016 72 10000 2.06 350 11:27 07.02.2021
2834 Clear 19 1016 63 10000 2.57 20 10:48 07.02.2021
2835 Clear 19 1016 63 10000 2.57 20 10:24 07.02.2021
2836 Clear 20 1016 60 10000 2.06 350 09:46 07.02.2021
2837 Clear 20 1016 60 10000 2.06 350 09:21 07.02.2021
2838 Clouds 20 1016 56 10000 3.09 30 08:22 07.02.2021
2839 Clouds 22 1015 49 10000 4.63 340 06:34 07.02.2021
2840 Clouds 22 1014 46 10000 4.63 330 05:57 07.02.2021
2841 Clouds 25 1013 41 10000 7.72 240 03:50 07.02.2021
2842 Clouds 26 1013 41 10000 6.17 240 01:24 07.02.2021
2843 Clouds 25 1014 50 10000 4.12 210 00:32 07.02.2021
2844 Clouds 25 1015 50 10000 4.12 220 23:44 06.02.2021
2845 Clouds 23 1015 53 10000 1.54 280 22:40 06.02.2021
2846 Clouds 23 1015 60 10000 1.54 350 21:39 06.02.2021
2847 Clouds 23 1015 60 10000 1.54 350 21:21 06.02.2021
2848 Clouds 21 1015 68 10000 2.06 360 20:50 06.02.2021
2849 Clouds 21 1015 68 10000 2.06 360 20:25 06.02.2021
2850 Clouds 19 1015 72 10000 3.09 330 19:56 06.02.2021
2851 Clouds 19 1015 72 10000 3.09 330 19:30 06.02.2021
2852 Clouds 17 1014 82 10000 0.88 333 18:47 06.02.2021
2853 Clouds 17 1014 82 10000 0.81 298 18:28 06.02.2021
2854 Clouds 17 1013 82 10000 0.81 298 17:46 06.02.2021
2855 Clouds 17 1013 82 10000 0.82 304 17:22 06.02.2021
2856 Clouds 17 1013 82 10000 0.82 304 16:59 06.02.2021
2857 Clouds 17 1013 82 10000 0.82 304 16:37 06.02.2021
2858 Clouds 17 1013 82 10000 1.1 305 16:19 06.02.2021
2859 Clouds 17 1012 77 10000 1.1 305 15:41 06.02.2021
2860 Clouds 17 1012 77 10000 1.14 294 15:20 06.02.2021
2861 Clouds 17 1012 77 10000 1.54 360 14:45 06.02.2021
2862 Clouds 17 1012 77 10000 1.54 360 14:25 06.02.2021
2863 Clouds 17 1012 82 10000 2.06 340 13:48 06.02.2021
2864 Clouds 17 1013 82 10000 0.49 258 12:57 06.02.2021
2865 Clouds 17 1013 82 10000 0.21 317 12:21 06.02.2021
2866 Clouds 18 1013 77 10000 2.06 350 11:47 06.02.2021
2867 Clouds 18 1013 77 10000 2.06 350 11:22 06.02.2021
2868 Clouds 18 1013 72 10000 2.06 30 10:57 06.02.2021
2869 Clouds 18 1013 72 10000 2.06 30 10:30 06.02.2021
2870 Clouds 18 1013 72 10000 1.54 40 09:58 06.02.2021
2871 Clouds 18 1013 72 10000 1.54 40 09:36 06.02.2021
2872 Clouds 18 1013 72 10000 1.54 40 09:18 06.02.2021
2873 Clouds 19 1013 72 10000 1.54 360 08:33 06.02.2021
2874 Clouds 20 1012 68 10000 2.06 30 07:56 06.02.2021
2875 Clouds 21 1011 49 10000 5.14 340 05:43 06.02.2021
2876 Clouds 22 1009 56 10000 2.57 20 03:56 06.02.2021
2877 Clouds 22 1010 50 10000 3.09 170 01:42 06.02.2021
2878 Clouds 23 1011 46 10000 2.57 310 00:47 06.02.2021
2879 Clouds 23 1011 46 10000 2.57 310 00:19 06.02.2021
2880 Clouds 23 1012 53 10000 4.63 300 23:42 05.02.2021
2881 Clouds 24 1012 53 10000 4.63 300 23:24 05.02.2021
2882 Clouds 24 1013 46 10000 3.09 0 22:47 05.02.2021
2883 Clouds 24 1013 46 10000 3.09 0 22:20 05.02.2021
2884 Clouds 23 1013 49 10000 3.09 340 21:44 05.02.2021
2885 Clouds 23 1013 49 10000 3.09 340 21:25 05.02.2021
2886 Clouds 21 1012 60 10000 3.26 343 20:43 05.02.2021
2887 Clouds 18 1012 82 10000 2.76 350 19:51 05.02.2021
2888 Clouds 17 1012 82 10000 2.76 356 19:19 05.02.2021
2889 Clouds 17 1012 88 10000 2.06 340 18:52 05.02.2021
2890 Clouds 17 1012 88 10000 2.06 340 18:20 05.02.2021
2891 Clouds 16 1011 88 10000 2.06 340 17:44 05.02.2021
2892 Clouds 16 1011 88 10000 2.06 340 17:21 05.02.2021
2893 Clouds 17 1011 77 10000 1.54 340 16:48 05.02.2021
2894 Clouds 17 1011 77 10000 1.54 340 16:23 05.02.2021
2895 Clouds 17 1011 82 10000 2.57 350 15:54 05.02.2021
2896 Clouds 17 1011 82 10000 2.57 350 15:26 05.02.2021
2897 Clouds 17 1011 82 10000 2.06 0 14:40 05.02.2021
2898 Clouds 17 1011 82 10000 2.06 0 14:22 05.02.2021
2899 Clouds 18 1012 77 10000 3.6 340 13:58 05.02.2021
2900 Clouds 18 1012 77 10000 3.6 340 13:35 05.02.2021
2901 Clouds 18 1012 82 10000 2.57 300 12:47 05.02.2021
2902 Clouds 18 1012 82 10000 2.57 300 12:27 05.02.2021
2903 Clouds 18 1013 72 10000 3.09 330 11:40 05.02.2021
2904 Clouds 18 1013 72 10000 3.09 330 11:21 05.02.2021
2905 Clouds 18 1013 77 10000 6.17 310 10:54 05.02.2021
2906 Clouds 18 1013 77 10000 6.17 310 10:26 05.02.2021
2907 Clouds 18 1013 72 10000 3.6 330 09:45 05.02.2021
2908 Clouds 18 1013 72 10000 3.6 330 09:26 05.02.2021
2909 Clouds 18 1013 68 10000 2.57 350 08:51 05.02.2021
2910 Clouds 19 1012 64 10000 2.06 20 07:53 05.02.2021
2911 Clouds 19 1012 64 10000 2.06 20 07:34 05.02.2021
2912 Clouds 20 1012 56 10000 6.17 340 06:48 05.02.2021
2913 Clouds 21 1011 53 10000 7.2 330 05:36 05.02.2021
2914 Clouds 22 1010 49 10000 6.69 330 02:52 05.02.2021
2915 Clouds 21 1010 49 10000 6.69 330 02:24 05.02.2021
2916 Clouds 22 1012 56 10000 6.69 310 00:39 05.02.2021
2917 Clouds 22 1012 56 10000 6.69 310 00:19 05.02.2021
2918 Clouds 23 1013 50 10000 6.17 330 23:55 04.02.2021
2919 Clouds 23 1013 50 10000 6.17 330 23:36 04.02.2021
2920 Clouds 23 1013 50 10000 6.17 330 23:18 04.02.2021
2921 Clouds 22 1013 49 10000 4.12 310 22:43 04.02.2021
2922 Clouds 23 1013 49 10000 4.12 310 22:25 04.02.2021
2923 Clouds 22 1014 60 10000 3.09 340 21:42 04.02.2021
2924 Clouds 21 1014 60 10000 3.09 340 21:18 04.02.2021
2925 Clouds 20 1013 77 10000 3.6 340 20:45 04.02.2021
2926 Clouds 20 1013 77 10000 3.6 340 20:25 04.02.2021
2927 Clouds 18 1013 88 10000 1.54 360 19:41 04.02.2021
2928 Clouds 17 1013 82 10000 2.06 350 18:51 04.02.2021
2929 Clouds 17 1013 82 10000 2.06 350 18:24 04.02.2021
2930 Clouds 17 1012 77 10000 2.57 30 17:51 04.02.2021
2931 Clouds 17 1012 77 10000 2.57 30 17:24 04.02.2021
2932 Clear 17 1011 82 10000 2.57 30 16:56 04.02.2021
2933 Clear 17 1011 82 10000 2.57 30 16:37 04.02.2021
2934 Clear 17 1011 82 10000 2.57 30 16:18 04.02.2021
2935 Clear 17 1011 94 10000 3.09 360 15:39 04.02.2021
2936 Clear 17 1011 94 10000 3.09 360 15:39 04.02.2021
2937 Clear 17 1011 94 10000 3.09 360 15:20 04.02.2021
2938 Clear 18 1011 82 10000 2.57 350 14:41 04.02.2021
2939 Clear 18 1011 82 10000 2.57 350 14:20 04.02.2021
2940 Clouds 19 1012 72 10000 3.6 340 13:44 04.02.2021
2941 Clouds 19 1012 82 10000 4.63 330 12:58 04.02.2021
2942 Clouds 19 1012 82 10000 4.63 330 12:34 04.02.2021
2943 Clear 20 1012 83 10000 5.14 330 11:53 04.02.2021
2944 Clear 20 1012 83 10000 5.14 330 11:33 04.02.2021
2945 Clouds 21 1012 83 10000 3.6 330 10:50 04.02.2021
2946 Clouds 21 1012 83 10000 3.6 330 10:19 04.02.2021
2947 Clouds 21 1012 83 10000 4.12 330 09:44 04.02.2021
2948 Clouds 21 1012 83 10000 4.12 330 09:19 04.02.2021
2949 Clouds 20 1011 83 10000 5.66 340 08:48 04.02.2021
2950 Clouds 20 1011 83 10000 5.66 340 08:24 04.02.2021
2951 Clouds 20 1011 83 10000 5.14 340 07:43 04.02.2021
2952 Rain 20 1011 83 10000 5.14 340 07:22 04.02.2021
2953 Rain 21 1010 83 10000 5.14 350 06:43 04.02.2021
2954 Rain 21 1009 88 10000 5.14 210 03:54 04.02.2021
2955 Rain 22 1008 78 10000 7.2 220 02:27 04.02.2021
2956 Rain 22 1010 83 10000 7.72 210 00:56 04.02.2021
2957 Rain 20 1010 88 10000 3.6 180 23:40 03.02.2021
2958 Rain 19 1013 94 10000 6.17 250 22:50 03.02.2021
2959 Rain 19 1013 94 10000 6.17 250 22:24 03.02.2021
2960 Rain 21 1013 78 8047 4.63 270 21:59 03.02.2021
2961 Rain 22 1013 78 3219 10.8 260 21:41 03.02.2021
2962 Rain 23 1013 78 8047 15.95 260 21:20 03.02.2021
2963 Rain 23 1012 88 10000 9.26 200 20:46 03.02.2021
2964 Rain 23 1012 88 10000 9.26 200 20:26 03.02.2021
2965 Rain 21 1011 88 10000 5.14 180 19:46 03.02.2021
2966 Rain 21 1011 88 10000 5.14 180 19:23 03.02.2021
2967 Rain 20 1011 94 10000 4.12 180 18:49 03.02.2021
2968 Rain 20 1011 94 10000 4.12 180 18:21 03.02.2021
2969 Rain 20 1011 88 10000 11.83 190 17:54 03.02.2021
2970 Rain 20 1011 88 10000 11.83 190 17:33 03.02.2021
2971 Rain 21 1011 94 4023 9.26 190 16:59 03.02.2021
2972 Rain 21 1010 83 10000 9.26 160 16:35 03.02.2021
2973 Rain 22 1010 78 10000 6.17 160 15:46 03.02.2021
2974 Rain 22 1010 78 10000 6.17 160 15:26 03.02.2021
2975 Rain 22 1010 73 10000 8.23 170 14:54 03.02.2021
2976 Rain 22 1010 73 10000 8.23 170 14:30 03.02.2021
2977 Rain 22 1012 78 10000 7.2 170 13:56 03.02.2021
2978 Rain 22 1012 78 10000 7.2 170 13:29 03.02.2021
2979 Rain 23 1012 78 10000 5.66 170 12:52 03.02.2021
2980 Rain 23 1012 78 10000 5.66 170 12:29 03.02.2021
2981 Rain 22 1013 73 10000 6.17 160 11:59 03.02.2021
2982 Rain 22 1013 73 10000 6.17 160 11:37 03.02.2021
2983 Rain 22 1014 69 10000 4.63 160 10:58 03.02.2021
2984 Rain 22 1014 69 10000 4.63 160 10:23 03.02.2021
2985 Rain 23 1014 69 10000 5.14 160 09:48 03.02.2021
2986 Rain 23 1014 69 10000 5.14 160 09:29 03.02.2021
2987 Rain 23 1014 69 10000 3.6 170 08:54 03.02.2021
2988 Rain 23 1014 69 10000 3.6 170 08:54 03.02.2021
2989 Rain 23 1014 69 10000 3.6 170 08:34 03.02.2021
2990 Rain 23 1014 69 10000 4.63 160 07:41 03.02.2021
2991 Rain 23 1013 73 10000 4.63 170 06:41 03.02.2021
2992 Rain 24 1013 65 10000 3.6 150 04:55 03.02.2021
2993 Clouds 24 1013 65 10000 3.6 150 04:32 03.02.2021
2994 Clouds 24 1013 65 10000 4.12 160 03:39 03.02.2021
2995 Clouds 25 1013 65 10000 4.63 170 02:37 03.02.2021
2996 Clouds 24 1014 73 10000 4.63 130 00:46 03.02.2021
2997 Rain 24 1015 78 10000 4.63 140 23:56 02.02.2021
2998 Rain 24 1015 78 10000 4.63 140 23:36 02.02.2021
2999 Rain 23 1015 78 10000 4.63 140 23:18 02.02.2021
3000 Rain 22 1016 78 10000 4.63 130 22:23 02.02.2021
3001 Rain 21 1016 94 10000 3.6 140 21:58 02.02.2021
3002 Rain 22 1016 94 10000 3.6 140 21:37 02.02.2021
3003 Rain 22 1016 94 10000 3.6 140 21:18 02.02.2021
3004 Rain 22 1016 88 10000 1.54 350 20:43 02.02.2021
3005 Rain 22 1016 88 10000 1.54 350 20:20 02.02.2021
3006 Rain 22 1016 88 10000 1.54 350 20:20 02.02.2021
3007 Rain 21 1015 94 10000 1.54 350 19:48 02.02.2021
3008 Rain 21 1015 94 10000 1.54 350 19:29 02.02.2021
3009 Rain 18 1015 100 10000 1.54 340 18:45 02.02.2021
3010 Rain 18 1015 100 10000 1.54 340 18:25 02.02.2021
3011 Rain 19 1015 100 10000 4.18 162 17:50 02.02.2021
3012 Rain 19 1015 100 10000 2.65 158 17:23 02.02.2021
3013 Rain 18 1014 100 10000 2.65 158 16:57 02.02.2021
3014 Rain 18 1014 100 10000 2.65 158 16:37 02.02.2021
3015 Clouds 18 1014 100 10000 1.54 320 15:59 02.02.2021
3016 Clouds 18 1014 100 10000 1.54 320 15:40 02.02.2021
3017 Clouds 18 1014 100 10000 1.54 320 15:21 02.02.2021
3018 Clouds 19 1014 100 10000 2.06 350 14:40 02.02.2021
3019 Clouds 19 1014 100 10000 2.06 350 14:18 02.02.2021
3020 Clear 20 1015 100 10000 1.54 330 13:44 02.02.2021
3021 Clear 20 1015 100 10000 1.54 330 13:26 02.02.2021
3022 Clouds 20 1016 100 10000 1.54 310 12:55 02.02.2021
3023 Clouds 20 1016 100 10000 1.54 310 12:26 02.02.2021
3024 Clouds 20 1016 100 10000 1.96 92 11:41 02.02.2021
3025 Rain 20 1016 100 10000 2.43 89 11:20 02.02.2021
3026 Rain 20 1016 94 10000 2.06 40 10:49 02.02.2021
3027 Rain 20 1016 94 10000 2.06 40 10:26 02.02.2021
3028 Rain 20 1016 94 10000 2.57 10 09:46 02.02.2021
3029 Rain 20 1016 94 10000 2.57 10 09:24 02.02.2021
3030 Rain 21 1016 88 10000 2.06 20 08:43 02.02.2021
3031 Rain 21 1015 83 10000 2.57 40 07:51 02.02.2021
3032 Rain 21 1015 83 10000 2.57 40 07:26 02.02.2021
3033 Rain 21 1015 83 10000 2.06 40 06:40 02.02.2021
3034 Rain 22 1014 69 10000 4.63 60 05:51 02.02.2021
3035 Rain 23 1014 69 10000 4.63 50 04:21 02.02.2021
3036 Rain 23 1014 78 10000 4.12 60 02:25 02.02.2021
3037 Clouds 24 1015 61 10000 3.09 80 00:46 02.02.2021
3038 Rain 24 1016 61 10000 4.63 60 23:58 01.02.2021
3039 Rain 23 1017 73 10000 2.57 70 22:59 01.02.2021
3040 Rain 23 1017 73 10000 2.57 70 22:39 01.02.2021
3041 Rain 23 1017 73 10000 2.57 70 22:20 01.02.2021
3042 Rain 22 1017 83 10000 3.09 40 21:46 01.02.2021
3043 Rain 22 1017 83 10000 3.09 40 21:22 01.02.2021
3044 Rain 22 1016 73 10000 1.54 0 20:42 01.02.2021
3045 Rain 22 1016 73 10000 1.54 0 20:24 01.02.2021
3046 Rain 21 1016 78 10000 5.99 70 19:47 01.02.2021
3047 Rain 21 1016 78 10000 5.34 69 19:21 01.02.2021
3048 Rain 20 1016 83 10000 2.06 330 18:51 01.02.2021
3049 Clouds 20 1016 83 10000 2.06 330 18:29 01.02.2021
3050 Clouds 20 1015 83 10000 6.22 71 17:49 01.02.2021
3051 Clouds 20 1015 83 10000 6.37 70 17:27 01.02.2021
3052 Clouds 21 1015 78 10000 1.54 330 16:58 01.02.2021
3053 Rain 21 1015 78 10000 1.54 330 16:33 01.02.2021
3054 Rain 21 1015 78 10000 2.06 330 15:50 01.02.2021
3055 Clouds 21 1015 78 10000 2.06 330 15:21 01.02.2021
3056 Clouds 21 1015 68 10000 1.54 350 14:54 01.02.2021
3057 Clouds 21 1015 68 10000 1.54 350 14:35 01.02.2021
3058 Clouds 21 1016 73 10000 4.12 50 13:55 01.02.2021
3059 Clouds 21 1016 73 10000 4.12 50 13:37 01.02.2021
3060 Clouds 21 1016 73 10000 4.12 50 13:19 01.02.2021
3061 Clouds 21 1016 73 10000 7.2 70 12:42 01.02.2021
3062 Clouds 21 1016 73 10000 7.04 67 12:22 01.02.2021
3063 Clouds 22 1017 68 10000 5.14 70 11:40 01.02.2021
3064 Clouds 22 1017 68 10000 5.14 70 11:19 01.02.2021
3065 Clouds 22 1017 68 10000 1.54 40 10:45 01.02.2021
3066 Clouds 22 1017 68 10000 1.54 40 10:20 01.02.2021
3067 Clouds 22 1017 68 10000 2.57 40 09:44 01.02.2021
3068 Clouds 22 1017 68 10000 2.57 40 09:21 01.02.2021
3069 Clouds 22 1017 68 10000 3.6 40 08:44 01.02.2021
3070 Clouds 22 1017 64 10000 4.63 60 07:50 01.02.2021
3071 Clouds 23 1016 60 10000 5.66 40 06:20 01.02.2021
3072 Clouds 25 1015 44 10000 7.2 70 03:21 01.02.2021
3073 Clouds 26 1016 47 10000 7.2 80 00:58 01.02.2021
3074 Clouds 26 1017 50 10000 7.2 70 23:42 31.01.2021
3075 Clouds 25 1018 53 10000 6.17 60 22:43 31.01.2021
3076 Clouds 25 1018 53 10000 6.17 60 22:24 31.01.2021
3077 Clouds 24 1018 64 10000 5.66 70 21:52 31.01.2021
3078 Clouds 24 1018 64 10000 5.66 70 21:23 31.01.2021
3079 Rain 23 1017 64 10000 5.14 70 20:50 31.01.2021
3080 Rain 23 1017 64 10000 5.14 70 20:50 31.01.2021
3081 Rain 22 1017 64 10000 5.14 70 20:21 31.01.2021
3082 Clouds 21 1017 73 10000 2.57 20 19:56 31.01.2021
3083 Clouds 21 1017 73 10000 2.57 20 19:37 31.01.2021
3084 Rain 21 1017 73 10000 2.57 20 19:19 31.01.2021
3085 Rain 21 1017 73 10000 2.57 40 18:41 31.01.2021
3086 Clouds 21 1017 73 10000 2.57 40 18:21 31.01.2021
3087 Clouds 21 1016 73 10000 4.12 70 17:46 31.01.2021
3088 Rain 21 1016 73 10000 4.12 70 17:23 31.01.2021
3089 Rain 21 1016 73 10000 4.63 60 16:50 31.01.2021
3090 Rain 21 1016 73 10000 4.63 60 16:50 31.01.2021
3091 Clouds 21 1016 73 10000 4.63 60 16:31 31.01.2021
3092 Rain 21 1016 83 10000 3.09 50 15:52 31.01.2021
3093 Rain 21 1016 83 10000 3.09 50 15:34 31.01.2021
3094 Rain 21 1016 78 10000 4.63 60 14:42 31.01.2021
3095 Rain 21 1016 78 10000 4.63 60 14:24 31.01.2021
3096 Rain 21 1017 78 10000 5.66 40 13:53 31.01.2021
3097 Rain 21 1017 78 10000 5.66 40 13:34 31.01.2021
3098 Rain 21 1017 73 10000 3.6 50 12:49 31.01.2021
3099 Rain 21 1017 73 10000 3.6 50 12:22 31.01.2021
3100 Rain 22 1018 68 10000 7.2 60 11:44 31.01.2021
3101 Rain 22 1018 68 10000 7.2 60 11:25 31.01.2021
3102 Clouds 22 1018 68 10000 6.17 40 10:57 31.01.2021
3103 Clouds 22 1018 68 10000 6.17 40 10:35 31.01.2021
3104 Rain 22 1018 68 10000 6.17 50 09:51 31.01.2021
3105 Rain 22 1018 68 10000 6.17 50 09:25 31.01.2021
3106 Clouds 22 1018 64 10000 6.17 60 08:33 31.01.2021
3107 Clouds 23 1018 64 10000 4.63 60 06:57 31.01.2021
3108 Clouds 24 1018 57 10000 6.69 60 05:35 31.01.2021
3109 Clouds 25 1018 50 10000 5.66 30 00:47 31.01.2021
3110 Clouds 25 1018 50 10000 5.66 30 00:22 31.01.2021
3111 Clouds 26 1019 50 10000 7.72 40 23:33 30.01.2021
3112 Clouds 26 1019 50 10000 8.23 60 22:56 30.01.2021
3113 Clouds 26 1019 50 10000 8.23 60 22:29 30.01.2021
3114 Clouds 24 1019 61 10000 6.69 60 21:40 30.01.2021
3115 Clouds 23 1019 61 10000 6.69 60 21:21 30.01.2021
3116 Clouds 22 1019 73 10000 3.09 80 20:46 30.01.2021
3117 Rain 22 1019 73 10000 3.09 80 20:27 30.01.2021
3118 Rain 21 1019 73 10000 5.14 70 19:44 30.01.2021
3119 Rain 21 1019 73 10000 5.14 70 19:25 30.01.2021
3120 Rain 21 1018 73 10000 4.63 70 18:42 30.01.2021
3121 Rain 21 1018 73 10000 4.63 70 18:21 30.01.2021
3122 Rain 21 1018 73 10000 3.6 40 17:58 30.01.2021
3123 Rain 21 1018 73 10000 3.6 40 17:19 30.01.2021
3124 Rain 21 1018 73 10000 3.09 60 16:47 30.01.2021
3125 Rain 21 1018 73 10000 3.09 60 16:25 30.01.2021
3126 Rain 21 1018 73 10000 3.6 60 15:55 30.01.2021
3127 Rain 21 1018 73 10000 3.6 60 15:37 30.01.2021
3128 Rain 21 1018 73 10000 3.6 60 15:19 30.01.2021
3129 Clouds 21 1018 73 10000 5.66 50 14:42 30.01.2021
3130 Clouds 22 1018 73 10000 5.66 50 14:19 30.01.2021
3131 Clouds 21 1019 73 10000 3.6 40 13:30 30.01.2021
3132 Clouds 22 1019 68 10000 7.2 70 12:49 30.01.2021
3133 Rain 22 1019 68 10000 7.2 70 12:28 30.01.2021
3134 Clouds 22 1019 64 10000 5.66 50 11:57 30.01.2021
3135 Clouds 22 1019 64 10000 5.66 50 11:26 30.01.2021
3136 Clouds 22 1020 68 10000 6.17 50 10:48 30.01.2021
3137 Rain 22 1019 73 10000 4.12 50 09:48 30.01.2021
3138 Rain 22 1019 73 10000 4.12 50 09:26 30.01.2021
3139 Clouds 22 1019 68 10000 6.69 60 08:47 30.01.2021
3140 Rain 23 1019 64 10000 5.14 60 07:48 30.01.2021
3141 Clouds 23 1018 64 10000 6.69 50 06:48 30.01.2021
3142 Clouds 24 1017 57 10000 8.23 50 04:29 30.01.2021
3143 Clouds 24 1017 57 10000 7.72 50 03:34 30.01.2021
3144 Clouds 24 1016 50 10000 8.23 70 02:23 30.01.2021
3145 Clouds 24 1017 50 10000 8.23 50 01:28 30.01.2021
3146 Clouds 24 1018 50 10000 8.75 70 00:35 30.01.2021
3147 Clouds 24 1019 47 10000 9.26 50 23:58 29.01.2021
3148 Clouds 24 1019 47 10000 9.26 50 23:40 29.01.2021
3149 Clouds 25 1019 47 10000 9.26 50 23:18 29.01.2021
3150 Clouds 25 1019 53 10000 6.17 60 22:38 29.01.2021
3151 Clouds 23 1020 68 10000 5.14 40 21:59 29.01.2021
3152 Clouds 22 1020 68 10000 5.14 40 21:28 29.01.2021
3153 Rain 22 1019 78 10000 4.63 60 20:45 29.01.2021
3154 Rain 21 1019 78 10000 4.63 60 20:24 29.01.2021
3155 Rain 21 1019 78 10000 4.12 80 19:42 29.01.2021
3156 Rain 21 1019 78 10000 4.12 80 19:22 29.01.2021
3157 Rain 21 1019 73 10000 3.09 50 18:57 29.01.2021
3158 Rain 21 1018 73 10000 6.69 60 17:51 29.01.2021
3159 Rain 21 1018 73 10000 6.69 60 17:23 29.01.2021
3160 Rain 21 1018 68 10000 4.12 50 16:58 29.01.2021
3161 Rain 21 1018 68 10000 4.12 50 16:38 29.01.2021
3162 Rain 21 1018 68 10000 4.12 50 16:19 29.01.2021
3163 Rain 21 1018 68 10000 5.66 60 15:41 29.01.2021
3164 Rain 21 1018 68 10000 5.66 60 15:22 29.01.2021
3165 Rain 22 1018 68 10000 7.72 60 14:30 29.01.2021
3166 Rain 22 1019 68 10000 4.12 20 13:57 29.01.2021
3167 Rain 21 1019 68 10000 4.12 20 13:33 29.01.2021
3168 Clouds 22 1019 64 10000 6.17 60 12:43 29.01.2021
3169 Clouds 22 1019 64 10000 6.17 60 12:19 29.01.2021
3170 Clouds 22 1019 60 10000 3.6 50 11:45 29.01.2021
3171 Clouds 22 1019 60 10000 3.6 50 11:18 29.01.2021
3172 Clouds 22 1020 56 10000 4.63 60 10:46 29.01.2021
3173 Clouds 22 1020 56 10000 4.63 60 10:23 29.01.2021
3174 Clouds 22 1020 64 10000 8.23 50 09:39 29.01.2021
3175 Clouds 23 1019 53 10000 8.75 50 08:50 29.01.2021
3176 Clouds 23 1019 53 10000 8.75 50 08:27 29.01.2021
3177 Clouds 23 1019 53 10000 6.69 50 07:48 29.01.2021
3178 Clouds 23 1019 53 10000 6.69 50 07:30 29.01.2021
3179 Clouds 23 1019 53 10000 6.69 60 06:49 29.01.2021
3180 Clouds 24 1017 53 10000 9.26 50 04:53 29.01.2021
3181 Clouds 25 1017 53 10000 10.8 60 02:26 29.01.2021
3182 Clouds 25 1018 54 10000 7.2 50 00:37 29.01.2021
3183 Clouds 25 1018 54 10000 7.2 50 00:19 29.01.2021
3184 Clouds 24 1019 61 10000 6.17 60 23:41 28.01.2021
3185 Clouds 24 1019 61 10000 6.17 60 23:22 28.01.2021
3186 Clouds 24 1020 57 10000 6.69 60 22:42 28.01.2021
3187 Clouds 24 1020 57 10000 6.69 60 22:24 28.01.2021
3188 Clouds 24 1020 65 10000 7.72 60 21:45 28.01.2021
3189 Clouds 24 1020 65 10000 7.72 60 21:27 28.01.2021
3190 Clouds 23 1019 64 10000 7.2 70 20:47 28.01.2021
3191 Clouds 23 1019 64 10000 7.2 70 20:20 28.01.2021
3192 Clouds 23 1019 64 10000 7.2 70 20:20 28.01.2021
3193 Rain 22 1019 68 10000 7.72 70 19:57 28.01.2021
3194 Rain 22 1019 68 10000 7.72 70 19:32 28.01.2021
3195 Clouds 22 1018 68 10000 8.75 60 18:55 28.01.2021
3196 Clouds 22 1018 68 10000 8.75 60 18:36 28.01.2021
3197 Clouds 22 1018 68 10000 8.75 60 18:18 28.01.2021
3198 Clouds 22 1018 68 10000 4.63 50 17:43 28.01.2021
3199 Clouds 22 1018 68 10000 4.63 50 17:24 28.01.2021
3200 Clouds 22 1018 60 10000 6.69 60 16:43 28.01.2021
3201 Clouds 22 1018 60 10000 6.69 60 16:21 28.01.2021
3202 Clouds 22 1018 60 10000 7.2 50 15:38 28.01.2021
3203 Clouds 22 1018 56 10000 5.66 50 14:58 28.01.2021
3204 Clouds 22 1018 56 10000 5.66 50 14:39 28.01.2021
3205 Clouds 22 1018 56 10000 5.66 50 14:39 28.01.2021
3206 Clouds 22 1018 56 10000 5.66 50 14:20 28.01.2021
3207 Clouds 22 1019 56 10000 7.72 50 13:40 28.01.2021
3208 Clouds 22 1019 64 10000 6.69 70 12:52 28.01.2021
3209 Clouds 22 1019 64 10000 6.69 70 12:52 28.01.2021
3210 Clouds 22 1019 64 10000 6.69 70 12:33 28.01.2021
3211 Clouds 22 1019 64 10000 5.14 70 11:59 28.01.2021
3212 Clouds 23 1019 64 10000 5.14 70 11:39 28.01.2021
3213 Clouds 23 1019 64 10000 5.14 70 11:19 28.01.2021
3214 Clouds 23 1019 60 10000 6.69 60 10:49 28.01.2021
3215 Clouds 23 1019 60 10000 6.69 60 10:27 28.01.2021
3216 Clouds 23 1019 60 10000 9.26 70 09:44 28.01.2021
3217 Clouds 23 1019 60 10000 9.26 70 09:22 28.01.2021
3218 Clouds 23 1019 60 10000 7.72 60 08:48 28.01.2021
3219 Clouds 23 1018 64 10000 8.75 60 07:55 28.01.2021
3220 Clouds 23 1018 64 10000 8.75 60 07:36 28.01.2021
3221 Clouds 23 1018 64 10000 6.69 60 06:48 28.01.2021
3222 Clouds 24 1016 57 10000 7.72 60 04:33 28.01.2021
3223 Clouds 25 1016 54 10000 8.23 70 03:42 28.01.2021
3224 Clouds 26 1017 54 10000 10.29 50 00:57 28.01.2021
3225 Clouds 26 1017 51 10000 10.29 70 23:43 27.01.2021
3226 Clouds 27 1017 51 10000 10.29 70 23:23 27.01.2021
3227 Clouds 26 1018 54 10000 9.77 70 22:41 27.01.2021
3228 Clouds 26 1018 54 10000 9.77 70 22:19 27.01.2021
3229 Clouds 26 1018 54 10000 9.77 70 22:19 27.01.2021
3230 Clouds 25 1018 57 10000 8.75 70 21:42 27.01.2021
3231 Clouds 25 1018 57 10000 8.75 70 21:22 27.01.2021
3232 Clouds 24 1018 65 10000 6.17 70 20:42 27.01.2021
3233 Clouds 24 1018 65 10000 6.17 70 20:18 27.01.2021
3234 Clouds 23 1018 73 10000 4.63 50 19:41 27.01.2021
3235 Clouds 23 1018 73 10000 4.63 50 19:41 27.01.2021
3236 Clouds 22 1018 73 10000 4.63 50 19:21 27.01.2021
3237 Clouds 22 1017 73 10000 4.12 80 18:44 27.01.2021
3238 Rain 22 1017 73 10000 4.12 80 18:23 27.01.2021
3239 Rain 22 1017 73 10000 5.14 80 17:47 27.01.2021
3240 Clouds 22 1017 73 10000 5.14 80 17:28 27.01.2021
3241 Clouds 23 1016 64 10000 5.14 60 16:49 27.01.2021
3242 Clouds 23 1016 64 10000 5.14 60 16:28 27.01.2021
3243 Clouds 23 1016 64 10000 5.66 60 15:51 27.01.2021
3244 Clouds 23 1016 64 10000 5.66 60 15:32 27.01.2021
3245 Clouds 22 1016 73 10000 6.17 60 14:45 27.01.2021
3246 Clouds 22 1016 73 10000 6.17 60 14:22 27.01.2021
3247 Clouds 23 1017 64 10000 5.14 60 13:45 27.01.2021
3248 Clouds 23 1017 68 10000 3.09 70 12:58 27.01.2021
3249 Clouds 23 1017 68 10000 3.09 70 12:39 27.01.2021
3250 Clouds 23 1017 68 10000 3.09 70 12:18 27.01.2021
3251 Clouds 23 1018 64 10000 3.6 40 11:44 27.01.2021
3252 Clouds 23 1018 64 10000 3.6 40 11:21 27.01.2021
3253 Clouds 23 1018 69 10000 4.12 60 10:39 27.01.2021
3254 Clouds 23 1018 69 10000 4.12 60 10:19 27.01.2021
3255 Clouds 23 1018 69 10000 6.17 70 09:41 27.01.2021
3256 Clouds 23 1017 69 10000 5.66 60 08:59 27.01.2021
3257 Clouds 23 1017 69 10000 5.66 60 08:31 27.01.2021
3258 Clouds 24 1017 65 10000 5.66 60 07:43 27.01.2021
3259 Clouds 23 1017 65 10000 4.12 50 06:58 27.01.2021
3260 Clouds 23 1017 65 10000 4.12 50 06:19 27.01.2021
3261 Clouds 24 1016 61 10000 6.17 70 05:39 27.01.2021
3262 Clouds 25 1015 54 10000 6.17 60 03:29 27.01.2021
3263 Clouds 26 1015 57 10000 6.69 60 02:23 27.01.2021
3264 Clouds 26 1015 54 10000 6.69 60 01:49 27.01.2021
3265 Clouds 25 1016 57 10000 8.75 70 00:33 27.01.2021
3266 Clouds 25 1017 57 10000 7.72 70 23:48 26.01.2021
3267 Clouds 25 1017 57 10000 7.72 70 23:28 26.01.2021
3268 Clouds 25 1018 61 10000 8.23 70 22:48 26.01.2021
3269 Clouds 25 1018 61 10000 8.23 70 22:23 26.01.2021
3270 Clouds 24 1017 69 10000 7.2 90 21:53 26.01.2021
3271 Clouds 24 1017 69 10000 7.2 90 21:53 26.01.2021
3272 Clouds 24 1017 69 10000 7.2 90 21:32 26.01.2021
3273 Clouds 23 1017 69 10000 5.14 60 20:58 26.01.2021
3274 Clouds 23 1017 69 10000 5.14 60 20:39 26.01.2021
3275 Clouds 23 1017 69 10000 5.14 60 20:20 26.01.2021
3276 Clouds 23 1017 69 10000 6.17 60 19:44 26.01.2021
3277 Rain 23 1017 69 10000 6.17 60 19:20 26.01.2021
3278 Clouds 23 1017 73 10000 6.17 70 18:47 26.01.2021
3279 Rain 23 1017 73 10000 6.17 70 18:24 26.01.2021
3280 Rain 23 1017 73 10000 6.17 70 18:24 26.01.2021
3281 Rain 23 1016 73 10000 5.14 60 17:49 26.01.2021
3282 Rain 23 1016 73 10000 5.14 60 17:27 26.01.2021
3283 Rain 23 1016 78 10000 3.6 60 16:55 26.01.2021
3284 Rain 23 1016 78 10000 3.6 60 16:37 26.01.2021
3285 Rain 23 1016 78 10000 3.6 60 16:18 26.01.2021
3286 Rain 23 1016 78 10000 4.12 70 15:40 26.01.2021
3287 Rain 23 1016 78 10000 4.12 70 15:19 26.01.2021
3288 Rain 23 1016 78 10000 3.09 70 14:35 26.01.2021
3289 Rain 23 1016 78 10000 3.09 70 14:35 26.01.2021
3290 Rain 23 1017 78 10000 7.72 80 13:59 26.01.2021
3291 Rain 23 1017 78 10000 7.72 80 13:33 26.01.2021
3292 Rain 23 1017 78 10000 2.06 90 12:56 26.01.2021
3293 Rain 23 1017 78 10000 2.06 90 12:37 26.01.2021
3294 Rain 23 1017 78 10000 2.06 90 12:19 26.01.2021
3295 Rain 23 1018 78 10000 3.13 90 11:49 26.01.2021
3296 Rain 23 1018 78 10000 3.34 91 11:18 26.01.2021
3297 Rain 22 1018 88 10000 3.34 91 10:34 26.01.2021
3298 Rain 22 1018 88 10000 1.54 340 09:57 26.01.2021
3299 Rain 22 1018 88 10000 1.54 340 09:36 26.01.2021
3300 Rain 21 1018 88 10000 1.54 340 09:18 26.01.2021
3301 Rain 22 1018 88 10000 2.57 320 08:42 26.01.2021
3302 Rain 21 1018 88 10000 1.54 360 07:54 26.01.2021
3303 Rain 21 1017 88 10000 1.54 40 06:58 26.01.2021
3304 Rain 20 1016 94 1609 2.06 160 05:46 26.01.2021
3305 Rain 21 1017 88 2816 5.14 80 05:25 26.01.2021
3306 Rain 21 1016 100 2012 1.54 110 03:31 26.01.2021
3307 Rain 23 1016 88 8047 6.69 80 00:59 26.01.2021
3308 Rain 25 1017 57 10000 5.14 80 23:47 25.01.2021
3309 Rain 26 1017 57 10000 5.14 80 23:26 25.01.2021
3310 Rain 26 1018 61 10000 8.23 80 22:40 25.01.2021
3311 Rain 26 1018 61 10000 8.23 80 22:21 25.01.2021
3312 Rain 25 1018 65 10000 6.17 90 21:40 25.01.2021
3313 Rain 25 1017 65 10000 5.66 60 20:59 25.01.2021
3314 Rain 25 1017 65 10000 5.66 60 20:39 25.01.2021
3315 Clouds 25 1017 65 10000 5.66 60 20:19 25.01.2021
3316 Clouds 24 1016 73 10000 4.12 80 19:46 25.01.2021
3317 Clouds 23 1016 73 10000 4.12 80 19:22 25.01.2021
3318 Clouds 23 1016 73 10000 4.12 80 18:43 25.01.2021
3319 Clouds 23 1016 73 10000 4.12 80 18:24 25.01.2021
3320 Clouds 23 1015 73 10000 2.06 80 17:44 25.01.2021
3321 Clouds 23 1015 73 10000 2.06 80 17:44 25.01.2021
3322 Clouds 23 1015 73 10000 2.06 80 17:24 25.01.2021
3323 Clouds 23 1015 73 10000 3.09 70 16:44 25.01.2021
3324 Clouds 23 1015 73 10000 3.09 70 16:25 25.01.2021
3325 Clouds 23 1015 73 10000 2.06 70 15:54 25.01.2021
3326 Clouds 23 1015 73 10000 2.06 70 15:34 25.01.2021
3327 Clouds 23 1015 73 10000 3.6 80 14:53 25.01.2021
3328 Clouds 23 1015 73 10000 3.6 80 14:20 25.01.2021
3329 Clouds 23 1016 69 10000 3.09 70 13:57 25.01.2021
3330 Clouds 23 1016 69 10000 3.09 70 13:57 25.01.2021
3331 Clouds 23 1016 69 10000 3.09 70 13:36 25.01.2021
3332 Clouds 23 1016 69 10000 3.09 70 13:36 25.01.2021
3333 Clouds 23 1016 69 10000 3.6 90 12:49 25.01.2021
3334 Clouds 23 1016 69 10000 3.6 90 12:25 25.01.2021
3335 Clouds 23 1016 69 10000 4.63 70 11:58 25.01.2021
3336 Clouds 23 1016 69 10000 4.63 70 11:22 25.01.2021
3337 Clouds 23 1017 69 10000 5.66 80 10:44 25.01.2021
3338 Clouds 23 1017 69 10000 5.66 80 10:21 25.01.2021
3339 Clouds 23 1017 69 10000 2.57 50 09:47 25.01.2021
3340 Clouds 23 1017 69 10000 2.57 50 09:28 25.01.2021
3341 Clouds 23 1017 69 10000 2.06 80 08:33 25.01.2021
3342 Clouds 24 1016 69 10000 3.09 60 07:46 25.01.2021
3343 Clouds 24 1016 69 10000 3.09 60 07:27 25.01.2021
3344 Clouds 24 1016 69 10000 4.63 50 06:23 25.01.2021
3345 Clouds 27 1014 51 10000 5.14 60 01:35 25.01.2021
3346 Clouds 27 1015 54 10000 6.17 80 00:31 25.01.2021
3347 Clouds 27 1016 54 10000 6.69 70 23:20 24.01.2021
3348 Clouds 26 1016 54 10000 4.63 70 22:47 24.01.2021
3349 Clouds 26 1016 54 10000 4.63 70 22:27 24.01.2021
3350 Rain 25 1017 61 10000 4.63 60 21:55 24.01.2021
3351 Rain 25 1017 61 10000 4.63 60 21:27 24.01.2021
3352 Clouds 24 1016 65 10000 4.12 70 20:46 24.01.2021
3353 Clouds 24 1016 65 10000 4.12 70 20:23 24.01.2021
3354 Clouds 24 1016 65 10000 4.12 70 20:23 24.01.2021
3355 Clouds 24 1016 69 10000 5.14 60 19:57 24.01.2021
3356 Clouds 23 1016 69 10000 5.14 60 19:36 24.01.2021
3357 Rain 23 1016 69 10000 5.14 60 19:18 24.01.2021
3358 Rain 22 1015 68 10000 3.09 80 18:41 24.01.2021
3359 Rain 22 1015 68 10000 3.09 80 18:21 24.01.2021
3360 Rain 22 1015 73 10000 5.14 50 17:57 24.01.2021
3361 Rain 22 1015 73 10000 5.14 50 17:38 24.01.2021
3362 Rain 22 1015 73 10000 5.14 50 17:18 24.01.2021
3363 Clouds 22 1015 68 10000 5.14 70 16:41 24.01.2021
3364 Rain 22 1015 68 10000 5.14 70 16:20 24.01.2021
3365 Rain 22 1015 73 10000 3.6 60 15:45 24.01.2021
3366 Rain 22 1015 73 10000 3.6 60 15:20 24.01.2021
3367 Rain 23 1015 73 10000 6.17 70 14:47 24.01.2021
3368 Rain 23 1015 73 10000 6.17 70 14:24 24.01.2021
3369 Rain 23 1016 68 10000 4.12 60 13:34 24.01.2021
3370 Rain 23 1016 69 10000 5.66 50 12:51 24.01.2021
3371 Rain 23 1016 69 10000 5.66 50 12:22 24.01.2021
3372 Rain 23 1016 69 10000 5.14 60 11:55 24.01.2021
3373 Rain 23 1016 69 10000 5.14 60 11:25 24.01.2021
3374 Rain 23 1016 64 10000 5.14 80 10:59 24.01.2021
3375 Rain 23 1016 64 10000 5.14 80 10:30 24.01.2021
3376 Rain 23 1016 69 10000 5.14 60 09:47 24.01.2021
3377 Rain 23 1016 69 10000 5.14 60 09:19 24.01.2021
3378 Rain 23 1016 69 10000 4.12 70 08:37 24.01.2021
3379 Clouds 25 1014 54 10000 9.77 60 03:50 24.01.2021
3380 Clouds 26 1014 54 10000 9.26 60 02:19 24.01.2021
3381 Rain 26 1016 54 10000 8.23 90 00:39 24.01.2021
3382 Rain 26 1016 54 10000 8.23 90 00:19 24.01.2021
3383 Rain 25 1017 57 10000 7.72 70 23:33 23.01.2021
3384 Clouds 25 1017 61 10000 7.2 70 22:58 23.01.2021
3385 Clouds 25 1017 61 10000 7.2 70 22:40 23.01.2021
3386 Rain 24 1018 61 10000 8.23 70 21:58 23.01.2021
3387 Clouds 24 1018 61 10000 8.23 70 21:23 23.01.2021
3388 Rain 22 1018 78 10000 5.14 60 20:51 23.01.2021
3389 Rain 22 1018 78 10000 5.14 60 20:30 23.01.2021
3390 Rain 22 1017 73 10000 5.66 80 19:47 23.01.2021
3391 Rain 22 1017 73 10000 5.66 80 19:25 23.01.2021
3392 Clouds 22 1016 78 10000 5.14 70 18:59 23.01.2021
3393 Clouds 22 1016 78 10000 5.14 70 18:40 23.01.2021
3394 Clouds 22 1016 78 10000 5.14 70 18:20 23.01.2021
3395 Rain 21 1016 83 10000 3.6 60 17:29 23.01.2021
3396 Rain 22 1015 73 10000 6.69 70 16:52 23.01.2021
3397 Rain 22 1015 73 10000 6.69 70 16:32 23.01.2021
3398 Rain 22 1015 73 10000 5.66 60 15:49 23.01.2021
3399 Rain 22 1015 73 10000 5.66 60 15:27 23.01.2021
3400 Clouds 22 1016 68 10000 3.6 40 14:38 23.01.2021
3401 Rain 22 1016 68 10000 3.6 40 14:19 23.01.2021
3402 Rain 22 1016 73 10000 5.66 70 13:40 23.01.2021
3403 Rain 22 1016 73 10000 5.66 70 13:22 23.01.2021
3404 Clouds 22 1016 68 10000 5.14 60 12:42 23.01.2021
3405 Clouds 22 1016 68 10000 5.14 60 12:22 23.01.2021
3406 Clouds 22 1017 73 10000 5.66 70 11:35 23.01.2021
3407 Clouds 23 1017 64 10000 5.66 60 10:54 23.01.2021
3408 Clouds 23 1017 64 10000 5.66 60 10:23 23.01.2021
3409 Clouds 23 1017 64 10000 6.17 70 09:51 23.01.2021
3410 Clouds 23 1017 64 10000 6.17 70 09:24 23.01.2021
3411 Clouds 23 1017 64 10000 7.72 60 08:39 23.01.2021
3412 Clouds 23 1017 64 10000 7.2 70 07:38 23.01.2021
3413 Clouds 23 1016 64 10000 6.17 60 06:48 23.01.2021
3414 Clouds 26 1015 47 10000 9.77 60 01:44 23.01.2021
3415 Clouds 26 1017 42 10000 8.23 60 23:59 22.01.2021
3416 Clouds 26 1017 42 10000 8.23 60 23:35 22.01.2021
3417 Clouds 26 1017 47 10000 7.2 50 22:40 22.01.2021
3418 Clouds 25 1018 50 10000 6.17 60 21:56 22.01.2021
3419 Clouds 25 1018 50 10000 6.17 60 21:37 22.01.2021
3420 Clouds 25 1018 50 10000 6.17 60 21:37 22.01.2021
3421 Clouds 25 1018 50 10000 6.17 60 21:19 22.01.2021
3422 Clouds 24 1017 53 10000 4.63 50 20:43 22.01.2021
3423 Clouds 24 1017 53 10000 4.63 50 20:22 22.01.2021
3424 Clouds 23 1017 60 10000 5.14 80 19:26 22.01.2021
3425 Clouds 23 1017 64 10000 6.69 60 18:59 22.01.2021
3426 Clouds 23 1017 64 10000 6.69 60 18:41 22.01.2021
3427 Clouds 23 1017 64 10000 6.69 60 18:22 22.01.2021
3428 Clouds 23 1016 60 10000 7.2 60 17:43 22.01.2021
3429 Clouds 23 1016 60 10000 7.2 60 17:24 22.01.2021
3430 Clouds 22 1016 64 10000 6.69 70 16:44 22.01.2021
3431 Clouds 22 1016 64 10000 6.69 70 16:23 22.01.2021
3432 Clouds 22 1016 64 10000 5.14 60 15:30 22.01.2021
3433 Clouds 22 1017 60 10000 6.69 60 14:58 22.01.2021
3434 Clouds 23 1017 60 10000 6.69 60 14:30 22.01.2021
3435 Clouds 23 1017 60 10000 7.72 60 13:47 22.01.2021
3436 Clouds 23 1017 60 10000 7.72 60 13:28 22.01.2021
3437 Clouds 23 1018 60 10000 8.23 60 12:46 22.01.2021
3438 Clouds 23 1018 60 10000 8.23 60 12:22 22.01.2021
3439 Clouds 23 1018 60 10000 8.23 60 12:22 22.01.2021
3440 Clouds 23 1018 60 10000 6.69 60 11:46 22.01.2021
3441 Clouds 23 1018 57 10000 5.14 60 10:55 22.01.2021
3442 Clouds 23 1018 57 10000 5.14 60 10:35 22.01.2021
3443 Clouds 23 1018 57 10000 7.2 60 09:57 22.01.2021
3444 Clouds 23 1018 57 10000 7.2 60 09:27 22.01.2021
3445 Clouds 23 1018 60 10000 6.17 60 08:50 22.01.2021
3446 Clouds 23 1018 60 10000 6.17 60 08:50 22.01.2021
3447 Clouds 23 1018 60 10000 6.17 60 08:25 22.01.2021
3448 Clouds 23 1017 60 10000 7.72 60 07:31 22.01.2021
3449 Clouds 25 1015 47 10000 8.23 50 02:46 22.01.2021
3450 Clouds 26 1016 47 10000 7.72 80 00:38 22.01.2021
3451 Clouds 26 1017 51 10000 7.72 50 23:51 21.01.2021
3452 Clouds 26 1017 51 10000 7.72 50 23:29 21.01.2021
3453 Clouds 26 1017 54 10000 4.63 80 22:49 21.01.2021
3454 Clouds 26 1017 54 10000 4.63 80 22:23 21.01.2021
3455 Clouds 25 1018 57 10000 6.17 70 21:43 21.01.2021
3456 Clouds 25 1018 57 10000 6.17 70 21:20 21.01.2021
3457 Clouds 24 1017 64 10000 4.12 60 20:48 21.01.2021
3458 Clouds 24 1017 64 10000 4.12 60 20:27 21.01.2021
3459 Clouds 23 1017 73 10000 4.12 80 19:51 21.01.2021
3460 Clouds 23 1017 73 10000 4.12 80 19:29 21.01.2021
3461 Clouds 22 1017 68 10000 5.14 90 18:56 21.01.2021
3462 Clouds 22 1017 68 10000 5.14 90 18:38 21.01.2021
3463 Clouds 22 1017 68 10000 5.14 90 18:19 21.01.2021
3464 Rain 22 1016 68 10000 2.57 60 17:42 21.01.2021
3465 Rain 22 1016 68 10000 2.57 60 17:19 21.01.2021
3466 Clouds 22 1016 68 10000 2.57 30 16:41 21.01.2021
3467 Clouds 22 1016 68 10000 2.57 30 16:23 21.01.2021
3468 Clouds 22 1016 68 10000 4.63 80 15:55 21.01.2021
3469 Clouds 22 1016 68 10000 4.63 80 15:28 21.01.2021
3470 Clouds 23 1016 68 10000 2.57 80 14:50 21.01.2021
3471 Clouds 23 1016 68 10000 2.57 80 14:31 21.01.2021
3472 Clouds 22 1017 68 10000 3.6 30 13:47 21.01.2021
3473 Clouds 23 1017 68 10000 3.6 30 13:26 21.01.2021
3474 Clouds 23 1017 64 10000 2.06 90 12:46 21.01.2021
3475 Clouds 23 1017 64 10000 2.06 90 12:26 21.01.2021
3476 Clouds 23 1017 64 10000 5.14 90 11:56 21.01.2021
3477 Clouds 23 1017 64 10000 5.14 90 11:35 21.01.2021
3478 Clouds 23 1017 64 10000 4.63 70 10:57 21.01.2021
3479 Clouds 23 1017 64 10000 4.63 70 10:38 21.01.2021
3480 Clouds 23 1017 64 10000 4.63 70 10:38 21.01.2021
3481 Rain 23 1017 64 10000 4.12 80 09:56 21.01.2021
3482 Rain 23 1017 64 10000 4.12 80 09:37 21.01.2021
3483 Clouds 23 1017 64 10000 4.12 80 09:18 21.01.2021
3484 Clouds 23 1017 64 10000 5.66 60 08:34 21.01.2021
3485 Rain 23 1016 69 10000 5.66 60 07:46 21.01.2021
3486 Rain 23 1016 69 10000 5.66 60 07:26 21.01.2021
3487 Clouds 24 1015 57 10000 7.2 60 05:59 21.01.2021
3488 Clouds 24 1015 57 10000 6.17 50 04:32 21.01.2021
3489 Clouds 25 1014 54 10000 6.17 70 02:18 21.01.2021
3490 Clouds 26 1015 51 10000 6.69 50 00:41 21.01.2021
3491 Clouds 26 1016 51 10000 6.17 50 23:44 20.01.2021
3492 Clouds 26 1016 51 10000 6.17 50 23:24 20.01.2021
3493 Clouds 26 1017 57 10000 5.14 70 22:50 20.01.2021
3494 Clouds 26 1017 57 10000 5.14 70 22:29 20.01.2021
3495 Clouds 24 1017 61 10000 5.14 70 21:49 20.01.2021
3496 Clouds 24 1017 61 10000 5.14 70 21:23 20.01.2021
3497 Clouds 24 1016 69 10000 5.14 70 20:51 20.01.2021
3498 Clouds 23 1016 69 10000 5.14 70 20:23 20.01.2021
3499 Clouds 23 1016 69 10000 2.57 80 19:48 20.01.2021
3500 Clouds 23 1016 69 10000 2.57 80 19:48 20.01.2021
3501 Clouds 23 1016 69 10000 2.57 80 19:28 20.01.2021
3502 Clouds 23 1015 73 10000 3.09 60 18:43 20.01.2021
3503 Clouds 23 1015 73 10000 3.09 60 18:43 20.01.2021
3504 Clouds 23 1015 73 10000 3.09 60 18:21 20.01.2021
3505 Clouds 23 1015 73 10000 2.57 50 17:48 20.01.2021
3506 Clouds 23 1015 73 10000 2.57 50 17:27 20.01.2021
3507 Clouds 23 1014 73 10000 2.57 60 16:49 20.01.2021
3508 Clouds 23 1014 73 10000 2.57 60 16:22 20.01.2021
3509 Clouds 22 1015 73 10000 2.57 70 15:38 20.01.2021
3510 Rain 22 1015 78 10000 2.06 320 14:58 20.01.2021
3511 Rain 22 1015 78 10000 2.06 320 14:39 20.01.2021
3512 Rain 22 1015 78 10000 2.06 320 14:19 20.01.2021
3513 Rain 22 1015 83 10000 1.54 360 13:37 20.01.2021
3514 Clouds 22 1015 83 10000 4.06 73 12:56 20.01.2021
3515 Clouds 22 1015 83 10000 3.72 62 12:22 20.01.2021
3516 Clouds 23 1016 78 10000 2.06 360 11:40 20.01.2021
3517 Rain 23 1016 78 10000 2.06 360 11:20 20.01.2021
3518 Rain 22 1016 73 10000 2.06 60 10:46 20.01.2021
3519 Rain 22 1016 73 10000 2.06 60 10:25 20.01.2021
3520 Clouds 23 1016 69 10000 4.12 60 09:38 20.01.2021
3521 Rain 23 1016 69 10000 4.12 60 09:19 20.01.2021
3522 Rain 23 1016 73 10000 3.09 60 08:41 20.01.2021
3523 Clouds 23 1016 73 10000 3.09 60 08:21 20.01.2021
3524 Clouds 23 1015 69 10000 4.63 60 07:38 20.01.2021
3525 Clouds 23 1015 69 10000 4.12 50 06:59 20.01.2021
3526 Rain 25 1014 54 10000 4.12 30 03:37 20.01.2021
3527 Rain 26 1014 47 10000 6.69 20 01:51 20.01.2021
3528 Rain 27 1015 47 10000 6.69 50 00:52 20.01.2021
3529 Rain 26 1016 54 10000 8.23 60 23:51 19.01.2021
3530 Rain 26 1016 54 10000 8.23 60 23:32 19.01.2021
3531 Rain 26 1016 54 10000 6.69 50 22:58 19.01.2021
3532 Rain 25 1016 54 10000 6.69 50 22:38 19.01.2021
3533 Rain 25 1016 54 10000 6.69 50 22:20 19.01.2021
3534 Clouds 24 1017 65 10000 5.14 60 21:54 19.01.2021
3535 Clouds 24 1017 65 10000 5.14 60 21:32 19.01.2021
3536 Clouds 24 1017 69 10000 5.14 60 20:49 19.01.2021
3537 Clouds 24 1017 69 10000 5.14 60 20:27 19.01.2021
3538 Rain 21 1016 83 10000 3.79 17 19:56 19.01.2021
3539 Rain 21 1016 83 10000 3.79 17 19:31 19.01.2021
3540 Clouds 21 1015 88 10000 2.06 270 18:50 19.01.2021
3541 Clouds 21 1015 88 10000 2.06 270 18:31 19.01.2021
3542 Rain 21 1015 83 10000 2.06 10 17:48 19.01.2021
3543 Rain 21 1015 83 10000 2.06 10 17:29 19.01.2021
3544 Rain 20 1015 88 10000 2.57 120 16:59 19.01.2021
3545 Rain 20 1015 88 10000 2.57 120 16:38 19.01.2021
3546 Rain 20 1014 88 10000 1.54 340 16:18 19.01.2021
3547 Rain 20 1014 88 10000 1.54 350 15:41 19.01.2021
3548 Rain 20 1014 88 10000 1.54 350 15:21 19.01.2021
3549 Rain 20 1014 83 10000 2.57 20 14:41 19.01.2021
3550 Rain 20 1014 83 10000 2.57 20 14:23 19.01.2021
3551 Rain 21 1015 78 10000 3.09 40 13:48 19.01.2021
3552 Rain 21 1015 78 10000 3.09 40 13:21 19.01.2021
3553 Rain 21 1015 78 10000 3.09 40 13:21 19.01.2021
3554 Rain 21 1015 78 10000 8.05 56 12:48 19.01.2021
3555 Rain 21 1015 78 10000 8.24 51 12:29 19.01.2021
3556 Rain 21 1016 78 10000 8.24 51 11:44 19.01.2021
3557 Rain 21 1016 78 10000 8.8 50 11:26 19.01.2021
3558 Rain 21 1016 73 10000 3.6 40 10:51 19.01.2021
3559 Rain 21 1016 73 10000 3.6 40 10:32 19.01.2021
3560 Rain 22 1016 73 10000 5.14 70 09:53 19.01.2021
3561 Rain 22 1016 73 10000 5.14 70 09:30 19.01.2021
3562 Rain 22 1017 73 10000 2.57 20 08:56 19.01.2021
3563 Rain 21 1017 73 10000 2.57 20 08:21 19.01.2021
3564 Rain 21 1017 73 10000 2.57 30 07:38 19.01.2021
3565 Rain 20 1016 78 10000 3.6 30 06:50 19.01.2021
3566 Rain 20 1015 68 10000 5.14 360 02:31 19.01.2021
3567 Rain 21 1016 64 10000 8.75 20 00:49 19.01.2021
3568 Rain 23 1017 68 10000 5.66 360 23:58 18.01.2021
3569 Clouds 22 1017 68 10000 5.66 360 23:31 18.01.2021
3570 Clouds 22 1018 68 10000 5.66 20 22:51 18.01.2021
3571 Rain 22 1018 68 10000 5.66 20 22:25 18.01.2021
3572 Rain 22 1018 73 10000 5.14 360 21:51 18.01.2021
3573 Rain 22 1018 73 10000 5.14 360 21:24 18.01.2021
3574 Rain 21 1017 78 10000 2.06 340 20:59 18.01.2021
3575 Rain 21 1017 78 10000 2.06 340 20:38 18.01.2021
3576 Rain 21 1017 78 10000 2.06 340 20:20 18.01.2021
3577 Rain 21 1017 73 10000 4.63 330 19:48 18.01.2021
3578 Rain 21 1017 73 10000 4.63 330 19:27 18.01.2021
3579 Rain 21 1016 73 10000 4.63 340 18:44 18.01.2021
3580 Clouds 21 1016 73 10000 4.63 340 18:21 18.01.2021
3581 Clouds 21 1016 68 10000 3.09 330 17:40 18.01.2021
3582 Clouds 21 1016 68 10000 3.09 330 17:19 18.01.2021
3583 Clouds 21 1015 68 10000 4.12 340 16:41 18.01.2021
3584 Clouds 21 1015 68 10000 4.12 340 16:19 18.01.2021
3585 Clouds 21 1015 73 10000 3.6 340 15:41 18.01.2021
3586 Clouds 21 1015 73 10000 3.6 340 15:19 18.01.2021
3587 Clouds 21 1015 68 10000 3.6 350 14:43 18.01.2021
3588 Clouds 21 1015 68 10000 3.6 350 14:25 18.01.2021
3589 Clouds 21 1016 68 10000 4.12 330 13:45 18.01.2021
3590 Clouds 21 1016 68 10000 4.12 330 13:26 18.01.2021
3591 Rain 21 1016 68 10000 2.57 40 12:51 18.01.2021
3592 Clouds 21 1016 68 10000 2.57 40 12:20 18.01.2021
3593 Clouds 21 1017 68 10000 2.06 340 11:53 18.01.2021
3594 Rain 22 1017 68 10000 2.06 340 11:30 18.01.2021
3595 Rain 22 1018 73 10000 6.17 360 10:57 18.01.2021
3596 Rain 22 1018 73 10000 6.17 360 10:39 18.01.2021
3597 Rain 21 1017 83 10000 7.2 330 09:43 18.01.2021
3598 Rain 21 1017 83 10000 7.2 330 09:24 18.01.2021
3599 Rain 21 1017 88 10000 9.77 330 08:48 18.01.2021
3600 Rain 22 1017 83 10000 7.72 330 07:55 18.01.2021
3601 Rain 23 1016 88 10000 1.54 240 07:21 18.01.2021
3602 Rain 25 1014 65 10000 3.6 220 04:58 18.01.2021
3603 Rain 25 1014 65 10000 3.6 220 04:31 18.01.2021
3604 Rain 26 1014 65 10000 3.6 220 03:57 18.01.2021
3605 Rain 26 1014 65 10000 3.6 220 03:38 18.01.2021
3606 Clouds 26 1014 65 10000 3.6 220 03:18 18.01.2021
3607 Clouds 27 1014 61 10000 4.12 210 02:27 18.01.2021
3608 Clouds 26 1015 61 10000 1.54 0 00:43 18.01.2021
3609 Clouds 25 1015 61 10000 1.54 0 00:20 18.01.2021
3610 Clouds 24 1016 73 10000 2.06 290 23:44 17.01.2021
3611 Clouds 24 1016 73 10000 2.06 290 23:20 17.01.2021
3612 Rain 23 1017 78 10000 3.6 260 22:28 17.01.2021
3613 Clouds 23 1017 78 10000 5.14 220 21:59 17.01.2021
3614 Clouds 23 1017 78 10000 5.14 220 21:39 17.01.2021
3615 Clouds 23 1017 78 10000 5.14 220 21:39 17.01.2021
3616 Clouds 23 1017 78 10000 5.14 220 21:21 17.01.2021
3617 Rain 23 1017 83 10000 2.06 0 20:44 17.01.2021
3618 Rain 22 1017 83 10000 2.06 0 20:25 17.01.2021
3619 Rain 22 1016 83 10000 1.54 270 19:42 17.01.2021
3620 Rain 21 1016 83 10000 1.54 270 19:19 17.01.2021
3621 Clouds 21 1016 83 10000 1.16 250 18:38 17.01.2021
3622 Clouds 21 1016 83 10000 1.17 245 18:19 17.01.2021
3623 Clouds 21 1016 83 10000 1.54 10 17:43 17.01.2021
3624 Clouds 21 1016 83 10000 1.54 10 17:23 17.01.2021
3625 Clouds 21 1016 83 10000 1.54 10 17:23 17.01.2021
3626 Clear 21 1015 83 10000 1.16 256 16:43 17.01.2021
3627 Clear 21 1015 83 10000 0.98 254 16:19 17.01.2021
3628 Clouds 21 1015 88 10000 0.98 254 15:41 17.01.2021
3629 Clouds 21 1015 88 10000 0.76 265 15:21 17.01.2021
3630 Clouds 22 1016 83 10000 2.06 310 14:46 17.01.2021
3631 Clouds 22 1016 83 10000 2.06 310 14:25 17.01.2021
3632 Clouds 22 1016 83 10000 1.54 330 13:44 17.01.2021
3633 Clouds 22 1016 83 10000 1.54 330 13:26 17.01.2021
3634 Clouds 22 1016 78 10000 2.06 340 12:47 17.01.2021
3635 Clouds 23 1016 78 10000 2.06 340 12:28 17.01.2021
3636 Clouds 22 1016 78 10000 3.6 80 11:41 17.01.2021
3637 Clouds 22 1016 78 10000 3.6 80 11:21 17.01.2021
3638 Clouds 23 1017 73 10000 3.09 90 10:42 17.01.2021
3639 Clouds 23 1017 73 10000 3.09 90 10:19 17.01.2021
3640 Clouds 23 1017 73 10000 0.28 143 09:20 17.01.2021
3641 Clouds 23 1017 73 10000 0.28 143 08:43 17.01.2021
3642 Clouds 25 1015 65 10000 2.06 210 05:20 17.01.2021
3643 Clouds 26 1015 57 10000 3.09 180 04:27 17.01.2021
3644 Clouds 26 1014 61 10000 4.12 170 02:30 17.01.2021
3645 Clouds 27 1015 61 10000 4.12 160 00:38 17.01.2021
3646 Clouds 27 1015 61 10000 4.12 160 00:18 17.01.2021
3647 Clouds 27 1016 61 10000 4.63 150 23:48 16.01.2021
3648 Clouds 27 1016 61 10000 4.63 150 23:19 16.01.2021
3649 Rain 26 1017 65 10000 5.14 140 22:28 16.01.2021
3650 Clouds 25 1018 78 10000 3.37 117 21:58 16.01.2021
3651 Clouds 25 1018 78 10000 3.57 112 21:24 16.01.2021
3652 Clouds 25 1018 78 10000 3.57 112 21:24 16.01.2021
3653 Rain 23 1018 78 10000 3.57 112 20:53 16.01.2021
3654 Rain 23 1018 78 10000 3.57 112 20:53 16.01.2021
3655 Rain 23 1018 78 10000 3.84 114 20:29 16.01.2021
3656 Rain 22 1018 78 10000 5.66 50 19:50 16.01.2021
3657 Rain 22 1018 78 10000 5.66 50 19:31 16.01.2021
3658 Rain 22 1017 78 10000 3.13 106 18:49 16.01.2021
3659 Rain 22 1017 78 10000 2.58 81 18:28 16.01.2021
3660 Clouds 22 1017 73 10000 2.57 350 17:59 16.01.2021
3661 Clouds 22 1017 73 10000 2.57 350 17:40 16.01.2021
3662 Rain 22 1017 73 10000 2.57 350 17:21 16.01.2021
3663 Rain 22 1017 78 10000 4.12 320 16:44 16.01.2021
3664 Clouds 21 1017 78 10000 4.12 320 16:21 16.01.2021
3665 Clouds 22 1015 83 10000 3.6 320 15:43 16.01.2021
3666 Clouds 22 1015 78 10000 2.57 340 14:53 16.01.2021
3667 Clouds 22 1016 78 10000 2.06 80 13:54 16.01.2021
3668 Clouds 22 1016 78 10000 2.06 80 13:34 16.01.2021
3669 Clouds 22 1017 78 10000 2.06 60 12:58 16.01.2021
3670 Clouds 22 1017 78 10000 2.06 60 12:37 16.01.2021
3671 Clouds 22 1017 78 10000 2.06 60 12:19 16.01.2021
3672 Clouds 23 1017 73 10000 2.06 330 11:45 16.01.2021
3673 Clouds 23 1017 73 10000 2.06 330 11:20 16.01.2021
3674 Clouds 23 1018 73 10000 2.06 340 10:42 16.01.2021
3675 Clouds 23 1018 68 10000 4.39 58 09:57 16.01.2021
3676 Clouds 23 1018 68 10000 4.03 41 09:22 16.01.2021
3677 Clouds 23 1018 69 10000 2.06 350 08:21 16.01.2021
3678 Clouds 23 1018 69 10000 2.06 20 07:18 16.01.2021
3679 Clouds 25 1016 54 10000 3.6 40 05:45 16.01.2021
3680 Clouds 26 1016 47 10000 3.09 90 04:36 16.01.2021
3681 Clouds 27 1015 54 10000 5.14 230 02:54 16.01.2021
3682 Clouds 27 1017 61 10000 5.66 220 00:48 16.01.2021
3683 Clouds 27 1017 61 10000 5.66 220 00:24 16.01.2021
3684 Clouds 28 1017 48 10000 1.09 0 23:39 15.01.2021
3685 Clouds 27 1019 51 10000 3.6 320 22:42 15.01.2021
3686 Clouds 27 1019 51 10000 3.6 320 22:21 15.01.2021
3687 Clouds 26 1019 54 10000 2.06 0 21:44 15.01.2021
3688 Clear 24 1019 69 10000 2.06 10 20:49 15.01.2021
3689 Clear 24 1019 69 10000 2.06 10 20:24 15.01.2021
3690 Clear 22 1019 83 10000 1.54 310 19:58 15.01.2021
3691 Clear 22 1019 83 10000 1.54 310 19:39 15.01.2021
3692 Clear 22 1019 83 10000 1.54 310 19:21 15.01.2021
3693 Clear 21 1018 78 10000 1.54 330 18:42 15.01.2021
3694 Clear 21 1018 78 10000 1.54 330 18:18 15.01.2021
3695 Clear 21 1018 83 10000 1.38 337 17:41 15.01.2021
3696 Clear 21 1018 83 10000 1.15 311 17:21 15.01.2021
3697 Clouds 21 1017 78 10000 1.15 311 16:46 15.01.2021
3698 Clouds 21 1017 78 10000 1.29 294 16:24 15.01.2021
3699 Clouds 21 1017 73 10000 2.06 330 15:41 15.01.2021
3700 Clouds 21 1017 73 10000 2.06 330 15:21 15.01.2021
3701 Clear 21 1017 78 10000 1.54 340 14:44 15.01.2021
3702 Clear 21 1017 78 10000 1.54 340 14:25 15.01.2021
3703 Clear 21 1018 78 10000 1.54 10 13:42 15.01.2021
3704 Clear 21 1018 78 10000 1.54 10 13:22 15.01.2021
3705 Clouds 21 1018 78 10000 1.54 340 12:51 15.01.2021
3706 Clouds 21 1018 78 10000 1.54 340 12:31 15.01.2021
3707 Clouds 22 1018 78 10000 2.06 360 11:46 15.01.2021
3708 Clouds 22 1018 78 10000 2.06 360 11:27 15.01.2021
3709 Clouds 22 1018 73 10000 1.54 340 10:56 15.01.2021
3710 Clouds 22 1018 73 10000 1.54 340 10:37 15.01.2021
3711 Clouds 23 1018 73 10000 2.06 30 09:54 15.01.2021
3712 Clouds 23 1018 73 10000 2.06 30 09:34 15.01.2021
3713 Clouds 23 1018 69 10000 1.54 40 08:42 15.01.2021
3714 Clouds 23 1018 69 10000 1.54 40 08:19 15.01.2021
3715 Clouds 24 1018 65 10000 1.54 140 07:41 15.01.2021
3716 Clouds 24 1018 65 10000 1.54 140 07:19 15.01.2021
3717 Clouds 25 1016 57 10000 3.09 180 04:33 15.01.2021
3718 Clouds 27 1015 54 10000 5.66 150 01:39 15.01.2021
3719 Clouds 27 1016 54 10000 5.14 120 23:50 14.01.2021
3720 Clouds 27 1016 54 10000 5.14 120 23:21 14.01.2021
3721 Clouds 26 1017 57 10000 3.09 80 22:42 14.01.2021
3722 Clouds 26 1017 57 10000 3.09 80 22:24 14.01.2021
3723 Clouds 25 1018 61 10000 3.09 80 21:44 14.01.2021
3724 Clouds 25 1018 61 10000 3.09 80 21:21 14.01.2021
3725 Clouds 24 1018 69 10000 3.6 70 20:49 14.01.2021
3726 Clouds 23 1018 69 10000 3.6 70 20:25 14.01.2021
3727 Clouds 23 1018 69 10000 2.57 50 19:44 14.01.2021
3728 Rain 23 1018 69 10000 2.57 50 19:26 14.01.2021
3729 Rain 22 1018 73 10000 4.12 70 18:55 14.01.2021
3730 Clouds 22 1018 73 10000 4.12 70 18:27 14.01.2021
3731 Clouds 22 1017 73 10000 5.55 63 17:46 14.01.2021
3732 Clouds 22 1017 73 10000 5.43 61 17:27 14.01.2021
3733 Clouds 22 1017 78 10000 5.43 61 16:43 14.01.2021
3734 Clouds 22 1017 78 10000 5.33 51 16:18 14.01.2021
3735 Clear 22 1017 78 10000 2.57 330 15:45 14.01.2021
3736 Clear 22 1017 78 10000 1.54 310 14:59 14.01.2021
3737 Clear 22 1017 78 10000 1.54 310 14:38 14.01.2021
3738 Clear 22 1017 78 10000 1.54 310 14:19 14.01.2021
3739 Clear 22 1017 73 10000 5.21 61 13:52 14.01.2021
3740 Rain 22 1017 73 10000 5.83 56 13:21 14.01.2021
3741 Clouds 22 1017 73 10000 5.82 56 12:47 14.01.2021
3742 Clouds 22 1017 73 10000 6.16 55 12:19 14.01.2021
3743 Clouds 22 1017 73 10000 3.6 30 11:43 14.01.2021
3744 Clouds 22 1017 73 10000 3.6 30 11:21 14.01.2021
3745 Clouds 22 1017 73 10000 2.06 30 10:52 14.01.2021
3746 Rain 22 1017 73 10000 2.06 30 10:25 14.01.2021
3747 Rain 22 1018 73 10000 2.06 10 09:48 14.01.2021
3748 Rain 22 1018 73 10000 2.06 10 09:23 14.01.2021
3749 Rain 23 1017 69 10000 3.6 10 08:49 14.01.2021
3750 Rain 23 1017 69 10000 3.6 10 08:25 14.01.2021
3751 Rain 24 1017 69 10000 2.57 30 07:48 14.01.2021
3752 Rain 24 1016 65 10000 2.06 60 06:52 14.01.2021
3753 Clouds 24 1015 65 10000 2.57 200 05:46 14.01.2021
3754 Clouds 28 1015 57 10000 6.17 240 00:45 14.01.2021
3755 Clouds 28 1016 57 10000 5.66 220 23:54 13.01.2021
3756 Clouds 28 1016 57 10000 5.66 220 23:22 13.01.2021
3757 Clouds 27 1017 57 10000 3.09 200 22:29 13.01.2021
3758 Clouds 26 1018 61 10000 2.06 300 21:57 13.01.2021
3759 Clouds 26 1018 61 10000 2.06 300 21:38 13.01.2021
3760 Clouds 25 1017 65 10000 2.45 271 20:58 13.01.2021
3761 Clouds 25 1017 65 10000 2.45 271 20:30 13.01.2021
3762 Clouds 22 1017 78 10000 2.45 274 19:58 13.01.2021
3763 Clouds 22 1017 78 10000 2.45 274 19:37 13.01.2021
3764 Clouds 22 1017 78 10000 2.8 286 19:19 13.01.2021
3765 Clouds 22 1017 78 10000 2.8 284 18:40 13.01.2021
3766 Clear 22 1017 73 10000 3.6 280 17:51 13.01.2021
3767 Clear 22 1017 73 10000 3.6 280 17:25 13.01.2021
3768 Clear 22 1016 73 10000 2.57 290 16:51 13.01.2021
3769 Clear 22 1016 73 10000 2.57 290 16:22 13.01.2021
3770 Clear 22 1016 78 10000 3.6 270 15:52 13.01.2021
3771 Clear 22 1016 78 10000 3.6 270 15:34 13.01.2021
3772 Rain 23 1016 73 10000 3.6 270 14:46 13.01.2021
3773 Rain 23 1016 73 10000 3.6 260 13:53 13.01.2021
3774 Clouds 23 1016 73 10000 3.6 260 13:27 13.01.2021
3775 Clouds 23 1016 73 10000 4.12 250 12:47 13.01.2021
3776 Clouds 23 1016 73 10000 4.12 250 12:28 13.01.2021
3777 Clouds 24 1016 69 10000 5.14 240 11:53 13.01.2021
3778 Clouds 24 1016 69 10000 5.14 240 11:34 13.01.2021
3779 Rain 24 1017 69 10000 4.63 230 10:50 13.01.2021
3780 Rain 24 1017 69 10000 4.63 230 10:32 13.01.2021
3781 Rain 24 1016 69 10000 4.63 220 09:53 13.01.2021
3782 Clouds 24 1016 69 10000 4.63 220 09:30 13.01.2021
3783 Clouds 24 1016 69 10000 4.12 220 08:50 13.01.2021
3784 Clouds 24 1016 69 10000 4.12 220 08:28 13.01.2021
3785 Clouds 24 1016 69 10000 3.09 210 07:34 13.01.2021
3786 Clouds 24 1015 69 10000 3.6 180 06:53 13.01.2021
3787 Clouds 25 1014 69 10000 3.6 170 04:20 13.01.2021
3788 Clouds 25 1014 61 10000 4.63 150 03:44 13.01.2021
3789 Clouds 25 1014 61 10000 4.63 150 03:24 13.01.2021
3790 Clouds 26 1014 61 10000 6.69 130 01:19 13.01.2021
3791 Clouds 27 1016 57 10000 6.17 140 23:55 12.01.2021
3792 Clouds 27 1016 57 10000 6.17 140 23:22 12.01.2021
3793 Clouds 26 1017 57 10000 3.09 160 22:46 12.01.2021
3794 Clouds 26 1017 57 10000 3.09 160 22:23 12.01.2021
3795 Clouds 25 1018 54 10000 3.6 110 21:49 12.01.2021
3796 Clouds 25 1018 54 10000 3.6 110 21:28 12.01.2021
3797 Clouds 24 1018 61 10000 1.54 20 20:49 12.01.2021
3798 Clouds 24 1018 61 10000 1.54 20 20:27 12.01.2021
3799 Clouds 23 1018 73 10000 1.54 20 19:48 12.01.2021
3800 Clouds 22 1018 73 10000 1.54 20 19:27 12.01.2021
3801 Clouds 20 1017 83 10000 2.06 10 18:44 12.01.2021
3802 Clouds 20 1017 83 10000 2.06 10 18:23 12.01.2021
3803 Clouds 21 1017 78 10000 2.06 330 17:40 12.01.2021
3804 Clouds 21 1017 78 10000 2.06 330 17:22 12.01.2021
3805 Clouds 21 1017 78 10000 1.54 350 16:43 12.01.2021
3806 Clouds 21 1017 78 10000 1.54 350 16:23 12.01.2021
3807 Clouds 22 1017 73 10000 2.57 340 15:39 12.01.2021
3808 Clouds 22 1017 73 10000 2.57 340 15:18 12.01.2021
3809 Clouds 22 1017 73 10000 3.09 340 14:41 12.01.2021
3810 Rain 22 1017 73 10000 3.09 340 14:21 12.01.2021
3811 Rain 22 1018 73 10000 2.57 310 13:52 12.01.2021
3812 Rain 22 1018 73 10000 3.44 50 12:54 12.01.2021
3813 Rain 22 1018 73 10000 3.62 52 12:22 12.01.2021
3814 Rain 22 1018 78 10000 2.06 300 11:40 12.01.2021
3815 Rain 23 1019 73 10000 1.54 20 10:52 12.01.2021
3816 Rain 23 1019 73 10000 1.54 20 10:22 12.01.2021
3817 Rain 23 1019 69 10000 3.82 50 09:57 12.01.2021
3818 Clouds 23 1019 69 10000 4.23 50 09:28 12.01.2021
3819 Clouds 23 1018 69 10000 2.06 50 08:51 12.01.2021
3820 Clouds 23 1018 69 10000 2.06 50 08:25 12.01.2021
3821 Clouds 23 1017 69 10000 3.09 90 07:36 12.01.2021
3822 Clouds 24 1017 65 10000 3.69 64 06:35 12.01.2021
3823 Clouds 25 1016 61 10000 3.09 30 05:33 12.01.2021
3824 Clouds 26 1016 48 10000 4.63 20 03:26 12.01.2021
3825 Clouds 27 1015 57 10000 6.69 140 02:19 12.01.2021
3826 Clouds 26 1016 61 10000 6.69 140 01:28 12.01.2021
3827 Clouds 27 1018 54 10000 3.6 70 23:54 11.01.2021
3828 Clouds 26 1018 54 10000 3.6 70 23:23 11.01.2021
3829 Clouds 27 1018 54 10000 4.12 70 22:59 11.01.2021
3830 Clouds 26 1018 54 10000 4.12 70 22:40 11.01.2021
3831 Clouds 27 1018 54 10000 4.12 70 22:19 11.01.2021
3832 Clouds 26 1019 57 10000 4.12 60 21:38 11.01.2021
3833 Clouds 26 1019 57 10000 4.12 60 21:20 11.01.2021
3834 Clouds 24 1019 73 10000 1.54 350 20:41 11.01.2021
3835 Clouds 24 1019 73 10000 1.54 350 20:41 11.01.2021
3836 Clouds 24 1019 73 10000 1.54 350 20:22 11.01.2021
3837 Clouds 23 1018 83 10000 1.54 330 19:54 11.01.2021
3838 Clouds 22 1018 83 10000 1.54 330 19:24 11.01.2021
3839 Clouds 21 1018 83 10000 1.54 330 18:45 11.01.2021
3840 Clouds 21 1018 83 10000 1.54 330 18:45 11.01.2021
3841 Clouds 21 1018 83 10000 1.54 330 18:25 11.01.2021
3842 Clouds 21 1017 83 10000 1.54 10 17:44 11.01.2021
3843 Clouds 21 1017 83 10000 1.54 10 17:26 11.01.2021
3844 Clouds 21 1018 83 10000 2.57 350 16:55 11.01.2021
3845 Clouds 21 1018 83 10000 2.57 350 16:35 11.01.2021
3846 Rain 22 1018 78 10000 2.06 360 15:59 11.01.2021
3847 Rain 22 1018 78 10000 2.06 360 15:39 11.01.2021
3848 Rain 22 1018 78 10000 2.06 360 15:19 11.01.2021
3849 Rain 21 1018 83 10000 2.57 330 14:39 11.01.2021
3850 Clear 22 1019 78 10000 2.57 350 13:49 11.01.2021
3851 Rain 22 1019 78 10000 2.57 350 13:25 11.01.2021
3852 Clouds 22 1019 78 10000 1.54 330 12:46 11.01.2021
3853 Clouds 22 1019 78 10000 1.54 330 12:27 11.01.2021
3854 Clouds 23 1019 68 10000 3.19 76 11:53 11.01.2021
3855 Clouds 23 1019 68 10000 3.76 75 11:26 11.01.2021
3856 Clouds 23 1019 73 10000 3.09 40 10:42 11.01.2021
3857 Clouds 23 1019 73 10000 3.09 40 10:24 11.01.2021
3858 Clouds 23 1019 64 10000 3.09 50 09:38 11.01.2021
3859 Clouds 23 1019 64 10000 3.09 50 09:19 11.01.2021
3860 Clouds 23 1019 68 10000 1.54 60 08:44 11.01.2021
3861 Clouds 23 1018 69 10000 2.06 30 07:58 11.01.2021
3862 Clouds 23 1018 69 10000 2.06 30 07:25 11.01.2021
3863 Clouds 23 1017 64 10000 3.6 80 06:57 11.01.2021
3864 Clouds 26 1015 54 10000 5.66 50 03:22 11.01.2021
3865 Clouds 27 1015 51 10000 4.63 60 01:29 11.01.2021
3866 Clouds 27 1017 51 10000 4.63 60 23:53 10.01.2021
3867 Clouds 27 1017 51 10000 4.63 60 23:26 10.01.2021
3868 Rain 26 1018 61 10000 7.2 60 22:47 10.01.2021
3869 Rain 25 1018 61 10000 7.2 60 22:20 10.01.2021
3870 Rain 25 1018 61 10000 6.17 70 21:44 10.01.2021
3871 Rain 25 1018 61 10000 6.17 70 21:20 10.01.2021
3872 Rain 24 1018 65 10000 1.54 0 20:50 10.01.2021
3873 Rain 24 1018 65 10000 1.54 0 20:29 10.01.2021
3874 Rain 22 1017 78 10000 4.22 71 19:42 10.01.2021
3875 Rain 22 1017 78 10000 3.13 69 19:24 10.01.2021
3876 Clouds 21 1017 78 10000 2.14 69 18:46 10.01.2021
3877 Rain 21 1017 78 10000 2.4 71 18:21 10.01.2021
3878 Rain 21 1016 78 10000 2.47 62 17:26 10.01.2021
3879 Rain 21 1016 78 10000 2.57 10 16:51 10.01.2021
3880 Clouds 21 1016 78 10000 2.57 10 16:31 10.01.2021
3881 Clouds 21 1016 78 10000 2.57 360 15:42 10.01.2021
3882 Clouds 21 1016 78 10000 2.57 360 15:42 10.01.2021
3883 Clouds 21 1016 78 10000 2.57 360 15:24 10.01.2021
3884 Clouds 22 1016 78 10000 2.57 10 14:41 10.01.2021
3885 Clouds 22 1016 73 10000 3.09 60 14:23 10.01.2021
3886 Clouds 21 1017 78 10000 2.06 60 13:48 10.01.2021
3887 Clouds 21 1017 78 10000 2.06 60 13:27 10.01.2021
3888 Clouds 22 1017 78 10000 2.06 20 12:59 10.01.2021
3889 Clouds 22 1017 78 10000 2.06 20 12:41 10.01.2021
3890 Clouds 22 1017 73 10000 1.54 80 11:58 10.01.2021
3891 Clouds 22 1017 73 10000 1.54 80 11:21 10.01.2021
3892 Clouds 22 1018 73 10000 4.12 60 10:52 10.01.2021
3893 Clouds 22 1018 73 10000 4.12 60 10:24 10.01.2021
3894 Clouds 23 1018 73 10000 3.6 110 09:46 10.01.2021
3895 Clouds 24 1018 64 10000 2.57 50 08:49 10.01.2021
3896 Rain 23 1017 64 10000 3.09 60 07:47 10.01.2021
3897 Rain 23 1016 69 10000 1.54 30 06:50 10.01.2021
3898 Clouds 23 1016 69 10000 1.54 30 06:18 10.01.2021
3899 Clouds 24 1016 61 10000 3.09 50 05:27 10.01.2021
3900 Clouds 27 1015 54 10000 4.63 230 01:58 10.01.2021
3901 Clouds 26 1016 57 10000 5.14 170 00:23 10.01.2021
3902 Clouds 27 1017 51 10000 3.09 190 23:41 09.01.2021
3903 Clouds 27 1017 51 10000 3.09 190 23:20 09.01.2021
3904 Clouds 26 1018 54 10000 3.09 210 22:22 09.01.2021
3905 Clouds 25 1018 57 10000 1.54 0 21:59 09.01.2021
3906 Clouds 26 1018 57 10000 1.54 0 21:39 09.01.2021
3907 Clouds 25 1018 57 10000 1.54 0 21:21 09.01.2021
3908 Clouds 23 1018 73 10000 2.57 340 20:54 09.01.2021
3909 Clouds 23 1018 73 10000 2.57 340 20:29 09.01.2021
3910 Clouds 21 1017 83 10000 2.06 320 19:40 09.01.2021
3911 Clouds 21 1017 83 10000 2.06 320 19:20 09.01.2021
3912 Clouds 20 1017 83 10000 1.54 320 18:37 09.01.2021
3913 Clear 20 1016 83 10000 1.54 0 17:54 09.01.2021
3914 Clear 20 1016 83 10000 1.54 0 17:34 09.01.2021
3915 Clear 21 1016 78 10000 2.06 310 16:57 09.01.2021
3916 Clear 21 1016 78 10000 2.06 310 16:23 09.01.2021
3917 Clear 21 1016 83 10000 3.6 330 15:41 09.01.2021
3918 Clear 21 1016 83 10000 3.6 330 15:21 09.01.2021
3919 Clear 21 1016 78 10000 2.16 22 14:37 09.01.2021
3920 Clear 21 1016 78 10000 1.88 41 14:19 09.01.2021
3921 Clouds 21 1018 83 10000 1.88 41 13:44 09.01.2021
3922 Clouds 21 1018 83 10000 2.45 52 13:25 09.01.2021
3923 Clouds 21 1018 78 10000 2.06 340 12:28 09.01.2021
3924 Clouds 21 1018 83 10000 2.21 38 11:58 09.01.2021
3925 Clouds 21 1018 83 10000 2.21 38 11:38 09.01.2021
3926 Clouds 21 1018 83 10000 1.99 63 11:18 09.01.2021
3927 Clouds 21 1018 78 10000 3.09 360 10:43 09.01.2021
3928 Clouds 21 1018 78 10000 3.09 360 10:23 09.01.2021
3929 Clouds 21 1018 73 10000 2.47 36 09:44 09.01.2021
3930 Clouds 21 1018 73 10000 2.49 36 09:20 09.01.2021
3931 Clouds 22 1018 64 10000 1.54 30 07:49 09.01.2021
3932 Clouds 22 1018 64 10000 1.54 30 07:49 09.01.2021
3933 Clouds 23 1017 60 10000 3.27 46 06:53 09.01.2021
3934 Clouds 23 1017 60 10000 1.77 62 06:33 09.01.2021
3935 Clouds 25 1015 57 10000 3.09 210 03:53 09.01.2021
3936 Clouds 26 1015 54 10000 2.57 200 02:41 09.01.2021
3937 Clouds 26 1015 54 10000 2.57 200 02:23 09.01.2021
3938 Clouds 26 1015 54 10000 2.57 200 02:23 09.01.2021
3939 Clouds 25 1016 57 10000 1.54 0 01:24 09.01.2021
3940 Clouds 25 1016 57 10000 2.57 210 00:33 09.01.2021
3941 Clouds 25 1016 57 10000 2.57 210 00:33 09.01.2021
3942 Clouds 25 1016 57 10000 2.57 210 00:33 09.01.2021
3943 Clouds 25 1017 47 10000 3.09 200 23:45 08.01.2021
3944 Clouds 26 1018 44 10000 1.54 0 22:43 08.01.2021
3945 Clouds 25 1019 57 10000 4.12 340 21:52 08.01.2021
3946 Clouds 24 1019 60 10000 2.34 352 20:59 08.01.2021
3947 Clouds 24 1019 60 10000 2.34 352 20:35 08.01.2021
3948 Clouds 21 1019 77 10000 2.67 348 19:57 08.01.2021
3949 Clouds 20 1019 77 10000 2.89 340 19:24 08.01.2021
3950 Clouds 19 1018 82 10000 2.06 360 18:54 08.01.2021
3951 Clouds 19 1018 82 10000 2.06 360 18:32 08.01.2021
3952 Clear 19 1018 88 10000 2.57 360 17:53 08.01.2021
3953 Clear 19 1018 88 10000 2.57 360 17:25 08.01.2021
3954 Clear 20 1018 83 10000 1.54 330 16:47 08.01.2021
3955 Clear 20 1017 83 10000 1.54 340 15:48 08.01.2021
3956 Clear 20 1017 83 10000 1.54 340 15:27 08.01.2021
3957 Clear 20 1018 83 10000 1.06 326 14:37 08.01.2021
3958 Clear 20 1018 78 10000 2.06 360 13:48 08.01.2021
3959 Clear 21 1018 78 10000 2.06 360 13:21 08.01.2021
3960 Clear 21 1018 78 10000 2.06 360 13:21 08.01.2021
3961 Clouds 21 1018 78 10000 1.54 340 12:49 08.01.2021
3962 Clouds 21 1018 78 10000 1.54 340 12:20 08.01.2021
3963 Clouds 22 1018 78 10000 2.57 310 11:46 08.01.2021
3964 Clouds 22 1018 78 10000 2.57 310 11:27 08.01.2021
3965 Clouds 22 1019 73 10000 1.54 340 10:53 08.01.2021
3966 Clouds 22 1019 73 10000 1.54 340 10:34 08.01.2021
3967 Clouds 23 1018 69 10000 1.54 360 09:46 08.01.2021
3968 Clouds 23 1018 69 10000 1.54 360 09:28 08.01.2021
3969 Clouds 23 1018 69 10000 3.09 360 08:38 08.01.2021
3970 Clouds 23 1018 69 10000 2.06 20 07:27 08.01.2021
3971 Clouds 24 1017 69 10000 3.09 140 05:55 08.01.2021
3972 Clouds 27 1018 47 10000 3.09 0 23:48 07.01.2021
3973 Clouds 27 1018 47 10000 3.09 0 23:30 07.01.2021
3974 Clouds 26 1020 54 10000 5.14 40 22:47 07.01.2021
3975 Clouds 26 1020 54 10000 5.14 40 22:26 07.01.2021
3976 Clouds 26 1020 50 10000 5.14 70 21:45 07.01.2021
3977 Clouds 26 1020 50 10000 5.14 70 21:26 07.01.2021
3978 Clouds 25 1020 53 10000 5.14 60 20:47 07.01.2021
3979 Clouds 25 1020 53 10000 5.14 60 20:28 07.01.2021
3980 Clouds 23 1020 60 10000 4.12 60 19:45 07.01.2021
3981 Clouds 23 1020 60 10000 4.12 60 19:21 07.01.2021
3982 Clouds 22 1019 68 10000 4.63 50 18:30 07.01.2021
3983 Clouds 22 1019 68 10000 3.6 60 17:56 07.01.2021
3984 Clouds 22 1019 68 10000 3.6 60 17:28 07.01.2021
3985 Clouds 22 1018 64 10000 4.63 60 16:53 07.01.2021
3986 Clouds 22 1018 64 10000 4.63 60 16:28 07.01.2021
3987 Clouds 23 1018 64 10000 4.12 50 15:41 07.01.2021
3988 Clouds 22 1018 68 10000 2.57 40 14:57 07.01.2021
3989 Clouds 22 1018 68 10000 2.57 40 14:27 07.01.2021
3990 Clouds 22 1019 68 10000 4.63 60 13:45 07.01.2021
3991 Clouds 22 1019 68 10000 4.63 60 13:18 07.01.2021
3992 Clear 22 1016 76 10000 7.46 60 12:42 07.01.2021
3993 Clouds 23 1019 69 10000 3.1 40 11:54 07.01.2021
3994 Clouds 23 1019 69 10000 3.1 40 11:35 07.01.2021
3995 Rain 23 1020 69 10000 4.1 80 10:50 07.01.2021
3996 Clouds 23 1019 69 10000 5.7 40 10:20 07.01.2021
3997 Clouds 23 1019 69 10000 5.7 40 09:47 07.01.2021
3998 Clouds 23 1020 69 10000 3.1 60 09:19 07.01.2021
3999 Clouds 23 1020 69 10000 3.1 60 08:29 07.01.2021
4000 Clouds 23 1019 69 10000 4.1 60 07:48 07.01.2021
4001 Clouds 23 1019 69 10000 4.1 60 07:22 07.01.2021
4002 Rain 25 1017 61 10000 6.2 70 04:30 07.01.2021
4003 Clouds 27 1018 51 10000 6.2 70 00:29 07.01.2021
4004 Clouds 26 1019 57 10000 7.7 70 23:45 06.01.2021
4005 Rain 25 1020 57 10000 5.1 80 22:39 06.01.2021
4006 Rain 25 1020 54 10000 5.7 60 21:44 06.01.2021
4007 Rain 25 1020 54 10000 5.7 60 21:23 06.01.2021
4008 Rain 25 1020 57 10000 4.6 50 20:53 06.01.2021
4009 Clouds 24 1021 69 10000 3.1 40 20:24 06.01.2021
4010 Clouds 23 1021 69 10000 3.1 40 19:54 06.01.2021
4011 Clouds 23 1021 69 10000 3.1 40 19:36 06.01.2021
4012 Clouds 22 1020 69 10000 4.1 60 19:18 06.01.2021
4013 Clouds 22 1020 69 10000 4.1 60 18:39 06.01.2021
4014 Clouds 22 1020 69 10000 4.1 60 18:18 06.01.2021
4015 Clouds 22 1020 69 10000 3.1 40 17:42 06.01.2021
4016 Rain 22 1019 69 10000 6 55 17:21 06.01.2021
4017 Clouds 23 1019 69 10000 6 55 16:40 06.01.2021
4018 Clouds 23 1019 73 10000 2.1 40 16:19 06.01.2021
4019 Clouds 23 1019 73 10000 2.1 40 15:50 06.01.2021
4020 Clouds 23 1019 73 10000 2.1 40 15:50 06.01.2021
4021 Rain 23 1019 78 10000 2.6 330 15:26 06.01.2021
4022 Rain 22 1019 78 10000 2.6 330 14:42 06.01.2021
4023 Rain 22 1020 78 10000 2.6 340 14:19 06.01.2021
4024 Rain 22 1020 78 10000 2.6 340 13:40 06.01.2021
4025 Rain 22 1020 73 10000 6.15 46 13:18 06.01.2021
4026 Rain 22 1020 73 10000 6.08 56 12:45 06.01.2021
4027 Rain 22 1020 78 10000 2.6 310 11:50 06.01.2021
4028 Clouds 22 1020 73 10000 1.5 340 11:24 06.01.2021
4029 Clouds 22 1020 73 10000 1.5 340 10:46 06.01.2021
4030 Clouds 23 1019 64 10000 6.44 64 09:53 06.01.2021
4031 Clouds 23 1019 64 10000 6.44 64 09:34 06.01.2021
4032 Clouds 23 1019 64 10000 5.7 60 08:55 06.01.2021
4033 Clouds 23 1019 64 10000 4.6 70 08:21 06.01.2021
4034 Clouds 23 1019 64 10000 4.6 70 07:53 06.01.2021
4035 Clouds 23 1018 64 10000 4.6 70 06:45 06.01.2021
4036 Clouds 24 1018 57 10000 5.1 50 05:31 06.01.2021
4037 Clouds 25 1017 51 10000 6.7 60 04:21 06.01.2021
4038 Clouds 26 1017 54 10000 6.2 60 02:44 06.01.2021
4039 Clouds 26 1017 51 10000 7.7 60 02:21 06.01.2021
4040 Clouds 26 1019 57 10000 6.2 50 23:57 05.01.2021
4041 Clouds 25 1021 65 10000 4.6 50 22:57 05.01.2021
4042 Clouds 25 1021 65 10000 4.6 50 22:39 05.01.2021
4043 Rain 24 1021 83 10000 3.1 350 22:19 05.01.2021
4044 Rain 23 1021 83 10000 3.1 350 21:34 05.01.2021
4045 Rain 22 1021 88 10000 3.1 350 20:31 05.01.2021
4046 Rain 22 1021 88 10000 3.1 350 19:59 05.01.2021
4047 Rain 22 1021 83 10000 1.5 20 19:40 05.01.2021
4048 Rain 22 1021 83 10000 1.5 20 19:20 05.01.2021
4049 Rain 22 1020 83 10000 1.5 30 18:42 05.01.2021
4050 Rain 22 1020 83 10000 1.5 30 18:19 05.01.2021
4051 Clouds 22 1019 83 10000 4.11 70 17:42 05.01.2021
4052 Clouds 22 1019 83 10000 4.38 74 17:21 05.01.2021
4053 Clouds 21 1019 88 10000 2.1 310 16:45 05.01.2021
4054 Clouds 21 1018 88 10000 2.1 340 16:21 05.01.2021
4055 Rain 21 1018 88 10000 2.1 340 15:49 05.01.2021
4056 Rain 21 1018 88 10000 2.6 280 14:49 05.01.2021
4057 Rain 21 1019 83 10000 5.81 71 14:19 05.01.2021
4058 Clouds 22 1019 83 10000 5.81 71 13:44 05.01.2021
4059 Clouds 22 1019 83 10000 5.81 71 13:44 05.01.2021
4060 Clouds 22 1019 83 10000 2.6 330 13:20 05.01.2021
4061 Rain 22 1019 83 10000 2.6 330 12:46 05.01.2021
4062 Rain 22 1020 83 10000 1.5 40 12:21 05.01.2021
4063 -273 0 0 0 0 0 11:37 05.01.2021
4064 -273 0 0 0 0 0 11:37 05.01.2021
4065 -273 0 0 0 0 0 11:37 05.01.2021
4066 -273 0 0 0 0 0 11:37 05.01.2021
4067 -273 0 0 0 0 0 11:37 05.01.2021
4068 Rain 22 1020 83 10000 1.5 40 11:36 05.01.2021
4069 Rain 22 1020 78 10000 5.1 70 10:46 05.01.2021
4070 Rain 22 1020 78 10000 2.1 360 10:26 05.01.2021
4071 Rain 22 1020 78 10000 2.1 360 09:48 05.01.2021
4072 Rain 22 1020 78 10000 2.1 360 09:27 05.01.2021
4073 Rain 23 1020 69 10000 5.59 46 08:23 05.01.2021
4074 Clouds 23 1019 69 10000 5.7 40 06:46 05.01.2021
4075 Rain 25 1018 51 10000 5.7 40 03:48 05.01.2021
4076 Clouds 27 1018 51 10000 5.1 50 00:45 05.01.2021
4077 Clouds 27 1019 51 10000 5.7 60 23:44 04.01.2021
4078 Clouds 27 1019 51 10000 5.7 60 23:24 04.01.2021
4079 Clouds 26 1020 51 10000 6.2 60 22:49 04.01.2021
4080 Clouds 25 1021 61 10000 1.5 0 22:22 04.01.2021
4081 Clouds 25 1021 61 10000 1.5 0 21:45 04.01.2021
4082 Rain 25 1021 61 10000 1.5 0 21:25 04.01.2021
4083 Rain 24 1021 78 10000 3.1 320 20:43 04.01.2021
4084 Rain 24 1021 78 10000 3.1 320 20:22 04.01.2021
4085 Rain 23 1021 83 10000 6.44 73 19:43 04.01.2021
4086 Rain 23 1021 83 10000 6.41 65 19:22 04.01.2021
4087 Rain 23 1021 73 10000 2.6 30 18:48 04.01.2021
4088 Rain 23 1020 73 10000 2.1 50 18:18 04.01.2021
4089 Rain 23 1020 73 10000 2.1 50 17:39 04.01.2021
4090 Rain 23 1020 73 10000 2.1 50 17:21 04.01.2021
4091 Rain 23 1020 73 10000 2.6 30 16:44 04.01.2021
4092 Clouds 23 1020 73 10000 2.6 30 16:26 04.01.2021
4093 Clouds 23 1019 69 10000 2.1 50 15:49 04.01.2021
4094 Clouds 22 1019 69 10000 2.1 50 15:25 04.01.2021
4095 Clouds 23 1020 73 10000 4.1 70 14:21 04.01.2021
4096 Clouds 23 1020 73 10000 4.1 70 13:36 04.01.2021
4097 Rain 23 1020 69 10000 3.1 90 12:57 04.01.2021
4098 Clouds 23 1021 64 10000 6.7 50 12:30 04.01.2021
4099 Clouds 23 1021 64 10000 6.7 50 11:45 04.01.2021
4100 Clouds 23 1021 69 10000 5.1 70 11:18 04.01.2021
4101 Clouds 24 1021 69 10000 5.1 70 10:44 04.01.2021
4102 Clouds 24 1021 64 10000 5.7 40 10:22 04.01.2021
4103 Clouds 24 1021 64 10000 5.7 40 09:36 04.01.2021
4104 Clouds 24 1021 64 10000 4.6 50 09:18 04.01.2021
4105 Clouds 24 1021 64 10000 4.6 50 09:18 04.01.2021
4106 Clouds 23 1020 64 10000 5.1 60 08:22 04.01.2021
4107 Clouds 23 1020 64 10000 5.1 60 07:47 04.01.2021
4108 Rain 24 1019 65 10000 6.2 60 05:37 04.01.2021
4109 Rain 24 1019 61 10000 8.2 60 05:19 04.01.2021
4110 Rain 25 1018 57 10000 9.8 60 02:24 04.01.2021
4111 Rain 25 1021 57 10000 10.8 70 00:20 04.01.2021
4112 Rain 25 1021 57 10000 10.8 70 23:37 03.01.2021
4113 Rain 26 1021 57 10000 8.2 70 22:57 03.01.2021
4114 Rain 25 1021 57 10000 8.2 70 22:39 03.01.2021
4115 Rain 25 1022 61 10000 6.2 60 22:21 03.01.2021
4116 Rain 25 1022 61 10000 6.2 60 21:37 03.01.2021
4117 Rain 24 1022 65 10000 5.7 60 20:56 03.01.2021
4118 Rain 24 1022 65 10000 5.7 60 20:38 03.01.2021
4119 Rain 23 1022 69 10000 4.6 50 19:59 03.01.2021
4120 Clouds 23 1022 69 10000 4.6 50 19:37 03.01.2021
4121 Clouds 23 1021 64 10000 5.1 50 19:19 03.01.2021
4122 Clouds 23 1021 64 10000 5.1 50 18:42 03.01.2021
4123 Clouds 23 1021 64 10000 5.1 50 18:21 03.01.2021
4124 Clouds 23 1021 69 10000 5.1 50 17:49 03.01.2021
4125 Clouds 23 1020 73 10000 3.1 40 17:26 03.01.2021
4126 Clouds 23 1020 73 10000 3.1 40 16:44 03.01.2021
4127 Clouds 23 1020 73 10000 3.1 40 16:20 03.01.2021
4128 Rain 22 1020 73 10000 4.1 80 15:47 03.01.2021
4129 Rain 22 1020 73 10000 4.1 80 15:47 03.01.2021
4130 Rain 22 1020 69 10000 4.1 50 15:28 03.01.2021
4131 Rain 22 1020 69 10000 4.1 50 14:57 03.01.2021
4132 Rain 22 1020 69 10000 4.1 50 14:57 03.01.2021
4133 Rain 22 1020 69 10000 4.1 50 14:29 03.01.2021
4134 Clouds 23 1021 69 10000 4.1 40 13:42 03.01.2021
4135 Clouds 23 1021 64 10000 4.1 50 13:23 03.01.2021
4136 Clouds 23 1021 64 10000 4.1 50 12:33 03.01.2021
4137 Clouds 23 1021 64 10000 5.1 50 11:42 03.01.2021
4138 Clouds 23 1021 64 10000 5.1 50 11:24 03.01.2021
4139 Clouds 23 1022 69 10000 5.7 60 10:36 03.01.2021
4140 Clouds 23 1022 69 10000 5.7 60 10:36 03.01.2021
4141 Clouds 23 1022 69 10000 5.7 60 10:36 03.01.2021
4142 Clouds 23 1022 69 10000 5.1 80 10:18 03.01.2021
4143 Clouds 23 1022 69 10000 5.1 80 09:40 03.01.2021
4144 Clouds 23 1022 69 10000 6.2 60 09:21 03.01.2021
4145 Rain 23 1021 73 10000 3.1 60 07:38 03.01.2021
4146 Rain 23 1020 65 10000 3.1 30 05:58 03.01.2021
4147 Clouds 26 1019 54 10000 6.2 60 02:27 03.01.2021
4148 Clouds 25 1019 57 10000 5.1 40 01:44 03.01.2021
4149 Clouds 25 1019 57 10000 5.1 40 01:44 03.01.2021
4150 Rain 24 1021 57 10000 5.1 60 00:18 03.01.2021
4151 Clouds 25 1021 57 10000 5.1 60 23:27 02.01.2021
4152 Clouds 25 1021 57 10000 5.1 60 23:27 02.01.2021
4153 Clouds 25 1021 51 10000 6.2 40 22:51 02.01.2021
4154 Clouds 25 1021 51 10000 6.2 40 22:32 02.01.2021
4155 Clouds 26 1022 51 10000 7.7 60 21:49 02.01.2021
4156 Clouds 26 1022 51 10000 7.7 60 21:30 02.01.2021
4157 Clouds 25 1022 57 10000 7.2 70 20:49 02.01.2021
4158 Clouds 25 1022 57 10000 7.2 70 20:28 02.01.2021
4159 Clouds 23 1021 64 10000 8.7 60 19:50 02.01.2021
4160 Clouds 23 1021 64 10000 8.7 60 19:20 02.01.2021
4161 Rain 23 1021 60 10000 5.7 60 18:52 02.01.2021
4162 Rain 23 1021 60 10000 5.7 60 18:33 02.01.2021
4163 Clouds 23 1020 60 10000 2.6 50 17:49 02.01.2021
4164 Clouds 23 1020 60 10000 2.6 50 17:30 02.01.2021
4165 Clouds 23 1020 60 10000 4.1 50 16:46 02.01.2021
4166 Clouds 23 1019 64 10000 5.1 50 16:22 02.01.2021
4167 Clouds 23 1019 64 10000 5.1 50 15:48 02.01.2021
4168 Clouds 23 1019 64 10000 5.1 50 15:28 02.01.2021
4169 Clouds 23 1020 69 10000 5.1 80 14:47 02.01.2021
4170 Rain 23 1020 64 10000 6.7 60 14:24 02.01.2021
4171 Rain 23 1020 64 10000 6.7 60 13:44 02.01.2021
4172 Clouds 23 1020 64 10000 4.1 60 12:55 02.01.2021
4173 Clouds 23 1020 64 10000 4.1 60 12:36 02.01.2021
4174 Clouds 23 1020 69 10000 2.1 90 11:59 02.01.2021
4175 Clouds 23 1020 69 10000 4.6 70 11:26 02.01.2021
4176 Clouds 23 1020 69 10000 4.6 70 10:59 02.01.2021
4177 Clouds 23 1020 69 10000 4.6 70 10:35 02.01.2021
4178 Clouds 23 1020 69 10000 3.1 30 09:59 02.01.2021
4179 Clouds 23 1020 69 10000 3.1 30 09:39 02.01.2021
4180 Clouds 23 1020 69 10000 4.1 40 09:19 02.01.2021
4181 Clouds 23 1020 69 10000 4.1 40 08:41 02.01.2021
4182 Clouds 23 1020 69 10000 3.6 40 08:19 02.01.2021
4183 Clouds 23 1020 69 10000 3.6 40 07:24 02.01.2021
4184 Clouds 24 1019 61 10000 4.6 70 06:57 02.01.2021
4185 Clouds 24 1019 57 10000 3.6 60 05:54 02.01.2021
4186 Rain 26 1018 57 10000 8.7 50 01:37 02.01.2021
4187 Clouds 26 1018 51 10000 10.3 70 00:38 02.01.2021
4188 Clouds 26 1019 51 10000 7.2 60 23:58 01.01.2021
4189 Clouds 26 1020 54 10000 10.3 50 23:23 01.01.2021
4190 Clouds 26 1020 54 10000 10.3 50 22:52 01.01.2021
4191 Clouds 25 1020 57 10000 11.3 50 22:27 01.01.2021
4192 Clouds 24 1020 57 10000 11.3 50 21:59 01.01.2021
4193 Clouds 24 1020 57 10000 11.3 50 21:41 01.01.2021
4194 Rain 24 1021 65 10000 7.7 50 21:19 01.01.2021
4195 Rain 24 1021 65 10000 7.7 50 20:44 01.01.2021
4196 Rain 24 1020 73 10000 6.7 50 20:18 01.01.2021
4197 Rain 23 1020 73 10000 6.7 50 19:41 01.01.2021
4198 Rain 22 1020 73 10000 6.7 50 19:21 01.01.2021
4199 Clouds 22 1019 69 10000 7.2 50 18:45 01.01.2021
4200 Clouds 22 1019 78 10000 9.3 50 18:23 01.01.2021
4201 Clouds 22 1019 78 10000 9.3 50 17:46 01.01.2021
4202 Clouds 24 1019 64 10000 3.6 40 17:23 01.01.2021
4203 Clouds 24 1019 64 10000 3.6 40 16:48 01.01.2021
4204 Rain 23 1019 64 10000 3.6 40 16:25 01.01.2021
4205 Rain 23 1019 64 10000 3.6 40 15:40 01.01.2021
4206 Rain 23 1019 60 10000 5.7 60 14:44 01.01.2021
4207 Clouds 23 1020 64 10000 4.6 50 14:26 01.01.2021
4208 Clouds 23 1020 64 10000 4.6 50 13:39 01.01.2021
4209 Clouds 23 1020 64 10000 2.1 0 12:52 01.01.2021
4210 Clouds 23 1020 64 10000 2.1 0 12:27 01.01.2021
4211 Clouds 23 1020 69 10000 2.6 0 11:42 01.01.2021
4212 Clouds 23 1021 64 10000 2.1 50 11:19 01.01.2021
4213 Clouds 23 1021 64 10000 2.1 50 10:56 01.01.2021
4214 Clouds 23 1021 64 10000 2.1 50 10:26 01.01.2021
4215 Clouds 23 1021 73 10000 3.1 50 09:30 01.01.2021
4216 Clouds 23 1020 69 10000 4.1 30 08:30 01.01.2021
4217 Clouds 24 1019 61 10000 7.7 50 06:42 01.01.2021
4218 Clouds 24 1018 54 10000 6.7 50 04:49 01.01.2021
4219 Clouds 26 1019 48 10000 7.2 40 01:42 01.01.2021
4220 Rain 26 1019 57 10000 7.2 60 00:32 01.01.2021
4221 Clouds 26 1020 54 10000 7.2 60 23:40 31.12.2020
4222 Clouds 25 1020 54 10000 6.7 60 23:20 31.12.2020
4223 Clouds 26 1020 54 10000 6.7 60 22:42 31.12.2020
4224 Clouds 25 1021 61 10000 5.7 70 22:22 31.12.2020
4225 Clouds 25 1021 61 10000 5.7 70 21:56 31.12.2020
4226 Clouds 25 1021 61 10000 5.7 70 21:36 31.12.2020
4227 Rain 25 1021 65 10000 4.1 60 20:58 31.12.2020
4228 Rain 24 1021 65 10000 4.1 60 20:27 31.12.2020
4229 Clouds 23 1020 64 10000 6.7 70 19:50 31.12.2020
4230 Clouds 23 1020 64 10000 6.7 70 19:32 31.12.2020
4231 Clouds 23 1019 69 10000 6.2 70 18:53 31.12.2020
4232 Clouds 23 1019 64 10000 4.1 70 18:25 31.12.2020
4233 Clouds 23 1019 64 10000 4.1 70 17:46 31.12.2020
4234 Clouds 23 1019 69 10000 3.6 60 17:26 31.12.2020
4235 Clouds 23 1019 69 10000 3.6 60 16:55 31.12.2020
4236 Clouds 22 1019 69 10000 3.6 60 16:37 31.12.2020
4237 Rain 23 1019 64 10000 4.1 70 16:18 31.12.2020
4238 Rain 23 1019 64 10000 4.1 70 15:42 31.12.2020
4239 Clouds 23 1019 69 10000 4.1 40 15:18 31.12.2020
4240 Clouds 23 1019 69 10000 4.1 40 14:40 31.12.2020
4241 Clouds 23 1020 64 10000 4.6 70 14:22 31.12.2020
4242 Clouds 23 1020 64 10000 4.6 70 13:44 31.12.2020
4243 Clouds 23 1020 64 10000 4.6 70 13:25 31.12.2020
4244 Rain 23 1021 73 10000 4.1 60 12:57 31.12.2020
4245 Rain 23 1021 73 10000 4.1 60 12:37 31.12.2020
4246 Rain 23 1021 73 10000 7.2 60 11:58 31.12.2020
4247 Rain 23 1021 73 10000 7.2 60 11:40 31.12.2020
4248 Rain 23 1021 73 10000 7.2 60 11:40 31.12.2020
4249 Clouds 23 1021 69 10000 4.1 70 11:21 31.12.2020
4250 Clouds 23 1021 69 10000 4.1 70 10:40 31.12.2020
4251 Rain 23 1021 78 10000 5.7 60 10:22 31.12.2020
4252 Rain 23 1021 78 10000 5.7 60 09:47 31.12.2020
4253 Rain 22 1021 78 10000 2.1 70 09:22 31.12.2020
4254 Rain 22 1021 78 10000 2.1 70 08:46 31.12.2020
4255 Rain 22 1021 78 10000 2.1 70 08:27 31.12.2020
4256 Clouds 23 1021 69 10000 4.1 40 07:52 31.12.2020
4257 Clouds 23 1020 65 10000 6.7 70 06:50 31.12.2020
4258 Clouds 25 1018 54 10000 7.2 40 05:30 31.12.2020
4259 Rain 24 1019 61 10000 6.2 40 05:30 31.12.2020
4260 Clouds 26 1017 48 10000 5.1 60 03:24 31.12.2020
4261 Clouds 26 1017 51 10000 7.2 70 02:26 31.12.2020
4262 Clouds 26 1017 51 10000 7.2 70 01:49 31.12.2020
4263 Clouds 27 1017 51 10000 7.2 70 01:31 31.12.2020
4264 Clouds 27 1018 45 10000 6.7 70 00:51 31.12.2020
4265 Clouds 27 1019 48 10000 7.2 70 23:55 30.12.2020
4266 Clouds 27 1019 48 10000 7.2 70 23:20 30.12.2020
4267 Clouds 26 1020 51 10000 7.2 60 22:52 30.12.2020
4268 Clouds 26 1020 51 10000 7.2 60 22:32 30.12.2020
4269 Clouds 26 1021 51 10000 5.7 50 21:48 30.12.2020
4270 Clouds 25 1021 57 10000 5.1 60 21:25 30.12.2020
4271 Clouds 25 1021 57 10000 5.1 60 20:52 30.12.2020
4272 Clouds 24 1020 57 10000 2.1 10 20:24 30.12.2020
4273 Clouds 23 1020 57 10000 2.1 10 19:42 30.12.2020
4274 Clouds 22 1020 68 10000 4.6 60 19:23 30.12.2020
4275 Clouds 22 1020 68 10000 4.6 60 18:56 30.12.2020
4276 Clouds 22 1020 68 10000 4.6 60 18:37 30.12.2020
4277 Rain 22 1019 77 10000 6.95 70 18:18 30.12.2020
4278 Rain 21 1019 77 10000 6.95 70 17:41 30.12.2020
4279 Rain 21 1019 77 10000 6.18 67 17:20 30.12.2020
4280 Rain 21 1019 77 10000 6.18 67 17:20 30.12.2020
4281 Clouds 22 1019 73 10000 2.1 20 16:37 30.12.2020
4282 Clouds 22 1019 78 10000 1.5 340 15:49 30.12.2020
4283 Clouds 22 1019 83 10000 2.1 290 15:26 30.12.2020
4284 Clouds 21 1019 83 10000 2.1 290 14:45 30.12.2020
4285 Clouds 22 1020 83 10000 2.1 350 14:26 30.12.2020
4286 Clouds 22 1020 83 10000 2.1 350 13:52 30.12.2020
4287 Clouds 22 1020 83 10000 2.1 300 12:47 30.12.2020
4288 Clouds 22 1020 83 10000 2.1 0 12:22 30.12.2020
4289 Clouds 22 1020 83 10000 2.1 0 11:39 30.12.2020
4290 Clouds 22 1021 83 10000 1.5 320 11:20 30.12.2020
4291 Clouds 22 1021 83 10000 1.5 320 10:54 30.12.2020
4292 Clouds 22 1021 83 10000 1.5 320 10:35 30.12.2020
4293 Clouds 23 1021 78 10000 0.47 311 09:50 30.12.2020
4294 Clouds 23 1021 78 10000 0.77 211 09:30 30.12.2020
4295 Clouds 23 1020 88 10000 2.1 360 08:35 30.12.2020
4296 Clouds 23 1019 88 10000 1.28 175 07:31 30.12.2020
4297 Clouds 23 1019 78 10000 1.07 99 06:53 30.12.2020
4298 Clouds 23 1019 78 10000 1.07 99 06:53 30.12.2020
4299 Clouds 23 1019 78 10000 0.98 150 06:32 30.12.2020
4300 Rain 24 1019 73 10000 3.6 90 05:44 30.12.2020
4301 Rain 25 1019 73 10000 3.6 90 05:25 30.12.2020
4302 Rain 25 1017 65 10000 2.6 160 03:28 30.12.2020
4303 Rain 25 1017 65 10000 3.1 160 02:43 30.12.2020
4304 Clouds 26 1018 69 10000 3.6 190 01:58 30.12.2020
4305 Clouds 26 1018 69 10000 3.6 190 01:33 30.12.2020
4306 Clouds 26 1018 65 10000 4.6 160 00:50 30.12.2020
4307 Clouds 26 1018 65 10000 4.6 160 00:30 30.12.2020
4308 Clouds 26 1019 61 10000 4.1 140 23:56 29.12.2020
4309 Clouds 26 1019 61 10000 4.1 140 23:37 29.12.2020
4310 Clouds 26 1020 61 10000 3.6 160 23:18 29.12.2020
4311 Clouds 26 1020 61 10000 3.6 160 22:40 29.12.2020
4312 Clouds 26 1020 65 10000 2.6 120 22:22 29.12.2020
4313 Clouds 26 1020 65 10000 2.6 120 21:46 29.12.2020
4314 Clouds 25 1020 69 10000 3.1 100 21:25 29.12.2020
4315 Clouds 24 1020 69 10000 3.1 100 20:46 29.12.2020
4316 Clouds 23 1019 94 10000 3.54 76 20:26 29.12.2020
4317 Clouds 23 1019 94 10000 3.54 76 20:26 29.12.2020
4318 Clouds 23 1019 94 10000 3.54 76 19:49 29.12.2020
4319 Clouds 22 1019 94 10000 2.71 73 19:24 29.12.2020
4320 Clouds 22 1019 88 10000 2.71 73 18:54 29.12.2020
4321 Clouds 21 1019 88 10000 2.4 67 18:32 29.12.2020
4322 Clouds 21 1018 100 10000 2.4 67 17:57 29.12.2020
4323 Clouds 21 1018 100 10000 2.4 67 17:37 29.12.2020
4324 Clouds 21 1018 100 10000 2.85 83 17:18 29.12.2020
4325 Clouds 21 1018 88 10000 1.5 330 16:35 29.12.2020
4326 Clouds 22 1018 83 10000 1.5 320 15:53 29.12.2020
4327 Clouds 22 1018 83 10000 1.5 320 15:34 29.12.2020
4328 Clouds 21 1018 93 10000 4.35 94 14:56 29.12.2020
4329 Clouds 21 1018 93 10000 4.35 94 14:36 29.12.2020
4330 Clouds 22 1019 83 10000 3.59 82 14:18 29.12.2020
4331 Clouds 21 1019 83 10000 3.59 82 13:37 29.12.2020
4332 Clouds 22 1019 78 10000 2.1 320 13:18 29.12.2020
4333 Clouds 22 1019 78 10000 2.1 320 12:37 29.12.2020
4334 Clouds 22 1020 78 10000 2.1 320 12:19 29.12.2020
4335 Clouds 22 1020 78 10000 2.1 320 11:50 29.12.2020
4336 Clouds 22 1020 78 10000 2.1 320 11:31 29.12.2020
4337 Clouds 22 1019 78 10000 1.5 350 10:22 29.12.2020
4338 Clouds 22 1019 78 10000 1.5 350 09:41 29.12.2020
4339 Clouds 23 1019 73 10000 2.1 30 09:19 29.12.2020
4340 Clouds 23 1019 73 10000 2.1 30 09:19 29.12.2020
4341 Clouds 23 1019 73 10000 2.1 30 09:19 29.12.2020
4342 Clouds 23 1019 73 10000 2.1 30 08:49 29.12.2020
4343 Clouds 24 1019 69 10000 2.1 20 07:41 29.12.2020
4344 Clouds 24 1018 65 10000 1.5 180 07:20 29.12.2020
4345 Clouds 24 1018 65 10000 2.1 190 05:50 29.12.2020
4346 Rain 26 1017 54 10000 3.6 180 02:33 29.12.2020
4347 Clouds 28 1018 54 10000 3.6 240 00:26 29.12.2020
4348 Clouds 27 1019 54 10000 3.6 200 23:38 28.12.2020
4349 Clouds 27 1020 54 10000 1.5 0 22:48 28.12.2020
4350 Clouds 27 1020 61 10000 3.1 340 21:57 28.12.2020
4351 Clouds 26 1020 61 10000 3.1 340 21:39 28.12.2020
4352 Clouds 24 1019 78 10000 3.1 350 21:19 28.12.2020
4353 Clouds 24 1019 78 10000 3.1 350 20:40 28.12.2020
4354 Clouds 23 1019 83 10000 1.5 330 20:20 28.12.2020
4355 Clouds 22 1019 83 10000 1.5 330 19:41 28.12.2020
4356 Clouds 21 1018 83 10000 2.1 330 19:22 28.12.2020
4357 Clouds 21 1018 83 10000 2.1 330 18:49 28.12.2020
4358 Clouds 21 1018 83 10000 2.1 350 18:27 28.12.2020
4359 Clouds 22 1018 83 10000 2.1 350 17:41 28.12.2020
4360 Clouds 22 1017 83 10000 1.86 101 17:18 28.12.2020
4361 Clouds 22 1017 83 10000 1.86 101 16:33 28.12.2020
4362 Clouds 21 1017 83 10000 2.1 320 15:59 28.12.2020
4363 Clouds 21 1017 83 10000 2.1 320 15:40 28.12.2020
4364 Clouds 22 1017 83 10000 1.5 110 14:47 28.12.2020
4365 Clouds 22 1018 78 10000 1.5 330 13:51 28.12.2020
4366 Clouds 22 1018 78 10000 3.41 84 13:23 28.12.2020
4367 Clouds 22 1018 78 10000 3.47 76 12:38 28.12.2020
4368 Clouds 22 1019 78 10000 3.79 78 12:19 28.12.2020
4369 Clouds 22 1019 78 10000 3.79 78 11:44 28.12.2020
4370 Clouds 23 1019 73 10000 1.5 20 11:18 28.12.2020
4371 Clouds 23 1019 73 10000 1.5 20 10:42 28.12.2020
4372 Clouds 23 1019 69 10000 3.6 60 10:23 28.12.2020
4373 Clouds 23 1019 69 10000 3.6 60 09:45 28.12.2020
4374 Clouds 23 1019 64 10000 2.1 10 09:18 28.12.2020
4375 Clouds 24 1018 65 10000 4.6 60 06:55 28.12.2020
4376 Clouds 25 1018 61 10000 4.6 50 05:57 28.12.2020
4377 Rain 26 1017 57 10000 7.2 60 03:59 28.12.2020
4378 Rain 27 1017 54 10000 5.1 50 01:56 28.12.2020
4379 Rain 26 1019 57 10000 5.7 60 00:19 28.12.2020
4380 Rain 26 1019 57 10000 5.7 60 23:35 27.12.2020
4381 Rain 26 1019 61 10000 5.7 60 22:52 27.12.2020
4382 Rain 26 1020 65 10000 6.7 70 21:55 27.12.2020
4383 Rain 26 1020 65 10000 6.7 70 21:24 27.12.2020
4384 Rain 25 1020 65 10000 5.7 70 20:37 27.12.2020
4385 Rain 24 1019 69 10000 6.7 60 19:24 27.12.2020
4386 Clouds 23 1019 73 10000 7.7 50 18:51 27.12.2020
4387 Clouds 23 1018 64 10000 7.2 70 18:22 27.12.2020
4388 Clouds 23 1018 64 10000 7.2 70 17:59 27.12.2020
4389 Clouds 23 1018 64 10000 7.2 70 17:37 27.12.2020
4390 Clouds 23 1018 60 10000 5.1 60 17:18 27.12.2020
4391 Clouds 23 1018 60 10000 5.1 60 17:18 27.12.2020
4392 Clouds 23 1018 60 10000 3.1 60 16:25 27.12.2020
4393 Clouds 23 1018 60 10000 3.1 60 15:34 27.12.2020
4394 Clouds 24 1018 60 10000 7.2 50 14:54 27.12.2020
4395 Clouds 24 1018 60 10000 7.2 50 14:36 27.12.2020
4396 Clouds 24 1019 64 10000 6.2 60 13:37 27.12.2020
4397 Clouds 23 1020 64 10000 4.1 60 12:56 27.12.2020
4398 Clouds 23 1020 64 10000 4.1 60 12:26 27.12.2020
4399 Clouds 24 1020 53 10000 5.1 60 11:42 27.12.2020
4400 Clouds 23 1020 64 10000 9.9 68 11:20 27.12.2020
4401 Clouds 23 1020 64 10000 9.9 68 10:45 27.12.2020
4402 Clouds 23 1020 60 10000 1.5 20 10:19 27.12.2020
4403 Clouds 23 1020 60 10000 1.5 20 09:37 27.12.2020
4404 Clouds 23 1020 60 10000 1.5 90 08:28 27.12.2020
4405 Clouds 22 1020 64 10000 3.1 70 07:29 27.12.2020
4406 Rain 21 1020 73 10000 5.7 80 05:59 27.12.2020
4407 Rain 21 1020 73 10000 5.7 80 05:38 27.12.2020
4408 Rain 23 1019 69 10000 6.7 70 03:25 27.12.2020
4409 Rain 23 1019 64 10000 8.2 50 02:30 27.12.2020
4410 Rain 22 1020 83 10000 7.7 60 00:56 27.12.2020
4411 Rain 22 1021 83 10000 7.2 50 23:44 26.12.2020
4412 Rain 22 1021 83 4828 4.1 30 23:24 26.12.2020
4413 Rain 22 1021 83 4828 4.1 30 22:46 26.12.2020
4414 Rain 22 1021 83 8047 5.1 80 22:19 26.12.2020
4415 Rain 22 1021 83 8047 5.1 80 21:53 26.12.2020
4416 Rain 22 1021 83 8047 5.1 80 21:26 26.12.2020
4417 Rain 21 1021 94 6437 2.6 0 20:45 26.12.2020
4418 Rain 21 1020 88 10000 2.1 20 20:24 26.12.2020
4419 Rain 22 1020 88 10000 2.1 20 19:32 26.12.2020
4420 Rain 22 1020 78 10000 4.6 40 18:59 26.12.2020
4421 Rain 22 1020 78 10000 4.6 40 18:34 26.12.2020
4422 Rain 22 1019 78 10000 3.6 40 17:47 26.12.2020
4423 Rain 22 1019 78 10000 5.7 50 17:28 26.12.2020
4424 Rain 22 1019 78 10000 5.7 50 16:40 26.12.2020
4425 Rain 22 1018 78 10000 5.7 90 16:18 26.12.2020
4426 Rain 22 1019 78 10000 7.35 56 15:21 26.12.2020
4427 Rain 22 1019 78 10000 7.35 56 14:38 26.12.2020
4428 Rain 22 1019 83 10000 2.6 10 14:20 26.12.2020
4429 Rain 22 1019 83 10000 2.6 10 13:37 26.12.2020
4430 Rain 22 1020 88 10000 2.6 260 12:58 26.12.2020
4431 Rain 22 1020 88 10000 2.6 260 12:39 26.12.2020
4432 Rain 22 1020 88 10000 2.6 260 12:39 26.12.2020
4433 Clouds 22 1020 83 10000 1.5 280 12:18 26.12.2020
4434 Clouds 22 1020 83 10000 1.5 280 11:42 26.12.2020
4435 Rain 23 1021 78 10000 3.1 60 11:20 26.12.2020
4436 Rain 23 1021 78 10000 3.1 60 10:46 26.12.2020
4437 Rain 23 1021 78 10000 3.1 60 10:25 26.12.2020
4438 Rain 22 1021 83 10000 3.1 60 09:47 26.12.2020
4439 Rain 22 1021 83 10000 3.1 350 08:55 26.12.2020
4440 Rain 22 1021 88 9656 3.6 50 08:19 26.12.2020
4441 Rain 22 1020 88 4828 4.1 350 07:21 26.12.2020
4442 Rain 22 1020 83 10000 5.21 45 05:38 26.12.2020
4443 Rain 25 1018 57 10000 5.7 80 02:47 26.12.2020
4444 Rain 24 1020 61 10000 6.2 40 00:39 26.12.2020
4445 Clouds 24 1021 57 10000 5.1 70 23:50 25.12.2020
4446 Rain 25 1021 57 10000 5.1 70 23:29 25.12.2020
4447 Rain 24 1022 57 10000 4.6 30 22:58 25.12.2020
4448 Rain 24 1022 57 10000 4.6 30 22:26 25.12.2020
4449 Rain 24 1022 73 10000 2.1 350 21:43 25.12.2020
4450 Rain 24 1022 73 10000 2.1 350 21:25 25.12.2020
4451 Rain 23 1022 78 10000 3.6 330 20:45 25.12.2020
4452 Rain 23 1022 78 10000 3.6 330 20:26 25.12.2020
4453 Rain 22 1021 83 10000 4.1 340 19:43 25.12.2020
4454 Rain 22 1020 88 10000 3.6 360 18:47 25.12.2020
4455 Rain 22 1020 88 10000 3.6 360 18:29 25.12.2020
4456 Rain 22 1019 88 10000 3.1 330 17:35 25.12.2020
4457 Rain 22 1019 88 10000 3.1 330 16:51 25.12.2020
4458 Clouds 22 1019 78 10000 2.1 330 16:24 25.12.2020
4459 Clouds 22 1019 78 10000 2.1 330 15:49 25.12.2020
4460 Clouds 22 1019 73 10000 4.29 50 15:26 25.12.2020
4461 Clouds 22 1019 73 10000 4.29 50 14:32 25.12.2020
4462 Clouds 23 1019 73 10000 3.1 360 13:49 25.12.2020
4463 Clouds 23 1019 73 10000 3.1 360 13:26 25.12.2020
4464 Clouds 23 1020 73 10000 1.5 350 12:56 25.12.2020
4465 Clouds 23 1020 73 10000 1.5 330 12:27 25.12.2020
4466 Clouds 23 1020 73 10000 1.5 330 11:46 25.12.2020
4467 Clouds 23 1020 69 10000 2.6 50 11:23 25.12.2020
4468 Clouds 23 1020 69 10000 2.6 50 10:40 25.12.2020
4469 Clouds 23 1020 69 10000 1.5 40 09:49 25.12.2020
4470 Clouds 23 1020 64 10000 1.5 30 08:52 25.12.2020
4471 Clouds 23 1020 64 10000 1.5 30 08:32 25.12.2020
4472 Clouds 23 1019 61 10000 2.6 50 06:51 25.12.2020
4473 Rain 24 1018 54 10000 5.1 40 05:31 25.12.2020
4474 Clouds 26 1018 61 10000 3.1 0 02:21 25.12.2020
4475 Clouds 26 1019 51 10000 6.2 60 00:20 25.12.2020
4476 Clouds 26 1019 51 10000 6.2 60 23:30 24.12.2020
4477 Clouds 26 1020 57 10000 5.1 60 22:53 24.12.2020
4478 Clouds 26 1020 57 10000 5.1 60 22:24 24.12.2020
4479 Rain 25 1020 61 10000 4.1 60 21:45 24.12.2020
4480 Rain 23 1020 73 10000 2.6 40 20:58 24.12.2020
4481 Clouds 23 1020 78 10000 2.6 330 19:41 24.12.2020
4482 Rain 21 1019 78 10000 2.1 330 18:21 24.12.2020
4483 Clouds 20 1018 82 10000 3.16 52 17:38 24.12.2020
4484 Clouds 20 1018 82 10000 2.89 54 17:20 24.12.2020
4485 Clouds 20 1018 82 10000 2.53 55 16:25 24.12.2020
4486 Clouds 20 1018 82 10000 2.53 55 15:43 24.12.2020
4487 Clear 21 1018 78 10000 3.1 330 15:21 24.12.2020
4488 Clear 21 1018 78 10000 3.1 330 14:56 24.12.2020
4489 Clear 21 1018 83 10000 2.6 320 14:24 24.12.2020
4490 Clear 21 1018 83 10000 2.6 320 13:49 24.12.2020
4491 Clear 21 1018 83 10000 2.6 320 13:30 24.12.2020
4492 Clouds 21 1019 83 10000 1.5 320 12:56 24.12.2020
4493 Clouds 21 1019 83 10000 1.5 320 12:37 24.12.2020
4494 Clouds 21 1019 78 10000 2.23 36 12:18 24.12.2020
4495 Clouds 22 1019 78 10000 2.23 36 11:38 24.12.2020
4496 Clouds 22 1019 78 10000 2.42 22 11:18 24.12.2020
4497 Clouds 22 1019 73 10000 1.5 340 10:43 24.12.2020
4498 Clouds 22 1019 73 10000 1.5 360 09:54 24.12.2020
4499 Clouds 22 1019 73 10000 1.5 360 09:35 24.12.2020
4500 Clouds 23 1019 69 10000 1.5 350 08:48 24.12.2020
4501 Clouds 23 1018 69 10000 1.5 360 07:48 24.12.2020
4502 Clouds 23 1018 69 10000 1.5 360 07:28 24.12.2020
4503 Clouds 24 1017 57 10000 2.1 230 06:20 24.12.2020
4504 Clouds 26 1016 57 10000 4.1 210 02:50 24.12.2020
4505 Clouds 27 1016 57 10000 4.6 220 01:47 24.12.2020
4506 Clouds 27 1017 54 10000 4.6 210 01:18 24.12.2020
4507 Clouds 27 1018 54 10000 3.1 220 00:23 24.12.2020
4508 Clouds 27 1018 54 10000 3.1 220 23:49 23.12.2020
4509 Clouds 27 1018 54 10000 3.1 220 23:31 23.12.2020
4510 Clouds 27 1018 54 10000 3.1 220 22:59 23.12.2020
4511 Clouds 27 1018 54 10000 2.1 200 22:40 23.12.2020
4512 Clouds 26 1018 61 10000 1.05 312 22:18 23.12.2020
4513 Clouds 26 1018 61 10000 1.31 319 21:31 23.12.2020
4514 Clouds 24 1018 69 10000 1.5 330 20:57 23.12.2020
4515 Clouds 24 1018 69 10000 1.5 330 20:37 23.12.2020
4516 Clouds 22 1018 83 10000 1.5 330 20:19 23.12.2020
4517 Clouds 21 1018 83 10000 1.5 330 19:41 23.12.2020
4518 Clouds 21 1017 82 10000 1.5 330 19:22 23.12.2020
4519 Clouds 20 1017 82 10000 1.5 330 18:51 23.12.2020
4520 Clouds 20 1017 82 10000 1.5 330 18:33 23.12.2020
4521 Clear 20 1016 82 10000 2.1 340 17:43 23.12.2020
4522 Clear 20 1016 82 10000 2.1 340 17:22 23.12.2020
4523 Clear 20 1016 88 10000 1.5 330 16:49 23.12.2020
4524 Clear 20 1016 88 10000 2.6 350 16:30 23.12.2020
4525 Clear 20 1016 88 10000 2.6 350 15:58 23.12.2020
4526 Clear 20 1016 88 10000 2.6 350 15:38 23.12.2020
4527 Clear 21 1016 83 10000 2.1 320 15:20 23.12.2020
4528 Clear 21 1016 83 10000 2.1 320 14:41 23.12.2020
4529 Clear 21 1016 83 10000 2.12 63 14:21 23.12.2020
4530 Clear 21 1016 83 10000 2.12 63 13:44 23.12.2020
4531 Clear 21 1016 83 10000 1.5 340 13:20 23.12.2020
4532 Clear 21 1016 83 10000 1.5 340 12:54 23.12.2020
4533 Clear 21 1016 83 10000 1.5 340 12:30 23.12.2020
4534 Clear 21 1017 83 10000 2.6 310 11:54 23.12.2020
4535 Clear 21 1017 78 10000 2.6 350 11:27 23.12.2020
4536 Clear 21 1017 78 10000 2.6 350 10:53 23.12.2020
4537 Clear 21 1017 78 10000 2.6 350 10:33 23.12.2020
4538 Clouds 22 1017 69 10000 1.5 350 09:37 23.12.2020
4539 Clouds 23 1017 64 10000 3.6 50 08:52 23.12.2020
4540 Clouds 23 1017 69 10000 2.6 50 08:23 23.12.2020
4541 Clouds 23 1017 69 10000 2.6 50 07:43 23.12.2020
4542 Clouds 23 1016 64 10000 3.1 40 06:42 23.12.2020
4543 Clouds 24 1016 61 10000 4.1 40 05:55 23.12.2020
4544 Clouds 25 1015 54 10000 3.1 30 05:20 23.12.2020
4545 Clouds 27 1015 51 10000 5.1 150 01:38 23.12.2020
4546 Clouds 27 1015 45 10000 3.46 80 00:32 23.12.2020
4547 Clouds 27 1016 51 10000 3.6 60 23:39 22.12.2020
4548 Clouds 27 1017 51 10000 4.1 80 23:21 22.12.2020
4549 Clouds 27 1017 51 10000 4.1 80 22:42 22.12.2020
4550 Clouds 26 1017 54 10000 4.6 80 22:22 22.12.2020
4551 Clouds 26 1017 54 10000 4.6 80 21:45 22.12.2020
4552 Clouds 25 1018 69 10000 2.1 350 21:20 22.12.2020
4553 Clouds 24 1018 69 10000 2.1 350 20:51 22.12.2020
4554 Clouds 24 1018 69 10000 2.1 350 20:31 22.12.2020
4555 Clouds 22 1017 83 10000 2.1 330 19:50 22.12.2020
4556 Clouds 22 1017 83 10000 2.1 330 19:26 22.12.2020
4557 Clouds 21 1017 82 10000 1.5 320 18:57 22.12.2020
4558 Clouds 21 1017 82 10000 1.5 320 18:38 22.12.2020
4559 Clear 21 1016 77 10000 1.5 340 18:19 22.12.2020
4560 Clear 21 1016 77 10000 1.5 340 17:36 22.12.2020
4561 Clear 21 1016 77 10000 1.5 340 17:18 22.12.2020
4562 Clear 21 1015 83 10000 2.1 330 16:46 22.12.2020
4563 Clear 21 1015 83 10000 2.1 330 16:19 22.12.2020
4564 Clear 22 1015 78 10000 3.89 59 15:45 22.12.2020
4565 Clear 22 1015 78 10000 3.97 64 15:26 22.12.2020
4566 Clear 22 1015 73 10000 3.97 64 14:46 22.12.2020
4567 Clear 22 1015 73 10000 3.97 64 14:46 22.12.2020
4568 Clear 22 1015 73 10000 3.97 64 14:46 22.12.2020
4569 Clear 22 1015 73 10000 3.79 62 14:28 22.12.2020
4570 Clear 22 1016 78 10000 2.1 60 13:54 22.12.2020
4571 Clear 22 1016 78 10000 2.1 60 13:36 22.12.2020
4572 Clear 22 1016 73 10000 4.08 63 13:18 22.12.2020
4573 Clear 22 1016 73 10000 4.08 63 13:18 22.12.2020
4574 Clear 23 1016 73 10000 4.15 68 12:42 22.12.2020
4575 Clouds 23 1017 73 10000 2.1 10 12:20 22.12.2020
4576 Clouds 23 1017 73 10000 2.1 10 11:43 22.12.2020
4577 Clouds 23 1017 73 10000 2.1 60 11:23 22.12.2020
4578 Clouds 23 1017 73 10000 2.1 60 10:56 22.12.2020
4579 Rain 23 1017 69 10000 2.1 40 10:30 22.12.2020
4580 Rain 23 1017 69 10000 2.1 40 09:59 22.12.2020
4581 Rain 23 1017 69 10000 2.1 40 09:40 22.12.2020
4582 Rain 23 1016 73 10000 4.6 60 09:20 22.12.2020
4583 Rain 23 1016 73 10000 4.6 60 08:43 22.12.2020
4584 Rain 23 1016 69 10000 4.1 80 08:20 22.12.2020
4585 Rain 23 1016 69 10000 4.1 80 07:46 22.12.2020
4586 Rain 24 1015 65 10000 5.7 70 06:36 22.12.2020
4587 Clouds 24 1015 61 10000 6.2 60 05:34 22.12.2020
4588 Rain 26 1014 54 10000 9.3 70 02:35 22.12.2020
4589 Rain 26 1015 51 10000 6.7 70 00:30 22.12.2020
4590 Clouds 27 1016 51 10000 6.2 50 23:51 21.12.2020
4591 Clouds 27 1017 58 10000 6.7 70 23:22 21.12.2020
4592 Rain 26 1017 58 10000 6.7 70 22:37 21.12.2020
4593 Rain 26 1018 58 10000 4.6 40 22:19 21.12.2020
4594 Rain 26 1018 58 10000 4.6 40 22:19 21.12.2020
4595 Clouds 26 1018 58 10000 4.6 40 21:48 21.12.2020
4596 Clouds 26 1018 58 10000 4.6 40 21:30 21.12.2020
4597 Clouds 25 1017 61 10000 5.1 70 20:45 21.12.2020
4598 Clouds 24 1017 69 10000 4.1 70 20:21 21.12.2020
4599 Clouds 24 1017 69 10000 4.1 70 19:54 21.12.2020
4600 Clouds 24 1017 69 10000 4.1 70 19:36 21.12.2020
4601 Clouds 24 1017 69 10000 2.6 30 19:18 21.12.2020
4602 Clouds 23 1017 69 10000 2.6 30 18:44 21.12.2020
4603 Clouds 23 1016 69 10000 3.1 60 18:25 21.12.2020
4604 Clouds 23 1016 69 10000 3.1 60 17:42 21.12.2020
4605 Clouds 23 1016 69 10000 3.1 60 17:23 21.12.2020
4606 Clouds 23 1016 69 10000 5.1 50 16:45 21.12.2020
4607 Clouds 23 1016 69 10000 4.6 70 16:21 21.12.2020
4608 Clouds 24 1016 69 10000 4.6 70 15:43 21.12.2020
4609 Clouds 24 1016 73 10000 2.1 10 14:58 21.12.2020
4610 Clouds 24 1016 73 10000 2.1 10 14:36 21.12.2020
4611 Rain 24 1016 69 10000 3.1 70 14:18 21.12.2020
4612 Rain 24 1016 69 10000 3.1 70 13:41 21.12.2020
4613 Clouds 24 1017 69 10000 5.1 50 13:22 21.12.2020
4614 Clouds 24 1017 69 10000 5.1 50 12:42 21.12.2020
4615 Clouds 24 1017 69 10000 3.6 50 12:22 21.12.2020
4616 Clouds 24 1017 69 10000 3.6 50 11:43 21.12.2020
4617 Rain 24 1018 69 10000 4.6 50 11:23 21.12.2020
4618 Rain 24 1018 69 10000 4.6 50 11:23 21.12.2020
4619 Rain 24 1018 69 10000 4.6 50 10:58 21.12.2020
4620 Rain 24 1018 69 10000 4.6 50 10:39 21.12.2020
4621 Rain 24 1017 69 10000 5.1 50 09:58 21.12.2020
4622 Rain 24 1017 69 10000 5.1 50 09:40 21.12.2020
4623 Rain 24 1017 69 10000 5.1 50 09:40 21.12.2020
4624 Rain 24 1017 65 10000 4.6 50 09:22 21.12.2020
4625 Rain 24 1017 65 10000 4.6 50 08:29 21.12.2020
4626 Rain 25 1017 65 10000 5.7 60 07:27 21.12.2020
4627 Clouds 25 1016 65 10000 4.6 60 05:40 21.12.2020
4628 Rain 26 1015 61 10000 6.7 60 04:31 21.12.2020
4629 Clouds 27 1015 58 10000 7.2 60 00:37 21.12.2020
4630 Clouds 27 1016 58 10000 8.2 60 23:51 20.12.2020
4631 Clouds 27 1017 58 10000 7.2 50 23:21 20.12.2020
4632 Clouds 27 1017 58 10000 7.2 50 22:45 20.12.2020
4633 Rain 27 1018 69 10000 5.7 60 22:25 20.12.2020
4634 Rain 26 1018 69 10000 5.7 60 21:55 20.12.2020
4635 Rain 26 1018 69 10000 5.7 60 21:37 20.12.2020
4636 Rain 26 1017 61 10000 4.6 40 21:18 20.12.2020
4637 Rain 26 1017 61 10000 4.6 40 20:42 20.12.2020
4638 Rain 26 1017 69 10000 3.6 60 20:21 20.12.2020
4639 Rain 25 1017 69 10000 3.6 60 19:42 20.12.2020
4640 Rain 25 1017 69 10000 3.6 60 19:21 20.12.2020
4641 Rain 24 1017 73 10000 2.6 50 18:54 20.12.2020
4642 Rain 24 1017 73 10000 2.6 50 18:35 20.12.2020
4643 Clouds 23 1016 73 10000 2.1 30 17:47 20.12.2020
4644 Clouds 23 1016 73 10000 2.1 30 17:28 20.12.2020
4645 Clouds 23 1016 73 10000 3.1 60 16:49 20.12.2020
4646 Rain 23 1016 73 10000 3.1 70 16:30 20.12.2020
4647 Rain 23 1016 73 10000 3.1 70 15:52 20.12.2020
4648 Clouds 23 1016 73 10000 4.6 50 15:30 20.12.2020
4649 Rain 23 1016 73 10000 4.6 50 14:58 20.12.2020
4650 Rain 23 1016 73 10000 4.6 50 14:37 20.12.2020
4651 Clouds 23 1016 73 10000 3.6 40 13:57 20.12.2020
4652 Clouds 23 1016 73 10000 3.6 40 13:37 20.12.2020
4653 Clouds 24 1017 73 10000 3.1 40 13:18 20.12.2020
4654 Clouds 24 1017 73 10000 3.1 40 12:44 20.12.2020
4655 Clouds 24 1017 69 10000 4.1 50 12:22 20.12.2020
4656 Clouds 24 1017 69 10000 4.1 50 11:49 20.12.2020
4657 Clouds 24 1017 69 10000 4.1 50 11:26 20.12.2020
4658 Rain 23 1017 73 10000 2.6 50 10:49 20.12.2020
4659 Rain 23 1017 73 10000 4.6 70 10:21 20.12.2020
4660 Rain 23 1017 73 10000 4.6 70 09:47 20.12.2020
4661 Rain 23 1017 73 10000 4.6 70 09:29 20.12.2020
4662 Rain 25 1017 65 10000 3.1 20 08:59 20.12.2020
4663 Rain 24 1017 65 10000 3.1 20 08:40 20.12.2020
4664 Rain 24 1017 65 10000 5.7 60 07:59 20.12.2020
4665 Rain 24 1016 65 10000 8.2 60 07:19 20.12.2020
4666 Clouds 26 1014 54 10000 8.2 60 02:41 20.12.2020
4667 Clouds 26 1015 51 10000 10.3 70 00:59 20.12.2020
4668 Clouds 26 1016 58 10000 8.7 50 23:36 19.12.2020
4669 Clouds 25 1017 54 10000 8.7 50 23:18 19.12.2020
4670 Clouds 25 1017 54 10000 8.7 50 22:42 19.12.2020
4671 Clouds 25 1017 54 10000 8.7 50 22:24 19.12.2020
4672 Clouds 26 1018 57 10000 6.2 60 21:45 19.12.2020
4673 Clouds 25 1017 69 10000 5.7 60 21:26 19.12.2020
4674 Clouds 24 1017 69 10000 5.7 60 20:58 19.12.2020
4675 Rain 23 1017 83 10000 3.6 30 20:24 19.12.2020
4676 Rain 23 1017 83 10000 3.6 30 19:59 19.12.2020
4677 Rain 23 1017 83 10000 3.6 30 19:41 19.12.2020
4678 Rain 23 1017 83 10000 3.6 30 19:21 19.12.2020
4679 Rain 23 1017 73 10000 5.7 50 18:33 19.12.2020
4680 Rain 23 1016 78 10000 7.7 70 17:56 19.12.2020
4681 Rain 23 1016 78 10000 7.7 70 17:32 19.12.2020
4682 Clouds 23 1016 69 10000 4.6 60 16:59 19.12.2020
4683 Rain 23 1016 69 10000 4.6 60 16:39 19.12.2020
4684 Rain 23 1016 69 10000 4.6 60 16:39 19.12.2020
4685 Rain 23 1016 69 10000 5.1 70 16:21 19.12.2020
4686 Clouds 23 1016 69 10000 5.1 70 15:49 19.12.2020
4687 Clear 23 1016 69 10000 6.7 60 15:20 19.12.2020
4688 Rain 23 1016 69 10000 6.7 60 14:37 19.12.2020
4689 Rain 23 1016 69 10000 6.7 50 13:55 19.12.2020
4690 Clouds 23 1016 69 10000 6.7 50 13:36 19.12.2020
4691 Clouds 23 1017 73 10000 4.6 30 13:18 19.12.2020
4692 Rain 23 1017 73 10000 4.6 30 12:41 19.12.2020
4693 Rain 24 1017 65 10000 7.2 60 12:21 19.12.2020
4694 Rain 23 1017 65 10000 7.2 60 11:48 19.12.2020
4695 Rain 24 1017 65 10000 7.2 60 11:19 19.12.2020
4696 Rain 23 1018 64 10000 8.7 70 10:42 19.12.2020
4697 Rain 23 1018 73 10000 8.7 80 10:18 19.12.2020
4698 Rain 23 1018 73 10000 8.7 80 09:41 19.12.2020
4699 Rain 23 1018 69 10000 8.2 60 08:59 19.12.2020
4700 Rain 24 1017 57 10000 10.3 50 08:18 19.12.2020
4701 Rain 25 1016 57 10000 7.7 50 07:20 19.12.2020
4702 Rain 25 1016 57 10000 7.7 50 06:49 19.12.2020
4703 Clouds 25 1015 54 10000 12.9 60 05:23 19.12.2020
4704 Clouds 26 1015 51 10000 11.3 60 03:50 19.12.2020
4705 Clouds 27 1016 51 10000 10.3 70 00:42 19.12.2020
4706 Clouds 27 1016 51 10000 10.3 70 00:21 19.12.2020
4707 Clouds 27 1016 51 10000 9.8 50 23:51 18.12.2020
4708 Clouds 27 1016 51 10000 9.8 50 23:29 18.12.2020
4709 Clouds 27 1017 48 10000 8.2 50 22:57 18.12.2020
4710 Clouds 27 1017 48 10000 8.2 50 22:39 18.12.2020
4711 Clouds 26 1017 54 10000 7.7 60 22:19 18.12.2020
4712 Clouds 26 1017 54 10000 7.7 60 21:43 18.12.2020
4713 Clouds 26 1016 57 10000 8.7 60 21:22 18.12.2020
4714 Clouds 25 1016 57 10000 7.7 60 20:25 18.12.2020
4715 Clouds 25 1016 57 10000 7.7 60 19:51 18.12.2020
4716 Clouds 25 1016 57 10000 7.7 60 19:24 18.12.2020
4717 Clouds 23 1016 69 10000 3.6 90 18:46 18.12.2020
4718 Clouds 23 1016 69 10000 3.6 90 18:28 18.12.2020
4719 Clouds 23 1015 65 10000 7.7 60 17:52 18.12.2020
4720 Clouds 24 1015 65 10000 7.7 60 17:20 18.12.2020
4721 Clouds 23 1015 69 10000 8.2 60 16:45 18.12.2020
4722 Clouds 23 1015 69 10000 7.7 80 16:21 18.12.2020
4723 Clouds 23 1015 69 10000 7.7 80 15:52 18.12.2020
4724 Clouds 23 1015 69 10000 7.7 80 15:34 18.12.2020
4725 Clouds 23 1015 69 10000 5.1 70 14:57 18.12.2020
4726 Clouds 23 1015 69 10000 5.7 70 14:26 18.12.2020
4727 Clouds 23 1015 69 10000 5.7 70 13:53 18.12.2020
4728 Clouds 23 1015 69 10000 5.7 70 13:32 18.12.2020
4729 Clouds 23 1016 69 10000 3.6 60 12:57 18.12.2020
4730 Clouds 23 1016 69 10000 3.6 60 12:34 18.12.2020
4731 Rain 23 1016 69 10000 5.1 60 11:28 18.12.2020
4732 Rain 23 1016 69 10000 3.1 50 10:41 18.12.2020
4733 Rain 23 1016 69 10000 3.1 50 10:41 18.12.2020
4734 Rain 23 1016 69 10000 5.1 50 10:21 18.12.2020
4735 Rain 23 1016 69 10000 5.1 50 09:58 18.12.2020
4736 Rain 23 1016 69 10000 5.1 50 09:37 18.12.2020
4737 Rain 23 1016 69 10000 10.25 71 09:18 18.12.2020
4738 Rain 23 1016 69 10000 10.25 71 08:46 18.12.2020
4739 Clouds 23 1015 69 10000 4.1 90 07:58 18.12.2020
4740 Rain 24 1015 69 10000 3.1 0 07:20 18.12.2020
4741 Rain 24 1015 69 10000 3.1 0 06:59 18.12.2020
4742 Rain 24 1014 65 10000 5.7 70 05:44 18.12.2020
4743 Rain 25 1014 61 10000 7.7 70 04:52 18.12.2020
4744 Clouds 26 1013 61 10000 5.7 60 03:35 18.12.2020
4745 Clouds 26 1013 54 10000 7.2 30 01:45 18.12.2020
4746 Clouds 27 1014 48 10000 4.1 60 00:29 18.12.2020
4747 Clouds 28 1015 51 10000 5.1 60 23:52 17.12.2020
4748 Clouds 27 1015 51 10000 5.1 60 23:23 17.12.2020
4749 Clouds 27 1015 54 10000 5.1 50 22:48 17.12.2020
4750 Clouds 27 1015 54 10000 5.1 50 22:27 17.12.2020
4751 Clouds 27 1016 54 10000 5.1 20 21:46 17.12.2020
4752 Clouds 27 1016 54 10000 5.1 20 21:22 17.12.2020
4753 Clouds 25 1016 65 10000 2.1 300 20:45 17.12.2020
4754 Clouds 25 1015 78 10000 5.1 50 20:20 17.12.2020
4755 Clouds 24 1015 78 10000 5.1 50 19:56 17.12.2020
4756 Clouds 24 1015 78 10000 5.1 50 19:38 17.12.2020
4757 Clouds 23 1014 78 10000 2.6 60 19:19 17.12.2020
4758 Clouds 23 1014 78 10000 2.6 60 18:40 17.12.2020
4759 Clear 23 1014 78 10000 1.5 90 18:19 17.12.2020
4760 Clear 23 1014 78 10000 1.5 90 17:45 17.12.2020
4761 Clear 23 1014 78 10000 2.1 70 17:27 17.12.2020
4762 Clear 23 1014 78 10000 2.1 70 16:40 17.12.2020
4763 Haze 23 1013 83 9656 3.6 110 16:20 17.12.2020
4764 Haze 23 1013 83 9656 3.6 110 15:45 17.12.2020
4765 Clear 23 1014 78 10000 3.6 70 15:27 17.12.2020
4766 Clear 23 1014 78 10000 3.6 70 14:49 17.12.2020
4767 Clear 23 1014 78 10000 4.1 60 14:22 17.12.2020
4768 Clear 23 1014 78 10000 4.1 60 13:48 17.12.2020
4769 Clear 23 1015 73 10000 4.6 60 13:22 17.12.2020
4770 Clear 23 1015 73 10000 4.6 60 12:41 17.12.2020
4771 Clouds 23 1015 73 10000 4.6 60 12:22 17.12.2020
4772 Rain 23 1015 73 10000 4.6 60 11:42 17.12.2020
4773 Rain 23 1016 73 10000 3.6 60 11:22 17.12.2020
4774 Clear 23 1016 73 10000 3.6 60 10:44 17.12.2020
4775 Clouds 23 1016 73 10000 2.1 20 09:37 17.12.2020
4776 Rain 24 1016 65 10000 5.85 61 08:52 17.12.2020
4777 Rain 24 1016 65 10000 6.48 61 07:44 17.12.2020
4778 Rain 24 1016 65 10000 6.5 59 07:25 17.12.2020
4779 Rain 24 1015 61 10000 3.6 60 06:49 17.12.2020
4780 Rain 24 1015 61 10000 3.6 60 06:30 17.12.2020
4781 Rain 26 1013 58 10000 7.2 70 03:30 17.12.2020
4782 Rain 27 1014 58 10000 8.2 50 00:27 17.12.2020
4783 Clouds 27 1015 54 10000 7.2 60 23:42 16.12.2020
4784 Clouds 27 1015 54 10000 7.2 60 23:18 16.12.2020
4785 Rain 26 1016 61 10000 6.2 60 22:48 16.12.2020
4786 Rain 26 1016 61 10000 6.2 60 22:30 16.12.2020
4787 Rain 25 1016 69 10000 4.1 80 21:44 16.12.2020
4788 Rain 25 1016 69 10000 4.1 80 21:23 16.12.2020
4789 Clouds 25 1016 65 10000 4.1 70 20:52 16.12.2020
4790 Rain 24 1016 65 10000 4.1 70 20:20 16.12.2020
4791 Rain 23 1016 78 10000 4.1 60 19:38 16.12.2020
4792 Clouds 23 1016 78 10000 4.1 60 19:18 16.12.2020
4793 Rain 23 1015 78 10000 2.1 20 18:49 16.12.2020
4794 Rain 23 1015 78 10000 2.1 20 18:25 16.12.2020
4795 Clouds 23 1015 83 10000 1.5 20 17:38 16.12.2020
4796 Clouds 23 1015 83 10000 1.5 20 17:38 16.12.2020
4797 Rain 23 1015 78 10000 8.25 75 16:56 16.12.2020
4798 Clouds 23 1014 83 10000 3.6 90 16:36 16.12.2020
4799 Clouds 23 1014 78 10000 1.5 350 16:18 16.12.2020
4800 Clouds 23 1014 78 10000 1.5 350 15:46 16.12.2020
4801 Rain 23 1014 78 10000 1.5 350 15:18 16.12.2020
4802 Rain 23 1015 78 10000 1.5 60 14:44 16.12.2020
4803 Rain 23 1015 78 10000 1.5 60 14:26 16.12.2020
4804 Rain 23 1016 78 10000 3.1 40 13:41 16.12.2020
4805 Clouds 23 1016 78 10000 3.1 60 13:20 16.12.2020
4806 Clouds 23 1016 78 10000 3.1 60 12:43 16.12.2020
4807 Clouds 23 1016 78 10000 2.1 60 11:51 16.12.2020
4808 Clouds 23 1016 78 10000 2.1 60 11:32 16.12.2020
4809 Clouds 24 1017 73 10000 3.1 30 10:56 16.12.2020
4810 Clouds 24 1017 73 10000 3.1 30 10:36 16.12.2020
4811 Clouds 24 1017 69 10000 3.1 70 09:56 16.12.2020
4812 Clouds 24 1017 69 10000 3.1 70 09:32 16.12.2020
4813 Clouds 25 1016 65 10000 4.1 50 08:23 16.12.2020
4814 Clouds 25 1016 65 10000 4.1 50 07:45 16.12.2020
4815 Clouds 25 1016 65 10000 5.1 50 07:20 16.12.2020
4816 Clouds 27 1014 54 10000 5.1 50 03:37 16.12.2020
4817 Rain 27 1014 58 10000 4.6 60 01:59 16.12.2020
4818 Clouds 27 1016 51 10000 5.7 60 23:50 15.12.2020
4819 Clouds 27 1016 51 10000 5.7 60 23:31 15.12.2020
4820 Clouds 27 1017 58 10000 4.6 80 22:41 15.12.2020
4821 Clouds 27 1017 58 10000 4.6 70 22:21 15.12.2020
4822 Clouds 28 1017 58 10000 4.6 70 21:47 15.12.2020
4823 Clouds 26 1017 69 10000 2.1 350 21:23 15.12.2020
4824 Clouds 26 1017 69 10000 2.1 350 20:46 15.12.2020
4825 Clouds 23 1016 78 10000 5.97 76 20:27 15.12.2020
4826 Clouds 23 1016 78 10000 5.97 76 19:55 15.12.2020
4827 Clouds 23 1016 78 10000 5.97 76 19:33 15.12.2020
4828 Clouds 22 1016 83 10000 1.5 300 18:42 15.12.2020
4829 Clouds 22 1015 78 10000 1.5 310 18:22 15.12.2020
4830 Clouds 22 1015 78 10000 1.5 310 17:58 15.12.2020
4831 Clouds 22 1015 78 10000 1.5 310 17:40 15.12.2020
4832 Clouds 23 1015 78 10000 1.5 30 17:20 15.12.2020
4833 Rain 23 1015 78 10000 1.5 30 16:32 15.12.2020
4834 Rain 23 1014 73 10000 2.6 80 15:55 15.12.2020
4835 Rain 23 1014 73 10000 2.6 80 15:32 15.12.2020
4836 Rain 23 1015 73 10000 2.1 80 14:48 15.12.2020
4837 Rain 23 1015 73 10000 2.1 80 14:21 15.12.2020
4838 Rain 23 1015 69 10000 3.1 80 13:52 15.12.2020
4839 Rain 23 1015 69 10000 3.1 80 13:32 15.12.2020
4840 Clouds 24 1016 69 10000 4.1 70 12:47 15.12.2020
4841 Clouds 23 1016 69 10000 5.1 80 12:22 15.12.2020
4842 Clouds 23 1016 69 10000 5.1 80 11:56 15.12.2020
4843 Clouds 23 1016 69 10000 5.1 80 11:26 15.12.2020
4844 Clouds 24 1016 65 10000 4.1 80 10:56 15.12.2020
4845 Clouds 24 1016 65 10000 4.1 80 10:34 15.12.2020
4846 Clouds 24 1017 65 10000 4.1 50 09:52 15.12.2020
4847 Clouds 24 1017 65 10000 4.1 50 09:32 15.12.2020
4848 Clouds 25 1016 61 10000 4.6 60 08:54 15.12.2020
4849 Clouds 25 1016 61 10000 4.6 60 08:29 15.12.2020
4850 Clear 25 1016 61 10000 5.7 60 07:50 15.12.2020
4851 Clear 25 1016 61 10000 5.7 60 07:26 15.12.2020
4852 Clouds 25 1016 61 10000 5.1 50 06:37 15.12.2020
4853 Clouds 27 1014 51 10000 5.7 40 03:29 15.12.2020
4854 Rain 28 1015 51 10000 4.6 70 00:35 15.12.2020
4855 Clouds 28 1016 51 10000 4.1 100 23:26 14.12.2020
4856 Rain 27 1017 58 10000 5.1 110 22:56 14.12.2020
4857 Rain 27 1017 58 10000 5.1 110 22:34 14.12.2020
4858 Clouds 27 1017 58 10000 4.1 70 21:53 14.12.2020
4859 Clouds 27 1017 58 10000 4.1 70 21:35 14.12.2020
4860 Clouds 26 1018 61 10000 3.1 60 20:52 14.12.2020
4861 Clouds 26 1018 61 10000 3.1 60 20:30 14.12.2020
4862 Clouds 25 1017 69 10000 2.1 40 19:54 14.12.2020
4863 Clouds 24 1017 78 10000 2.1 0 19:29 14.12.2020
4864 Clouds 23 1017 78 10000 2.1 0 18:51 14.12.2020
4865 Clouds 23 1017 78 10000 2.1 0 18:51 14.12.2020
4866 Clouds 23 1017 78 10000 2.1 0 18:31 14.12.2020
4867 Clouds 23 1016 73 10000 3.6 60 17:47 14.12.2020
4868 Clouds 23 1016 73 10000 3.6 60 17:24 14.12.2020
4869 Clouds 23 1016 73 10000 3.6 60 17:24 14.12.2020
4870 Clouds 23 1016 78 10000 3.03 76 16:50 14.12.2020
4871 Clouds 23 1016 83 10000 1.5 350 16:29 14.12.2020
4872 Rain 22 1016 83 10000 1.5 350 15:40 14.12.2020
4873 Rain 22 1016 78 10000 1.5 320 15:20 14.12.2020
4874 Clouds 23 1016 78 10000 1.5 320 14:42 14.12.2020
4875 Clouds 23 1016 78 10000 1.5 320 14:42 14.12.2020
4876 Clouds 23 1017 78 10000 2.1 340 14:23 14.12.2020
4877 Clouds 23 1017 78 10000 2.1 340 13:42 14.12.2020
4878 Clouds 23 1017 73 10000 3.1 90 13:18 14.12.2020
4879 Clouds 23 1017 73 10000 3.1 90 12:52 14.12.2020
4880 Clouds 23 1017 73 10000 2.43 35 12:24 14.12.2020
4881 Clouds 23 1017 73 10000 2.43 35 11:32 14.12.2020
4882 Clouds 23 1017 73 10000 2.6 23 10:38 14.12.2020
4883 Rain 23 1017 69 10000 1.5 350 10:19 14.12.2020
4884 Rain 24 1017 69 10000 1.5 350 09:29 14.12.2020
4885 Rain 24 1017 65 10000 2.1 360 08:46 14.12.2020
4886 Clouds 24 1017 61 10000 1.5 360 08:28 14.12.2020
4887 Clouds 25 1017 61 10000 1.5 360 07:28 14.12.2020
4888 Clouds 24 1017 65 10000 2.1 40 06:45 14.12.2020
4889 Clouds 26 1016 61 10000 4.6 40 04:52 14.12.2020
4890 Rain 28 1015 58 10000 4.6 220 02:26 14.12.2020
4891 Clouds 28 1016 58 10000 3.6 190 00:55 14.12.2020
4892 Clouds 28 1016 58 10000 3.6 190 00:31 14.12.2020
4893 Clouds 27 1017 54 10000 3.6 180 23:46 13.12.2020
4894 Clouds 27 1017 54 10000 3.6 180 23:46 13.12.2020
4895 Clouds 28 1018 58 10000 2.6 180 23:24 13.12.2020
4896 Clouds 28 1018 58 10000 2.6 180 22:45 13.12.2020
4897 Clouds 27 1018 61 10000 0.58 245 22:18 13.12.2020
4898 Clouds 27 1018 61 10000 0.58 245 21:42 13.12.2020
4899 Clouds 26 1018 69 10000 2.1 350 21:22 13.12.2020
4900 Clouds 25 1018 69 10000 2.1 350 20:35 13.12.2020
4901 Clouds 23 1018 78 10000 2.6 320 19:51 13.12.2020
4902 Clouds 22 1018 78 10000 2.6 320 19:27 13.12.2020
4903 Clouds 22 1017 83 10000 2.1 350 18:57 13.12.2020
4904 Clouds 22 1017 83 10000 2.1 350 18:39 13.12.2020
4905 Rain 22 1017 83 10000 2.1 350 18:19 13.12.2020
4906 Rain 22 1017 83 10000 2.1 350 17:45 13.12.2020
4907 Rain 22 1017 83 10000 2.1 10 17:18 13.12.2020
4908 Rain 22 1017 83 10000 2.1 10 16:53 13.12.2020
4909 Rain 22 1017 83 10000 2.1 10 16:34 13.12.2020
4910 Rain 23 1017 78 10000 1.5 30 15:48 13.12.2020
4911 Rain 23 1017 78 10000 1.5 30 15:27 13.12.2020
4912 Clouds 24 1017 78 10000 2.1 330 14:50 13.12.2020
4913 Clouds 24 1017 78 10000 2.1 330 14:29 13.12.2020
4914 Clouds 23 1017 78 10000 2.88 77 13:58 13.12.2020
4915 Clouds 23 1017 78 10000 2.88 77 13:36 13.12.2020
4916 Clouds 23 1018 78 10000 2.1 350 12:59 13.12.2020
4917 Clouds 23 1018 78 10000 2.1 350 12:26 13.12.2020
4918 Clouds 24 1018 69 10000 1.5 70 11:59 13.12.2020
4919 Clouds 24 1018 69 10000 1.5 70 11:33 13.12.2020
4920 Clouds 24 1018 69 10000 2.6 60 10:45 13.12.2020
4921 Rain 24 1018 65 10000 2.6 40 10:21 13.12.2020
4922 Rain 24 1018 65 10000 2.6 40 09:46 13.12.2020
4923 Rain 24 1018 65 10000 3.1 60 08:48 13.12.2020
4924 Clouds 24 1018 65 10000 3.1 60 08:30 13.12.2020
4925 Clouds 24 1017 69 10000 2.1 70 07:25 13.12.2020
4926 Clouds 26 1016 51 10000 6.7 50 03:24 13.12.2020
4927 Clouds 27 1016 51 10000 6.7 50 02:32 13.12.2020
4928 Clouds 27 1017 48 10000 8.7 60 01:36 13.12.2020
4929 Clouds 27 1017 48 10000 8.7 60 00:44 13.12.2020
4930 Clouds 27 1018 51 10000 7.2 90 23:40 12.12.2020
4931 Clouds 27 1018 51 10000 7.2 90 23:40 12.12.2020
4932 Clouds 27 1019 54 10000 7.2 50 23:20 12.12.2020
4933 Clouds 27 1019 54 10000 7.2 50 22:34 12.12.2020
4934 Clouds 27 1019 54 10000 7.7 50 21:46 12.12.2020
4935 Clouds 26 1019 57 10000 6.2 60 21:20 12.12.2020
4936 Clouds 26 1019 57 10000 6.2 60 20:45 12.12.2020
4937 Clouds 24 1019 69 10000 4.1 60 20:21 12.12.2020
4938 Clouds 24 1019 69 10000 4.1 60 19:52 12.12.2020
4939 Clouds 24 1019 69 10000 4.1 60 19:33 12.12.2020
4940 Clouds 23 1018 69 10000 4.1 60 18:56 12.12.2020
4941 Clouds 23 1018 69 10000 4.1 60 18:38 12.12.2020
4942 Clouds 23 1018 69 10000 4.1 60 18:18 12.12.2020
4943 Clouds 23 1018 69 10000 4.6 60 17:40 12.12.2020
4944 Clouds 23 1018 73 10000 4.6 60 16:44 12.12.2020
4945 Clouds 23 1018 73 10000 4.1 60 15:57 12.12.2020
4946 Clouds 23 1018 73 10000 4.1 60 15:57 12.12.2020
4947 Clouds 22 1018 73 10000 4.1 60 15:39 12.12.2020
4948 Rain 23 1018 69 10000 4.6 80 14:54 12.12.2020
4949 Rain 23 1019 69 10000 4.6 80 14:21 12.12.2020
4950 Clouds 23 1019 69 10000 4.6 80 13:41 12.12.2020
4951 Clouds 23 1019 69 10000 2.6 70 13:22 12.12.2020
4952 Clouds 23 1019 69 10000 2.6 70 12:33 12.12.2020
4953 Clouds 24 1019 65 10000 5.7 60 11:19 12.12.2020
4954 Clouds 24 1019 65 10000 5.7 60 10:45 12.12.2020
4955 Clouds 24 1019 65 10000 5.1 60 09:23 12.12.2020
4956 Clouds 25 1018 61 10000 5.1 60 07:26 12.12.2020
4957 Clouds 28 1017 45 10000 5.7 60 00:50 12.12.2020
4958 Clouds 27 1019 51 10000 5.7 50 23:19 11.12.2020
4959 Clouds 24 1019 73 10000 2.6 340 20:55 11.12.2020
4960 Clouds 22 1018 83 10000 2.6 340 19:31 11.12.2020
4961 Clouds 21 1017 88 10000 1.5 340 16:45 11.12.2020
4962 Clouds 22 1017 88 10000 1.5 10 14:29 11.12.2020
4963 Clouds 23 1017 83 10000 2.1 350 13:26 11.12.2020
4964 Rain 23 1017 83 10000 2.6 310 12:22 11.12.2020
4965 Rain 23 1017 83 10000 2.6 310 11:52 11.12.2020
4966 Rain 23 1018 83 10000 2.6 330 11:24 11.12.2020
4967 Rain 23 1018 88 10000 3.6 30 09:58 11.12.2020
4968 Rain 24 1016 73 10000 3.1 190 06:26 11.12.2020
4969 Clouds 25 1015 61 10000 2.6 210 05:20 11.12.2020
4970 Clouds 27 1014 58 10000 3.6 170 02:40 11.12.2020
4971 Clouds 27 1015 58 10000 3.6 160 00:39 11.12.2020
4972 Clouds 27 1017 54 10000 3.6 180 22:57 10.12.2020
4973 Clouds 26 1017 61 10000 2.26 127 21:37 10.12.2020
4974 Clouds 25 1018 73 10000 1.5 350 20:49 10.12.2020
4975 Clouds 23 1017 83 10000 1.25 56 19:52 10.12.2020
4976 Clouds 22 1017 88 10000 1.5 360 19:21 10.12.2020
4977 Clouds 21 1017 88 10000 1.5 360 18:44 10.12.2020
4978 Clouds 22 1016 83 10000 2.33 23 16:56 10.12.2020
4979 Clouds 22 1016 83 10000 2.15 25 15:51 10.12.2020
4980 Clouds 21 1016 83 10000 2.1 330 14:58 10.12.2020
4981 Clouds 21 1016 83 10000 2.1 330 14:38 10.12.2020
4982 Clouds 22 1016 78 10000 2.1 330 13:25 10.12.2020
4983 Rain 23 1017 73 10000 1.5 40 11:48 10.12.2020
4984 Clouds 23 1017 73 10000 1.5 10 09:33 10.12.2020
4985 Clouds 23 1016 69 10000 1.5 20 08:19 10.12.2020
4986 Clouds 24 1016 65 10000 1.5 270 06:51 10.12.2020
4987 Clouds 25 1014 65 10000 2.1 180 03:55 10.12.2020
4988 Rain 25 1015 57 10000 2.6 250 02:27 10.12.2020
4989 Rain 26 1015 57 10000 2.1 0 00:48 10.12.2020
4990 Rain 27 1016 61 10000 5.7 330 23:23 09.12.2020
4991 Clouds 24 1018 78 10000 3.6 10 20:37 09.12.2020
4992 Clouds 24 1017 78 10000 2.6 320 19:37 09.12.2020
4993 Rain 23 1016 78 10000 2.07 48 17:55 09.12.2020
4994 Rain 23 1015 78 10000 2.16 53 16:54 09.12.2020
4995 Clouds 23 1015 73 10000 2.1 280 16:24 09.12.2020
4996 Clouds 23 1015 73 10000 2.1 280 15:37 09.12.2020
4997 Rain 23 1015 78 10000 2.6 10 14:43 09.12.2020
4998 Rain 23 1016 78 10000 1.5 350 14:23 09.12.2020
4999 Rain 24 1016 78 10000 2.07 80 13:19 09.12.2020
5000 Rain 24 1016 78 10000 2.88 75 12:46 09.12.2020
5001 Rain 24 1016 73 10000 1.5 60 11:54 09.12.2020
5002 Rain 24 1017 69 10000 1.5 90 11:23 09.12.2020
5003 Clouds 24 1017 69 10000 3.6 50 09:39 09.12.2020
5004 Clouds 25 1016 65 10000 4.1 60 07:57 09.12.2020
5005 Rain 25 1015 61 10000 3.1 140 05:55 09.12.2020
5006 Rain 26 1014 54 10000 5.1 60 03:54 09.12.2020
5007 Clouds 27 1014 51 10000 6.7 120 01:56 09.12.2020
5008 Clouds 27 1016 51 10000 4.1 80 23:44 08.12.2020
5009 Clouds 27 1017 54 10000 7.2 80 22:56 08.12.2020
5010 Rain 25 1018 57 10000 5.7 100 21:28 08.12.2020
5011 Clouds 25 1018 65 10000 4.6 60 19:34 08.12.2020
5012 Clouds 24 1018 73 10000 3.1 70 18:59 08.12.2020
5013 Rain 23 1017 69 10000 2.6 60 17:55 08.12.2020
5014 Rain 24 1017 65 10000 3.6 60 15:51 08.12.2020
5015 Rain 24 1017 69 10000 2.1 70 14:28 08.12.2020
5016 Rain 24 1018 65 10000 2.6 130 13:29 08.12.2020
5017 Rain 24 1018 69 10000 2.1 40 12:27 08.12.2020
5018 Rain 24 1018 69 10000 2.1 40 11:50 08.12.2020
5019 Rain 24 1018 69 10000 1.5 80 10:45 08.12.2020
5020 Clouds 24 1018 69 10000 3.1 50 10:19 08.12.2020
5021 Clouds 25 1019 61 10000 2.6 70 08:28 08.12.2020
5022 Clouds 25 1017 61 10000 6.2 60 06:36 08.12.2020
5023 Rain 26 1016 54 10000 6.2 50 03:29 08.12.2020
5024 Clouds 28 1017 45 10000 6.2 40 00:46 08.12.2020
5025 Clouds 27 1018 48 10000 5.7 50 23:51 07.12.2020
5026 Clouds 27 1019 48 10000 6.2 60 22:38 07.12.2020
5027 Clouds 27 1020 51 10000 4.1 10 21:51 07.12.2020
5028 Clouds 25 1018 69 10000 2.1 60 19:52 07.12.2020
5029 Clouds 23 1018 78 10000 1.5 0 18:40 07.12.2020
5030 Rain 23 1017 78 10000 4.23 69 17:26 07.12.2020
5031 Rain 23 1018 78 10000 3.6 320 16:53 07.12.2020
5032 Rain 23 1018 78 10000 1.5 50 15:26 07.12.2020
5033 Rain 23 1018 78 10000 2.83 41 14:46 07.12.2020
5034 Clouds 23 1018 78 10000 2.1 310 13:45 07.12.2020
5035 Clouds 23 1019 78 10000 1.5 330 12:38 07.12.2020
5036 Clouds 23 1019 73 10000 2.1 10 11:43 07.12.2020
5037 Clouds 23 1019 73 10000 1.5 330 10:56 07.12.2020
5038 Clouds 23 1019 73 10000 1.95 37 09:40 07.12.2020
5039 Clouds 25 1018 65 10000 1.5 20 07:58 07.12.2020
5040 Rain 25 1017 65 10000 3.1 90 05:43 07.12.2020
5041 Rain 26 1016 58 10000 3.1 100 04:46 07.12.2020
5042 Clouds 26 1016 58 10000 5.7 220 01:48 07.12.2020
5043 Clouds 29 1018 58 10000 4.6 210 23:32 06.12.2020
5044 Clouds 27 1019 61 10000 3.1 310 22:19 06.12.2020
5045 Clouds 26 1019 69 10000 1.5 320 20:52 06.12.2020
5046 Clouds 26 1019 69 10000 1.5 320 20:34 06.12.2020
5047 Clouds 23 1019 83 10000 2.6 320 19:43 06.12.2020
5048 Clear 21 1018 83 10000 1.5 330 17:54 06.12.2020
5049 Clouds 22 1018 83 10000 1.5 340 16:42 06.12.2020
5050 Clouds 22 1018 78 10000 1.5 310 14:50 06.12.2020
5051 Clouds 22 1019 78 10000 1.5 320 13:31 06.12.2020
5052 Clouds 23 1019 78 10000 1.5 320 12:36 06.12.2020
5053 Clouds 23 1019 78 10000 1.5 320 11:54 06.12.2020
5054 Clouds 23 1019 78 10000 1.5 320 11:28 06.12.2020
5055 Clouds 23 1019 78 10000 1.5 320 10:39 06.12.2020
5056 Clouds 23 1019 73 10000 0.71 140 09:38 06.12.2020
5057 Clouds 24 1018 69 10000 2.6 90 07:52 06.12.2020
5058 Rain 26 1016 54 10000 4.6 60 05:18 06.12.2020
5059 Clouds 28 1017 48 10000 5.7 70 00:46 06.12.2020
5060 Clouds 28 1017 48 10000 5.7 70 00:27 06.12.2020
5061 Clouds 28 1018 51 10000 3.1 360 23:57 05.12.2020
5062 Clouds 28 1019 54 10000 2.6 160 22:25 05.12.2020
5063 Clouds 27 1020 58 10000 1.5 320 21:55 05.12.2020
5064 Clouds 27 1020 58 10000 1.5 320 21:30 05.12.2020
5065 Clouds 25 1019 73 10000 2.1 330 19:54 05.12.2020
5066 Clouds 24 1019 73 10000 2.6 70 18:46 05.12.2020
5067 Clouds 23 1018 73 10000 3.1 70 17:55 05.12.2020
5068 Clouds 23 1018 73 10000 2.6 80 16:45 05.12.2020
5069 Clouds 23 1018 73 10000 2.6 80 16:26 05.12.2020
5070 Clouds 23 1018 69 10000 3.6 80 14:52 05.12.2020
5071 Clouds 24 1019 65 10000 5.7 60 13:25 05.12.2020
5072 Clouds 25 1020 61 10000 4.6 60 11:50 05.12.2020
5073 Clouds 25 1020 61 10000 6.2 60 10:35 05.12.2020
5074 Clouds 25 1019 65 10000 3.6 80 08:54 05.12.2020
5075 Clouds 25 1019 65 10000 5.1 70 07:48 05.12.2020
5076 Clouds 25 1017 61 10000 6.7 50 05:34 05.12.2020
5077 Clouds 27 1018 54 10000 8.7 60 00:40 05.12.2020
5078 Clouds 27 1019 58 10000 8.2 60 23:23 04.12.2020
5079 Clouds 26 1019 61 10000 9.3 60 21:34 04.12.2020
5080 Clouds 24 1018 69 10000 2.6 20 19:21 04.12.2020
5081 Clouds 23 1018 69 10000 2.6 20 18:39 04.12.2020
5082 Rain 23 1017 69 10000 3.1 40 17:47 04.12.2020
5083 Clouds 23 1017 69 10000 2.6 30 16:32 04.12.2020
5084 Clouds 23 1018 78 10000 3.6 10 15:23 04.12.2020
5085 Clouds 23 1018 78 10000 2.6 330 13:36 04.12.2020
5086 Clouds 23 1019 78 10000 2.6 340 13:18 04.12.2020
5087 Clouds 23 1019 78 10000 2.1 330 12:20 04.12.2020
5088 Clouds 23 1019 78 10000 3.6 320 10:37 04.12.2020
5089 Clouds 23 1019 69 10000 3.1 330 09:24 04.12.2020
5090 Clouds 24 1018 61 10000 2.6 0 06:40 04.12.2020
5091 Clouds 26 1018 61 10000 2.6 210 04:53 04.12.2020
5092 Clouds 28 1017 54 10000 5.1 200 01:53 04.12.2020
5093 Clouds 27 1019 54 10000 3.6 200 22:49 03.12.2020
5094 Clouds 25 1019 65 10000 3.1 330 21:23 03.12.2020
5095 Clouds 25 1019 65 10000 3.1 330 20:46 03.12.2020
5096 Clouds 20 1018 83 10000 1.5 350 19:23 03.12.2020
5097 Clouds 20 1018 83 10000 1.5 350 18:41 03.12.2020
5098 Clouds 20 1017 83 10000 2.6 340 17:21 03.12.2020
5099 Clouds 20 1017 83 10000 2.1 340 15:59 03.12.2020
5100 Clouds 20 1017 83 10000 2.1 340 15:32 03.12.2020
5101 Clouds 20 1017 83 10000 3.45 38 14:49 03.12.2020
5102 Clouds 20 1017 83 10000 2.6 320 13:55 03.12.2020
5103 Clouds 21 1017 78 10000 2.1 320 12:44 03.12.2020
5104 Clouds 22 1018 73 10000 2.1 330 12:22 03.12.2020
5105 Clouds 23 1018 73 10000 2.1 350 10:54 03.12.2020
5106 Clouds 24 1018 69 10000 2.6 90 08:41 03.12.2020
5107 Clouds 25 1015 57 10000 5.1 150 03:57 03.12.2020
5108 Clouds 26 1015 54 10000 5.1 160 01:54 03.12.2020
5109 Clouds 27 1017 48 10000 4.6 160 00:19 03.12.2020
5110 Clouds 27 1018 48 10000 4.6 140 22:46 02.12.2020
5111 Clouds 26 1018 54 10000 2.6 0 21:46 02.12.2020
5112 Clouds 24 1018 69 10000 2.1 320 20:50 02.12.2020
5113 Clouds 24 1018 69 10000 2.1 320 20:32 02.12.2020
5114 Clouds 22 1018 83 10000 1.5 340 19:40 02.12.2020
5115 Clear 20 1017 82 10000 3.56 55 17:50 02.12.2020
5116 Clear 20 1016 82 10000 2.1 360 17:31 02.12.2020
5117 Clear 20 1016 88 10000 3.56 55 15:46 02.12.2020
5118 Clouds 21 1017 77 10000 2.6 350 13:41 02.12.2020
5119 Clouds 21 1017 77 10000 3.1 320 11:33 02.12.2020
5120 Clouds 21 1017 73 10000 1.5 330 10:25 02.12.2020
5121 Clouds 22 1017 69 10000 2.1 50 07:46 02.12.2020
5122 Clouds 27 1016 57 10000 4.6 160 23:30 01.12.2020
5123 Clear 26 1017 54 10000 1.82 70 22:20 01.12.2020
5124 Clear 21 1016 93 10000 1.98 49 19:36 01.12.2020
5125 Clear 21 1016 93 10000 1.98 49 19:36 01.12.2020
5126 Clear 20 1017 82 10000 2.23 26 18:56 01.12.2020
5127 Clear 19 1016 88 10000 2.1 330 16:47 01.12.2020
5128 Clear 20 1016 82 10000 1.5 360 14:53 01.12.2020
5129 Clouds 21 1017 83 10000 2.1 330 12:48 01.12.2020
5130 Clouds 21 1018 83 10000 2.1 310 11:40 01.12.2020
5131 Clouds 22 1018 78 10000 2.1 320 10:53 01.12.2020
5132 Clouds 22 1018 78 10000 2.1 320 10:26 01.12.2020
5133 Clouds 23 1017 69 10000 2.1 10 07:46 01.12.2020
5134 Clouds 23 1015 65 10000 3.1 340 05:58 01.12.2020
5135 Clouds 26 1015 51 10000 5.7 150 00:57 01.12.2020
5136 Clouds 26 1015 51 10000 5.7 150 00:29 01.12.2020
5137 Clouds 26 1016 54 10000 3.6 80 23:20 30.11.2020
5138 Clouds 26 1016 54 10000 3.6 80 22:40 30.11.2020
5139 Clouds 26 1016 54 10000 3.6 80 22:22 30.11.2020
5140 Clouds 24 1016 78 10000 2.1 350 19:46 30.11.2020
5141 Clouds 22 1016 83 10000 2.1 360 18:54 30.11.2020
5142 Clouds 22 1015 78 10000 2.6 50 18:21 30.11.2020
5143 Clouds 22 1015 78 10000 2.6 50 17:45 30.11.2020
5144 Clouds 22 1015 78 10000 5.43 64 16:52 30.11.2020
5145 Clouds 21 1016 78 10000 3.6 60 14:47 30.11.2020
5146 Rain 21 1016 73 10000 4.1 70 13:55 30.11.2020
5147 Rain 21 1017 73 10000 2.6 360 12:57 30.11.2020
5148 Rain 22 1017 73 10000 2.6 360 12:25 30.11.2020
5149 Rain 22 1017 73 10000 3.6 50 10:32 30.11.2020
5150 Rain 23 1017 73 10000 3.6 50 09:53 30.11.2020
5151 Clouds 22 1016 64 10000 2.1 20 07:58 30.11.2020
5152 Rain 25 1016 54 10000 6.7 40 01:21 30.11.2020
5153 Rain 25 1018 57 10000 4.1 40 22:22 29.11.2020
5154 Rain 25 1019 61 10000 4.6 40 21:44 29.11.2020
5155 Rain 25 1019 61 10000 4.6 40 21:25 29.11.2020
5156 Rain 22 1018 78 10000 1.5 330 18:31 29.11.2020
5157 Rain 21 1017 78 10000 2.1 340 16:59 29.11.2020
5158 Clouds 22 1017 78 10000 3.1 350 13:35 29.11.2020
5159 Rain 22 1017 69 10000 4.1 310 12:34 29.11.2020
5160 Rain 22 1017 69 10000 2.6 30 11:22 29.11.2020
5161 Clouds 23 1018 64 10000 2.6 20 08:52 29.11.2020
5162 Clouds 23 1018 64 10000 2.6 20 08:34 29.11.2020
5163 Clouds 26 1016 42 10000 7.2 40 01:43 29.11.2020
5164 Clouds 26 1017 44 10000 6.2 10 22:57 28.11.2020
5165 Clouds 25 1017 54 10000 3.1 30 20:56 28.11.2020
5166 Clouds 24 1017 60 10000 3.6 360 19:53 28.11.2020
5167 Clouds 24 1017 60 10000 3.6 360 19:25 28.11.2020
5168 Clouds 23 1017 68 10000 2.6 20 18:52 28.11.2020
5169 Clouds 22 1017 68 10000 3.1 360 17:48 28.11.2020
5170 Clear 22 1017 68 10000 2.6 0 16:45 28.11.2020
5171 Clouds 22 1017 69 10000 3.1 20 14:57 28.11.2020
5172 Rain 22 1018 69 10000 3.1 30 13:27 28.11.2020
5173 Clouds 24 1019 64 10000 4.1 40 10:57 28.11.2020
5174 Clouds 24 1018 60 10000 5.1 40 06:42 28.11.2020
5175 Rain 24 1016 65 10000 3.6 40 03:33 28.11.2020
5176 Rain 27 1017 54 10000 6.2 30 01:50 28.11.2020
5177 Clouds 27 1018 51 10000 8.7 50 23:18 27.11.2020
5178 Clouds 26 1019 51 10000 5.1 40 21:33 27.11.2020
5179 Clouds 25 1019 54 10000 3.1 40 20:36 27.11.2020
5180 Clouds 24 1018 61 10000 2.6 0 19:30 27.11.2020
5181 Clouds 23 1018 64 10000 2.6 40 18:44 27.11.2020
5182 Clouds 23 1018 69 10000 5.1 50 14:56 27.11.2020
5183 Rain 22 1019 73 10000 5.7 50 13:29 27.11.2020
5184 Rain 22 1019 73 10000 3.1 40 12:48 27.11.2020
5185 Rain 23 1019 69 10000 6.2 40 11:49 27.11.2020
5186 Rain 23 1019 69 10000 5.7 40 10:51 27.11.2020
5187 Rain 24 1019 61 10000 5.7 50 10:19 27.11.2020
5188 Clear 24 1016 77 10000 8.06 56 07:29 27.11.2020
5189 Clear 24 1016 81 10000 9.06 68 22:28 26.11.2020
5190 Clouds 25 1020 73 10000 4.1 70 21:56 26.11.2020
5191 Clouds 26 1019 58 10000 3.6 50 20:59 26.11.2020
5192 Clouds 24 1018 73 10000 2.1 330 18:59 26.11.2020
5193 Clouds 23 1018 73 10000 8.17 61 17:52 26.11.2020
5194 Clouds 23 1017 69 10000 1.5 330 14:57 26.11.2020
5195 Clouds 23 1018 65 10000 4.6 60 13:42 26.11.2020
5196 Clouds 24 1018 61 10000 7.7 60 12:42 26.11.2020
5197 Clouds 25 1019 61 10000 6.2 60 11:44 26.11.2020
5198 Clouds 25 1019 61 10000 5.7 50 10:35 26.11.2020
5199 Clouds 25 1019 61 10000 5.7 60 09:46 26.11.2020
5200 Rain 25 1019 61 10000 8.2 60 09:27 26.11.2020
5201 Rain 25 1019 61 10000 8.2 60 08:38 26.11.2020
5202 Clouds 26 1017 61 10000 6.7 60 04:42 26.11.2020
5203 Clouds 27 1019 58 10000 6.7 70 22:42 25.11.2020
5204 Clouds 26 1018 65 10000 5.7 60 20:42 25.11.2020
5205 Clouds 25 1017 65 10000 6.2 60 19:44 25.11.2020
5206 Rain 24 1017 73 10000 5.1 60 18:27 25.11.2020
5207 Clouds 24 1016 73 10000 6.7 50 16:34 25.11.2020
5208 Clouds 24 1017 73 10000 2.6 60 15:36 25.11.2020
5209 Clouds 24 1017 69 10000 4.1 40 13:56 25.11.2020
5210 Clouds 24 1017 69 10000 4.1 40 13:37 25.11.2020
5211 Rain 24 1018 78 10000 4.6 60 11:44 25.11.2020
5212 Thunderstorm 24 1018 73 10000 5.1 50 11:18 25.11.2020
5213 Rain 24 1018 69 10000 5.7 50 09:18 25.11.2020
5214 Clouds 24 1018 69 10000 5.7 50 08:40 25.11.2020
5215 Rain 27 1015 58 10000 8.7 70 03:58 25.11.2020
5216 Clouds 27 1015 54 10000 8.2 70 01:51 25.11.2020
5217 Clouds 27 1017 54 10000 9.3 70 00:22 25.11.2020
5218 Clouds 27 1017 54 10000 9.3 70 00:22 25.11.2020
5219 Clouds 27 1017 54 10000 9.3 70 23:36 24.11.2020
5220 Rain 27 1018 61 10000 7.7 60 22:52 24.11.2020
5221 Clouds 25 1018 65 10000 6.2 70 21:50 24.11.2020
5222 Clouds 26 1018 65 10000 6.2 70 21:27 24.11.2020
5223 Rain 25 1018 73 10000 3.1 50 20:19 24.11.2020
5224 Clouds 23 1016 73 10000 4.1 80 17:54 24.11.2020
5225 Clouds 23 1016 73 10000 4.1 80 17:28 24.11.2020
5226 Rain 23 1016 78 10000 3.6 50 16:38 24.11.2020
5227 Rain 23 1016 78 10000 3.1 60 15:56 24.11.2020
5228 Rain 23 1016 78 10000 2.1 50 15:20 24.11.2020
5229 Clouds 23 1016 78 10000 2.1 50 14:45 24.11.2020
5230 Clouds 23 1017 83 10000 7.62 78 14:21 24.11.2020
5231 Clouds 23 1017 83 10000 1.5 80 12:42 24.11.2020
5232 Rain 24 1018 78 10000 3.6 80 12:21 24.11.2020
5233 Rain 23 1018 78 10000 3.6 80 11:34 24.11.2020
5234 Rain 24 1018 73 10000 5.1 60 10:25 24.11.2020
5235 Clouds 23 1018 73 10000 5.1 60 09:42 24.11.2020
5236 Clouds 24 1018 69 10000 6.7 60 09:21 24.11.2020
5237 Clouds 24 1017 65 10000 7.2 80 06:50 24.11.2020
5238 Rain 25 1015 58 10000 6.7 60 03:59 24.11.2020
5239 Clouds 27 1018 51 10000 7.2 60 22:25 23.11.2020
5240 Rain 26 1019 58 10000 5.7 90 21:33 23.11.2020
5241 Rain 25 1019 65 10000 6.2 60 20:36 23.11.2020
5242 Rain 25 1018 65 10000 4.6 60 20:18 23.11.2020
5243 Rain 24 1018 73 10000 2.1 60 17:58 23.11.2020
5244 Rain 24 1017 69 10000 7.7 70 17:19 23.11.2020
5245 Clouds 24 1017 73 10000 6.2 80 15:44 23.11.2020
5246 Rain 24 1017 69 10000 3.6 70 14:46 23.11.2020
5247 Rain 24 1018 73 10000 4.6 60 12:42 23.11.2020
5248 Clouds 25 1019 73 10000 5.7 60 12:21 23.11.2020
5249 Clouds 25 1019 73 10000 5.7 60 11:43 23.11.2020
5250 Clouds 25 1019 69 10000 7.7 60 10:45 23.11.2020
5251 Clouds 25 1019 65 10000 8.7 60 09:31 23.11.2020
5252 Clouds 24 1019 69 10000 7.2 60 08:37 23.11.2020
5253 Rain 24 1018 65 10000 7.7 70 06:57 23.11.2020
5254 Clouds 26 1018 54 10000 11.3 80 00:21 23.11.2020
5255 Clouds 26 1019 51 10000 8.7 80 22:44 22.11.2020
5256 Clouds 26 1019 57 10000 7.2 70 21:26 22.11.2020
5257 Rain 26 1020 54 10000 5.7 60 20:43 22.11.2020
5258 Clouds 25 1019 57 10000 6.2 60 19:52 22.11.2020
5259 Rain 25 1018 65 10000 6.7 70 18:40 22.11.2020
5260 Clouds 24 1018 69 10000 9.3 60 16:39 22.11.2020
5261 Rain 24 1017 78 10000 8.7 60 15:29 22.11.2020
5262 Clouds 24 1018 69 10000 5.7 60 14:27 22.11.2020
5263 Rain 24 1018 73 10000 4.6 60 12:44 22.11.2020
5264 Clouds 25 1019 65 10000 7.7 60 11:55 22.11.2020
5265 Clouds 24 1019 73 10000 6.2 70 11:20 22.11.2020
5266 Clouds 25 1019 73 10000 6.2 70 10:38 22.11.2020
5267 Clouds 25 1019 65 10000 6.7 60 08:26 22.11.2020
5268 Clouds 27 1016 54 10000 7.7 80 01:47 22.11.2020
5269 Clouds 27 1018 58 10000 8.7 60 22:52 21.11.2020
5270 Rain 26 1019 69 10000 9.3 70 21:32 21.11.2020
5271 Clouds 25 1019 61 10000 6.7 80 20:54 21.11.2020
5272 Rain 25 1019 61 10000 6.7 80 20:28 21.11.2020
5273 Rain 24 1018 73 10000 6.7 70 19:50 21.11.2020
5274 Rain 24 1018 73 10000 6.7 70 19:20 21.11.2020
5275 Rain 24 1017 83 10000 7.7 70 17:54 21.11.2020
5276 Rain 23 1017 88 10000 7.7 60 16:47 21.11.2020
5277 Rain 23 1017 83 10000 7.2 60 15:43 21.11.2020
5278 Rain 23 1017 83 10000 7.2 60 15:21 21.11.2020
5279 Rain 23 1017 83 10000 6.7 60 14:42 21.11.2020
5280 Rain 23 1017 83 10000 5.1 70 12:59 21.11.2020
5281 Rain 23 1018 78 10000 7.2 60 12:23 21.11.2020
5282 Rain 23 1018 78 10000 7.2 60 11:50 21.11.2020
5283 Clouds 25 1018 65 10000 5.7 60 10:28 21.11.2020
5284 Clouds 25 1018 61 10000 5.1 60 09:19 21.11.2020
5285 Clouds 25 1018 61 10000 5.1 60 08:44 21.11.2020
5286 Clouds 25 1017 65 10000 5.7 60 05:42 21.11.2020
5287 Rain 26 1016 54 10000 6.7 40 03:28 21.11.2020
5288 Rain 27 1017 58 10000 8.2 50 00:22 21.11.2020
5289 Rain 27 1018 62 10000 7.7 40 22:59 20.11.2020
5290 Clouds 26 1018 65 10000 5.7 50 21:45 20.11.2020
5291 Rain 25 1018 78 10000 5.7 70 21:22 20.11.2020
5292 Rain 24 1018 83 10000 2.6 40 19:55 20.11.2020
5293 Rain 24 1017 78 10000 8.12 76 18:55 20.11.2020
5294 Rain 23 1017 78 10000 7.29 64 18:27 20.11.2020
5295 Clouds 23 1016 73 10000 2.1 60 17:30 20.11.2020
5296 Clouds 23 1016 78 10000 7.24 59 16:47 20.11.2020
5297 Clouds 23 1016 73 10000 1.5 330 15:59 20.11.2020
5298 Clouds 23 1016 73 10000 1.5 330 15:39 20.11.2020
5299 Clouds 24 1017 69 10000 4.1 70 13:51 20.11.2020
5300 Clouds 24 1017 65 10000 4.1 70 13:19 20.11.2020
5301 Clouds 24 1017 65 10000 4.1 70 12:40 20.11.2020
5302 Clear 25 1017 61 10000 5.1 70 11:48 20.11.2020
5303 Clouds 25 1018 61 10000 5.7 80 11:21 20.11.2020
5304 Clouds 25 1018 61 10000 5.7 70 09:45 20.11.2020
5305 Clouds 25 1018 61 10000 6.2 60 08:27 20.11.2020
5306 Clouds 25 1017 61 10000 7.2 70 07:34 20.11.2020
5307 Clouds 26 1016 54 10000 7.7 70 03:45 20.11.2020
5308 Clouds 28 1017 54 10000 6.7 50 23:31 19.11.2020
5309 Rain 26 1018 69 10000 4.1 40 22:27 19.11.2020
5310 Rain 26 1019 61 10000 6.2 60 21:49 19.11.2020
5311 Clouds 26 1018 54 10000 6.2 70 20:37 19.11.2020
5312 Rain 26 1017 61 10000 2.1 360 20:18 19.11.2020
5313 Rain 25 1017 61 10000 2.1 360 19:25 19.11.2020
5314 Rain 24 1016 65 10000 4.6 60 17:50 19.11.2020
5315 Rain 24 1016 65 10000 4.6 70 16:59 19.11.2020
5316 Rain 24 1016 61 10000 4.1 70 15:59 19.11.2020
5317 Rain 24 1016 61 10000 4.1 70 15:28 19.11.2020
5318 Rain 25 1017 61 10000 4.1 70 13:46 19.11.2020
5319 Rain 25 1017 65 10000 3.6 50 13:24 19.11.2020
5320 Rain 25 1017 65 10000 3.6 50 12:44 19.11.2020
5321 Rain 25 1018 69 10000 4.6 60 12:24 19.11.2020
5322 Rain 25 1018 69 10000 4.6 60 11:39 19.11.2020
5323 Clouds 25 1019 61 10000 4.6 50 10:54 19.11.2020
5324 Clouds 25 1019 61 10000 4.6 50 10:27 19.11.2020
5325 Clouds 25 1019 65 10000 5.7 70 09:44 19.11.2020
5326 Clouds 25 1019 65 10000 5.7 60 09:24 19.11.2020
5327 Clouds 25 1019 65 10000 5.7 60 09:24 19.11.2020
5328 Clouds 25 1018 65 10000 5.7 70 08:19 19.11.2020
5329 Rain 25 1017 61 10000 5.7 60 05:41 19.11.2020
5330 Clouds 27 1016 65 10000 6.7 50 01:45 19.11.2020
5331 Rain 25 1018 83 10000 4.1 80 23:53 18.11.2020
5332 Rain 25 1018 74 10000 4.6 60 23:24 18.11.2020
5333 Rain 26 1018 74 10000 4.6 60 22:36 18.11.2020
5334 Rain 25 1019 83 10000 2.1 30 22:18 18.11.2020
5335 Rain 25 1019 83 10000 2.1 30 21:38 18.11.2020
5336 Rain 24 1018 88 10000 2.1 330 21:19 18.11.2020
5337 Rain 23 1018 88 10000 2.1 340 19:47 18.11.2020
5338 Rain 24 1018 88 10000 2.1 340 19:25 18.11.2020
5339 Rain 23 1017 88 10000 1.5 330 18:49 18.11.2020
5340 Rain 23 1017 88 10000 1.5 340 17:59 18.11.2020
5341 Clouds 23 1017 88 10000 1.5 340 17:35 18.11.2020
5342 Rain 23 1016 83 10000 2.1 320 16:22 18.11.2020
5343 Clouds 24 1016 78 10000 1.5 360 15:21 18.11.2020
5344 Rain 24 1016 78 10000 1.5 360 14:40 18.11.2020
5345 Rain 24 1017 73 10000 2.1 30 13:42 18.11.2020
5346 Clouds 25 1017 69 10000 2.1 30 12:47 18.11.2020
5347 Clouds 25 1017 69 10000 2.6 50 12:18 18.11.2020
5348 Clouds 25 1017 69 10000 2.6 50 11:27 18.11.2020
5349 Clouds 25 1017 69 10000 3.1 50 10:31 18.11.2020
5350 Clouds 25 1018 69 10000 4.6 50 09:41 18.11.2020
5351 Clouds 25 1017 65 10000 3.1 40 07:37 18.11.2020
5352 Clouds 26 1017 61 10000 4.1 60 06:29 18.11.2020
5353 Clouds 29 1016 48 10000 6.2 70 00:22 18.11.2020
5354 Clouds 29 1018 54 10000 5.7 70 23:31 17.11.2020
5355 Clouds 28 1018 54 10000 5.7 70 22:46 17.11.2020
5356 Clouds 28 1018 54 10000 5.7 70 22:27 17.11.2020
5357 Clouds 28 1018 58 10000 4.6 70 21:49 17.11.2020
5358 Clouds 28 1018 58 10000 4.6 70 21:29 17.11.2020
5359 Clouds 27 1018 61 10000 5.1 80 20:44 17.11.2020
5360 Clouds 27 1018 61 10000 5.1 80 20:24 17.11.2020
5361 Clouds 26 1018 65 10000 4.1 60 19:50 17.11.2020
5362 Clouds 24 1017 73 10000 2.6 30 18:23 17.11.2020
5363 Clouds 24 1017 73 10000 2.1 350 17:33 17.11.2020
5364 Clouds 24 1016 73 10000 2.6 80 16:37 17.11.2020
5365 Clouds 24 1016 69 10000 4.1 60 16:18 17.11.2020
5366 Clouds 24 1016 69 10000 4.1 60 15:38 17.11.2020
5367 Clouds 24 1016 65 10000 6.7 70 15:20 17.11.2020
5368 Clouds 25 1016 65 10000 6.7 70 14:30 17.11.2020
5369 Clouds 24 1017 69 10000 3.1 80 13:45 17.11.2020
5370 Clouds 24 1017 65 10000 6.2 60 13:21 17.11.2020
5371 Clouds 25 1017 65 10000 6.2 60 12:42 17.11.2020
5372 Clouds 25 1017 65 10000 7.2 70 11:45 17.11.2020
5373 Clouds 25 1017 65 10000 5.7 50 11:21 17.11.2020
5374 Clouds 25 1017 65 10000 5.7 50 10:39 17.11.2020
5375 Clouds 25 1017 65 10000 2.6 70 09:53 17.11.2020
5376 Clouds 25 1017 65 10000 2.6 70 09:33 17.11.2020
5377 Clouds 25 1017 65 10000 4.6 70 08:25 17.11.2020
5378 Clouds 25 1017 65 10000 3.1 50 07:56 17.11.2020
5379 Clouds 25 1017 65 10000 3.1 50 07:26 17.11.2020
5380 Rain 26 1016 58 10000 5.7 40 04:28 17.11.2020
5381 Rain 27 1015 58 10000 5.7 70 02:59 17.11.2020
5382 Rain 27 1015 51 10000 6.2 30 02:21 17.11.2020
5383 Clouds 28 1016 51 10000 6.2 30 00:56 17.11.2020
5384 Clouds 28 1017 54 10000 4.1 50 23:51 16.11.2020
5385 Clouds 28 1017 54 10000 4.1 50 23:51 16.11.2020
5386 Clouds 28 1017 54 10000 4.1 50 23:29 16.11.2020
5387 Clouds 28 1018 54 10000 5.1 50 22:48 16.11.2020
5388 Clouds 28 1018 58 10000 4.1 60 22:21 16.11.2020
5389 Clouds 27 1018 58 10000 4.1 60 21:48 16.11.2020
5390 Clouds 27 1018 58 10000 4.1 60 21:25 16.11.2020
5391 Clouds 27 1018 61 10000 1.5 30 20:54 16.11.2020
5392 Clouds 27 1018 61 10000 1.5 30 20:25 16.11.2020
5393 Clouds 25 1018 78 10000 4.39 54 19:39 16.11.2020
5394 Clouds 24 1018 78 10000 3.8 47 19:21 16.11.2020
5395 Clouds 23 1017 78 10000 2.1 330 18:41 16.11.2020
5396 Clouds 23 1017 78 10000 1.5 330 17:51 16.11.2020
5397 Clouds 22 1017 78 10000 2.1 340 17:22 16.11.2020
5398 Clouds 22 1017 78 10000 2.1 340 16:54 16.11.2020
5399 Clouds 22 1017 78 10000 2.1 340 16:29 16.11.2020
5400 Clear 22 1017 78 10000 2.1 10 15:57 16.11.2020
5401 Clear 23 1017 78 10000 2.1 10 15:37 16.11.2020
5402 Clouds 23 1017 78 10000 2.6 320 15:19 16.11.2020
5403 Clouds 22 1017 78 10000 2.6 320 14:28 16.11.2020
5404 Clouds 23 1018 78 10000 1.5 0 13:31 16.11.2020
5405 Clouds 23 1018 73 10000 2.1 360 12:33 16.11.2020
5406 Clouds 23 1019 78 10000 2.1 300 11:44 16.11.2020
5407 Clouds 23 1019 73 10000 2.1 350 11:25 16.11.2020
5408 Clouds 23 1019 73 10000 2.1 350 10:48 16.11.2020
5409 Clouds 23 1019 73 10000 2.1 350 10:26 16.11.2020
5410 Clouds 24 1019 69 10000 2.1 0 09:56 16.11.2020
5411 Clouds 24 1019 69 10000 2.1 0 09:37 16.11.2020
5412 Clouds 24 1019 65 10000 2.6 340 08:49 16.11.2020
5413 Clouds 24 1019 65 10000 2.6 340 08:26 16.11.2020
5414 Clouds 24 1018 61 10000 2.1 20 07:43 16.11.2020
5415 Clouds 24 1018 61 10000 2.1 360 06:47 16.11.2020
5416 Clouds 25 1017 57 10000 2.1 360 05:50 16.11.2020
5417 Clouds 26 1016 54 10000 4.1 50 04:33 16.11.2020
5418 Clouds 27 1017 48 10000 2.1 0 01:46 16.11.2020
5419 Clouds 27 1017 48 10000 2.1 0 01:46 16.11.2020
5420 Clouds 28 1018 48 10000 4.6 40 00:53 16.11.2020
5421 Clouds 28 1019 48 10000 3.6 350 23:33 15.11.2020
5422 Clouds 28 1020 51 10000 5.7 60 22:58 15.11.2020
5423 Clouds 28 1020 51 10000 5.7 60 22:27 15.11.2020
5424 Clouds 28 1020 54 10000 3.1 60 22:00 15.11.2020
5425 Clouds 28 1020 54 10000 3.1 60 21:36 15.11.2020
5426 Clouds 28 1019 61 10000 2.23 137 21:18 15.11.2020
5427 Clouds 27 1019 61 10000 2.23 137 20:40 15.11.2020
5428 Clouds 24 1019 73 10000 2.6 330 19:57 15.11.2020
5429 Clouds 24 1019 73 10000 2.6 330 19:57 15.11.2020
5430 Clouds 24 1019 73 10000 2.6 330 19:39 15.11.2020
5431 Clouds 24 1019 73 10000 2.6 330 19:39 15.11.2020
5432 Clouds 23 1018 83 10000 2.1 320 19:20 15.11.2020
5433 Clouds 22 1018 83 10000 2.1 320 18:45 15.11.2020
5434 Clouds 22 1018 83 10000 2.1 320 18:25 15.11.2020
5435 Clouds 22 1018 83 10000 1.5 330 17:58 15.11.2020
5436 Clouds 22 1018 83 10000 1.5 330 17:39 15.11.2020
5437 Clouds 23 1018 78 10000 2.6 350 17:20 15.11.2020
5438 Clouds 23 1018 78 10000 2.6 350 16:41 15.11.2020
5439 Clouds 23 1018 78 10000 2.6 320 16:19 15.11.2020
5440 Clouds 23 1018 78 10000 2.6 320 15:43 15.11.2020
5441 Clouds 23 1018 73 10000 2.1 280 15:24 15.11.2020
5442 Clouds 23 1018 73 10000 2.1 280 14:53 15.11.2020
5443 Rain 23 1018 73 10000 2.1 280 14:26 15.11.2020
5444 Rain 24 1018 73 10000 2.1 20 13:43 15.11.2020
5445 Rain 24 1019 65 10000 3.6 50 13:21 15.11.2020
5446 Clouds 24 1019 65 10000 3.6 50 12:46 15.11.2020
5447 Clouds 24 1019 65 10000 3.6 50 12:46 15.11.2020
5448 Clouds 25 1019 61 10000 4.1 60 12:19 15.11.2020
5449 Clouds 25 1019 61 10000 4.1 60 11:44 15.11.2020
5450 Clouds 25 1020 61 10000 4.6 70 11:18 15.11.2020
5451 Clouds 25 1020 61 10000 4.6 70 10:50 15.11.2020
5452 Clouds 25 1020 61 10000 4.6 70 10:30 15.11.2020
5453 Clouds 25 1020 61 10000 4.6 60 09:46 15.11.2020
5454 Clouds 25 1020 61 10000 4.6 60 09:46 15.11.2020
5455 Clouds 25 1020 61 10000 4.6 60 09:24 15.11.2020
5456 Thunderstorm 25 1020 57 10000 3.1 50 08:54 15.11.2020
5457 Thunderstorm 25 1020 57 10000 3.1 50 08:54 15.11.2020
5458 Thunderstorm 25 1020 57 10000 3.1 50 08:32 15.11.2020
5459 Thunderstorm 25 1020 61 10000 3.6 80 07:44 15.11.2020
5460 Clouds 25 1018 57 10000 4.1 50 05:37 15.11.2020
5461 Clouds 26 1017 51 10000 5.1 40 04:52 15.11.2020
5462 Clouds 27 1018 51 10000 5.1 70 01:37 15.11.2020
5463 Clouds 27 1018 51 10000 5.1 70 01:37 15.11.2020
5464 Clouds 27 1019 51 10000 4.6 80 00:30 15.11.2020
5465 Rain 27 1019 48 10000 6.7 80 23:42 14.11.2020
5466 Rain 27 1020 48 10000 6.2 50 22:54 14.11.2020
5467 Clouds 28 1020 48 10000 6.2 50 22:33 14.11.2020
5468 Clouds 27 1021 51 10000 5.1 80 21:55 14.11.2020
5469 Clouds 27 1021 51 10000 5.1 80 21:36 14.11.2020
5470 Clouds 26 1021 57 10000 5.7 100 21:18 14.11.2020
5471 Clouds 26 1021 57 10000 5.7 100 20:34 14.11.2020
5472 Clouds 26 1020 61 10000 3.6 60 19:58 14.11.2020
5473 Clouds 26 1020 61 10000 3.6 60 19:36 14.11.2020
5474 Clouds 26 1020 61 10000 3.6 60 19:36 14.11.2020
5475 Clouds 24 1019 69 10000 3.6 60 18:55 14.11.2020
5476 Clouds 24 1019 69 10000 3.6 60 18:37 14.11.2020
5477 Clouds 24 1019 73 10000 3.6 50 18:19 14.11.2020
5478 Clouds 24 1019 73 10000 3.6 50 17:42 14.11.2020
5479 Clouds 24 1019 73 10000 3.1 50 17:23 14.11.2020
5480 Clouds 24 1019 73 10000 3.1 50 16:46 14.11.2020
5481 Clouds 24 1019 73 10000 2.1 40 16:26 14.11.2020
5482 Clouds 24 1019 73 10000 2.1 40 15:53 14.11.2020
5483 Clouds 24 1019 73 10000 2.1 40 15:30 14.11.2020
5484 Clouds 24 1019 69 10000 2.6 60 14:50 14.11.2020
5485 Clouds 24 1020 69 10000 2.1 50 14:26 14.11.2020
5486 Clouds 24 1020 69 10000 2.1 50 13:49 14.11.2020
5487 Clouds 24 1020 69 10000 2.1 50 13:27 14.11.2020
5488 Clouds 24 1020 65 10000 4.1 50 12:48 14.11.2020
5489 Clouds 24 1020 65 10000 4.1 50 12:48 14.11.2020
5490 Clouds 24 1020 65 10000 4.1 50 12:30 14.11.2020
5491 Clouds 24 1020 65 10000 5.1 50 11:46 14.11.2020
5492 Clouds 25 1020 65 10000 5.1 50 11:25 14.11.2020
5493 Clouds 25 1021 65 10000 6.2 60 10:49 14.11.2020
5494 Clouds 24 1021 65 10000 6.2 60 10:26 14.11.2020
5495 Clouds 25 1020 65 10000 3.1 70 09:51 14.11.2020
5496 Clouds 25 1020 65 10000 3.1 70 09:29 14.11.2020
5497 Clouds 25 1020 69 10000 4.6 40 08:59 14.11.2020
5498 Clouds 25 1020 69 10000 4.6 40 08:38 14.11.2020
5499 Clouds 25 1020 65 10000 4.1 40 07:51 14.11.2020
5500 Clouds 25 1020 65 10000 4.1 40 07:28 14.11.2020
5501 Clouds 25 1020 65 10000 5.1 60 06:35 14.11.2020
5502 Clouds 25 1019 61 10000 6.7 60 05:37 14.11.2020
5503 Rain 26 1018 51 10000 8.2 60 04:20 14.11.2020
5504 Clouds 27 1020 45 10000 8.7 70 01:20 14.11.2020
5505 Clouds 28 1020 48 10000 8.2 50 23:47 13.11.2020
5506 Clouds 28 1020 48 10000 8.2 50 23:47 13.11.2020
5507 Clouds 27 1021 48 10000 6.7 60 23:25 13.11.2020
5508 Clouds 28 1021 48 10000 6.7 60 22:55 13.11.2020
5509 Clouds 28 1021 48 10000 6.7 60 22:28 13.11.2020
5510 Clouds 27 1021 51 10000 7.2 60 21:56 13.11.2020
5511 Clouds 27 1021 51 10000 7.2 60 21:37 13.11.2020
5512 Clouds 26 1021 61 10000 6.2 80 21:19 13.11.2020
5513 Clouds 26 1021 61 10000 6.2 80 20:42 13.11.2020
5514 Clouds 26 1020 61 10000 4.1 50 20:22 13.11.2020
5515 Clouds 26 1020 61 10000 4.1 50 20:22 13.11.2020
5516 Clouds 25 1020 61 10000 4.1 50 19:46 13.11.2020
5517 Rain 24 1020 73 10000 3.1 60 19:23 13.11.2020
5518 Rain 24 1020 73 10000 3.1 60 18:56 13.11.2020
5519 Clouds 24 1019 73 10000 6.2 60 18:21 13.11.2020
5520 Clouds 24 1019 73 10000 6.2 60 17:41 13.11.2020
5521 Rain 23 1019 73 10000 5.7 60 17:18 13.11.2020
5522 Rain 23 1019 73 10000 5.7 60 16:48 13.11.2020
5523 Rain 23 1019 73 10000 5.7 60 16:23 13.11.2020
5524 Rain 23 1019 73 10000 3.6 70 15:47 13.11.2020
5525 Rain 23 1019 73 10000 3.6 70 15:27 13.11.2020
5526 Clouds 24 1019 73 10000 5.1 60 14:45 13.11.2020
5527 Rain 23 1020 73 10000 6.7 50 14:22 13.11.2020
5528 Rain 24 1020 73 10000 6.7 50 13:47 13.11.2020
5529 Rain 23 1020 73 10000 6.7 50 13:21 13.11.2020
5530 Clouds 24 1020 73 10000 5.7 50 12:46 13.11.2020
5531 Rain 23 1020 73 10000 5.7 50 12:24 13.11.2020
5532 Clouds 24 1021 69 10000 4.6 60 11:48 13.11.2020
5533 Clouds 24 1021 69 10000 3.6 60 11:25 13.11.2020
5534 Clouds 24 1021 69 10000 3.6 60 10:55 13.11.2020
5535 Clouds 24 1021 69 10000 3.6 60 10:34 13.11.2020
5536 Rain 24 1021 61 10000 7.7 70 09:56 13.11.2020
5537 Clouds 25 1021 61 10000 7.7 70 09:34 13.11.2020
5538 Clouds 24 1021 61 10000 6.7 60 08:57 13.11.2020
5539 Clouds 25 1021 61 10000 6.7 60 08:33 13.11.2020
5540 Clouds 25 1020 61 10000 7.2 70 07:55 13.11.2020
5541 Clouds 25 1020 61 10000 7.2 70 07:37 13.11.2020
5542 Clouds 25 1020 61 10000 8.2 80 07:18 13.11.2020
5543 Clouds 25 1020 61 10000 8.2 80 06:42 13.11.2020
5544 Clouds 25 1019 54 10000 7.7 40 05:42 13.11.2020
5545 Rain 26 1019 54 10000 8.7 60 04:39 13.11.2020
5546 Clouds 27 1019 45 10000 6.7 50 01:43 13.11.2020
5547 Clouds 27 1020 48 10000 7.2 60 00:37 13.11.2020
5548 Clouds 27 1021 48 10000 9.8 60 23:59 12.11.2020
5549 Clouds 27 1021 48 10000 9.8 60 23:37 12.11.2020
5550 Clouds 27 1021 51 10000 8.7 60 23:18 12.11.2020
5551 Clouds 28 1021 51 10000 8.7 60 22:41 12.11.2020
5552 Clouds 27 1022 54 10000 8.7 60 22:20 12.11.2020
5553 Clouds 27 1022 54 10000 8.7 60 21:41 12.11.2020
5554 Clouds 27 1022 54 10000 8.7 60 21:23 12.11.2020
5555 Clouds 26 1022 57 10000 6.7 60 20:45 12.11.2020
5556 Clouds 26 1022 57 10000 6.7 60 20:25 12.11.2020
5557 Clouds 26 1022 61 10000 7.2 60 19:58 12.11.2020
5558 Clouds 25 1022 61 10000 7.2 60 19:40 12.11.2020
5559 Clouds 25 1021 61 10000 7.2 70 19:21 12.11.2020
5560 Rain 24 1021 61 10000 7.2 70 18:48 12.11.2020
5561 Rain 24 1020 61 10000 5.7 50 18:20 12.11.2020
5562 Clouds 24 1020 61 10000 5.7 50 17:43 12.11.2020
5563 Clouds 24 1020 61 10000 5.7 50 17:25 12.11.2020
5564 Clouds 25 1020 57 10000 7.2 70 16:46 12.11.2020
5565 Clouds 25 1020 57 10000 7.2 70 16:24 12.11.2020
5566 Clouds 24 1020 65 10000 7.2 50 15:54 12.11.2020
5567 Clouds 24 1020 65 10000 7.2 50 15:30 12.11.2020
5568 Clear 25 1020 65 10000 4.6 70 14:56 12.11.2020
5569 Clear 24 1020 65 10000 4.6 70 14:38 12.11.2020
5570 Clouds 25 1021 57 10000 5.1 70 14:19 12.11.2020
5571 Clouds 25 1021 57 10000 5.1 70 13:45 12.11.2020
5572 Clouds 24 1021 65 10000 7.2 60 13:20 12.11.2020
5573 Clouds 24 1021 65 10000 7.2 60 12:49 12.11.2020
5574 Clouds 25 1021 65 10000 7.2 60 12:25 12.11.2020
5575 Rain 25 1021 65 10000 6.7 60 11:57 12.11.2020
5576 Rain 25 1021 65 10000 6.7 60 11:39 12.11.2020
5577 Rain 25 1021 65 10000 6.7 80 10:54 12.11.2020
5578 Rain 25 1021 65 10000 6.7 80 10:35 12.11.2020
5579 Rain 24 1021 73 10000 8.7 80 09:56 12.11.2020
5580 Rain 25 1021 73 10000 8.7 80 09:28 12.11.2020
5581 Rain 25 1021 78 10000 7.2 60 08:59 12.11.2020
5582 Rain 25 1021 78 10000 7.2 60 08:40 12.11.2020
5583 Rain 25 1021 78 10000 7.7 80 08:20 12.11.2020
5584 Rain 24 1021 78 10000 7.7 80 07:54 12.11.2020
5585 Rain 24 1021 78 10000 7.7 80 07:31 12.11.2020
5586 Rain 25 1020 65 10000 7.2 60 06:52 12.11.2020
5587 Rain 25 1020 65 10000 7.2 60 06:25 12.11.2020
5588 Clouds 27 1019 51 10000 11.3 70 03:45 12.11.2020
5589 Clouds 27 1019 48 10000 9.3 60 03:19 12.11.2020
5590 Clouds 28 1019 51 10000 9.8 70 00:32 12.11.2020
5591 Clouds 27 1020 54 10000 8.7 50 23:44 11.11.2020
5592 Clouds 27 1020 54 10000 8.7 50 23:24 11.11.2020
5593 Clouds 27 1020 54 10000 8.7 50 23:24 11.11.2020
5594 Rain 26 1021 61 10000 7.7 40 22:47 11.11.2020
5595 Rain 25 1022 61 10000 9.3 90 22:22 11.11.2020
5596 Rain 25 1022 61 10000 9.3 90 21:57 11.11.2020
5597 Rain 25 1022 61 10000 9.3 90 21:38 11.11.2020
5598 Rain 25 1022 65 10000 4.1 60 21:19 11.11.2020
5599 Clouds 25 1022 65 10000 4.1 60 20:42 11.11.2020
5600 Rain 25 1021 61 10000 8.7 70 20:22 11.11.2020
5601 Rain 24 1021 61 10000 8.7 70 19:55 11.11.2020
5602 Rain 25 1021 61 10000 8.7 70 19:37 11.11.2020
5603 Clouds 25 1021 57 10000 2.6 40 19:18 11.11.2020
5604 Clouds 26 1021 57 10000 2.6 40 18:41 11.11.2020
5605 Rain 25 1020 61 10000 6.2 70 18:21 11.11.2020
5606 Clouds 25 1020 61 10000 6.2 70 17:37 11.11.2020
5607 Clouds 25 1020 61 10000 6.2 50 17:19 11.11.2020
5608 Clouds 25 1020 61 10000 6.2 50 16:39 11.11.2020
5609 Clouds 25 1020 61 10000 6.2 50 16:39 11.11.2020
5610 Clouds 24 1020 61 10000 7.7 60 16:21 11.11.2020
5611 Rain 24 1020 61 10000 7.7 60 15:41 11.11.2020
5612 Clouds 26 1020 61 10000 6.7 40 15:23 11.11.2020
5613 Clouds 25 1020 61 10000 6.7 40 14:47 11.11.2020
5614 Clouds 25 1020 61 10000 6.7 40 14:28 11.11.2020
5615 Clouds 25 1020 61 10000 9.8 60 13:49 11.11.2020
5616 Clouds 25 1020 61 10000 9.8 60 13:49 11.11.2020
5617 Clouds 25 1021 61 10000 9.3 70 13:24 11.11.2020
5618 Clouds 25 1021 61 10000 9.3 60 12:22 11.11.2020
5619 Clouds 25 1021 61 10000 9.3 60 11:52 11.11.2020
5620 Clouds 25 1021 61 10000 9.3 60 11:34 11.11.2020
5621 Clouds 25 1021 61 10000 6.2 50 10:56 11.11.2020
5622 Clouds 25 1021 61 10000 6.2 50 10:37 11.11.2020
5623 Clouds 25 1021 65 10000 8.7 50 10:18 11.11.2020
5624 Clouds 25 1021 65 10000 8.7 50 09:42 11.11.2020
5625 Clouds 25 1021 65 10000 8.7 50 09:21 11.11.2020
5626 Rain 25 1021 69 10000 6.2 70 08:44 11.11.2020
5627 Rain 25 1021 69 10000 6.2 70 08:25 11.11.2020
5628 Clouds 25 1021 65 10000 5.7 60 07:47 11.11.2020
5629 Rain 25 1020 61 10000 8.7 60 06:33 11.11.2020
5630 Clouds 25 1019 61 10000 5.7 60 05:46 11.11.2020
5631 Clouds 28 1018 48 10000 9.3 60 01:59 11.11.2020
5632 Clouds 28 1019 45 10000 8.7 70 00:58 11.11.2020
5633 Clouds 29 1019 45 10000 8.7 70 00:25 11.11.2020
5634 Clouds 28 1019 51 10000 8.2 50 23:40 10.11.2020
5635 Clouds 28 1020 51 10000 8.7 50 23:22 10.11.2020
5636 Clouds 28 1020 51 10000 8.7 50 22:50 10.11.2020
5637 Clouds 28 1020 51 10000 8.7 50 22:26 10.11.2020
5638 Clouds 28 1020 51 10000 8.7 50 22:26 10.11.2020
5639 Clouds 28 1021 54 10000 8.2 70 21:42 10.11.2020
5640 Rain 27 1020 58 10000 7.2 70 21:23 10.11.2020
5641 Rain 27 1020 58 10000 7.2 70 20:58 10.11.2020
5642 Rain 27 1020 58 10000 7.2 70 20:39 10.11.2020
5643 Clouds 27 1020 61 10000 6.2 50 20:21 10.11.2020
5644 Clouds 26 1020 61 10000 6.2 50 19:44 10.11.2020
5645 Clouds 26 1020 61 10000 6.2 50 19:24 10.11.2020
5646 Clouds 25 1019 65 10000 6.2 60 18:56 10.11.2020
5647 Clouds 25 1019 65 10000 6.2 60 18:37 10.11.2020
5648 Clouds 25 1019 65 10000 5.7 80 18:18 10.11.2020
5649 Clouds 25 1019 65 10000 5.7 80 17:41 10.11.2020
5650 Clouds 24 1019 65 10000 6.7 80 17:23 10.11.2020
5651 Clouds 24 1019 65 10000 6.7 80 16:42 10.11.2020
5652 Clouds 24 1018 69 10000 9.18 76 16:22 10.11.2020
5653 Clouds 24 1018 69 10000 9.18 76 15:55 10.11.2020
5654 Clouds 24 1018 69 10000 9.18 76 15:36 10.11.2020
5655 Clear 24 1018 69 10000 3.1 60 15:18 10.11.2020
5656 Clear 25 1018 69 10000 3.1 60 14:39 10.11.2020
5657 Clear 25 1018 65 10000 6.2 60 14:18 10.11.2020
5658 Clear 25 1018 65 10000 6.2 60 13:39 10.11.2020
5659 Clouds 25 1019 61 10000 4.6 70 13:20 10.11.2020
5660 Clouds 25 1019 61 10000 4.6 70 12:48 10.11.2020
5661 Clouds 25 1019 61 10000 4.6 70 12:29 10.11.2020
5662 Clouds 25 1019 61 10000 4.1 50 11:43 10.11.2020
5663 Clouds 25 1019 65 10000 5.7 30 11:22 10.11.2020
5664 Clouds 25 1019 65 10000 5.7 30 10:58 10.11.2020
5665 Clouds 25 1019 65 10000 5.7 30 10:39 10.11.2020
5666 Rain 25 1019 65 10000 5.7 60 10:21 10.11.2020
5667 Rain 25 1019 65 10000 5.7 60 09:46 10.11.2020
5668 Rain 25 1019 65 10000 5.7 60 09:25 10.11.2020
5669 Rain 25 1019 65 10000 2.6 90 08:55 10.11.2020
5670 Rain 25 1019 65 10000 2.6 90 08:27 10.11.2020
5671 Rain 25 1018 69 10000 4.6 60 07:44 10.11.2020
5672 Rain 25 1018 69 10000 4.6 60 07:24 10.11.2020
5673 Clouds 26 1017 65 10000 4.6 60 06:41 10.11.2020
5674 Clouds 26 1017 65 10000 4.6 50 05:43 10.11.2020
5675 Clouds 26 1016 65 10000 5.1 60 04:59 10.11.2020
5676 Clouds 27 1015 58 10000 5.7 70 02:36 10.11.2020
5677 Rain 27 1015 65 10000 7.2 70 01:30 10.11.2020
5678 Rain 26 1016 74 10000 4.6 80 23:55 09.11.2020
5679 Rain 26 1016 74 10000 4.6 80 23:33 09.11.2020
5680 Rain 27 1017 65 10000 4.1 60 22:48 09.11.2020
5681 Rain 27 1017 69 10000 5.7 50 22:25 09.11.2020
5682 Rain 27 1017 69 10000 5.7 50 21:54 09.11.2020
5683 Rain 26 1017 69 10000 5.7 50 21:36 09.11.2020
5684 Rain 27 1017 65 10000 4.1 70 21:18 09.11.2020
5685 Rain 27 1017 65 10000 4.1 70 20:37 09.11.2020
5686 Rain 26 1016 65 10000 3.6 70 20:18 09.11.2020
5687 Rain 26 1016 65 10000 3.6 70 19:41 09.11.2020
5688 Rain 26 1015 69 10000 3.1 60 19:21 09.11.2020
5689 Rain 25 1015 69 10000 3.1 60 18:41 09.11.2020
5690 Clouds 25 1015 65 10000 4.6 90 18:20 09.11.2020
5691 Clouds 25 1015 65 10000 4.6 90 17:50 09.11.2020
5692 Clouds 25 1015 65 10000 4.6 90 17:30 09.11.2020
5693 Clouds 24 1015 73 10000 3.1 70 16:46 09.11.2020
5694 Clouds 25 1015 69 10000 4.1 70 16:27 09.11.2020
5695 Clouds 25 1015 69 10000 4.1 70 15:51 09.11.2020
5696 Clouds 25 1015 69 10000 4.1 70 15:30 09.11.2020
5697 Clouds 25 1015 65 10000 4.6 80 14:57 09.11.2020
5698 Clouds 25 1015 65 10000 4.6 80 14:37 09.11.2020
5699 Clouds 25 1015 69 10000 3.6 70 14:19 09.11.2020
5700 Clouds 25 1015 69 10000 3.6 70 13:43 09.11.2020
5701 Clouds 25 1016 78 10000 2.6 50 13:19 09.11.2020
5702 Clouds 25 1016 78 10000 2.6 50 13:19 09.11.2020
5703 Clouds 25 1016 78 10000 2.6 50 12:46 09.11.2020
5704 Clouds 25 1016 78 10000 2.1 50 12:21 09.11.2020
5705 Clouds 24 1016 78 10000 2.1 50 11:43 09.11.2020
5706 Clouds 24 1016 78 10000 2.1 50 11:43 09.11.2020
5707 Clouds 25 1016 78 10000 2.1 50 11:25 09.11.2020
5708 Clouds 25 1016 73 10000 6.2 40 10:59 09.11.2020
5709 Clouds 25 1016 73 10000 6.2 40 10:41 09.11.2020
5710 Clouds 25 1016 73 10000 6.2 40 10:22 09.11.2020
5711 Clouds 24 1017 69 10000 5.1 70 09:31 09.11.2020
5712 Clouds 25 1017 65 10000 6.2 50 08:57 09.11.2020
5713 Clouds 25 1017 65 10000 6.2 50 08:28 09.11.2020
5714 Clouds 26 1016 61 10000 4.6 80 07:57 09.11.2020
5715 Clouds 26 1016 57 10000 4.6 70 07:24 09.11.2020
5716 Clouds 26 1016 57 10000 4.6 70 06:55 09.11.2020
5717 Clouds 25 1015 57 10000 5.7 60 05:38 09.11.2020
5718 Clouds 28 1014 48 10000 7.7 40 01:59 09.11.2020
5719 Clouds 28 1014 48 10000 7.7 40 01:41 09.11.2020
5720 Clouds 29 1015 45 10000 6.2 50 00:55 09.11.2020
5721 Clouds 29 1016 45 10000 6.2 60 23:47 08.11.2020
5722 Clouds 29 1016 45 10000 6.2 60 23:28 08.11.2020
5723 Clouds 29 1016 48 10000 5.7 90 22:43 08.11.2020
5724 Clouds 28 1017 51 10000 6.7 60 22:22 08.11.2020
5725 Clouds 28 1017 51 10000 6.7 60 21:47 08.11.2020
5726 Clouds 28 1016 58 10000 6.2 70 21:23 08.11.2020
5727 Clouds 27 1016 58 10000 6.2 70 20:57 08.11.2020
5728 Clouds 27 1016 58 10000 6.2 70 20:38 08.11.2020
5729 Clouds 26 1016 61 10000 6.2 70 20:20 08.11.2020
5730 Clouds 27 1016 61 10000 6.2 70 19:45 08.11.2020
5731 Clouds 26 1016 69 10000 5.1 70 19:22 08.11.2020
5732 Clouds 25 1016 69 10000 5.1 70 18:56 08.11.2020
5733 Clouds 25 1016 69 10000 5.1 70 18:38 08.11.2020
5734 Clouds 25 1016 69 10000 5.1 70 18:38 08.11.2020
5735 Clouds 25 1015 65 10000 5.7 60 18:20 08.11.2020
5736 Clouds 25 1015 65 10000 5.7 60 17:42 08.11.2020
5737 Clouds 25 1015 65 10000 5.1 70 17:20 08.11.2020
5738 Clouds 25 1015 65 10000 5.1 70 16:57 08.11.2020
5739 Clouds 25 1015 65 10000 5.1 70 16:37 08.11.2020
5740 Clouds 25 1015 65 10000 4.1 70 16:18 08.11.2020
5741 Clouds 25 1015 65 10000 4.1 70 15:44 08.11.2020
5742 Clouds 25 1015 65 10000 4.1 70 15:26 08.11.2020
5743 Clouds 25 1015 65 10000 7.2 70 14:42 08.11.2020
5744 Clouds 25 1015 65 10000 7.2 70 14:23 08.11.2020
5745 Clouds 25 1015 65 10000 5.1 60 13:56 08.11.2020
5746 Clouds 25 1015 65 10000 5.1 60 13:24 08.11.2020
5747 Clouds 25 1016 65 10000 3.6 60 12:47 08.11.2020
5748 Clouds 25 1016 65 10000 3.6 60 12:29 08.11.2020
5749 Clouds 25 1016 69 10000 5.1 80 11:59 08.11.2020
5750 Clouds 25 1016 69 10000 5.1 80 11:41 08.11.2020
5751 Clouds 25 1016 69 10000 4.6 70 11:22 08.11.2020
5752 Clouds 25 1016 69 10000 4.6 70 10:51 08.11.2020
5753 Clouds 26 1016 65 10000 4.1 60 10:20 08.11.2020
5754 Clouds 26 1016 65 10000 4.1 60 09:59 08.11.2020
5755 Clouds 26 1016 65 10000 4.1 60 09:40 08.11.2020
5756 Clouds 26 1016 69 10000 4.6 50 09:18 08.11.2020
5757 Clouds 26 1016 69 10000 4.6 50 08:40 08.11.2020
5758 Clouds 26 1016 69 10000 4.6 60 08:20 08.11.2020
5759 Clouds 26 1016 69 10000 4.6 60 07:52 08.11.2020
5760 Clouds 26 1016 69 10000 4.6 60 07:28 08.11.2020
5761 Clouds 26 1015 65 10000 5.1 60 06:23 08.11.2020
5762 Clouds 26 1015 65 10000 5.1 60 05:52 08.11.2020
5763 Clouds 27 1014 61 10000 7.7 80 04:50 08.11.2020
5764 Clouds 28 1014 48 10000 7.7 70 01:53 08.11.2020
5765 Clouds 28 1014 55 10000 6.7 70 01:19 08.11.2020
5766 Clouds 28 1014 55 10000 6.7 70 01:19 08.11.2020
5767 Clouds 29 1014 55 10000 6.7 70 00:28 08.11.2020
5768 Clouds 28 1015 62 10000 4.6 80 23:47 07.11.2020
5769 Clouds 28 1015 62 10000 4.6 80 23:29 07.11.2020
5770 Clouds 28 1015 66 10000 5.7 90 22:44 07.11.2020
5771 Clouds 28 1015 66 10000 5.7 90 22:25 07.11.2020
5772 Clouds 27 1016 69 10000 2.6 40 21:46 07.11.2020
5773 Clouds 27 1016 69 10000 2.6 40 21:23 07.11.2020
5774 Clouds 26 1016 74 10000 3.1 80 20:55 07.11.2020
5775 Clouds 26 1016 74 10000 3.1 80 20:37 07.11.2020
5776 Rain 26 1016 78 10000 2.1 50 20:19 07.11.2020
5777 Rain 25 1016 78 10000 2.1 50 19:41 07.11.2020
5778 Rain 25 1015 83 10000 5.34 83 19:22 07.11.2020
5779 Rain 24 1015 83 10000 3.74 82 18:40 07.11.2020
5780 Clouds 24 1015 78 10000 1.5 50 18:21 07.11.2020
5781 Clouds 24 1015 78 10000 1.5 50 17:46 07.11.2020
5782 Clouds 24 1015 78 10000 1.5 50 17:26 07.11.2020
5783 Clouds 24 1015 83 10000 2.6 90 16:44 07.11.2020
5784 Clouds 24 1015 83 10000 2.1 40 16:24 07.11.2020
5785 Clouds 24 1015 83 10000 2.1 40 15:48 07.11.2020
5786 Clouds 24 1015 83 10000 2.1 20 15:24 07.11.2020
5787 Clouds 24 1015 83 10000 2.1 20 14:58 07.11.2020
5788 Clouds 24 1015 83 10000 2.1 20 14:40 07.11.2020
5789 Clouds 25 1015 74 10000 3.6 70 14:19 07.11.2020
5790 Clouds 25 1015 74 10000 3.6 70 13:39 07.11.2020
5791 Rain 24 1016 74 10000 3.6 70 13:21 07.11.2020
5792 Clouds 25 1016 74 10000 3.6 70 12:33 07.11.2020
5793 Rain 25 1016 69 10000 3.1 60 11:46 07.11.2020
5794 Rain 25 1016 69 10000 3.1 60 11:25 07.11.2020
5795 Rain 25 1017 65 10000 3.6 70 10:56 07.11.2020
5796 Rain 25 1017 65 10000 3.6 70 10:38 07.11.2020
5797 Clouds 25 1017 65 10000 4.6 80 10:20 07.11.2020
5798 Clouds 25 1017 65 10000 4.6 80 09:47 07.11.2020
5799 Rain 26 1017 61 10000 4.6 60 09:21 07.11.2020
5800 Rain 26 1017 61 10000 4.6 60 08:43 07.11.2020
5801 Clouds 26 1016 69 10000 3.6 70 08:22 07.11.2020
5802 Clouds 26 1016 69 10000 3.6 70 07:37 07.11.2020
5803 Rain 26 1016 69 10000 4.6 70 06:48 07.11.2020
5804 Rain 26 1015 65 10000 5.1 70 05:40 07.11.2020
5805 Clouds 27 1014 54 10000 5.7 100 03:25 07.11.2020
5806 Clouds 28 1014 54 10000 5.1 70 02:28 07.11.2020
5807 Clouds 28 1015 54 10000 7.7 80 01:26 07.11.2020
5808 Clouds 28 1015 54 10000 7.7 80 00:29 07.11.2020
5809 Clouds 28 1016 58 10000 8.2 50 23:32 06.11.2020
5810 Clouds 28 1017 51 10000 6.2 50 22:46 06.11.2020
5811 Clouds 27 1017 54 10000 6.7 70 22:20 06.11.2020
5812 Clouds 27 1017 54 10000 6.7 70 21:59 06.11.2020
5813 Clouds 28 1017 54 10000 6.7 70 21:41 06.11.2020
5814 Clouds 27 1017 61 10000 5.1 80 21:18 06.11.2020
5815 Clouds 27 1017 61 10000 5.1 80 20:43 06.11.2020
5816 Clouds 27 1017 69 10000 2.6 70 20:20 06.11.2020
5817 Clouds 27 1017 69 10000 2.6 70 19:45 06.11.2020
5818 Clouds 27 1017 69 10000 2.6 70 19:27 06.11.2020
5819 Clouds 25 1017 78 10000 2.62 61 18:47 06.11.2020
5820 Clouds 24 1016 83 10000 2.1 260 18:28 06.11.2020
5821 Clouds 24 1016 83 10000 2.1 260 17:52 06.11.2020
5822 Clouds 24 1016 83 10000 2.1 260 17:34 06.11.2020
5823 Clouds 25 1016 73 10000 2.6 30 16:59 06.11.2020
5824 Clouds 25 1016 73 10000 2.6 30 16:37 06.11.2020
5825 Clouds 25 1016 73 10000 2.6 30 16:19 06.11.2020
5826 Clouds 24 1016 83 10000 6.21 63 15:34 06.11.2020
5827 Clouds 24 1016 83 10000 6.21 63 15:34 06.11.2020
5828 Clouds 25 1016 83 10000 2.1 350 14:55 06.11.2020
5829 Clouds 25 1016 83 10000 2.1 350 14:30 06.11.2020
5830 Clouds 25 1016 78 10000 2.6 10 13:56 06.11.2020
5831 Clouds 25 1016 78 10000 2.6 10 13:26 06.11.2020
5832 Clouds 25 1017 69 10000 2.1 40 12:59 06.11.2020
5833 Clouds 25 1017 69 10000 2.1 40 12:40 06.11.2020
5834 Clouds 25 1017 69 10000 1.68 20 12:21 06.11.2020
5835 Clouds 25 1017 69 10000 1.68 20 11:37 06.11.2020
5836 Clouds 25 1017 65 10000 2.1 90 10:58 06.11.2020
5837 Clouds 26 1017 65 10000 2.1 90 10:35 06.11.2020
5838 Clouds 26 1016 65 10000 2.1 70 09:57 06.11.2020
5839 Clouds 26 1016 65 10000 2.1 70 09:38 06.11.2020
5840 Clouds 26 1016 65 10000 2.1 40 09:20 06.11.2020
5841 Clouds 26 1016 65 10000 2.1 40 08:47 06.11.2020
5842 Clouds 26 1016 65 10000 2.1 40 08:27 06.11.2020
5843 Clouds 26 1016 65 10000 2.1 60 07:42 06.11.2020
5844 Clouds 26 1016 61 10000 4.1 120 07:18 06.11.2020
5845 Clouds 26 1016 61 10000 4.1 120 06:40 06.11.2020
5846 Clouds 26 1015 65 10000 4.6 140 05:37 06.11.2020
5847 Clouds 28 1015 62 10000 4.6 160 01:59 06.11.2020
5848 Clouds 29 1015 66 10000 4.6 160 00:29 06.11.2020
5849 Clouds 29 1016 66 10000 6.7 150 23:51 05.11.2020
5850 Clouds 29 1016 66 10000 6.7 150 23:24 05.11.2020
5851 Clouds 29 1016 62 10000 6.2 140 22:45 05.11.2020
5852 Clouds 28 1017 66 10000 5.7 150 22:26 05.11.2020
5853 Clouds 28 1017 66 10000 5.7 150 21:57 05.11.2020
5854 Clouds 28 1017 66 10000 5.7 150 21:38 05.11.2020
5855 Clouds 28 1016 69 10000 2.6 140 21:18 05.11.2020
5856 Clouds 27 1016 69 10000 2.6 140 20:43 05.11.2020
5857 Clouds 26 1016 69 10000 3.95 72 20:22 05.11.2020
5858 Clouds 26 1016 69 10000 3.95 72 19:44 05.11.2020
5859 Clouds 26 1016 69 10000 4.12 70 19:26 05.11.2020
5860 Clouds 24 1015 88 10000 1.5 350 18:56 05.11.2020
5861 Clouds 24 1015 88 10000 1.5 350 18:38 05.11.2020
5862 Clouds 24 1015 83 10000 3.48 67 18:20 05.11.2020
5863 Clouds 24 1015 83 10000 3.48 67 17:42 05.11.2020
5864 Clouds 23 1014 83 10000 1.5 40 17:23 05.11.2020
5865 Clouds 24 1014 83 10000 1.5 40 16:45 05.11.2020
5866 Clouds 24 1014 83 10000 1.5 40 16:24 05.11.2020
5867 Clouds 23 1014 83 10000 3.13 86 15:50 05.11.2020
5868 Clouds 23 1014 83 10000 3.13 86 15:50 05.11.2020
5869 Clouds 23 1014 83 10000 2.68 91 15:26 05.11.2020
5870 Clouds 24 1014 83 10000 1.5 310 14:50 05.11.2020
5871 Clouds 24 1014 83 10000 1.5 310 14:50 05.11.2020
5872 Clouds 24 1014 83 10000 1.5 310 14:31 05.11.2020
5873 Clouds 24 1014 83 10000 1.5 310 14:31 05.11.2020
5874 Clouds 24 1015 78 10000 2.1 90 13:51 05.11.2020
5875 Clouds 24 1015 78 10000 2.1 90 13:33 05.11.2020
5876 Clouds 24 1016 83 10000 2.2 96 12:54 05.11.2020
5877 Clouds 24 1016 83 10000 0.9 146 12:30 05.11.2020
5878 Clouds 24 1016 78 10000 0.9 146 11:58 05.11.2020
5879 Clouds 24 1016 78 10000 0.9 146 11:38 05.11.2020
5880 Clouds 24 1016 83 10000 2.1 110 11:19 05.11.2020
5881 Clouds 24 1016 83 10000 2.1 110 10:45 05.11.2020
5882 Clouds 24 1016 83 10000 2.1 110 10:26 05.11.2020
5883 Clouds 24 1016 83 10000 0.58 146 09:48 05.11.2020
5884 Clouds 24 1016 83 10000 1.5 40 09:23 05.11.2020
5885 Clouds 24 1016 83 10000 1.5 40 08:45 05.11.2020
5886 Rain 24 1016 83 10000 1.5 40 08:26 05.11.2020
5887 Rain 25 1015 83 10000 2.6 110 07:42 05.11.2020
5888 Rain 25 1015 83 8047 2.6 190 07:22 05.11.2020
5889 Rain 25 1015 83 8047 2.6 190 06:42 05.11.2020
5890 Clouds 26 1014 74 10000 2.6 160 05:53 05.11.2020
5891 Clouds 28 1014 66 10000 4.1 160 01:38 05.11.2020
5892 Clouds 29 1015 66 10000 4.6 160 00:33 05.11.2020
5893 Clouds 29 1015 62 10000 3.6 160 23:45 04.11.2020
5894 Clouds 29 1015 62 10000 3.6 160 23:45 04.11.2020
5895 Clouds 29 1016 66 10000 5.7 140 23:26 04.11.2020
5896 Clouds 29 1016 66 10000 5.7 140 22:53 04.11.2020
5897 Clouds 29 1016 66 10000 5.7 140 22:31 04.11.2020
5898 Clouds 28 1016 62 10000 6.2 140 21:59 04.11.2020
5899 Clouds 28 1016 62 10000 6.2 140 21:41 04.11.2020
5900 Clouds 28 1016 62 10000 6.2 140 21:22 04.11.2020
5901 Clouds 28 1016 65 10000 5.1 110 20:44 04.11.2020
5902 Clouds 27 1016 65 10000 5.1 110 20:26 04.11.2020
5903 Clouds 26 1016 69 10000 1.5 70 19:49 04.11.2020
5904 Clouds 26 1016 69 10000 1.5 70 19:30 04.11.2020
5905 Clouds 26 1016 69 10000 1.5 70 19:30 04.11.2020
5906 Rain 25 1016 78 10000 1.5 40 18:55 04.11.2020
5907 Rain 25 1016 78 10000 1.5 40 18:55 04.11.2020
5908 Rain 25 1016 78 10000 1.5 40 18:37 04.11.2020
5909 Clouds 25 1016 74 10000 2.1 40 18:18 04.11.2020
5910 Clouds 25 1016 74 10000 2.1 40 17:40 04.11.2020
5911 Clouds 25 1016 74 10000 3.77 87 17:22 04.11.2020
5912 Clouds 25 1016 74 10000 3.77 87 16:41 04.11.2020
5913 Clouds 25 1016 74 10000 3.77 87 16:41 04.11.2020
5914 Clouds 25 1016 74 10000 1.5 30 16:23 04.11.2020
5915 Clouds 25 1016 74 10000 1.5 30 15:48 04.11.2020
5916 Clouds 25 1016 74 10000 1.5 30 15:25 04.11.2020
5917 Clouds 25 1017 74 10000 2.6 70 14:59 04.11.2020
5918 Clouds 25 1017 74 10000 2.6 70 14:41 04.11.2020
5919 Clouds 25 1017 74 10000 4.1 70 14:21 04.11.2020
5920 Clouds 25 1017 74 10000 4.1 70 13:45 04.11.2020
5921 Clouds 25 1018 74 10000 3.1 60 13:20 04.11.2020
5922 Clouds 25 1018 74 10000 3.1 60 12:53 04.11.2020
5923 Clouds 25 1018 74 10000 3.1 60 12:27 04.11.2020
5924 Clouds 26 1018 69 10000 2.1 50 11:56 04.11.2020
5925 Clouds 25 1018 69 10000 2.1 50 11:38 04.11.2020
5926 Clouds 26 1018 74 10000 5.1 70 11:20 04.11.2020
5927 Clouds 26 1018 74 10000 5.1 70 10:46 04.11.2020
5928 Clouds 26 1018 69 10000 3.1 60 10:22 04.11.2020
5929 Clouds 26 1018 69 10000 3.1 60 09:51 04.11.2020
5930 Clouds 26 1018 69 10000 3.1 60 09:23 04.11.2020
5931 Clouds 26 1018 69 10000 5.1 70 08:46 04.11.2020
5932 Clouds 26 1018 74 10000 1.5 0 08:19 04.11.2020
5933 Clouds 26 1018 74 10000 1.5 0 07:48 04.11.2020
5934 Clouds 26 1018 74 10000 1.5 0 07:27 04.11.2020
5935 Clouds 26 1017 65 10000 2.1 40 06:42 04.11.2020
5936 Clouds 26 1017 65 10000 3.1 40 06:18 04.11.2020
5937 Rain 27 1015 58 10000 8.2 60 02:32 04.11.2020
5938 Clouds 28 1016 52 10000 6.7 40 01:42 04.11.2020
5939 Clouds 29 1016 52 10000 4.6 70 00:41 04.11.2020
5940 Clouds 28 1017 55 10000 5.1 70 23:38 03.11.2020
5941 Clouds 28 1018 62 10000 4.6 60 23:20 03.11.2020
5942 Clouds 28 1018 62 10000 4.6 60 22:41 03.11.2020
5943 Clouds 28 1018 66 10000 5.1 70 22:20 03.11.2020
5944 Clouds 28 1018 66 10000 5.1 70 21:55 03.11.2020
5945 Rain 28 1018 66 10000 5.1 70 21:37 03.11.2020
5946 Rain 27 1018 69 10000 3.1 0 21:18 03.11.2020
5947 Rain 27 1018 69 10000 3.1 0 20:42 03.11.2020
5948 Clouds 26 1018 74 10000 6.29 69 20:21 03.11.2020
5949 Clouds 26 1018 74 10000 6.29 69 19:43 03.11.2020
5950 Clouds 25 1017 83 10000 2.1 320 19:20 03.11.2020
5951 Clouds 25 1017 83 10000 2.1 320 18:41 03.11.2020
5952 Clouds 25 1017 83 10000 2.1 320 18:41 03.11.2020
5953 Clouds 25 1017 83 10000 1.5 340 18:20 03.11.2020
5954 Clouds 24 1017 83 10000 1.5 340 17:54 03.11.2020
5955 Clouds 24 1017 83 10000 1.5 340 17:36 03.11.2020
5956 Clouds 24 1017 83 10000 1.5 310 16:54 03.11.2020
5957 Clouds 24 1017 83 10000 1.5 310 16:31 03.11.2020
5958 Clouds 24 1017 83 10000 5.04 59 15:59 03.11.2020
5959 Clouds 24 1017 83 10000 5.04 59 15:41 03.11.2020
5960 Clouds 24 1017 78 10000 5.17 62 15:21 03.11.2020
5961 Clouds 24 1017 78 10000 5.17 62 14:46 03.11.2020
5962 Clouds 24 1017 78 10000 5.36 62 14:27 03.11.2020
5963 Clouds 24 1017 78 10000 5.36 62 14:27 03.11.2020
5964 Clouds 24 1017 83 10000 2.1 310 13:43 03.11.2020
5965 Clouds 24 1017 83 10000 2.1 310 13:23 03.11.2020
5966 Clouds 25 1018 78 10000 2.1 340 12:48 03.11.2020
5967 Clouds 25 1018 78 10000 2.1 340 12:27 03.11.2020
5968 Clouds 25 1018 78 10000 4.97 61 11:57 03.11.2020
5969 Clouds 25 1018 78 10000 4.97 61 11:39 03.11.2020
5970 Clouds 25 1019 69 10000 2.1 340 11:18 03.11.2020
5971 Clouds 25 1019 69 10000 2.1 340 10:39 03.11.2020
5972 Clouds 25 1019 69 10000 4.93 61 10:19 03.11.2020
5973 Clouds 25 1019 69 10000 4.93 61 09:48 03.11.2020
5974 Clouds 25 1019 69 10000 5.18 58 09:27 03.11.2020
5975 Clouds 26 1019 65 10000 5.1 80 08:52 03.11.2020
5976 Clouds 26 1019 65 10000 5.1 80 08:34 03.11.2020
5977 Clouds 26 1018 65 10000 2.6 0 07:49 03.11.2020
5978 Clouds 26 1018 65 10000 4.6 70 07:22 03.11.2020
5979 Clouds 26 1018 65 10000 4.6 70 06:44 03.11.2020
5980 Clouds 27 1017 54 10000 4.6 60 04:54 03.11.2020
5981 Clouds 29 1017 45 10000 5.7 60 00:53 03.11.2020
5982 Clouds 29 1017 45 10000 5.7 60 00:30 03.11.2020
5983 Clouds 29 1018 45 10000 5.1 60 23:47 02.11.2020
5984 Clouds 29 1018 45 10000 5.1 60 23:28 02.11.2020
5985 Clouds 29 1018 48 10000 5.7 80 22:48 02.11.2020
5986 Clouds 29 1018 48 10000 5.7 80 22:30 02.11.2020
5987 Clouds 28 1018 58 10000 4.6 70 21:58 02.11.2020
5988 Clouds 28 1018 58 10000 4.6 70 21:36 02.11.2020
5989 Clouds 27 1018 65 10000 3.6 50 21:18 02.11.2020
5990 Clouds 26 1018 65 10000 3.6 50 20:38 02.11.2020
5991 Clouds 25 1018 78 10000 1.5 300 20:19 02.11.2020
5992 Clouds 24 1018 78 10000 1.5 300 19:44 02.11.2020
5993 Clouds 24 1018 78 10000 1.5 300 19:26 02.11.2020
5994 Clouds 22 1017 88 10000 3.57 54 18:43 02.11.2020
5995 Clouds 22 1017 83 10000 1.5 330 18:22 02.11.2020
5996 Clouds 22 1017 83 10000 1.5 330 17:58 02.11.2020
5997 Clouds 22 1017 83 10000 1.5 330 17:40 02.11.2020
5998 Clouds 22 1016 83 10000 2.1 300 17:20 02.11.2020
5999 Clouds 22 1016 83 10000 2.1 300 16:43 02.11.2020
6000 Clouds 22 1016 78 10000 3.2 37 16:24 02.11.2020
6001 Clouds 22 1016 78 10000 3.2 37 15:44 02.11.2020
6002 Clouds 22 1017 78 10000 2.1 320 15:24 02.11.2020
6003 Clouds 22 1017 78 10000 2.1 320 14:57 02.11.2020
6004 Clouds 22 1017 77 10000 3.12 53 14:21 02.11.2020
6005 Clouds 22 1017 77 10000 3.12 53 13:58 02.11.2020
6006 Clouds 22 1017 77 10000 3.12 53 13:40 02.11.2020
6007 Clear 22 1017 78 10000 2.9 67 13:21 02.11.2020
6008 Clear 22 1017 78 10000 2.72 63 12:33 02.11.2020
6009 Clouds 22 1017 78 10000 1.5 350 11:59 02.11.2020
6010 Clouds 22 1017 78 10000 1.5 350 11:39 02.11.2020
6011 Clear 23 1017 73 10000 2.58 29 11:19 02.11.2020
6012 Clear 23 1017 73 10000 2.58 29 10:43 02.11.2020
6013 Clear 23 1018 78 10000 2.1 360 10:21 02.11.2020
6014 Clear 23 1018 78 10000 2.1 360 09:51 02.11.2020
6015 Clear 23 1018 78 10000 2.1 360 09:24 02.11.2020
6016 Clear 23 1017 78 10000 1.5 360 08:45 02.11.2020
6017 Clouds 23 1017 83 10000 2.1 30 08:24 02.11.2020
6018 Clouds 23 1017 83 10000 2.1 30 07:50 02.11.2020
6019 Clouds 23 1017 83 10000 2.1 30 07:50 02.11.2020
6020 Clouds 23 1017 83 10000 2.1 30 07:22 02.11.2020
6021 Clouds 25 1016 74 10000 1.5 20 06:36 02.11.2020
6022 Rain 26 1015 69 10000 0.9 107 03:35 02.11.2020
6023 Rain 27 1014 62 10000 5.1 150 01:25 02.11.2020
6024 Clouds 27 1015 65 10000 4.6 140 00:36 02.11.2020
6025 Rain 27 1015 54 10000 4.6 150 23:42 01.11.2020
6026 Rain 27 1016 58 10000 4.1 150 23:24 01.11.2020
6027 Rain 28 1016 58 10000 4.1 150 22:46 01.11.2020
6028 Clouds 28 1016 58 10000 4.1 150 22:26 01.11.2020
6029 Clouds 28 1016 54 10000 1.5 0 21:59 01.11.2020
6030 Clouds 28 1016 54 10000 1.5 0 21:59 01.11.2020
6031 Clouds 28 1016 54 10000 1.5 0 21:38 01.11.2020
6032 Clouds 26 1016 65 10000 1.03 90 21:20 01.11.2020
6033 Clouds 26 1016 65 10000 1.03 90 20:42 01.11.2020
6034 Clouds 25 1015 78 10000 1.5 320 20:23 01.11.2020
6035 Clouds 24 1015 78 10000 1.5 320 19:43 01.11.2020
6036 Clouds 23 1015 78 10000 1.5 320 19:24 01.11.2020
6037 Clouds 22 1014 77 10000 1.49 14 18:44 01.11.2020
6038 Clouds 22 1014 73 10000 1.23 9 18:20 01.11.2020
6039 Clouds 22 1014 73 10000 1.23 9 18:20 01.11.2020
6040 Clouds 22 1014 73 10000 1.23 9 17:58 01.11.2020
6041 Clouds 22 1014 73 10000 1.23 9 17:40 01.11.2020
6042 Clouds 22 1014 73 10000 1.9 355 17:21 01.11.2020
6043 Clouds 22 1014 73 10000 1.9 355 16:41 01.11.2020
6044 Clouds 21 1014 73 10000 2.1 330 16:19 01.11.2020
6045 Clouds 21 1014 73 10000 2.1 330 16:19 01.11.2020
6046 Clouds 21 1014 73 10000 2.1 330 15:42 01.11.2020
6047 Clouds 22 1014 73 10000 2.1 330 15:22 01.11.2020
6048 Clouds 22 1014 73 10000 2.1 350 14:59 01.11.2020
6049 Clouds 22 1014 73 10000 2.1 350 14:41 01.11.2020
6050 Clouds 22 1014 73 10000 1.5 10 14:21 01.11.2020
6051 Clouds 22 1014 73 10000 1.5 10 13:47 01.11.2020
6052 Clouds 23 1015 69 10000 1.41 337 13:28 01.11.2020
6053 Clouds 23 1015 69 10000 1.57 350 12:43 01.11.2020
6054 Clouds 22 1015 78 10000 1.5 40 12:23 01.11.2020
6055 Clouds 22 1015 78 10000 1.5 40 11:51 01.11.2020
6056 Clear 23 1015 73 10000 2.1 340 11:19 01.11.2020
6057 Clear 23 1015 73 10000 2.1 340 10:43 01.11.2020
6058 Clear 23 1015 73 10000 2.1 340 10:43 01.11.2020
6059 Clear 23 1015 73 10000 2.1 340 10:24 01.11.2020
6060 Clear 23 1015 69 10000 2.1 10 09:57 01.11.2020
6061 Clear 23 1015 69 10000 2.1 10 09:39 01.11.2020
6062 Clear 24 1014 65 10000 2.1 330 08:47 01.11.2020
6063 Clouds 24 1014 65 10000 2.1 10 08:23 01.11.2020
6064 Clouds 24 1014 65 10000 2.1 10 07:40 01.11.2020
6065 Clouds 26 1012 58 10000 5.1 100 04:31 01.11.2020
6066 Clouds 28 1011 58 10000 6.2 210 01:49 01.11.2020
6067 Clouds 27 1012 58 10000 6.2 210 00:26 01.11.2020
6068 Clouds 27 1013 65 10000 4.1 190 23:25 31.10.2020
6069 Clouds 28 1013 65 10000 4.1 190 22:57 31.10.2020
6070 Clouds 28 1013 65 10000 4.1 190 22:37 31.10.2020
6071 Clouds 28 1014 54 10000 1.5 10 22:19 31.10.2020
6072 Clouds 28 1014 54 10000 1.5 10 21:43 31.10.2020
6073 Clouds 27 1013 65 10000 0.6 245 21:19 31.10.2020
6074 Clouds 27 1013 65 10000 0.6 245 20:38 31.10.2020
6075 Clouds 26 1013 69 10000 0.42 354 20:18 31.10.2020
6076 Clouds 25 1013 69 10000 0.42 354 19:40 31.10.2020
6077 Clouds 22 1013 83 10000 1.07 3 19:20 31.10.2020
6078 Clouds 22 1013 83 10000 1.07 3 18:47 31.10.2020
6079 Clouds 22 1012 78 10000 2.1 360 18:23 31.10.2020
6080 Clouds 22 1012 78 10000 2.1 360 17:40 31.10.2020
6081 Clouds 22 1012 78 10000 1.57 334 17:22 31.10.2020
6082 Clouds 22 1012 78 10000 1.57 334 16:42 31.10.2020
6083 Clouds 22 1012 78 10000 1.75 319 16:20 31.10.2020
6084 Clouds 22 1012 78 10000 1.75 319 15:43 31.10.2020
6085 Clouds 22 1012 78 10000 1.97 309 15:23 31.10.2020
6086 Clouds 22 1012 78 10000 1.97 309 14:47 31.10.2020
6087 Clouds 22 1012 78 10000 1.97 311 14:28 31.10.2020
6088 Clouds 23 1013 73 10000 1.97 311 13:50 31.10.2020
6089 Clouds 23 1013 73 10000 1.97 318 13:26 31.10.2020
6090 Clouds 23 1013 73 10000 1.5 350 12:43 31.10.2020
6091 Clouds 23 1014 78 10000 2.38 291 11:48 31.10.2020
6092 Clouds 23 1014 78 10000 2.87 281 11:29 31.10.2020
6093 Clouds 24 1014 73 10000 1.5 40 10:58 31.10.2020
6094 Clouds 24 1014 73 10000 1.5 40 10:36 31.10.2020
6095 Clouds 24 1013 73 10000 1.5 330 09:45 31.10.2020
6096 Clouds 24 1013 73 10000 1.5 330 09:27 31.10.2020
6097 Clouds 24 1013 73 10000 2.6 290 08:40 31.10.2020
6098 Clouds 25 1013 65 10000 2.1 340 07:59 31.10.2020
6099 Clouds 25 1013 65 10000 2.1 340 07:27 31.10.2020
6100 Clouds 25 1012 65 10000 4.1 340 06:42 31.10.2020
6101 Rain 26 1011 65 10000 3.6 320 06:19 31.10.2020
6102 Clouds 28 1010 48 10000 7.2 250 03:46 31.10.2020
6103 Clouds 29 1010 48 10000 7.2 260 01:30 31.10.2020
6104 Clouds 29 1011 48 10000 7.2 240 00:47 31.10.2020
6105 Clouds 29 1012 54 10000 7.7 250 23:52 30.10.2020
6106 Clouds 29 1012 54 10000 7.7 250 23:25 30.10.2020
6107 Clouds 29 1012 51 10000 6.2 230 22:48 30.10.2020
6108 Clouds 29 1012 51 10000 6.2 230 22:26 30.10.2020
6109 Clouds 29 1012 48 10000 5.7 250 21:58 30.10.2020
6110 Clouds 29 1012 48 10000 5.7 250 21:38 30.10.2020
6111 Clouds 28 1012 51 10000 4.1 270 21:19 30.10.2020
6112 Clouds 28 1012 51 10000 4.1 270 20:39 30.10.2020
6113 Clouds 28 1012 51 10000 4.1 270 20:39 30.10.2020
6114 Clouds 26 1012 61 10000 2.1 0 20:21 30.10.2020
6115 Clouds 25 1012 61 10000 2.1 0 19:47 30.10.2020
6116 Clouds 25 1012 61 10000 2.1 0 19:19 30.10.2020
6117 Clouds 22 1012 73 10000 4.67 268 18:50 30.10.2020
6118 Clouds 22 1012 73 10000 4.42 265 18:28 30.10.2020
6119 Clouds 22 1011 73 10000 1.5 30 17:49 30.10.2020
6120 Clouds 22 1011 73 10000 1.5 20 17:24 30.10.2020
6121 Clouds 22 1011 73 10000 1.5 20 16:57 30.10.2020
6122 Clouds 22 1011 73 10000 1.5 20 16:37 30.10.2020
6123 Clouds 22 1011 73 10000 1.5 20 16:37 30.10.2020
6124 Clouds 22 1010 73 10000 1.5 10 16:18 30.10.2020
6125 Clouds 22 1010 73 10000 1.5 10 15:40 30.10.2020
6126 Clouds 23 1011 73 10000 4.93 268 15:19 30.10.2020
6127 Clouds 23 1011 73 10000 4.93 268 14:44 30.10.2020
6128 Clouds 23 1011 69 10000 2.1 300 14:25 30.10.2020
6129 Clouds 24 1011 69 10000 2.1 300 13:45 30.10.2020
6130 Clouds 24 1012 65 10000 2.1 290 13:21 30.10.2020
6131 Clouds 24 1012 65 10000 2.1 290 12:52 30.10.2020
6132 Clouds 24 1012 65 10000 4.77 261 12:22 30.10.2020
6133 Clouds 24 1012 65 10000 4.77 261 11:56 30.10.2020
6134 Clouds 24 1012 65 10000 4.69 262 11:23 30.10.2020
6135 Clouds 24 1012 65 10000 2.1 330 10:52 30.10.2020
6136 Clouds 24 1012 65 10000 2.1 330 10:26 30.10.2020
6137 Clouds 25 1012 61 10000 3.6 250 09:59 30.10.2020
6138 Clouds 24 1012 61 10000 3.6 250 09:41 30.10.2020
6139 Clouds 25 1012 61 10000 2.1 280 09:20 30.10.2020
6140 Clouds 25 1012 61 10000 2.1 280 08:33 30.10.2020
6141 Clouds 25 1011 57 10000 3.1 260 07:58 30.10.2020
6142 Clouds 25 1011 57 10000 3.1 260 07:40 30.10.2020
6143 Clouds 25 1011 57 10000 3.1 260 07:21 30.10.2020
6144 Clouds 26 1011 54 10000 4.1 270 06:19 30.10.2020
6145 Clouds 27 1010 54 10000 4.6 240 03:59 30.10.2020
6146 Clouds 28 1010 45 10000 5.1 260 01:26 30.10.2020
6147 Clouds 28 1011 42 10000 6.7 260 00:26 30.10.2020
6148 Clouds 28 1012 58 10000 5.1 230 23:43 29.10.2020
6149 Clouds 28 1012 65 10000 5.7 200 23:25 29.10.2020
6150 Clouds 28 1012 65 10000 5.7 200 22:45 29.10.2020
6151 Clouds 28 1012 65 10000 5.7 200 22:27 29.10.2020
6152 Clouds 27 1013 65 10000 2.6 220 21:50 29.10.2020
6153 Clouds 27 1013 65 10000 2.6 220 21:24 29.10.2020
6154 Clouds 26 1012 65 10000 1.5 320 20:43 29.10.2020
6155 Clouds 26 1012 65 10000 1.5 320 20:43 29.10.2020
6156 Clouds 25 1012 73 10000 1.05 261 20:24 29.10.2020
6157 Clouds 24 1012 73 10000 1.05 261 19:57 29.10.2020
6158 Clouds 24 1012 73 10000 1.05 261 19:38 29.10.2020
6159 Clouds 23 1012 78 10000 2.6 360 19:18 29.10.2020
6160 Clouds 22 1012 78 10000 2.6 360 18:45 29.10.2020
6161 Clouds 22 1011 88 10000 1.26 330 18:25 29.10.2020
6162 Clouds 21 1011 88 10000 1.26 330 17:42 29.10.2020
6163 Clouds 22 1011 83 10000 1.5 10 17:22 29.10.2020
6164 Clouds 22 1011 83 10000 1.5 10 16:53 29.10.2020
6165 Clouds 22 1011 88 10000 1.72 341 16:23 29.10.2020
6166 Clouds 22 1011 88 10000 1.72 341 15:58 29.10.2020
6167 Clouds 22 1011 88 10000 1.72 341 15:40 29.10.2020
6168 Clouds 23 1011 88 10000 1.5 10 15:22 29.10.2020
6169 Clouds 22 1011 88 10000 1.5 10 14:47 29.10.2020
6170 Clouds 22 1012 88 10000 1.5 20 14:24 29.10.2020
6171 Clouds 22 1012 88 10000 1.5 20 13:59 29.10.2020
6172 Clouds 22 1012 88 10000 1.5 20 13:40 29.10.2020
6173 Clouds 22 1012 88 10000 1.5 300 13:21 29.10.2020
6174 Clouds 22 1012 88 10000 1.5 300 12:40 29.10.2020
6175 Clouds 22 1012 83 10000 1.98 28 12:19 29.10.2020
6176 Clouds 22 1012 83 10000 1.98 28 11:47 29.10.2020
6177 Clouds 22 1012 83 10000 2.41 31 11:24 29.10.2020
6178 Clouds 23 1013 88 10000 1.5 40 10:38 29.10.2020
6179 Clouds 23 1013 83 10000 3.1 10 10:19 29.10.2020
6180 Clouds 23 1013 83 10000 3.1 10 10:19 29.10.2020
6181 Clouds 23 1013 83 10000 3.1 10 09:53 29.10.2020
6182 Clouds 23 1013 83 10000 3.1 10 09:28 29.10.2020
6183 Clouds 23 1013 83 10000 3.1 10 09:28 29.10.2020
6184 Rain 22 1013 88 10000 4.6 340 08:55 29.10.2020
6185 Rain 22 1013 88 10000 4.6 340 08:33 29.10.2020
6186 Rain 23 1013 78 8047 4.6 330 07:54 29.10.2020
6187 Clouds 24 1012 73 10000 7.2 330 07:35 29.10.2020
6188 Clouds 24 1011 73 10000 5.1 320 06:56 29.10.2020
6189 Clouds 25 1010 65 10000 2.6 290 04:52 29.10.2020
6190 Clouds 27 1010 65 10000 4.1 220 02:59 29.10.2020
6191 Rain 28 1008 69 10000 5.42 259 00:57 29.10.2020
6192 Rain 28 1009 72 10000 6.09 247 00:31 29.10.2020
6193 Rain 29 1009 66 10000 6.09 247 23:45 28.10.2020
6194 Rain 29 1010 69 10000 5.62 241 23:21 28.10.2020
6195 Clouds 28 1014 74 10000 4.1 250 22:44 28.10.2020
6196 Clouds 28 1014 74 10000 4.1 250 22:44 28.10.2020
6197 Clouds 28 1013 69 10000 3.6 230 22:26 28.10.2020
6198 Clouds 28 1013 69 10000 3.6 230 21:55 28.10.2020
6199 Clouds 28 1013 69 10000 3.6 230 21:37 28.10.2020
6200 Clouds 28 1013 74 10000 1.5 0 21:18 28.10.2020
6201 Clouds 27 1013 74 10000 1.5 0 20:41 28.10.2020
6202 Clouds 26 1013 83 10000 4.22 245 20:20 28.10.2020
6203 Clouds 26 1013 83 10000 4.22 245 19:49 28.10.2020
6204 Clouds 25 1013 83 10000 3.34 252 19:27 28.10.2020
6205 Rain 23 1013 94 10000 2.1 360 18:47 28.10.2020
6206 Clouds 23 1012 88 10000 1.5 340 18:20 28.10.2020
6207 Clouds 23 1012 88 10000 1.5 340 17:44 28.10.2020
6208 Clouds 23 1012 88 10000 1.5 340 17:25 28.10.2020
6209 Clouds 23 1012 88 10000 3.6 240 16:49 28.10.2020
6210 Clouds 23 1012 88 10000 3.6 240 16:31 28.10.2020
6211 Clouds 23 1012 88 10000 1.5 320 15:48 28.10.2020
6212 Clouds 23 1012 88 10000 2.63 237 15:20 28.10.2020
6213 Clouds 23 1012 88 10000 2.63 237 14:58 28.10.2020
6214 Clouds 23 1012 88 10000 2.63 237 14:38 28.10.2020
6215 Clouds 23 1012 88 10000 2.74 228 14:19 28.10.2020
6216 Rain 24 1012 88 10000 1.34 360 12:39 28.10.2020
6217 Rain 24 1012 88 10000 1.34 360 12:21 28.10.2020
6218 Rain 24 1011 88 10000 1.34 360 11:44 28.10.2020
6219 Rain 24 1011 88 10000 1.34 360 11:23 28.10.2020
6220 Rain 24 1010 88 10000 4.23 197 10:59 28.10.2020
6221 Clouds 24 1014 78 10000 4.23 197 10:40 28.10.2020
6222 Clouds 25 1015 88 10000 3.9 189 10:22 28.10.2020
6223 Clouds 25 1015 88 10000 3.9 189 10:22 28.10.2020
6224 Clouds 25 1015 88 10000 3.9 189 09:41 28.10.2020
6225 Clouds 25 1015 88 10000 2.1 360 09:21 28.10.2020
6226 Clouds 24 1015 88 10000 2.1 360 08:48 28.10.2020
6227 Clouds 24 1015 88 10000 2.1 360 08:27 28.10.2020
6228 Clouds 25 1014 78 10000 3.1 150 07:48 28.10.2020
6229 Clouds 25 1014 78 10000 3.1 150 07:30 28.10.2020
6230 Clouds 25 1014 78 10000 2.1 170 06:41 28.10.2020
6231 Clouds 25 1013 78 10000 1.5 140 05:51 28.10.2020
6232 Clouds 26 1013 69 10000 1.5 150 04:54 28.10.2020
6233 Clouds 26 1013 69 10000 1.5 150 04:25 28.10.2020
6234 Clouds 26 1013 69 10000 2.1 140 02:26 28.10.2020
6235 Clouds 26 1013 69 10000 1.5 50 01:49 28.10.2020
6236 Clouds 27 1014 69 10000 2.6 310 00:21 28.10.2020
6237 Clouds 27 1014 69 10000 2.6 310 23:38 27.10.2020
6238 Clouds 27 1014 69 10000 2.6 310 23:38 27.10.2020
6239 Clouds 26 1015 74 10000 1.35 330 23:20 27.10.2020
6240 Clouds 26 1015 74 10000 1.35 330 22:42 27.10.2020
6241 Clouds 26 1015 74 10000 1.5 10 22:19 27.10.2020
6242 Clouds 26 1015 74 10000 1.5 10 21:55 27.10.2020
6243 Clouds 26 1015 74 10000 1.5 10 21:37 27.10.2020
6244 Clouds 26 1015 74 10000 1.5 10 21:37 27.10.2020
6245 Clouds 26 1015 74 10000 1.5 10 21:37 27.10.2020
6246 Clouds 26 1015 74 10000 1.5 10 21:37 27.10.2020
6247 Clouds 25 1015 83 10000 0.73 26 21:18 27.10.2020
6248 Clouds 25 1015 83 10000 0.73 26 20:41 27.10.2020
6249 Clouds 24 1014 88 10000 2.1 330 20:22 27.10.2020
6250 Clouds 24 1014 88 10000 2.1 330 19:39 27.10.2020
6251 Clouds 24 1014 88 10000 2.1 330 19:21 27.10.2020
6252 Clouds 24 1014 83 10000 1.5 350 18:58 27.10.2020
6253 Clouds 24 1014 83 10000 1.5 350 18:40 27.10.2020
6254 Clouds 24 1013 83 10000 1.5 60 18:19 27.10.2020
6255 Clouds 24 1013 83 10000 1.5 60 17:43 27.10.2020
6256 Clouds 24 1013 94 10000 1.27 227 17:21 27.10.2020
6257 Clouds 23 1013 94 10000 1.27 227 16:48 27.10.2020
6258 Clouds 23 1013 94 10000 1.75 181 16:28 27.10.2020
6259 Clouds 23 1013 94 10000 1.75 181 15:55 27.10.2020
6260 Clouds 23 1013 94 10000 1.75 181 15:37 27.10.2020
6261 Clouds 23 1013 94 10000 1.16 150 15:18 27.10.2020
6262 Clouds 23 1013 94 10000 1.16 150 14:41 27.10.2020
6263 Clouds 24 1014 88 10000 2.6 320 14:22 27.10.2020
6264 Clouds 24 1014 88 10000 2.6 320 13:41 27.10.2020
6265 Clouds 23 1015 88 10000 1.5 100 13:21 27.10.2020
6266 Clouds 23 1015 88 10000 1.5 100 12:40 27.10.2020
6267 Clouds 24 1015 88 10000 1.58 251 12:21 27.10.2020
6268 Clouds 24 1015 88 10000 1.58 251 11:42 27.10.2020
6269 Clouds 24 1015 88 10000 2.1 360 11:22 27.10.2020
6270 Clouds 24 1015 88 10000 2.1 360 10:47 27.10.2020
6271 Clouds 24 1015 88 10000 2.1 360 10:47 27.10.2020
6272 Clouds 24 1015 88 10000 2.1 360 10:26 27.10.2020
6273 Clouds 25 1015 88 10000 2.1 30 09:46 27.10.2020
6274 Clouds 25 1015 88 10000 2.1 30 09:25 27.10.2020
6275 Clouds 25 1015 78 10000 1.5 170 08:39 27.10.2020
6276 Clouds 25 1014 83 10000 3.6 130 08:19 27.10.2020
6277 Clouds 25 1014 83 10000 3.6 130 07:45 27.10.2020
6278 Clouds 25 1014 83 10000 3.6 130 07:25 27.10.2020
6279 Rain 26 1015 78 10000 1.62 295 06:22 27.10.2020
6280 Rain 26 1015 78 10000 1.62 295 05:52 27.10.2020
6281 Rain 26 1015 78 10000 1.62 295 05:34 27.10.2020
6282 Rain 25 1015 83 10000 3.6 340 04:44 27.10.2020
6283 Rain 27 1014 74 10000 7.2 230 02:30 27.10.2020
6284 Clouds 27 1014 74 10000 5.1 220 00:53 27.10.2020
6285 Clouds 28 1015 65 10000 4.1 200 23:44 26.10.2020
6286 Clouds 28 1016 62 10000 4.1 210 23:19 26.10.2020
6287 Clouds 28 1016 62 10000 4.1 210 22:46 26.10.2020
6288 Clouds 27 1016 69 10000 1.49 219 22:21 26.10.2020
6289 Clouds 28 1016 69 10000 1.49 219 21:45 26.10.2020
6290 Clouds 27 1016 74 10000 1.5 340 21:21 26.10.2020
6291 Clouds 27 1016 74 10000 1.5 340 20:58 26.10.2020
6292 Clouds 26 1016 74 10000 1.5 340 20:39 26.10.2020
6293 Clouds 26 1015 83 10000 2.1 340 20:18 26.10.2020
6294 Clouds 25 1015 83 10000 2.1 340 19:47 26.10.2020
6295 Clouds 24 1015 83 10000 2.1 350 19:23 26.10.2020
6296 Clouds 24 1015 83 10000 2.1 350 18:44 26.10.2020
6297 Clouds 23 1014 83 10000 1.01 246 18:24 26.10.2020
6298 Clouds 23 1014 83 10000 1.01 246 17:56 26.10.2020
6299 Clouds 23 1014 83 10000 1.01 246 17:37 26.10.2020
6300 Clouds 23 1014 83 10000 1.2 241 17:19 26.10.2020
6301 Clouds 23 1014 83 10000 1.2 241 16:40 26.10.2020
6302 Clouds 23 1014 83 10000 0.31 258 16:21 26.10.2020
6303 Clouds 23 1014 83 10000 0.31 258 15:41 26.10.2020
6304 Clouds 23 1014 83 10000 0.38 299 15:20 26.10.2020
6305 Clouds 23 1014 83 10000 0.38 299 14:52 26.10.2020
6306 Clouds 23 1014 83 10000 0.49 20 14:30 26.10.2020
6307 Clouds 23 1015 88 10000 0.49 20 13:43 26.10.2020
6308 Clouds 24 1015 83 10000 2.1 330 13:24 26.10.2020
6309 Clouds 24 1015 83 10000 2.1 330 12:49 26.10.2020
6310 Clouds 24 1015 83 10000 2.1 330 12:27 26.10.2020
6311 Clouds 24 1015 88 10000 2.1 340 11:57 26.10.2020
6312 Clouds 24 1015 88 10000 2.1 340 11:37 26.10.2020
6313 Clouds 24 1016 83 10000 1.5 350 11:19 26.10.2020
6314 Clouds 24 1016 83 10000 1.5 350 10:44 26.10.2020
6315 Clouds 25 1016 78 10000 1.5 30 10:25 26.10.2020
6316 Clouds 25 1016 78 10000 1.5 30 09:48 26.10.2020
6317 Clouds 25 1016 78 10000 1.5 30 09:26 26.10.2020
6318 Clouds 25 1016 74 10000 1.5 20 08:48 26.10.2020
6319 Clouds 25 1015 74 10000 1.99 66 08:22 26.10.2020
6320 Clouds 25 1015 74 10000 1.99 66 07:38 26.10.2020
6321 Clouds 26 1014 78 10000 2.1 60 06:58 26.10.2020
6322 Rain 27 1013 74 10000 2.1 150 04:48 26.10.2020
6323 Rain 27 1012 69 10000 0.36 62 04:18 26.10.2020
6324 Rain 27 1012 69 10000 4.6 230 03:20 26.10.2020
6325 Rain 27 1012 69 10000 4.6 230 03:20 26.10.2020
6326 Rain 27 1012 69 10000 4.6 230 03:20 26.10.2020
6327 Rain 27 1012 69 10000 4.6 230 03:20 26.10.2020
6328 Rain 28 1012 74 10000 5.7 220 01:34 26.10.2020
6329 Clouds 28 1013 74 10000 4.1 200 00:33 26.10.2020
6330 Clouds 28 1014 69 10000 4.1 180 23:43 25.10.2020
6331 Clouds 28 1015 69 10000 3.6 170 23:22 25.10.2020
6332 Clouds 29 1015 69 10000 3.6 170 22:41 25.10.2020
6333 Clouds 28 1015 69 10000 3.1 210 22:23 25.10.2020
6334 Clouds 28 1015 69 10000 3.1 210 21:45 25.10.2020
6335 Clouds 28 1015 69 10000 3.1 210 21:26 25.10.2020
6336 Clouds 27 1015 74 10000 0.64 99 20:56 25.10.2020
6337 Clouds 27 1015 74 10000 0.64 99 20:38 25.10.2020
6338 Clouds 26 1014 83 10000 2.1 350 20:19 25.10.2020
6339 Clouds 25 1014 83 10000 2.1 350 19:48 25.10.2020
6340 Clouds 25 1014 83 10000 2.1 350 19:24 25.10.2020
6341 Clouds 24 1014 88 10000 1.5 340 18:55 25.10.2020
6342 Clouds 23 1014 88 10000 1.5 340 18:37 25.10.2020
6343 Clouds 23 1013 88 10000 1.5 340 18:18 25.10.2020
6344 Clouds 23 1013 88 10000 1.5 340 17:39 25.10.2020
6345 Clouds 23 1013 94 10000 1.5 20 17:21 25.10.2020
6346 Clouds 23 1013 94 10000 1.5 20 16:55 25.10.2020
6347 Clouds 23 1013 94 10000 1.5 20 16:37 25.10.2020
6348 Clouds 23 1013 94 10000 2.6 330 16:18 25.10.2020
6349 Clouds 23 1013 94 10000 2.6 330 15:41 25.10.2020
6350 Clouds 23 1014 94 10000 2.1 350 15:23 25.10.2020
6351 Clouds 23 1014 94 10000 2.1 350 14:40 25.10.2020
6352 Clouds 23 1014 88 10000 1.5 330 14:21 25.10.2020
6353 Clouds 23 1014 88 10000 1.5 330 13:42 25.10.2020
6354 Clouds 23 1014 88 10000 1.68 17 13:20 25.10.2020
6355 Clouds 23 1014 88 10000 1.68 17 12:46 25.10.2020
6356 Clouds 23 1014 88 10000 1.57 27 12:26 25.10.2020
6357 Clouds 23 1015 88 10000 1.5 0 11:44 25.10.2020
6358 Clouds 23 1015 88 10000 2.6 350 11:22 25.10.2020
6359 Clouds 24 1015 88 10000 2.6 350 10:57 25.10.2020
6360 Clouds 23 1015 88 10000 2.6 350 10:38 25.10.2020
6361 Clouds 24 1015 88 10000 2.6 350 10:20 25.10.2020
6362 Clouds 24 1015 83 10000 1.5 20 09:40 25.10.2020
6363 Clouds 25 1015 83 10000 1.42 44 09:19 25.10.2020
6364 Clouds 24 1015 83 10000 1.42 44 08:41 25.10.2020
6365 Clouds 25 1015 78 10000 2.1 120 08:22 25.10.2020
6366 Clouds 25 1015 78 10000 2.1 120 07:47 25.10.2020
6367 Clouds 25 1015 78 10000 2.1 120 07:24 25.10.2020
6368 Clouds 25 1014 83 10000 2.1 120 06:45 25.10.2020
6369 Clouds 26 1013 74 10000 2.1 150 05:36 25.10.2020
6370 Clouds 26 1012 74 10000 3.1 190 04:51 25.10.2020
6371 Clouds 29 1012 66 10000 3.6 220 02:45 25.10.2020
6372 Clouds 29 1013 69 10000 2.6 0 01:32 25.10.2020
6373 Clouds 28 1014 78 10000 3.6 160 00:48 25.10.2020
6374 Clouds 27 1015 88 10000 3.6 140 00:20 25.10.2020
6375 Clouds 27 1015 88 10000 3.6 140 23:53 24.10.2020
6376 Clouds 27 1015 88 10000 3.6 140 23:26 24.10.2020
6377 Clouds 26 1015 88 10000 4.1 150 22:55 24.10.2020
6378 Clouds 26 1015 88 10000 4.1 150 22:37 24.10.2020
6379 Clouds 26 1014 88 10000 2.6 130 22:18 24.10.2020
6380 Clouds 26 1014 88 10000 2.6 130 21:41 24.10.2020
6381 Clouds 25 1014 88 10000 2.1 70 21:20 24.10.2020
6382 Clouds 25 1014 88 10000 2.1 70 20:47 24.10.2020
6383 Clouds 25 1014 88 10000 2.1 70 20:23 24.10.2020
6384 Clouds 23 1013 94 10000 1.5 10 19:49 24.10.2020
6385 Clouds 23 1013 94 10000 1.5 10 19:29 24.10.2020
6386 Clouds 24 1013 88 10000 1.5 330 18:57 24.10.2020
6387 Clouds 24 1013 88 10000 1.5 330 18:39 24.10.2020
6388 Clouds 23 1012 94 10000 2.12 171 18:20 24.10.2020
6389 Rain 23 1012 94 10000 2.12 171 17:38 24.10.2020
6390 Rain 23 1013 88 10000 1.5 70 17:20 24.10.2020
6391 Rain 23 1013 88 10000 1.5 70 16:44 24.10.2020
6392 Rain 23 1013 88 10000 1.5 70 16:21 24.10.2020
6393 Rain 22 1012 100 10000 1.5 40 15:39 24.10.2020
6394 Rain 22 1013 100 10000 1.5 40 15:19 24.10.2020
6395 Rain 22 1013 100 10000 2.1 260 14:46 24.10.2020
6396 Rain 22 1013 100 10000 2.1 260 14:27 24.10.2020
6397 Rain 23 1014 100 10000 1.5 10 13:46 24.10.2020
6398 Rain 23 1014 100 10000 1.5 10 13:24 24.10.2020
6399 Rain 23 1014 94 10000 2.98 159 12:44 24.10.2020
6400 Clouds 23 1014 88 10000 1.5 20 12:21 24.10.2020
6401 Clouds 24 1014 88 10000 1.5 20 11:51 24.10.2020
6402 Clouds 24 1014 88 10000 1.5 20 11:32 24.10.2020
6403 Clouds 24 1014 88 10000 1.5 10 10:52 24.10.2020
6404 Clouds 24 1014 88 10000 1.5 10 10:33 24.10.2020
6405 Clouds 24 1014 88 10000 1.5 20 09:50 24.10.2020
6406 Clouds 24 1014 88 10000 1.5 20 09:32 24.10.2020
6407 Clouds 24 1014 88 10000 2.1 40 08:58 24.10.2020
6408 Rain 24 1014 83 10000 1.5 90 08:19 24.10.2020
6409 Rain 25 1014 83 10000 1.5 90 07:54 24.10.2020
6410 Rain 25 1013 74 10000 4.6 210 07:25 24.10.2020
6411 Rain 25 1013 74 10000 4.6 210 06:53 24.10.2020
6412 Rain 27 1012 74 10000 3.6 180 06:23 24.10.2020
6413 Rain 27 1012 69 10000 3.6 170 02:56 24.10.2020
6414 Rain 27 1013 83 10000 7.2 180 01:40 24.10.2020
6415 Clouds 27 1013 74 10000 6.2 140 00:41 24.10.2020
6416 Clouds 26 1014 74 10000 4.6 130 00:21 24.10.2020
6417 Clouds 25 1014 74 10000 4.6 130 23:49 23.10.2020
6418 Clouds 25 1014 74 10000 4.6 130 23:26 23.10.2020
6419 Rain 26 1014 69 10000 4.6 170 22:57 23.10.2020
6420 Rain 26 1014 69 10000 4.6 170 22:37 23.10.2020
6421 Rain 26 1014 74 10000 3.1 180 22:18 23.10.2020
6422 Rain 26 1014 74 10000 3.1 180 21:42 23.10.2020
6423 Rain 26 1014 74 10000 3.1 180 21:24 23.10.2020
6424 Rain 25 1013 83 10000 2.1 10 20:40 23.10.2020
6425 Rain 25 1013 83 10000 2.1 10 20:22 23.10.2020
6426 Rain 25 1013 83 10000 3.42 203 19:50 23.10.2020
6427 Rain 25 1013 83 10000 2.98 199 19:32 23.10.2020
6428 Clouds 25 1012 69 10000 3.6 170 18:55 23.10.2020
6429 Clouds 25 1012 69 10000 3.6 170 18:31 23.10.2020
6430 Clouds 25 1012 65 10000 4.6 160 17:50 23.10.2020
6431 Clouds 25 1012 65 10000 4.6 160 17:24 23.10.2020
6432 Rain 25 1011 74 10000 5.7 160 16:56 23.10.2020
6433 Rain 25 1011 74 10000 5.7 160 16:56 23.10.2020
6434 Rain 25 1011 74 10000 5.7 160 16:56 23.10.2020
6435 Rain 25 1011 74 10000 5.7 160 16:37 23.10.2020
6436 Clouds 25 1012 74 10000 4.6 190 16:18 23.10.2020
6437 Clouds 25 1012 74 10000 4.6 190 15:42 23.10.2020
6438 Clouds 25 1012 74 10000 4.6 190 15:23 23.10.2020
6439 Clouds 25 1012 69 10000 3.6 180 14:50 23.10.2020
6440 Clouds 25 1012 69 10000 3.6 180 14:32 23.10.2020
6441 Clouds 26 1012 74 10000 4.6 150 13:45 23.10.2020
6442 Clouds 25 1012 74 10000 4.6 150 13:27 23.10.2020
6443 Clouds 25 1013 74 10000 3.1 150 12:52 23.10.2020
6444 Clouds 25 1013 74 10000 3.1 150 12:31 23.10.2020
6445 Clouds 25 1013 78 10000 2.69 159 11:59 23.10.2020
6446 Clouds 25 1013 78 10000 2.69 159 11:41 23.10.2020
6447 Clouds 25 1014 78 10000 1.5 100 11:20 23.10.2020
6448 Clouds 25 1014 78 10000 1.5 100 10:39 23.10.2020
6449 Clouds 25 1014 74 10000 2.54 151 10:20 23.10.2020
6450 Clouds 26 1014 74 10000 2.54 151 09:43 23.10.2020
6451 Clouds 26 1014 69 10000 2.44 161 09:23 23.10.2020
6452 Clouds 26 1014 69 10000 2.44 161 08:52 23.10.2020
6453 Clouds 25 1014 69 10000 2.13 175 08:28 23.10.2020
6454 Clouds 26 1013 69 10000 1.5 140 07:27 23.10.2020
6455 Clouds 26 1013 69 10000 2.1 170 06:52 23.10.2020
6456 Clouds 26 1012 69 10000 2.6 150 06:20 23.10.2020
6457 Clouds 27 1012 65 10000 1.5 170 04:42 23.10.2020
6458 Clouds 27 1012 69 10000 3.6 190 02:28 23.10.2020
6459 Clouds 27 1014 74 10000 3.6 230 00:54 23.10.2020
6460 Clouds 27 1014 74 10000 3.6 230 00:32 23.10.2020
6461 Rain 27 1014 69 10000 3.6 160 23:38 22.10.2020
6462 Clouds 27 1014 69 10000 2.6 160 23:19 22.10.2020
6463 Clouds 27 1014 69 10000 2.6 160 22:45 22.10.2020
6464 Clouds 27 1014 69 10000 2.6 160 22:26 22.10.2020
6465 Clouds 26 1014 74 10000 2.1 340 21:56 22.10.2020
6466 Clouds 26 1014 74 10000 2.1 340 21:37 22.10.2020
6467 Clouds 25 1014 78 10000 2.1 10 21:18 22.10.2020
6468 Clouds 25 1014 78 10000 2.1 10 20:42 22.10.2020
6469 Clouds 25 1014 78 10000 2.1 10 20:24 22.10.2020
6470 Clouds 23 1013 88 10000 1.5 10 19:43 22.10.2020
6471 Clouds 23 1013 88 10000 1.24 48 19:20 22.10.2020
6472 Clouds 23 1013 88 10000 1.24 48 18:44 22.10.2020
6473 Clear 23 1012 88 10000 1.5 360 18:22 22.10.2020
6474 Clear 23 1012 88 10000 1.5 360 17:48 22.10.2020
6475 Clear 23 1012 88 10000 2.1 330 17:26 22.10.2020
6476 Clear 23 1012 88 10000 2.1 330 16:59 22.10.2020
6477 Clear 23 1012 88 10000 2.1 330 16:41 22.10.2020
6478 Clear 23 1013 88 10000 1.5 360 16:23 22.10.2020
6479 Rain 23 1013 88 10000 1.5 360 15:48 22.10.2020
6480 Rain 23 1013 88 10000 1.5 360 15:26 22.10.2020
6481 Clouds 24 1013 88 10000 1.21 3 14:50 22.10.2020
6482 Clouds 24 1013 88 10000 0.84 12 14:26 22.10.2020
6483 Clouds 24 1013 88 10000 0.84 12 14:26 22.10.2020
6484 Clouds 24 1014 88 10000 0.84 12 13:49 22.10.2020
6485 Clouds 24 1014 94 10000 1.08 10 13:24 22.10.2020
6486 Clouds 24 1014 94 10000 1.08 10 12:57 22.10.2020
6487 Clouds 24 1014 94 10000 1.25 16 12:27 22.10.2020
6488 Clouds 24 1014 88 10000 2.1 350 11:50 22.10.2020
6489 Rain 24 1014 88 10000 2.1 340 11:20 22.10.2020
6490 Rain 24 1014 88 10000 2.1 340 10:52 22.10.2020
6491 Rain 24 1014 88 10000 2.1 340 10:29 22.10.2020
6492 Rain 24 1014 94 10000 1.29 356 09:54 22.10.2020
6493 Rain 24 1014 94 10000 1.29 356 09:35 22.10.2020
6494 Clouds 24 1014 94 10000 1.11 332 08:53 22.10.2020
6495 Clouds 24 1014 94 10000 1.46 310 08:32 22.10.2020
6496 Rain 24 1013 94 8047 2.1 80 07:58 22.10.2020
6497 Rain 24 1013 94 8047 2.1 80 07:40 22.10.2020
6498 Rain 24 1013 88 6437 4.1 130 06:58 22.10.2020
6499 Rain 24 1013 94 1609 4.1 70 06:35 22.10.2020
6500 Rain 27 1012 69 10000 2.6 160 05:42 22.10.2020
6501 Rain 26 1012 69 10000 3.6 160 05:19 22.10.2020
6502 Clouds 27 1013 69 10000 5.1 170 01:53 22.10.2020
6503 Clouds 27 1014 69 10000 6.2 160 00:27 22.10.2020
6504 Clouds 27 1014 74 10000 5.1 150 23:57 21.10.2020
6505 Rain 27 1014 74 10000 5.1 150 23:33 21.10.2020
6506 Clouds 27 1015 69 10000 3.1 130 22:44 21.10.2020
6507 Rain 26 1015 74 10000 1.01 36 22:20 21.10.2020
6508 Rain 26 1015 74 10000 1.01 36 22:20 21.10.2020
6509 Rain 26 1015 74 10000 1.01 36 22:20 21.10.2020
6510 Rain 26 1015 74 10000 1.01 36 21:57 21.10.2020
6511 Rain 26 1015 74 10000 1.01 36 21:38 21.10.2020
6512 Clouds 25 1014 78 10000 1.45 12 21:18 21.10.2020
6513 Clouds 25 1014 78 10000 1.45 12 20:48 21.10.2020
6514 Clouds 25 1014 83 10000 2.6 290 20:19 21.10.2020
6515 Clouds 24 1014 83 10000 2.6 290 19:48 21.10.2020
6516 Clouds 24 1014 83 10000 2.6 290 19:26 21.10.2020
6517 Clouds 24 1013 78 10000 1.35 21 18:54 21.10.2020
6518 Clouds 24 1013 78 10000 1.35 21 18:36 21.10.2020
6519 Clouds 24 1013 83 10000 1.5 40 18:18 21.10.2020
6520 Clouds 24 1013 83 10000 1.5 40 17:41 21.10.2020
6521 Clouds 24 1013 83 10000 1 333 17:19 21.10.2020
6522 Clouds 24 1013 83 10000 1 333 16:41 21.10.2020
6523 Clouds 24 1013 83 10000 0.98 297 16:21 21.10.2020
6524 Clear 23 1013 88 10000 2.6 80 15:55 21.10.2020
6525 Clear 23 1013 88 10000 2.6 80 15:36 21.10.2020
6526 Rain 24 1013 83 10000 2.6 330 15:18 21.10.2020
6527 Rain 24 1013 83 10000 2.6 330 14:42 21.10.2020
6528 Rain 24 1013 83 10000 2.6 330 14:22 21.10.2020
6529 Clear 24 1013 83 10000 0.75 245 13:42 21.10.2020
6530 Clear 24 1013 83 10000 1.14 218 13:23 21.10.2020
6531 Clear 24 1013 83 10000 2.1 10 12:43 21.10.2020
6532 Clear 24 1013 83 10000 2.1 10 12:23 21.10.2020
6533 Clouds 25 1014 78 10000 2.1 20 11:56 21.10.2020
6534 Clouds 25 1014 78 10000 2.1 20 11:37 21.10.2020
6535 Clouds 25 1014 78 10000 2.1 20 11:18 21.10.2020
6536 Clouds 27 1015 74 10000 2.6 310 10:40 21.10.2020
6537 Clouds 27 1015 74 10000 2.6 310 10:40 21.10.2020
6538 Clouds 27 1015 74 10000 2.6 310 10:21 21.10.2020
6539 Clouds 26 1014 69 10000 1.5 130 09:49 21.10.2020
6540 Clouds 27 1014 69 10000 1.5 130 09:28 21.10.2020
6541 Clouds 27 1014 74 10000 2.1 170 08:42 21.10.2020
6542 Clouds 26 1014 74 10000 2.1 170 08:23 21.10.2020
6543 Clouds 25 1013 69 10000 2.6 150 07:55 21.10.2020
6544 Clouds 25 1013 69 10000 2.6 150 07:20 21.10.2020
6545 Clouds 25 1013 69 10000 3.1 170 06:37 21.10.2020
6546 Clouds 26 1013 69 10000 3.1 170 06:19 21.10.2020
6547 Rain 26 1012 66 10000 4.6 180 03:35 21.10.2020
6548 Rain 27 1013 74 10000 4.1 160 00:26 21.10.2020
6549 Clouds 28 1013 62 10000 4.6 150 23:31 20.10.2020
6550 Clouds 28 1013 62 10000 5.7 140 22:41 20.10.2020
6551 Clouds 28 1013 62 10000 5.7 140 22:23 20.10.2020
6552 Rain 27 1013 65 10000 4.6 150 21:47 20.10.2020
6553 Rain 26 1013 65 10000 4.6 150 21:19 20.10.2020
6554 Clouds 26 1012 65 10000 3.6 160 20:43 20.10.2020
6555 Clouds 26 1012 65 10000 3.6 160 20:24 20.10.2020
6556 Clouds 25 1011 69 10000 3.1 140 19:46 20.10.2020
6557 Clouds 25 1011 69 10000 3.1 140 19:22 20.10.2020
6558 Clouds 25 1011 69 10000 2.6 150 18:59 20.10.2020
6559 Clouds 25 1011 69 10000 2.6 150 18:59 20.10.2020
6560 Clouds 25 1011 69 10000 2.6 150 18:38 20.10.2020
6561 Clouds 25 1011 74 10000 2.6 150 17:51 20.10.2020
6562 Clouds 25 1011 74 10000 2.6 150 17:33 20.10.2020
6563 Clouds 25 1011 74 10000 2.6 150 16:59 20.10.2020
6564 Clouds 25 1011 74 10000 2.6 150 16:40 20.10.2020
6565 Clouds 25 1011 74 10000 2.6 150 16:22 20.10.2020
6566 Rain 25 1011 74 10000 4.6 150 15:46 20.10.2020
6567 Rain 25 1011 74 10000 4.6 150 15:27 20.10.2020
6568 Rain 24 1011 78 10000 2.6 190 14:45 20.10.2020
6569 Rain 25 1011 78 10000 2.6 190 14:25 20.10.2020
6570 Clouds 25 1012 78 10000 2.1 210 13:58 20.10.2020
6571 Clouds 25 1012 78 10000 2.1 210 13:40 20.10.2020
6572 Clouds 25 1012 78 10000 2.1 210 13:19 20.10.2020
6573 Clouds 25 1012 74 10000 3.1 150 12:49 20.10.2020
6574 Clouds 25 1012 74 10000 3.1 150 12:30 20.10.2020
6575 Clouds 25 1012 74 10000 3.1 150 12:30 20.10.2020
6576 Clouds 25 1012 74 10000 4.1 150 11:47 20.10.2020
6577 Clouds 25 1012 74 10000 4.1 150 11:28 20.10.2020
6578 Clouds 25 1013 74 10000 4.1 170 10:43 20.10.2020
6579 Rain 25 1013 74 10000 3.1 140 10:25 20.10.2020
6580 Rain 25 1013 78 10000 2.6 90 09:44 20.10.2020
6581 Clouds 25 1013 78 10000 2.1 100 09:19 20.10.2020
6582 Rain 25 1012 78 10000 4.1 90 08:39 20.10.2020
6583 Rain 25 1012 78 10000 4.1 90 08:19 20.10.2020
6584 Rain 25 1012 78 10000 3.1 90 07:42 20.10.2020
6585 Rain 26 1012 78 10000 3.1 90 07:21 20.10.2020
6586 Rain 27 1011 74 10000 3.6 90 06:19 20.10.2020
6587 Rain 27 1011 69 10000 4.6 130 04:27 20.10.2020
6588 Clouds 28 1011 66 10000 4.1 150 02:30 20.10.2020
6589 Clouds 28 1012 66 10000 4.1 150 01:22 20.10.2020
6590 Clouds 28 1012 66 10000 4.1 150 00:51 20.10.2020
6591 Clouds 28 1012 66 10000 4.1 150 00:26 20.10.2020
6592 Clouds 27 1013 65 10000 3.1 80 23:51 19.10.2020
6593 Clouds 27 1013 65 10000 3.1 80 23:25 19.10.2020
6594 Rain 25 1014 74 10000 4.6 150 22:54 19.10.2020
6595 Rain 26 1014 74 10000 4.6 150 22:26 19.10.2020
6596 Rain 26 1013 78 10000 6.7 160 21:50 19.10.2020
6597 Rain 26 1013 78 10000 6.7 160 21:24 19.10.2020
6598 Rain 26 1013 78 10000 4.1 120 20:59 19.10.2020
6599 Rain 26 1013 78 10000 4.1 120 20:39 19.10.2020
6600 Rain 26 1013 78 10000 4.1 120 20:39 19.10.2020
6601 Rain 25 1013 78 10000 4.1 120 20:18 19.10.2020
6602 Rain 24 1012 83 10000 4.1 155 19:42 19.10.2020
6603 Rain 24 1012 83 10000 3.7 149 19:19 19.10.2020
6604 Clouds 24 1012 83 10000 1.5 10 18:50 19.10.2020
6605 Clouds 24 1011 83 10000 3.65 150 18:20 19.10.2020
6606 Clouds 24 1011 83 10000 3.65 150 17:47 19.10.2020
6607 Clouds 24 1011 83 10000 3.25 154 17:26 19.10.2020
6608 Clouds 24 1011 83 10000 3.25 154 16:53 19.10.2020
6609 Clouds 24 1011 83 10000 3.04 161 16:29 19.10.2020
6610 Clouds 25 1009 79 10000 3.04 161 15:47 19.10.2020
6611 Clouds 25 1009 79 10000 3.11 172 15:26 19.10.2020
6612 Clouds 25 1009 79 10000 3.11 172 14:57 19.10.2020
6613 Rain 25 1009 79 10000 3.41 177 14:28 19.10.2020
6614 Clear 25 1009 79 10000 2.73 165 13:59 19.10.2020
6615 Rain 25 1009 79 10000 3.41 177 13:59 19.10.2020
6616 Clear 25 1009 79 10000 2.73 165 13:41 19.10.2020
6617 Clear 25 1010 79 10000 2.57 167 13:22 19.10.2020
6618 Clear 25 1010 79 10000 2.57 167 12:43 19.10.2020
6619 Clear 25 1010 79 10000 2.39 163 12:25 19.10.2020
6620 Clear 25 1010 79 10000 2.39 163 11:42 19.10.2020
6621 Clouds 26 1013 74 10000 2.1 130 11:21 19.10.2020
6622 Clouds 26 1013 74 10000 2.1 130 10:44 19.10.2020
6623 Clouds 26 1013 74 10000 2.1 130 10:44 19.10.2020
6624 Clouds 26 1013 74 10000 3.1 140 10:21 19.10.2020
6625 Clouds 26 1013 74 10000 3.1 140 09:52 19.10.2020
6626 Clouds 26 1013 74 10000 3.1 140 09:24 19.10.2020
6627 Clouds 26 1012 74 10000 3.1 140 08:49 19.10.2020
6628 Clouds 26 1012 74 10000 3.1 140 08:24 19.10.2020
6629 Clouds 26 1012 74 10000 3.6 170 07:55 19.10.2020
6630 Rain 26 1011 74 10000 4.6 170 07:20 19.10.2020
6631 Rain 26 1011 78 10000 3.6 170 06:20 19.10.2020
6632 Clouds 27 1011 69 10000 3.6 190 04:30 19.10.2020
6633 Clouds 27 1011 69 10000 4.6 150 03:44 19.10.2020
6634 Clouds 29 1013 69 10000 4.6 180 00:59 19.10.2020
6635 Clouds 29 1013 69 10000 4.6 180 00:25 19.10.2020
6636 Clouds 29 1014 66 10000 3.6 190 23:48 18.10.2020
6637 Clouds 29 1014 66 10000 3.6 190 23:26 18.10.2020
6638 Rain 29 1014 66 10000 3.1 160 22:53 18.10.2020
6639 Rain 28 1014 83 10000 2.1 360 22:23 18.10.2020
6640 Rain 27 1014 83 10000 2.1 360 21:56 18.10.2020
6641 Rain 27 1014 83 10000 2.1 360 21:37 18.10.2020
6642 Rain 26 1014 78 10000 3.1 10 21:18 18.10.2020
6643 Rain 25 1014 83 10000 1.5 200 20:40 18.10.2020
6644 Rain 25 1014 83 10000 1.5 200 20:21 18.10.2020
6645 Clouds 25 1013 83 10000 2.1 360 19:44 18.10.2020
6646 Clouds 25 1013 83 10000 2.1 360 19:26 18.10.2020
6647 Rain 24 1012 83 10000 1.5 340 18:49 18.10.2020
6648 Rain 24 1012 83 10000 1.5 340 18:28 18.10.2020
6649 Clouds 25 1012 83 10000 3.32 152 17:44 18.10.2020
6650 Clouds 25 1012 83 10000 3.63 149 17:25 18.10.2020
6651 Clouds 25 1012 83 10000 3.63 149 16:55 18.10.2020
6652 Clouds 25 1012 83 10000 1.5 60 16:37 18.10.2020
6653 Clouds 24 1013 83 10000 1.5 320 16:18 18.10.2020
6654 Clouds 24 1013 83 10000 1.5 320 15:41 18.10.2020
6655 Clouds 24 1013 83 10000 1.5 330 15:19 18.10.2020
6656 Clouds 24 1013 83 10000 1.5 330 14:54 18.10.2020
6657 Clouds 24 1013 83 10000 1.5 330 14:29 18.10.2020
6658 Clouds 25 1013 78 10000 1.5 80 13:56 18.10.2020
6659 Clouds 25 1013 78 10000 1.5 80 13:38 18.10.2020
6660 Clouds 25 1014 78 10000 1.5 320 13:19 18.10.2020
6661 Clouds 25 1014 78 10000 1.5 320 12:42 18.10.2020
6662 Clouds 25 1014 74 10000 3.6 90 12:21 18.10.2020
6663 Clouds 25 1014 74 10000 3.6 90 11:42 18.10.2020